<?xml version="1.0"?>
<gpx
 version="1.1"
 creator="Satmap Active 20"
 xmlns:xsi="http://www.w3.org/2001/XMLSchema-instance"
 xmlns="http://www.topografix.com/GPX/1/1"
 xmlns:satmap="http://www.satmap.com/updates/xmlschemas/GpxExtensions/v2/GpxExtensions_v2.xsd"
 xsi:schemaLocation="http://www.topografix.com/GPX/1/1 http://www.topografix.com/GPX/1/1/gpx.xsd">
<metadata>
<time>2020-12-26T10:43:01Z</time>
<extensions>
<satmap:platform>43</satmap:platform>
<satmap:software version="3.13.037">SM15.exe</satmap:software>
<satmap:username>pieter metz</satmap:username>
<satmap:network_ids>
<satmap:network_id type="wifi">00-23-A7-CA-E3-5C</satmap:network_id>
<satmap:network_id type="bluetooth">80-BB-EB-78-4F-29</satmap:network_id>
</satmap:network_ids>
<satmap:snap_type>simple</satmap:snap_type>
</extensions>
</metadata>
<trk>
<name>2020-12-26_1043</name>
<desc>Track 1</desc>
<number>1</number>
<trkseg>
<trkpt lat="52.042770" lon="05.808839"><ele>41.1</ele><time>2020-12-26T10:43:01Z</time><name>PT1</name></trkpt>
<trkpt lat="52.042765" lon="05.808840"><ele>41.2</ele><time>2020-12-26T10:43:06Z</time><name>PT2</name></trkpt>
<trkpt lat="52.042756" lon="05.808837"><ele>41.7</ele><time>2020-12-26T10:43:07Z</time><name>PT3</name></trkpt>
<trkpt lat="52.042747" lon="05.808838"><ele>41.7</ele><time>2020-12-26T10:43:08Z</time><name>PT4</name></trkpt>
<trkpt lat="52.042737" lon="05.808838"><ele>41.1</ele><time>2020-12-26T10:43:09Z</time><name>PT5</name></trkpt>
<trkpt lat="52.042731" lon="05.808838"><ele>40.2</ele><time>2020-12-26T10:43:10Z</time><name>PT6</name></trkpt>
<trkpt lat="52.042725" lon="05.808840"><ele>39.9</ele><time>2020-12-26T10:43:11Z</time><name>PT7</name></trkpt>
<trkpt lat="52.042720" lon="05.808841"><ele>39.3</ele><time>2020-12-26T10:43:12Z</time><name>PT8</name></trkpt>
<trkpt lat="52.042720" lon="05.808840"><ele>40.8</ele><time>2020-12-26T10:43:27Z</time><name>PT9</name></trkpt>
<trkpt lat="52.042716" lon="05.808837"><ele>40.6</ele><time>2020-12-26T10:43:28Z</time><name>PT10</name></trkpt>
<trkpt lat="52.042713" lon="05.808835"><ele>40.6</ele><time>2020-12-26T10:43:29Z</time><name>PT11</name></trkpt>
<trkpt lat="52.042711" lon="05.808831"><ele>40.4</ele><time>2020-12-26T10:43:30Z</time><name>PT12</name></trkpt>
<trkpt lat="52.042704" lon="05.808828"><ele>40.4</ele><time>2020-12-26T10:43:31Z</time><name>PT13</name></trkpt>
<trkpt lat="52.042695" lon="05.808820"><ele>40.6</ele><time>2020-12-26T10:43:32Z</time><name>PT14</name></trkpt>
<trkpt lat="52.042689" lon="05.808809"><ele>40.8</ele><time>2020-12-26T10:43:33Z</time><name>PT15</name></trkpt>
<trkpt lat="52.042684" lon="05.808803"><ele>40.8</ele><time>2020-12-26T10:43:34Z</time><name>PT16</name></trkpt>
<trkpt lat="52.042680" lon="05.808798"><ele>40.8</ele><time>2020-12-26T10:43:35Z</time><name>PT17</name></trkpt>
<trkpt lat="52.042679" lon="05.808791"><ele>40.8</ele><time>2020-12-26T10:43:36Z</time><name>PT18</name></trkpt>
<trkpt lat="52.042676" lon="05.808783"><ele>40.6</ele><time>2020-12-26T10:43:37Z</time><name>PT19</name></trkpt>
<trkpt lat="52.042673" lon="05.808777"><ele>40.7</ele><time>2020-12-26T10:43:38Z</time><name>PT20</name></trkpt>
<trkpt lat="52.042673" lon="05.808772"><ele>40.7</ele><time>2020-12-26T10:43:39Z</time><name>PT21</name></trkpt>
<trkpt lat="52.042673" lon="05.808771"><ele>40.6</ele><time>2020-12-26T10:43:40Z</time><name>PT22</name></trkpt>
<trkpt lat="52.042673" lon="05.808771"><ele>40.5</ele><time>2020-12-26T10:43:41Z</time><name>PT23</name></trkpt>
<trkpt lat="52.042672" lon="05.808771"><ele>40.5</ele><time>2020-12-26T10:43:42Z</time><name>PT24</name></trkpt>
<trkpt lat="52.042669" lon="05.808777"><ele>40.6</ele><time>2020-12-26T10:44:23Z</time><name>PT25</name></trkpt>
<trkpt lat="52.042658" lon="05.808774"><ele>40.7</ele><time>2020-12-26T10:44:24Z</time><name>PT26</name></trkpt>
<trkpt lat="52.042642" lon="05.808758"><ele>40.6</ele><time>2020-12-26T10:44:25Z</time><name>PT27</name></trkpt>
<trkpt lat="52.042629" lon="05.808752"><ele>40.4</ele><time>2020-12-26T10:44:26Z</time><name>PT28</name></trkpt>
<trkpt lat="52.042620" lon="05.808746"><ele>40.4</ele><time>2020-12-26T10:44:27Z</time><name>PT29</name></trkpt>
<trkpt lat="52.042612" lon="05.808736"><ele>40.2</ele><time>2020-12-26T10:44:28Z</time><name>PT30</name></trkpt>
<trkpt lat="52.042607" lon="05.808727"><ele>39.9</ele><time>2020-12-26T10:44:29Z</time><name>PT31</name></trkpt>
<trkpt lat="52.042598" lon="05.808726"><ele>40.1</ele><time>2020-12-26T10:44:30Z</time><name>PT32</name></trkpt>
<trkpt lat="52.042589" lon="05.808723"><ele>40</ele><time>2020-12-26T10:44:31Z</time><name>PT33</name></trkpt>
<trkpt lat="52.042581" lon="05.808723"><ele>40</ele><time>2020-12-26T10:44:32Z</time><name>PT34</name></trkpt>
<trkpt lat="52.042572" lon="05.808724"><ele>40.2</ele><time>2020-12-26T10:44:33Z</time><name>PT35</name></trkpt>
<trkpt lat="52.042565" lon="05.808722"><ele>40</ele><time>2020-12-26T10:44:34Z</time><name>PT36</name></trkpt>
<trkpt lat="52.042560" lon="05.808723"><ele>40</ele><time>2020-12-26T10:44:35Z</time><name>PT37</name></trkpt>
<trkpt lat="52.042558" lon="05.808722"><ele>39.9</ele><time>2020-12-26T10:44:36Z</time><name>PT38</name></trkpt>
<trkpt lat="52.042556" lon="05.808720"><ele>39.8</ele><time>2020-12-26T10:44:37Z</time><name>PT39</name></trkpt>
<trkpt lat="52.042547" lon="05.808710"><ele>40.1</ele><time>2020-12-26T10:44:41Z</time><name>PT40</name></trkpt>
<trkpt lat="52.042544" lon="05.808705"><ele>40.1</ele><time>2020-12-26T10:44:42Z</time><name>PT41</name></trkpt>
<trkpt lat="52.042540" lon="05.808701"><ele>39.8</ele><time>2020-12-26T10:44:43Z</time><name>PT42</name></trkpt>
<trkpt lat="52.042537" lon="05.808698"><ele>39.8</ele><time>2020-12-26T10:44:44Z</time><name>PT43</name></trkpt>
<trkpt lat="52.042528" lon="05.808699"><ele>39.9</ele><time>2020-12-26T10:44:45Z</time><name>PT44</name></trkpt>
<trkpt lat="52.042520" lon="05.808698"><ele>39.8</ele><time>2020-12-26T10:44:46Z</time><name>PT45</name></trkpt>
<trkpt lat="52.042514" lon="05.808688"><ele>39.9</ele><time>2020-12-26T10:44:47Z</time><name>PT46</name></trkpt>
<trkpt lat="52.042507" lon="05.808690"><ele>39.9</ele><time>2020-12-26T10:44:48Z</time><name>PT47</name></trkpt>
<trkpt lat="52.042500" lon="05.808694"><ele>39.9</ele><time>2020-12-26T10:44:49Z</time><name>PT48</name></trkpt>
<trkpt lat="52.042497" lon="05.808695"><ele>39.9</ele><time>2020-12-26T10:44:50Z</time><name>PT49</name></trkpt>
<trkpt lat="52.042501" lon="05.808701"><ele>39.5</ele><time>2020-12-26T10:44:55Z</time><name>PT50</name></trkpt>
<trkpt lat="52.042493" lon="05.808696"><ele>39.7</ele><time>2020-12-26T10:44:56Z</time><name>PT51</name></trkpt>
<trkpt lat="52.042485" lon="05.808693"><ele>39.6</ele><time>2020-12-26T10:44:57Z</time><name>PT52</name></trkpt>
<trkpt lat="52.042485" lon="05.808700"><ele>39.5</ele><time>2020-12-26T10:44:58Z</time><name>PT53</name></trkpt>
<trkpt lat="52.042485" lon="05.808698"><ele>39.5</ele><time>2020-12-26T10:44:59Z</time><name>PT54</name></trkpt>
<trkpt lat="52.042486" lon="05.808703"><ele>39.4</ele><time>2020-12-26T10:45:00Z</time><name>PT55</name></trkpt>
<trkpt lat="52.042484" lon="05.808700"><ele>39.4</ele><time>2020-12-26T10:45:01Z</time><name>PT56</name></trkpt>
<trkpt lat="52.042483" lon="05.808700"><ele>39.4</ele><time>2020-12-26T10:45:02Z</time><name>PT57</name></trkpt>
<trkpt lat="52.042483" lon="05.808707"><ele>39.5</ele><time>2020-12-26T10:45:03Z</time><name>PT58</name></trkpt>
<trkpt lat="52.042482" lon="05.808706"><ele>39.4</ele><time>2020-12-26T10:45:04Z</time><name>PT59</name></trkpt>
<trkpt lat="52.042479" lon="05.808703"><ele>39.4</ele><time>2020-12-26T10:45:05Z</time><name>PT60</name></trkpt>
<trkpt lat="52.042480" lon="05.808699"><ele>39.2</ele><time>2020-12-26T10:45:06Z</time><name>PT61</name></trkpt>
<trkpt lat="52.042479" lon="05.808699"><ele>39.2</ele><time>2020-12-26T10:45:07Z</time><name>PT62</name></trkpt>
<trkpt lat="52.042483" lon="05.808693"><ele>39.4</ele><time>2020-12-26T10:45:08Z</time><name>PT63</name></trkpt>
<trkpt lat="52.042478" lon="05.808692"><ele>39.5</ele><time>2020-12-26T10:45:09Z</time><name>PT64</name></trkpt>
<trkpt lat="52.042476" lon="05.808692"><ele>39.6</ele><time>2020-12-26T10:45:10Z</time><name>PT65</name></trkpt>
<trkpt lat="52.042471" lon="05.808692"><ele>39.5</ele><time>2020-12-26T10:45:11Z</time><name>PT66</name></trkpt>
<trkpt lat="52.042468" lon="05.808687"><ele>39.5</ele><time>2020-12-26T10:45:12Z</time><name>PT67</name></trkpt>
<trkpt lat="52.042462" lon="05.808682"><ele>39.4</ele><time>2020-12-26T10:45:13Z</time><name>PT68</name></trkpt>
<trkpt lat="52.042455" lon="05.808683"><ele>39.5</ele><time>2020-12-26T10:45:14Z</time><name>PT69</name></trkpt>
<trkpt lat="52.042454" lon="05.808684"><ele>39.4</ele><time>2020-12-26T10:45:15Z</time><name>PT70</name></trkpt>
<trkpt lat="52.042453" lon="05.808684"><ele>39.5</ele><time>2020-12-26T10:45:16Z</time><name>PT71</name></trkpt>
<trkpt lat="52.042453" lon="05.808684"><ele>39.5</ele><time>2020-12-26T10:45:17Z</time><name>PT72</name></trkpt>
<trkpt lat="52.042448" lon="05.808685"><ele>39.5</ele><time>2020-12-26T10:45:18Z</time><name>PT73</name></trkpt>
<trkpt lat="52.042443" lon="05.808682"><ele>39.6</ele><time>2020-12-26T10:45:19Z</time><name>PT74</name></trkpt>
<trkpt lat="52.042435" lon="05.808676"><ele>39.5</ele><time>2020-12-26T10:45:20Z</time><name>PT75</name></trkpt>
<trkpt lat="52.042427" lon="05.808672"><ele>39.6</ele><time>2020-12-26T10:45:21Z</time><name>PT76</name></trkpt>
<trkpt lat="52.042418" lon="05.808668"><ele>39.6</ele><time>2020-12-26T10:45:22Z</time><name>PT77</name></trkpt>
<trkpt lat="52.042413" lon="05.808667"><ele>39.6</ele><time>2020-12-26T10:45:23Z</time><name>PT78</name></trkpt>
<trkpt lat="52.042406" lon="05.808669"><ele>39.5</ele><time>2020-12-26T10:45:24Z</time><name>PT79</name></trkpt>
<trkpt lat="52.042400" lon="05.808665"><ele>39</ele><time>2020-12-26T10:45:25Z</time><name>PT80</name></trkpt>
<trkpt lat="52.042395" lon="05.808662"><ele>38.6</ele><time>2020-12-26T10:45:26Z</time><name>PT81</name></trkpt>
<trkpt lat="52.042387" lon="05.808656"><ele>38.8</ele><time>2020-12-26T10:45:27Z</time><name>PT82</name></trkpt>
<trkpt lat="52.042380" lon="05.808654"><ele>38.8</ele><time>2020-12-26T10:45:28Z</time><name>PT83</name></trkpt>
<trkpt lat="52.042375" lon="05.808651"><ele>38.8</ele><time>2020-12-26T10:45:29Z</time><name>PT84</name></trkpt>
<trkpt lat="52.042368" lon="05.808646"><ele>39.5</ele><time>2020-12-26T10:45:30Z</time><name>PT85</name></trkpt>
<trkpt lat="52.042366" lon="05.808641"><ele>39.8</ele><time>2020-12-26T10:45:31Z</time><name>PT86</name></trkpt>
<trkpt lat="52.042357" lon="05.808633"><ele>39.9</ele><time>2020-12-26T10:45:32Z</time><name>PT87</name></trkpt>
<trkpt lat="52.042344" lon="05.808622"><ele>40.1</ele><time>2020-12-26T10:45:33Z</time><name>PT88</name></trkpt>
<trkpt lat="52.042333" lon="05.808613"><ele>40.1</ele><time>2020-12-26T10:45:34Z</time><name>PT89</name></trkpt>
<trkpt lat="52.042322" lon="05.808606"><ele>40</ele><time>2020-12-26T10:45:35Z</time><name>PT90</name></trkpt>
<trkpt lat="52.042311" lon="05.808597"><ele>40</ele><time>2020-12-26T10:45:36Z</time><name>PT91</name></trkpt>
<trkpt lat="52.042303" lon="05.808581"><ele>39.9</ele><time>2020-12-26T10:45:37Z</time><name>PT92</name></trkpt>
<trkpt lat="52.042293" lon="05.808572"><ele>39.9</ele><time>2020-12-26T10:45:38Z</time><name>PT93</name></trkpt>
<trkpt lat="52.042287" lon="05.808563"><ele>39.7</ele><time>2020-12-26T10:45:39Z</time><name>PT94</name></trkpt>
<trkpt lat="52.042281" lon="05.808559"><ele>39.7</ele><time>2020-12-26T10:45:40Z</time><name>PT95</name></trkpt>
<trkpt lat="52.042279" lon="05.808556"><ele>39.7</ele><time>2020-12-26T10:45:41Z</time><name>PT96</name></trkpt>
<trkpt lat="52.042279" lon="05.808552"><ele>39.8</ele><time>2020-12-26T10:45:42Z</time><name>PT97</name></trkpt>
<trkpt lat="52.042276" lon="05.808550"><ele>39.9</ele><time>2020-12-26T10:45:43Z</time><name>PT98</name></trkpt>
<trkpt lat="52.042270" lon="05.808547"><ele>39.8</ele><time>2020-12-26T10:45:44Z</time><name>PT99</name></trkpt>
<trkpt lat="52.042261" lon="05.808543"><ele>39.7</ele><time>2020-12-26T10:45:45Z</time><name>PT100</name></trkpt>
<trkpt lat="52.042251" lon="05.808538"><ele>39.8</ele><time>2020-12-26T10:45:46Z</time><name>PT101</name></trkpt>
<trkpt lat="52.042246" lon="05.808532"><ele>39.8</ele><time>2020-12-26T10:45:47Z</time><name>PT102</name></trkpt>
<trkpt lat="52.042243" lon="05.808529"><ele>39.9</ele><time>2020-12-26T10:45:48Z</time><name>PT103</name></trkpt>
<trkpt lat="52.042242" lon="05.808536"><ele>39.7</ele><time>2020-12-26T10:45:49Z</time><name>PT104</name></trkpt>
<trkpt lat="52.042243" lon="05.808548"><ele>39.7</ele><time>2020-12-26T10:45:50Z</time><name>PT105</name></trkpt>
<trkpt lat="52.042242" lon="05.808559"><ele>39.7</ele><time>2020-12-26T10:45:51Z</time><name>PT106</name></trkpt>
<trkpt lat="52.042239" lon="05.808565"><ele>39.6</ele><time>2020-12-26T10:45:52Z</time><name>PT107</name></trkpt>
<trkpt lat="52.042239" lon="05.808568"><ele>39.9</ele><time>2020-12-26T10:45:53Z</time><name>PT108</name></trkpt>
<trkpt lat="52.042236" lon="05.808572"><ele>39.9</ele><time>2020-12-26T10:45:54Z</time><name>PT109</name></trkpt>
<trkpt lat="52.042233" lon="05.808580"><ele>40</ele><time>2020-12-26T10:45:55Z</time><name>PT110</name></trkpt>
<trkpt lat="52.042231" lon="05.808582"><ele>40.1</ele><time>2020-12-26T10:45:56Z</time><name>PT111</name></trkpt>
<trkpt lat="52.042233" lon="05.808582"><ele>39.9</ele><time>2020-12-26T10:45:57Z</time><name>PT112</name></trkpt>
<trkpt lat="52.042231" lon="05.808580"><ele>39.9</ele><time>2020-12-26T10:45:58Z</time><name>PT113</name></trkpt>
<trkpt lat="52.042231" lon="05.808577"><ele>39.9</ele><time>2020-12-26T10:45:59Z</time><name>PT114</name></trkpt>
<trkpt lat="52.042233" lon="05.808578"><ele>39.7</ele><time>2020-12-26T10:46:00Z</time><name>PT115</name></trkpt>
<trkpt lat="52.042235" lon="05.808576"><ele>39.8</ele><time>2020-12-26T10:46:01Z</time><name>PT116</name></trkpt>
<trkpt lat="52.042234" lon="05.808575"><ele>39.9</ele><time>2020-12-26T10:46:02Z</time><name>PT117</name></trkpt>
<trkpt lat="52.042236" lon="05.808574"><ele>39.9</ele><time>2020-12-26T10:46:03Z</time><name>PT118</name></trkpt>
<trkpt lat="52.042232" lon="05.808559"><ele>39.9</ele><time>2020-12-26T10:46:20Z</time><name>PT119</name></trkpt>
<trkpt lat="52.042234" lon="05.808538"><ele>39.8</ele><time>2020-12-26T10:46:21Z</time><name>PT120</name></trkpt>
<trkpt lat="52.042237" lon="05.808519"><ele>39.9</ele><time>2020-12-26T10:46:22Z</time><name>PT121</name></trkpt>
<trkpt lat="52.042236" lon="05.808502"><ele>39.9</ele><time>2020-12-26T10:46:23Z</time><name>PT122</name></trkpt>
<trkpt lat="52.042229" lon="05.808488"><ele>39.9</ele><time>2020-12-26T10:46:24Z</time><name>PT123</name></trkpt>
<trkpt lat="52.042219" lon="05.808476"><ele>39.9</ele><time>2020-12-26T10:46:25Z</time><name>PT124</name></trkpt>
<trkpt lat="52.042211" lon="05.808465"><ele>39.9</ele><time>2020-12-26T10:46:26Z</time><name>PT125</name></trkpt>
<trkpt lat="52.042205" lon="05.808455"><ele>39.6</ele><time>2020-12-26T10:46:27Z</time><name>PT126</name></trkpt>
<trkpt lat="52.042205" lon="05.808454"><ele>39.6</ele><time>2020-12-26T10:46:28Z</time><name>PT127</name></trkpt>
<trkpt lat="52.042205" lon="05.808453"><ele>39.6</ele><time>2020-12-26T10:46:29Z</time><name>PT128</name></trkpt>
<trkpt lat="52.042206" lon="05.808455"><ele>39.5</ele><time>2020-12-26T10:46:30Z</time><name>PT129</name></trkpt>
<trkpt lat="52.042203" lon="05.808467"><ele>39.6</ele><time>2020-12-26T10:46:35Z</time><name>PT130</name></trkpt>
<trkpt lat="52.042202" lon="05.808452"><ele>39.6</ele><time>2020-12-26T10:46:36Z</time><name>PT131</name></trkpt>
<trkpt lat="52.042199" lon="05.808440"><ele>39.5</ele><time>2020-12-26T10:46:37Z</time><name>PT132</name></trkpt>
<trkpt lat="52.042194" lon="05.808430"><ele>39.5</ele><time>2020-12-26T10:46:38Z</time><name>PT133</name></trkpt>
<trkpt lat="52.042186" lon="05.808414"><ele>39.5</ele><time>2020-12-26T10:46:39Z</time><name>PT134</name></trkpt>
<trkpt lat="52.042179" lon="05.808399"><ele>39.6</ele><time>2020-12-26T10:46:40Z</time><name>PT135</name></trkpt>
<trkpt lat="52.042174" lon="05.808391"><ele>39.5</ele><time>2020-12-26T10:46:41Z</time><name>PT136</name></trkpt>
<trkpt lat="52.042168" lon="05.808380"><ele>39.7</ele><time>2020-12-26T10:46:42Z</time><name>PT137</name></trkpt>
<trkpt lat="52.042162" lon="05.808374"><ele>39.6</ele><time>2020-12-26T10:46:43Z</time><name>PT138</name></trkpt>
<trkpt lat="52.042154" lon="05.808368"><ele>39.6</ele><time>2020-12-26T10:46:44Z</time><name>PT139</name></trkpt>
<trkpt lat="52.042139" lon="05.808354"><ele>39.6</ele><time>2020-12-26T10:46:45Z</time><name>PT140</name></trkpt>
<trkpt lat="52.042134" lon="05.808343"><ele>39.6</ele><time>2020-12-26T10:46:46Z</time><name>PT141</name></trkpt>
<trkpt lat="52.042129" lon="05.808334"><ele>39.5</ele><time>2020-12-26T10:46:47Z</time><name>PT142</name></trkpt>
<trkpt lat="52.042123" lon="05.808323"><ele>39.4</ele><time>2020-12-26T10:46:48Z</time><name>PT143</name></trkpt>
<trkpt lat="52.042118" lon="05.808312"><ele>39.4</ele><time>2020-12-26T10:46:49Z</time><name>PT144</name></trkpt>
<trkpt lat="52.042111" lon="05.808296"><ele>39.4</ele><time>2020-12-26T10:46:50Z</time><name>PT145</name></trkpt>
<trkpt lat="52.042102" lon="05.808286"><ele>39.5</ele><time>2020-12-26T10:46:51Z</time><name>PT146</name></trkpt>
<trkpt lat="52.042103" lon="05.808268"><ele>39.5</ele><time>2020-12-26T10:46:52Z</time><name>PT147</name></trkpt>
<trkpt lat="52.042099" lon="05.808251"><ele>39.5</ele><time>2020-12-26T10:46:53Z</time><name>PT148</name></trkpt>
<trkpt lat="52.042094" lon="05.808232"><ele>39.5</ele><time>2020-12-26T10:46:54Z</time><name>PT149</name></trkpt>
<trkpt lat="52.042089" lon="05.808215"><ele>39.4</ele><time>2020-12-26T10:46:55Z</time><name>PT150</name></trkpt>
<trkpt lat="52.042084" lon="05.808195"><ele>39.3</ele><time>2020-12-26T10:46:56Z</time><name>PT151</name></trkpt>
<trkpt lat="52.042080" lon="05.808176"><ele>39.2</ele><time>2020-12-26T10:46:57Z</time><name>PT152</name></trkpt>
<trkpt lat="52.042074" lon="05.808156"><ele>39.4</ele><time>2020-12-26T10:46:58Z</time><name>PT153</name></trkpt>
<trkpt lat="52.042068" lon="05.808139"><ele>39.5</ele><time>2020-12-26T10:46:59Z</time><name>PT154</name></trkpt>
<trkpt lat="52.042063" lon="05.808123"><ele>39.5</ele><time>2020-12-26T10:47:00Z</time><name>PT155</name></trkpt>
<trkpt lat="52.042058" lon="05.808104"><ele>39.5</ele><time>2020-12-26T10:47:01Z</time><name>PT156</name></trkpt>
<trkpt lat="52.042052" lon="05.808085"><ele>39.5</ele><time>2020-12-26T10:47:02Z</time><name>PT157</name></trkpt>
<trkpt lat="52.042042" lon="05.808062"><ele>39.5</ele><time>2020-12-26T10:47:03Z</time><name>PT158</name></trkpt>
<trkpt lat="52.042035" lon="05.808045"><ele>39.4</ele><time>2020-12-26T10:47:04Z</time><name>PT159</name></trkpt>
<trkpt lat="52.042030" lon="05.808031"><ele>39.3</ele><time>2020-12-26T10:47:05Z</time><name>PT160</name></trkpt>
<trkpt lat="52.042026" lon="05.808013"><ele>39.2</ele><time>2020-12-26T10:47:06Z</time><name>PT161</name></trkpt>
<trkpt lat="52.042024" lon="05.807994"><ele>39</ele><time>2020-12-26T10:47:07Z</time><name>PT162</name></trkpt>
<trkpt lat="52.042019" lon="05.807975"><ele>39</ele><time>2020-12-26T10:47:08Z</time><name>PT163</name></trkpt>
<trkpt lat="52.042014" lon="05.807958"><ele>39.1</ele><time>2020-12-26T10:47:09Z</time><name>PT164</name></trkpt>
<trkpt lat="52.042010" lon="05.807939"><ele>39.1</ele><time>2020-12-26T10:47:10Z</time><name>PT165</name></trkpt>
<trkpt lat="52.042008" lon="05.807921"><ele>39</ele><time>2020-12-26T10:47:11Z</time><name>PT166</name></trkpt>
<trkpt lat="52.042002" lon="05.807904"><ele>39.2</ele><time>2020-12-26T10:47:12Z</time><name>PT167</name></trkpt>
<trkpt lat="52.041998" lon="05.807885"><ele>39.3</ele><time>2020-12-26T10:47:13Z</time><name>PT168</name></trkpt>
<trkpt lat="52.041994" lon="05.807866"><ele>39.3</ele><time>2020-12-26T10:47:14Z</time><name>PT169</name></trkpt>
<trkpt lat="52.041988" lon="05.807849"><ele>39.4</ele><time>2020-12-26T10:47:15Z</time><name>PT170</name></trkpt>
<trkpt lat="52.041983" lon="05.807833"><ele>39.3</ele><time>2020-12-26T10:47:16Z</time><name>PT171</name></trkpt>
<trkpt lat="52.041979" lon="05.807817"><ele>39.2</ele><time>2020-12-26T10:47:17Z</time><name>PT172</name></trkpt>
<trkpt lat="52.041973" lon="05.807802"><ele>39.1</ele><time>2020-12-26T10:47:18Z</time><name>PT173</name></trkpt>
<trkpt lat="52.041967" lon="05.807784"><ele>39.1</ele><time>2020-12-26T10:47:19Z</time><name>PT174</name></trkpt>
<trkpt lat="52.041961" lon="05.807766"><ele>39.1</ele><time>2020-12-26T10:47:20Z</time><name>PT175</name></trkpt>
<trkpt lat="52.041959" lon="05.807749"><ele>39</ele><time>2020-12-26T10:47:21Z</time><name>PT176</name></trkpt>
<trkpt lat="52.041954" lon="05.807733"><ele>39</ele><time>2020-12-26T10:47:22Z</time><name>PT177</name></trkpt>
<trkpt lat="52.041947" lon="05.807715"><ele>38.9</ele><time>2020-12-26T10:47:23Z</time><name>PT178</name></trkpt>
<trkpt lat="52.041944" lon="05.807701"><ele>39.1</ele><time>2020-12-26T10:47:24Z</time><name>PT179</name></trkpt>
<trkpt lat="52.041940" lon="05.807686"><ele>39.2</ele><time>2020-12-26T10:47:25Z</time><name>PT180</name></trkpt>
<trkpt lat="52.041933" lon="05.807669"><ele>39.1</ele><time>2020-12-26T10:47:26Z</time><name>PT181</name></trkpt>
<trkpt lat="52.041930" lon="05.807651"><ele>39</ele><time>2020-12-26T10:47:27Z</time><name>PT182</name></trkpt>
<trkpt lat="52.041925" lon="05.807634"><ele>38.9</ele><time>2020-12-26T10:47:28Z</time><name>PT183</name></trkpt>
<trkpt lat="52.041920" lon="05.807616"><ele>38.9</ele><time>2020-12-26T10:47:29Z</time><name>PT184</name></trkpt>
<trkpt lat="52.041912" lon="05.807597"><ele>38.7</ele><time>2020-12-26T10:47:30Z</time><name>PT185</name></trkpt>
<trkpt lat="52.041905" lon="05.807573"><ele>38.5</ele><time>2020-12-26T10:47:31Z</time><name>PT186</name></trkpt>
<trkpt lat="52.041897" lon="05.807554"><ele>38.7</ele><time>2020-12-26T10:47:32Z</time><name>PT187</name></trkpt>
<trkpt lat="52.041890" lon="05.807536"><ele>38.7</ele><time>2020-12-26T10:47:33Z</time><name>PT188</name></trkpt>
<trkpt lat="52.041883" lon="05.807516"><ele>38.9</ele><time>2020-12-26T10:47:34Z</time><name>PT189</name></trkpt>
<trkpt lat="52.041877" lon="05.807500"><ele>39</ele><time>2020-12-26T10:47:35Z</time><name>PT190</name></trkpt>
<trkpt lat="52.041871" lon="05.807481"><ele>39.4</ele><time>2020-12-26T10:47:36Z</time><name>PT191</name></trkpt>
<trkpt lat="52.041867" lon="05.807471"><ele>39.5</ele><time>2020-12-26T10:47:37Z</time><name>PT192</name></trkpt>
<trkpt lat="52.041862" lon="05.807457"><ele>39.8</ele><time>2020-12-26T10:47:38Z</time><name>PT193</name></trkpt>
<trkpt lat="52.041857" lon="05.807437"><ele>39.8</ele><time>2020-12-26T10:47:39Z</time><name>PT194</name></trkpt>
<trkpt lat="52.041852" lon="05.807421"><ele>39.9</ele><time>2020-12-26T10:47:40Z</time><name>PT195</name></trkpt>
<trkpt lat="52.041846" lon="05.807410"><ele>39.9</ele><time>2020-12-26T10:47:41Z</time><name>PT196</name></trkpt>
<trkpt lat="52.041839" lon="05.807395"><ele>39.9</ele><time>2020-12-26T10:47:42Z</time><name>PT197</name></trkpt>
<trkpt lat="52.041832" lon="05.807377"><ele>39.9</ele><time>2020-12-26T10:47:43Z</time><name>PT198</name></trkpt>
<trkpt lat="52.041826" lon="05.807363"><ele>39.9</ele><time>2020-12-26T10:47:44Z</time><name>PT199</name></trkpt>
<trkpt lat="52.041819" lon="05.807348"><ele>39.7</ele><time>2020-12-26T10:47:45Z</time><name>PT200</name></trkpt>
<trkpt lat="52.041812" lon="05.807335"><ele>39.5</ele><time>2020-12-26T10:47:46Z</time><name>PT201</name></trkpt>
<trkpt lat="52.041805" lon="05.807320"><ele>39.4</ele><time>2020-12-26T10:47:47Z</time><name>PT202</name></trkpt>
<trkpt lat="52.041800" lon="05.807302"><ele>39.2</ele><time>2020-12-26T10:47:48Z</time><name>PT203</name></trkpt>
<trkpt lat="52.041795" lon="05.807284"><ele>39.1</ele><time>2020-12-26T10:47:49Z</time><name>PT204</name></trkpt>
<trkpt lat="52.041789" lon="05.807270"><ele>39</ele><time>2020-12-26T10:47:50Z</time><name>PT205</name></trkpt>
<trkpt lat="52.041782" lon="05.807252"><ele>39.2</ele><time>2020-12-26T10:47:51Z</time><name>PT206</name></trkpt>
<trkpt lat="52.041778" lon="05.807234"><ele>39.2</ele><time>2020-12-26T10:47:52Z</time><name>PT207</name></trkpt>
<trkpt lat="52.041771" lon="05.807218"><ele>39.2</ele><time>2020-12-26T10:47:53Z</time><name>PT208</name></trkpt>
<trkpt lat="52.041765" lon="05.807208"><ele>39.5</ele><time>2020-12-26T10:47:54Z</time><name>PT209</name></trkpt>
<trkpt lat="52.041758" lon="05.807196"><ele>39.5</ele><time>2020-12-26T10:47:55Z</time><name>PT210</name></trkpt>
<trkpt lat="52.041752" lon="05.807182"><ele>39.5</ele><time>2020-12-26T10:47:56Z</time><name>PT211</name></trkpt>
<trkpt lat="52.041745" lon="05.807167"><ele>39.7</ele><time>2020-12-26T10:47:57Z</time><name>PT212</name></trkpt>
<trkpt lat="52.041740" lon="05.807154"><ele>39.9</ele><time>2020-12-26T10:47:58Z</time><name>PT213</name></trkpt>
<trkpt lat="52.041734" lon="05.807142"><ele>40</ele><time>2020-12-26T10:47:59Z</time><name>PT214</name></trkpt>
<trkpt lat="52.041727" lon="05.807129"><ele>40.3</ele><time>2020-12-26T10:48:00Z</time><name>PT215</name></trkpt>
<trkpt lat="52.041718" lon="05.807121"><ele>40.4</ele><time>2020-12-26T10:48:01Z</time><name>PT216</name></trkpt>
<trkpt lat="52.041714" lon="05.807110"><ele>40.4</ele><time>2020-12-26T10:48:02Z</time><name>PT217</name></trkpt>
<trkpt lat="52.041711" lon="05.807101"><ele>40.4</ele><time>2020-12-26T10:48:03Z</time><name>PT218</name></trkpt>
<trkpt lat="52.041703" lon="05.807079"><ele>40.4</ele><time>2020-12-26T10:48:04Z</time><name>PT219</name></trkpt>
<trkpt lat="52.041694" lon="05.807076"><ele>40.4</ele><time>2020-12-26T10:48:05Z</time><name>PT220</name></trkpt>
<trkpt lat="52.041686" lon="05.807071"><ele>40.4</ele><time>2020-12-26T10:48:06Z</time><name>PT221</name></trkpt>
<trkpt lat="52.041678" lon="05.807059"><ele>40.4</ele><time>2020-12-26T10:48:07Z</time><name>PT222</name></trkpt>
<trkpt lat="52.041670" lon="05.807050"><ele>40.4</ele><time>2020-12-26T10:48:08Z</time><name>PT223</name></trkpt>
<trkpt lat="52.041659" lon="05.807038"><ele>40.2</ele><time>2020-12-26T10:48:09Z</time><name>PT224</name></trkpt>
<trkpt lat="52.041651" lon="05.807025"><ele>40.2</ele><time>2020-12-26T10:48:10Z</time><name>PT225</name></trkpt>
<trkpt lat="52.041643" lon="05.807013"><ele>40</ele><time>2020-12-26T10:48:11Z</time><name>PT226</name></trkpt>
<trkpt lat="52.041640" lon="05.807001"><ele>40.2</ele><time>2020-12-26T10:48:12Z</time><name>PT227</name></trkpt>
<trkpt lat="52.041635" lon="05.806989"><ele>40.4</ele><time>2020-12-26T10:48:13Z</time><name>PT228</name></trkpt>
<trkpt lat="52.041631" lon="05.806979"><ele>40.4</ele><time>2020-12-26T10:48:14Z</time><name>PT229</name></trkpt>
<trkpt lat="52.041629" lon="05.806971"><ele>40.7</ele><time>2020-12-26T10:48:15Z</time><name>PT230</name></trkpt>
<trkpt lat="52.041624" lon="05.806958"><ele>40.5</ele><time>2020-12-26T10:48:16Z</time><name>PT231</name></trkpt>
<trkpt lat="52.041617" lon="05.806946"><ele>40.6</ele><time>2020-12-26T10:48:17Z</time><name>PT232</name></trkpt>
<trkpt lat="52.041614" lon="05.806930"><ele>40.5</ele><time>2020-12-26T10:48:18Z</time><name>PT233</name></trkpt>
<trkpt lat="52.041610" lon="05.806911"><ele>40.5</ele><time>2020-12-26T10:48:19Z</time><name>PT234</name></trkpt>
<trkpt lat="52.041602" lon="05.806883"><ele>40.4</ele><time>2020-12-26T10:48:20Z</time><name>PT235</name></trkpt>
<trkpt lat="52.041596" lon="05.806861"><ele>40.4</ele><time>2020-12-26T10:48:21Z</time><name>PT236</name></trkpt>
<trkpt lat="52.041589" lon="05.806843"><ele>40.4</ele><time>2020-12-26T10:48:22Z</time><name>PT237</name></trkpt>
<trkpt lat="52.041586" lon="05.806828"><ele>40.3</ele><time>2020-12-26T10:48:23Z</time><name>PT238</name></trkpt>
<trkpt lat="52.041580" lon="05.806812"><ele>40.3</ele><time>2020-12-26T10:48:24Z</time><name>PT239</name></trkpt>
<trkpt lat="52.041571" lon="05.806786"><ele>40.6</ele><time>2020-12-26T10:48:25Z</time><name>PT240</name></trkpt>
<trkpt lat="52.041565" lon="05.806763"><ele>40.7</ele><time>2020-12-26T10:48:26Z</time><name>PT241</name></trkpt>
<trkpt lat="52.041559" lon="05.806740"><ele>40.6</ele><time>2020-12-26T10:48:27Z</time><name>PT242</name></trkpt>
<trkpt lat="52.041554" lon="05.806719"><ele>40.5</ele><time>2020-12-26T10:48:28Z</time><name>PT243</name></trkpt>
<trkpt lat="52.041546" lon="05.806704"><ele>40.5</ele><time>2020-12-26T10:48:29Z</time><name>PT244</name></trkpt>
<trkpt lat="52.041544" lon="05.806686"><ele>40.4</ele><time>2020-12-26T10:48:30Z</time><name>PT245</name></trkpt>
<trkpt lat="52.041538" lon="05.806668"><ele>40.4</ele><time>2020-12-26T10:48:31Z</time><name>PT246</name></trkpt>
<trkpt lat="52.041534" lon="05.806650"><ele>40.5</ele><time>2020-12-26T10:48:32Z</time><name>PT247</name></trkpt>
<trkpt lat="52.041529" lon="05.806633"><ele>40.5</ele><time>2020-12-26T10:48:33Z</time><name>PT248</name></trkpt>
<trkpt lat="52.041530" lon="05.806633"><ele>40.5</ele><time>2020-12-26T10:48:34Z</time><name>PT249</name></trkpt>
<trkpt lat="52.041526" lon="05.806623"><ele>40.4</ele><time>2020-12-26T10:48:35Z</time><name>PT250</name></trkpt>
<trkpt lat="52.041522" lon="05.806627"><ele>40.4</ele><time>2020-12-26T10:48:36Z</time><name>PT251</name></trkpt>
<trkpt lat="52.041521" lon="05.806630"><ele>40.4</ele><time>2020-12-26T10:48:37Z</time><name>PT252</name></trkpt>
<trkpt lat="52.041520" lon="05.806630"><ele>40.5</ele><time>2020-12-26T10:48:38Z</time><name>PT253</name></trkpt>
<trkpt lat="52.041517" lon="05.806628"><ele>40.8</ele><time>2020-12-26T10:48:39Z</time><name>PT254</name></trkpt>
<trkpt lat="52.041513" lon="05.806628"><ele>40.9</ele><time>2020-12-26T10:48:40Z</time><name>PT255</name></trkpt>
<trkpt lat="52.041513" lon="05.806630"><ele>40.9</ele><time>2020-12-26T10:48:41Z</time><name>PT256</name></trkpt>
<trkpt lat="52.041519" lon="05.806615"><ele>40.7</ele><time>2020-12-26T10:49:06Z</time><name>PT257</name></trkpt>
<trkpt lat="52.041521" lon="05.806600"><ele>40.8</ele><time>2020-12-26T10:49:07Z</time><name>PT258</name></trkpt>
<trkpt lat="52.041521" lon="05.806599"><ele>40.6</ele><time>2020-12-26T10:49:08Z</time><name>PT259</name></trkpt>
<trkpt lat="52.041520" lon="05.806598"><ele>40.5</ele><time>2020-12-26T10:49:09Z</time><name>PT260</name></trkpt>
<trkpt lat="52.041517" lon="05.806590"><ele>40.4</ele><time>2020-12-26T10:49:11Z</time><name>PT261</name></trkpt>
<trkpt lat="52.041515" lon="05.806572"><ele>40.4</ele><time>2020-12-26T10:49:12Z</time><name>PT262</name></trkpt>
<trkpt lat="52.041513" lon="05.806563"><ele>40.3</ele><time>2020-12-26T10:49:13Z</time><name>PT263</name></trkpt>
<trkpt lat="52.041514" lon="05.806535"><ele>40.4</ele><time>2020-12-26T10:49:14Z</time><name>PT264</name></trkpt>
<trkpt lat="52.041513" lon="05.806517"><ele>40.4</ele><time>2020-12-26T10:49:15Z</time><name>PT265</name></trkpt>
<trkpt lat="52.041508" lon="05.806499"><ele>40.4</ele><time>2020-12-26T10:49:16Z</time><name>PT266</name></trkpt>
<trkpt lat="52.041502" lon="05.806482"><ele>40.4</ele><time>2020-12-26T10:49:17Z</time><name>PT267</name></trkpt>
<trkpt lat="52.041495" lon="05.806462"><ele>40.2</ele><time>2020-12-26T10:49:18Z</time><name>PT268</name></trkpt>
<trkpt lat="52.041486" lon="05.806439"><ele>40.2</ele><time>2020-12-26T10:49:19Z</time><name>PT269</name></trkpt>
<trkpt lat="52.041482" lon="05.806419"><ele>40.1</ele><time>2020-12-26T10:49:20Z</time><name>PT270</name></trkpt>
<trkpt lat="52.041480" lon="05.806400"><ele>39.9</ele><time>2020-12-26T10:49:21Z</time><name>PT271</name></trkpt>
<trkpt lat="52.041478" lon="05.806382"><ele>40</ele><time>2020-12-26T10:49:22Z</time><name>PT272</name></trkpt>
<trkpt lat="52.041476" lon="05.806365"><ele>39.9</ele><time>2020-12-26T10:49:23Z</time><name>PT273</name></trkpt>
<trkpt lat="52.041474" lon="05.806346"><ele>39.7</ele><time>2020-12-26T10:49:24Z</time><name>PT274</name></trkpt>
<trkpt lat="52.041472" lon="05.806325"><ele>39.8</ele><time>2020-12-26T10:49:25Z</time><name>PT275</name></trkpt>
<trkpt lat="52.041470" lon="05.806302"><ele>39.8</ele><time>2020-12-26T10:49:26Z</time><name>PT276</name></trkpt>
<trkpt lat="52.041472" lon="05.806282"><ele>40</ele><time>2020-12-26T10:49:27Z</time><name>PT277</name></trkpt>
<trkpt lat="52.041472" lon="05.806265"><ele>40.3</ele><time>2020-12-26T10:49:28Z</time><name>PT278</name></trkpt>
<trkpt lat="52.041470" lon="05.806247"><ele>40.4</ele><time>2020-12-26T10:49:29Z</time><name>PT279</name></trkpt>
<trkpt lat="52.041469" lon="05.806235"><ele>40.4</ele><time>2020-12-26T10:49:30Z</time><name>PT280</name></trkpt>
<trkpt lat="52.041470" lon="05.806219"><ele>40.4</ele><time>2020-12-26T10:49:31Z</time><name>PT281</name></trkpt>
<trkpt lat="52.041471" lon="05.806204"><ele>40.4</ele><time>2020-12-26T10:49:32Z</time><name>PT282</name></trkpt>
<trkpt lat="52.041475" lon="05.806188"><ele>40.1</ele><time>2020-12-26T10:49:33Z</time><name>PT283</name></trkpt>
<trkpt lat="52.041475" lon="05.806174"><ele>40.2</ele><time>2020-12-26T10:49:34Z</time><name>PT284</name></trkpt>
<trkpt lat="52.041476" lon="05.806158"><ele>40.1</ele><time>2020-12-26T10:49:35Z</time><name>PT285</name></trkpt>
<trkpt lat="52.041475" lon="05.806136"><ele>40.2</ele><time>2020-12-26T10:49:36Z</time><name>PT286</name></trkpt>
<trkpt lat="52.041476" lon="05.806116"><ele>40.3</ele><time>2020-12-26T10:49:37Z</time><name>PT287</name></trkpt>
<trkpt lat="52.041477" lon="05.806092"><ele>40.2</ele><time>2020-12-26T10:49:38Z</time><name>PT288</name></trkpt>
<trkpt lat="52.041476" lon="05.806069"><ele>40.2</ele><time>2020-12-26T10:49:39Z</time><name>PT289</name></trkpt>
<trkpt lat="52.041472" lon="05.806053"><ele>40.1</ele><time>2020-12-26T10:49:40Z</time><name>PT290</name></trkpt>
<trkpt lat="52.041470" lon="05.806032"><ele>39.9</ele><time>2020-12-26T10:49:41Z</time><name>PT291</name></trkpt>
<trkpt lat="52.041471" lon="05.806018"><ele>40</ele><time>2020-12-26T10:49:42Z</time><name>PT292</name></trkpt>
<trkpt lat="52.041472" lon="05.805997"><ele>39.8</ele><time>2020-12-26T10:49:43Z</time><name>PT293</name></trkpt>
<trkpt lat="52.041472" lon="05.805980"><ele>39.8</ele><time>2020-12-26T10:49:44Z</time><name>PT294</name></trkpt>
<trkpt lat="52.041472" lon="05.805962"><ele>39.9</ele><time>2020-12-26T10:49:45Z</time><name>PT295</name></trkpt>
<trkpt lat="52.041470" lon="05.805944"><ele>39.9</ele><time>2020-12-26T10:49:46Z</time><name>PT296</name></trkpt>
<trkpt lat="52.041462" lon="05.805925"><ele>39.8</ele><time>2020-12-26T10:49:47Z</time><name>PT297</name></trkpt>
<trkpt lat="52.041463" lon="05.805913"><ele>39.8</ele><time>2020-12-26T10:49:48Z</time><name>PT298</name></trkpt>
<trkpt lat="52.041467" lon="05.805902"><ele>39.9</ele><time>2020-12-26T10:49:49Z</time><name>PT299</name></trkpt>
<trkpt lat="52.041470" lon="05.805886"><ele>39.7</ele><time>2020-12-26T10:49:50Z</time><name>PT300</name></trkpt>
<trkpt lat="52.041470" lon="05.805879"><ele>39.5</ele><time>2020-12-26T10:49:51Z</time><name>PT301</name></trkpt>
<trkpt lat="52.041471" lon="05.805874"><ele>39.5</ele><time>2020-12-26T10:49:52Z</time><name>PT302</name></trkpt>
<trkpt lat="52.041471" lon="05.805873"><ele>39.5</ele><time>2020-12-26T10:49:53Z</time><name>PT303</name></trkpt>
<trkpt lat="52.041467" lon="05.805869"><ele>39.5</ele><time>2020-12-26T10:49:54Z</time><name>PT304</name></trkpt>
<trkpt lat="52.041464" lon="05.805866"><ele>39.5</ele><time>2020-12-26T10:49:55Z</time><name>PT305</name></trkpt>
<trkpt lat="52.041459" lon="05.805847"><ele>39.3</ele><time>2020-12-26T10:49:58Z</time><name>PT306</name></trkpt>
<trkpt lat="52.041456" lon="05.805823"><ele>39.3</ele><time>2020-12-26T10:49:59Z</time><name>PT307</name></trkpt>
<trkpt lat="52.041454" lon="05.805797"><ele>39.1</ele><time>2020-12-26T10:50:00Z</time><name>PT308</name></trkpt>
<trkpt lat="52.041453" lon="05.805778"><ele>39</ele><time>2020-12-26T10:50:01Z</time><name>PT309</name></trkpt>
<trkpt lat="52.041445" lon="05.805758"><ele>39</ele><time>2020-12-26T10:50:02Z</time><name>PT310</name></trkpt>
<trkpt lat="52.041442" lon="05.805742"><ele>39</ele><time>2020-12-26T10:50:03Z</time><name>PT311</name></trkpt>
<trkpt lat="52.041442" lon="05.805734"><ele>39.2</ele><time>2020-12-26T10:50:04Z</time><name>PT312</name></trkpt>
<trkpt lat="52.041440" lon="05.805725"><ele>39.4</ele><time>2020-12-26T10:50:05Z</time><name>PT313</name></trkpt>
<trkpt lat="52.041433" lon="05.805712"><ele>39.6</ele><time>2020-12-26T10:50:06Z</time><name>PT314</name></trkpt>
<trkpt lat="52.041426" lon="05.805695"><ele>39.5</ele><time>2020-12-26T10:50:07Z</time><name>PT315</name></trkpt>
<trkpt lat="52.041419" lon="05.805686"><ele>39.6</ele><time>2020-12-26T10:50:08Z</time><name>PT316</name></trkpt>
<trkpt lat="52.041410" lon="05.805672"><ele>39.5</ele><time>2020-12-26T10:50:09Z</time><name>PT317</name></trkpt>
<trkpt lat="52.041399" lon="05.805667"><ele>39.4</ele><time>2020-12-26T10:50:10Z</time><name>PT318</name></trkpt>
<trkpt lat="52.041390" lon="05.805665"><ele>39.2</ele><time>2020-12-26T10:50:11Z</time><name>PT319</name></trkpt>
<trkpt lat="52.041381" lon="05.805665"><ele>39.3</ele><time>2020-12-26T10:50:12Z</time><name>PT320</name></trkpt>
<trkpt lat="52.041374" lon="05.805654"><ele>39</ele><time>2020-12-26T10:50:13Z</time><name>PT321</name></trkpt>
<trkpt lat="52.041364" lon="05.805644"><ele>39.1</ele><time>2020-12-26T10:50:14Z</time><name>PT322</name></trkpt>
<trkpt lat="52.041354" lon="05.805638"><ele>39.1</ele><time>2020-12-26T10:50:15Z</time><name>PT323</name></trkpt>
<trkpt lat="52.041345" lon="05.805632"><ele>39.1</ele><time>2020-12-26T10:50:16Z</time><name>PT324</name></trkpt>
<trkpt lat="52.041335" lon="05.805626"><ele>39.1</ele><time>2020-12-26T10:50:17Z</time><name>PT325</name></trkpt>
<trkpt lat="52.041321" lon="05.805623"><ele>39.4</ele><time>2020-12-26T10:50:18Z</time><name>PT326</name></trkpt>
<trkpt lat="52.041311" lon="05.805618"><ele>39.4</ele><time>2020-12-26T10:50:19Z</time><name>PT327</name></trkpt>
<trkpt lat="52.041301" lon="05.805612"><ele>39.4</ele><time>2020-12-26T10:50:20Z</time><name>PT328</name></trkpt>
<trkpt lat="52.041294" lon="05.805604"><ele>39.4</ele><time>2020-12-26T10:50:21Z</time><name>PT329</name></trkpt>
<trkpt lat="52.041288" lon="05.805594"><ele>39.1</ele><time>2020-12-26T10:50:22Z</time><name>PT330</name></trkpt>
<trkpt lat="52.041281" lon="05.805590"><ele>39</ele><time>2020-12-26T10:50:23Z</time><name>PT331</name></trkpt>
<trkpt lat="52.041271" lon="05.805587"><ele>39.1</ele><time>2020-12-26T10:50:24Z</time><name>PT332</name></trkpt>
<trkpt lat="52.041262" lon="05.805579"><ele>39.2</ele><time>2020-12-26T10:50:25Z</time><name>PT333</name></trkpt>
<trkpt lat="52.041257" lon="05.805569"><ele>39.2</ele><time>2020-12-26T10:50:26Z</time><name>PT334</name></trkpt>
<trkpt lat="52.041251" lon="05.805559"><ele>39.5</ele><time>2020-12-26T10:50:27Z</time><name>PT335</name></trkpt>
<trkpt lat="52.041246" lon="05.805547"><ele>39.7</ele><time>2020-12-26T10:50:28Z</time><name>PT336</name></trkpt>
<trkpt lat="52.041243" lon="05.805537"><ele>39.9</ele><time>2020-12-26T10:50:29Z</time><name>PT337</name></trkpt>
<trkpt lat="52.041235" lon="05.805532"><ele>39.9</ele><time>2020-12-26T10:50:30Z</time><name>PT338</name></trkpt>
<trkpt lat="52.041229" lon="05.805524"><ele>40</ele><time>2020-12-26T10:50:31Z</time><name>PT339</name></trkpt>
<trkpt lat="52.041226" lon="05.805514"><ele>39.9</ele><time>2020-12-26T10:50:32Z</time><name>PT340</name></trkpt>
<trkpt lat="52.041221" lon="05.805499"><ele>39.9</ele><time>2020-12-26T10:50:33Z</time><name>PT341</name></trkpt>
<trkpt lat="52.041209" lon="05.805480"><ele>39.9</ele><time>2020-12-26T10:50:34Z</time><name>PT342</name></trkpt>
<trkpt lat="52.041204" lon="05.805469"><ele>39.8</ele><time>2020-12-26T10:50:35Z</time><name>PT343</name></trkpt>
<trkpt lat="52.041199" lon="05.805460"><ele>39.8</ele><time>2020-12-26T10:50:36Z</time><name>PT344</name></trkpt>
<trkpt lat="52.041191" lon="05.805452"><ele>39.9</ele><time>2020-12-26T10:50:37Z</time><name>PT345</name></trkpt>
<trkpt lat="52.041186" lon="05.805445"><ele>39.9</ele><time>2020-12-26T10:50:38Z</time><name>PT346</name></trkpt>
<trkpt lat="52.041180" lon="05.805435"><ele>39.9</ele><time>2020-12-26T10:50:39Z</time><name>PT347</name></trkpt>
<trkpt lat="52.041172" lon="05.805424"><ele>40.1</ele><time>2020-12-26T10:50:40Z</time><name>PT348</name></trkpt>
<trkpt lat="52.041163" lon="05.805414"><ele>40.1</ele><time>2020-12-26T10:50:41Z</time><name>PT349</name></trkpt>
<trkpt lat="52.041154" lon="05.805410"><ele>40.2</ele><time>2020-12-26T10:50:42Z</time><name>PT350</name></trkpt>
<trkpt lat="52.041149" lon="05.805404"><ele>40.2</ele><time>2020-12-26T10:50:43Z</time><name>PT351</name></trkpt>
<trkpt lat="52.041143" lon="05.805391"><ele>40.3</ele><time>2020-12-26T10:50:44Z</time><name>PT352</name></trkpt>
<trkpt lat="52.041137" lon="05.805382"><ele>40.4</ele><time>2020-12-26T10:50:45Z</time><name>PT353</name></trkpt>
<trkpt lat="52.041127" lon="05.805372"><ele>40.4</ele><time>2020-12-26T10:50:46Z</time><name>PT354</name></trkpt>
<trkpt lat="52.041117" lon="05.805361"><ele>40.4</ele><time>2020-12-26T10:50:47Z</time><name>PT355</name></trkpt>
<trkpt lat="52.041111" lon="05.805346"><ele>40.4</ele><time>2020-12-26T10:50:48Z</time><name>PT356</name></trkpt>
<trkpt lat="52.041105" lon="05.805335"><ele>40.4</ele><time>2020-12-26T10:50:49Z</time><name>PT357</name></trkpt>
<trkpt lat="52.041100" lon="05.805326"><ele>40.4</ele><time>2020-12-26T10:50:50Z</time><name>PT358</name></trkpt>
<trkpt lat="52.041095" lon="05.805324"><ele>40.4</ele><time>2020-12-26T10:50:51Z</time><name>PT359</name></trkpt>
<trkpt lat="52.041093" lon="05.805314"><ele>40.4</ele><time>2020-12-26T10:50:52Z</time><name>PT360</name></trkpt>
<trkpt lat="52.041091" lon="05.805303"><ele>40.4</ele><time>2020-12-26T10:50:53Z</time><name>PT361</name></trkpt>
<trkpt lat="52.041085" lon="05.805298"><ele>40.5</ele><time>2020-12-26T10:50:54Z</time><name>PT362</name></trkpt>
<trkpt lat="52.041081" lon="05.805286"><ele>40.5</ele><time>2020-12-26T10:50:55Z</time><name>PT363</name></trkpt>
<trkpt lat="52.041074" lon="05.805284"><ele>40.6</ele><time>2020-12-26T10:50:56Z</time><name>PT364</name></trkpt>
<trkpt lat="52.041069" lon="05.805276"><ele>40.4</ele><time>2020-12-26T10:50:57Z</time><name>PT365</name></trkpt>
<trkpt lat="52.041060" lon="05.805274"><ele>40.3</ele><time>2020-12-26T10:50:58Z</time><name>PT366</name></trkpt>
<trkpt lat="52.041053" lon="05.805270"><ele>40.3</ele><time>2020-12-26T10:50:59Z</time><name>PT367</name></trkpt>
<trkpt lat="52.041047" lon="05.805258"><ele>39.9</ele><time>2020-12-26T10:51:00Z</time><name>PT368</name></trkpt>
<trkpt lat="52.041040" lon="05.805252"><ele>40.1</ele><time>2020-12-26T10:51:01Z</time><name>PT369</name></trkpt>
<trkpt lat="52.041033" lon="05.805242"><ele>40.1</ele><time>2020-12-26T10:51:02Z</time><name>PT370</name></trkpt>
<trkpt lat="52.041026" lon="05.805230"><ele>40.1</ele><time>2020-12-26T10:51:03Z</time><name>PT371</name></trkpt>
<trkpt lat="52.041019" lon="05.805224"><ele>40.2</ele><time>2020-12-26T10:51:04Z</time><name>PT372</name></trkpt>
<trkpt lat="52.041012" lon="05.805216"><ele>40.3</ele><time>2020-12-26T10:51:05Z</time><name>PT373</name></trkpt>
<trkpt lat="52.041004" lon="05.805214"><ele>40.1</ele><time>2020-12-26T10:51:06Z</time><name>PT374</name></trkpt>
<trkpt lat="52.040996" lon="05.805202"><ele>40.1</ele><time>2020-12-26T10:51:07Z</time><name>PT375</name></trkpt>
<trkpt lat="52.040989" lon="05.805187"><ele>40.1</ele><time>2020-12-26T10:51:08Z</time><name>PT376</name></trkpt>
<trkpt lat="52.040982" lon="05.805180"><ele>40.3</ele><time>2020-12-26T10:51:09Z</time><name>PT377</name></trkpt>
<trkpt lat="52.040977" lon="05.805173"><ele>40.4</ele><time>2020-12-26T10:51:10Z</time><name>PT378</name></trkpt>
<trkpt lat="52.040975" lon="05.805146"><ele>40.6</ele><time>2020-12-26T10:51:11Z</time><name>PT379</name></trkpt>
<trkpt lat="52.040972" lon="05.805138"><ele>40.7</ele><time>2020-12-26T10:51:12Z</time><name>PT380</name></trkpt>
<trkpt lat="52.040963" lon="05.805126"><ele>40.9</ele><time>2020-12-26T10:51:13Z</time><name>PT381</name></trkpt>
<trkpt lat="52.040951" lon="05.805114"><ele>40.9</ele><time>2020-12-26T10:51:14Z</time><name>PT382</name></trkpt>
<trkpt lat="52.040947" lon="05.805104"><ele>40.9</ele><time>2020-12-26T10:51:15Z</time><name>PT383</name></trkpt>
<trkpt lat="52.040940" lon="05.805083"><ele>40.9</ele><time>2020-12-26T10:51:16Z</time><name>PT384</name></trkpt>
<trkpt lat="52.040933" lon="05.805072"><ele>41.1</ele><time>2020-12-26T10:51:17Z</time><name>PT385</name></trkpt>
<trkpt lat="52.040926" lon="05.805062"><ele>41.3</ele><time>2020-12-26T10:51:18Z</time><name>PT386</name></trkpt>
<trkpt lat="52.040919" lon="05.805046"><ele>41.4</ele><time>2020-12-26T10:51:19Z</time><name>PT387</name></trkpt>
<trkpt lat="52.040913" lon="05.805036"><ele>41.5</ele><time>2020-12-26T10:51:20Z</time><name>PT388</name></trkpt>
<trkpt lat="52.040905" lon="05.805026"><ele>41.5</ele><time>2020-12-26T10:51:21Z</time><name>PT389</name></trkpt>
<trkpt lat="52.040897" lon="05.805021"><ele>41.6</ele><time>2020-12-26T10:51:22Z</time><name>PT390</name></trkpt>
<trkpt lat="52.040887" lon="05.805012"><ele>41.5</ele><time>2020-12-26T10:51:23Z</time><name>PT391</name></trkpt>
<trkpt lat="52.040877" lon="05.805002"><ele>41.5</ele><time>2020-12-26T10:51:24Z</time><name>PT392</name></trkpt>
<trkpt lat="52.040871" lon="05.804988"><ele>41.5</ele><time>2020-12-26T10:51:25Z</time><name>PT393</name></trkpt>
<trkpt lat="52.040869" lon="05.804967"><ele>41.7</ele><time>2020-12-26T10:51:26Z</time><name>PT394</name></trkpt>
<trkpt lat="52.040862" lon="05.804956"><ele>41.7</ele><time>2020-12-26T10:51:27Z</time><name>PT395</name></trkpt>
<trkpt lat="52.040853" lon="05.804951"><ele>41.7</ele><time>2020-12-26T10:51:28Z</time><name>PT396</name></trkpt>
<trkpt lat="52.040847" lon="05.804946"><ele>41.8</ele><time>2020-12-26T10:51:29Z</time><name>PT397</name></trkpt>
<trkpt lat="52.040838" lon="05.804930"><ele>41.8</ele><time>2020-12-26T10:51:30Z</time><name>PT398</name></trkpt>
<trkpt lat="52.040831" lon="05.804916"><ele>41.9</ele><time>2020-12-26T10:51:31Z</time><name>PT399</name></trkpt>
<trkpt lat="52.040824" lon="05.804904"><ele>42</ele><time>2020-12-26T10:51:32Z</time><name>PT400</name></trkpt>
<trkpt lat="52.040807" lon="05.804897"><ele>42.1</ele><time>2020-12-26T10:51:33Z</time><name>PT401</name></trkpt>
<trkpt lat="52.040795" lon="05.804873"><ele>42.3</ele><time>2020-12-26T10:51:34Z</time><name>PT402</name></trkpt>
<trkpt lat="52.040775" lon="05.804838"><ele>42.3</ele><time>2020-12-26T10:51:35Z</time><name>PT403</name></trkpt>
<trkpt lat="52.040764" lon="05.804823"><ele>42.5</ele><time>2020-12-26T10:51:36Z</time><name>PT404</name></trkpt>
<trkpt lat="52.040759" lon="05.804816"><ele>42.7</ele><time>2020-12-26T10:51:37Z</time><name>PT405</name></trkpt>
<trkpt lat="52.040752" lon="05.804798"><ele>42.8</ele><time>2020-12-26T10:51:38Z</time><name>PT406</name></trkpt>
<trkpt lat="52.040742" lon="05.804776"><ele>42.8</ele><time>2020-12-26T10:51:39Z</time><name>PT407</name></trkpt>
<trkpt lat="52.040721" lon="05.804679"><ele>43</ele><time>2020-12-26T10:51:40Z</time><name>PT408</name></trkpt>
<trkpt lat="52.040717" lon="05.804663"><ele>42.9</ele><time>2020-12-26T10:51:41Z</time><name>PT409</name></trkpt>
<trkpt lat="52.040711" lon="05.804651"><ele>42.8</ele><time>2020-12-26T10:51:42Z</time><name>PT410</name></trkpt>
<trkpt lat="52.040707" lon="05.804637"><ele>42.8</ele><time>2020-12-26T10:51:43Z</time><name>PT411</name></trkpt>
<trkpt lat="52.040708" lon="05.804630"><ele>42.8</ele><time>2020-12-26T10:51:44Z</time><name>PT412</name></trkpt>
<trkpt lat="52.040703" lon="05.804619"><ele>42.8</ele><time>2020-12-26T10:51:45Z</time><name>PT413</name></trkpt>
<trkpt lat="52.040696" lon="05.804609"><ele>42.8</ele><time>2020-12-26T10:51:46Z</time><name>PT414</name></trkpt>
<trkpt lat="52.040687" lon="05.804593"><ele>42.8</ele><time>2020-12-26T10:51:47Z</time><name>PT415</name></trkpt>
<trkpt lat="52.040680" lon="05.804585"><ele>42.8</ele><time>2020-12-26T10:51:48Z</time><name>PT416</name></trkpt>
<trkpt lat="52.040669" lon="05.804579"><ele>42.6</ele><time>2020-12-26T10:51:49Z</time><name>PT417</name></trkpt>
<trkpt lat="52.040665" lon="05.804578"><ele>42.6</ele><time>2020-12-26T10:51:50Z</time><name>PT418</name></trkpt>
<trkpt lat="52.040659" lon="05.804571"><ele>42.5</ele><time>2020-12-26T10:51:51Z</time><name>PT419</name></trkpt>
<trkpt lat="52.040653" lon="05.804561"><ele>42.8</ele><time>2020-12-26T10:51:52Z</time><name>PT420</name></trkpt>
<trkpt lat="52.040645" lon="05.804555"><ele>43</ele><time>2020-12-26T10:51:53Z</time><name>PT421</name></trkpt>
<trkpt lat="52.040636" lon="05.804552"><ele>43</ele><time>2020-12-26T10:51:54Z</time><name>PT422</name></trkpt>
<trkpt lat="52.040630" lon="05.804552"><ele>43.2</ele><time>2020-12-26T10:51:55Z</time><name>PT423</name></trkpt>
<trkpt lat="52.040625" lon="05.804554"><ele>43.3</ele><time>2020-12-26T10:51:56Z</time><name>PT424</name></trkpt>
<trkpt lat="52.040621" lon="05.804554"><ele>43.3</ele><time>2020-12-26T10:51:57Z</time><name>PT425</name></trkpt>
<trkpt lat="52.040613" lon="05.804554"><ele>43.4</ele><time>2020-12-26T10:51:58Z</time><name>PT426</name></trkpt>
<trkpt lat="52.040612" lon="05.804559"><ele>43.5</ele><time>2020-12-26T10:51:59Z</time><name>PT427</name></trkpt>
<trkpt lat="52.040610" lon="05.804560"><ele>43.5</ele><time>2020-12-26T10:52:00Z</time><name>PT428</name></trkpt>
<trkpt lat="52.040603" lon="05.804564"><ele>43.6</ele><time>2020-12-26T10:52:01Z</time><name>PT429</name></trkpt>
<trkpt lat="52.040598" lon="05.804562"><ele>43.4</ele><time>2020-12-26T10:52:02Z</time><name>PT430</name></trkpt>
<trkpt lat="52.040592" lon="05.804556"><ele>43.6</ele><time>2020-12-26T10:52:03Z</time><name>PT431</name></trkpt>
<trkpt lat="52.040587" lon="05.804550"><ele>43.7</ele><time>2020-12-26T10:52:04Z</time><name>PT432</name></trkpt>
<trkpt lat="52.040581" lon="05.804549"><ele>43.7</ele><time>2020-12-26T10:52:05Z</time><name>PT433</name></trkpt>
<trkpt lat="52.040576" lon="05.804544"><ele>43.9</ele><time>2020-12-26T10:52:06Z</time><name>PT434</name></trkpt>
<trkpt lat="52.040572" lon="05.804542"><ele>43.8</ele><time>2020-12-26T10:52:07Z</time><name>PT435</name></trkpt>
<trkpt lat="52.040571" lon="05.804541"><ele>43.8</ele><time>2020-12-26T10:52:08Z</time><name>PT436</name></trkpt>
<trkpt lat="52.040569" lon="05.804539"><ele>43.8</ele><time>2020-12-26T10:52:09Z</time><name>PT437</name></trkpt>
<trkpt lat="52.040535" lon="05.804542"><ele>43.8</ele><time>2020-12-26T10:52:45Z</time><name>PT438</name></trkpt>
<trkpt lat="52.040529" lon="05.804542"><ele>43.7</ele><time>2020-12-26T10:52:46Z</time><name>PT439</name></trkpt>
<trkpt lat="52.040514" lon="05.804546"><ele>43.7</ele><time>2020-12-26T10:52:47Z</time><name>PT440</name></trkpt>
<trkpt lat="52.040506" lon="05.804546"><ele>43.7</ele><time>2020-12-26T10:52:48Z</time><name>PT441</name></trkpt>
<trkpt lat="52.040505" lon="05.804547"><ele>43.6</ele><time>2020-12-26T10:52:55Z</time><name>PT442</name></trkpt>
<trkpt lat="52.040504" lon="05.804554"><ele>43.6</ele><time>2020-12-26T10:52:56Z</time><name>PT443</name></trkpt>
<trkpt lat="52.040503" lon="05.804564"><ele>43.7</ele><time>2020-12-26T10:52:57Z</time><name>PT444</name></trkpt>
<trkpt lat="52.040502" lon="05.804571"><ele>43.8</ele><time>2020-12-26T10:52:58Z</time><name>PT445</name></trkpt>
<trkpt lat="52.040498" lon="05.804583"><ele>43.4</ele><time>2020-12-26T10:53:03Z</time><name>PT446</name></trkpt>
<trkpt lat="52.040492" lon="05.804593"><ele>43.4</ele><time>2020-12-26T10:53:04Z</time><name>PT447</name></trkpt>
<trkpt lat="52.040487" lon="05.804595"><ele>43.4</ele><time>2020-12-26T10:53:05Z</time><name>PT448</name></trkpt>
<trkpt lat="52.040485" lon="05.804597"><ele>43.5</ele><time>2020-12-26T10:53:06Z</time><name>PT449</name></trkpt>
<trkpt lat="52.040476" lon="05.804600"><ele>43.5</ele><time>2020-12-26T10:53:07Z</time><name>PT450</name></trkpt>
<trkpt lat="52.040474" lon="05.804602"><ele>43.6</ele><time>2020-12-26T10:53:08Z</time><name>PT451</name></trkpt>
<trkpt lat="52.040472" lon="05.804606"><ele>43.6</ele><time>2020-12-26T10:53:09Z</time><name>PT452</name></trkpt>
<trkpt lat="52.040468" lon="05.804611"><ele>43.5</ele><time>2020-12-26T10:53:10Z</time><name>PT453</name></trkpt>
<trkpt lat="52.040466" lon="05.804614"><ele>43.5</ele><time>2020-12-26T10:53:19Z</time><name>PT454</name></trkpt>
<trkpt lat="52.040464" lon="05.804622"><ele>43.7</ele><time>2020-12-26T10:53:20Z</time><name>PT455</name></trkpt>
<trkpt lat="52.040464" lon="05.804622"><ele>43.9</ele><time>2020-12-26T10:53:21Z</time><name>PT456</name></trkpt>
<trkpt lat="52.040462" lon="05.804608"><ele>44.2</ele><time>2020-12-26T10:53:22Z</time><name>PT457</name></trkpt>
<trkpt lat="52.040464" lon="05.804599"><ele>44</ele><time>2020-12-26T10:53:23Z</time><name>PT458</name></trkpt>
<trkpt lat="52.040462" lon="05.804593"><ele>43.8</ele><time>2020-12-26T10:53:24Z</time><name>PT459</name></trkpt>
<trkpt lat="52.040470" lon="05.804592"><ele>43.7</ele><time>2020-12-26T10:53:30Z</time><name>PT460</name></trkpt>
<trkpt lat="52.040474" lon="05.804597"><ele>43.7</ele><time>2020-12-26T10:53:31Z</time><name>PT461</name></trkpt>
<trkpt lat="52.040476" lon="05.804598"><ele>43.8</ele><time>2020-12-26T10:53:32Z</time><name>PT462</name></trkpt>
<trkpt lat="52.040478" lon="05.804597"><ele>43.7</ele><time>2020-12-26T10:53:33Z</time><name>PT463</name></trkpt>
<trkpt lat="52.040478" lon="05.804596"><ele>43.7</ele><time>2020-12-26T10:53:34Z</time><name>PT464</name></trkpt>
<trkpt lat="52.040477" lon="05.804607"><ele>43.7</ele><time>2020-12-26T10:53:35Z</time><name>PT465</name></trkpt>
<trkpt lat="52.040478" lon="05.804614"><ele>43.6</ele><time>2020-12-26T10:53:36Z</time><name>PT466</name></trkpt>
<trkpt lat="52.040478" lon="05.804617"><ele>43.6</ele><time>2020-12-26T10:53:37Z</time><name>PT467</name></trkpt>
<trkpt lat="52.040476" lon="05.804617"><ele>43.6</ele><time>2020-12-26T10:53:38Z</time><name>PT468</name></trkpt>
<trkpt lat="52.040479" lon="05.804613"><ele>43.3</ele><time>2020-12-26T10:53:40Z</time><name>PT469</name></trkpt>
<trkpt lat="52.040481" lon="05.804609"><ele>43.4</ele><time>2020-12-26T10:53:41Z</time><name>PT470</name></trkpt>
<trkpt lat="52.040483" lon="05.804608"><ele>43.5</ele><time>2020-12-26T10:53:42Z</time><name>PT471</name></trkpt>
<trkpt lat="52.040486" lon="05.804610"><ele>43.6</ele><time>2020-12-26T10:53:43Z</time><name>PT472</name></trkpt>
<trkpt lat="52.040490" lon="05.804607"><ele>43.7</ele><time>2020-12-26T10:53:44Z</time><name>PT473</name></trkpt>
<trkpt lat="52.040493" lon="05.804608"><ele>43.7</ele><time>2020-12-26T10:53:45Z</time><name>PT474</name></trkpt>
<trkpt lat="52.040496" lon="05.804610"><ele>43.7</ele><time>2020-12-26T10:53:48Z</time><name>PT475</name></trkpt>
<trkpt lat="52.040498" lon="05.804605"><ele>43.6</ele><time>2020-12-26T10:53:49Z</time><name>PT476</name></trkpt>
<trkpt lat="52.040499" lon="05.804603"><ele>43.7</ele><time>2020-12-26T10:53:50Z</time><name>PT477</name></trkpt>
<trkpt lat="52.040501" lon="05.804595"><ele>43.7</ele><time>2020-12-26T10:53:51Z</time><name>PT478</name></trkpt>
<trkpt lat="52.040502" lon="05.804590"><ele>43.7</ele><time>2020-12-26T10:53:52Z</time><name>PT479</name></trkpt>
<trkpt lat="52.040502" lon="05.804586"><ele>43.8</ele><time>2020-12-26T10:53:53Z</time><name>PT480</name></trkpt>
<trkpt lat="52.040474" lon="05.804583"><ele>43.7</ele><time>2020-12-26T10:54:05Z</time><name>PT481</name></trkpt>
<trkpt lat="52.040466" lon="05.804588"><ele>43.7</ele><time>2020-12-26T10:54:06Z</time><name>PT482</name></trkpt>
<trkpt lat="52.040466" lon="05.804586"><ele>43.7</ele><time>2020-12-26T10:54:07Z</time><name>PT483</name></trkpt>
<trkpt lat="52.040467" lon="05.804581"><ele>43.9</ele><time>2020-12-26T10:54:08Z</time><name>PT484</name></trkpt>
<trkpt lat="52.040474" lon="05.804585"><ele>43.7</ele><time>2020-12-26T10:54:09Z</time><name>PT485</name></trkpt>
<trkpt lat="52.040478" lon="05.804587"><ele>43.6</ele><time>2020-12-26T10:54:10Z</time><name>PT486</name></trkpt>
<trkpt lat="52.040473" lon="05.804586"><ele>43.5</ele><time>2020-12-26T10:54:11Z</time><name>PT487</name></trkpt>
<trkpt lat="52.040471" lon="05.804585"><ele>43.3</ele><time>2020-12-26T10:54:12Z</time><name>PT488</name></trkpt>
<trkpt lat="52.040467" lon="05.804585"><ele>43.3</ele><time>2020-12-26T10:54:13Z</time><name>PT489</name></trkpt>
<trkpt lat="52.040465" lon="05.804599"><ele>43.3</ele><time>2020-12-26T10:54:14Z</time><name>PT490</name></trkpt>
<trkpt lat="52.040457" lon="05.804600"><ele>43.4</ele><time>2020-12-26T10:54:15Z</time><name>PT491</name></trkpt>
<trkpt lat="52.040455" lon="05.804601"><ele>43.6</ele><time>2020-12-26T10:54:16Z</time><name>PT492</name></trkpt>
<trkpt lat="52.040455" lon="05.804597"><ele>43.7</ele><time>2020-12-26T10:54:17Z</time><name>PT493</name></trkpt>
<trkpt lat="52.040445" lon="05.804597"><ele>43.7</ele><time>2020-12-26T10:54:20Z</time><name>PT494</name></trkpt>
<trkpt lat="52.040441" lon="05.804599"><ele>43.6</ele><time>2020-12-26T10:54:21Z</time><name>PT495</name></trkpt>
<trkpt lat="52.040440" lon="05.804600"><ele>43.3</ele><time>2020-12-26T10:54:22Z</time><name>PT496</name></trkpt>
<trkpt lat="52.040442" lon="05.804600"><ele>43.2</ele><time>2020-12-26T10:54:23Z</time><name>PT497</name></trkpt>
<trkpt lat="52.040442" lon="05.804604"><ele>42.9</ele><time>2020-12-26T10:54:24Z</time><name>PT498</name></trkpt>
<trkpt lat="52.040440" lon="05.804605"><ele>43</ele><time>2020-12-26T10:54:25Z</time><name>PT499</name></trkpt>
<trkpt lat="52.040442" lon="05.804604"><ele>43.2</ele><time>2020-12-26T10:54:26Z</time><name>PT500</name></trkpt>
<trkpt lat="52.040441" lon="05.804604"><ele>43.2</ele><time>2020-12-26T10:54:27Z</time><name>PT501</name></trkpt>
<trkpt lat="52.040440" lon="05.804607"><ele>43.3</ele><time>2020-12-26T10:54:28Z</time><name>PT502</name></trkpt>
<trkpt lat="52.040439" lon="05.804608"><ele>43.2</ele><time>2020-12-26T10:54:29Z</time><name>PT503</name></trkpt>
<trkpt lat="52.040429" lon="05.804602"><ele>43.5</ele><time>2020-12-26T10:54:35Z</time><name>PT504</name></trkpt>
<trkpt lat="52.040422" lon="05.804594"><ele>43.4</ele><time>2020-12-26T10:54:36Z</time><name>PT505</name></trkpt>
<trkpt lat="52.040417" lon="05.804588"><ele>43.2</ele><time>2020-12-26T10:54:37Z</time><name>PT506</name></trkpt>
<trkpt lat="52.040408" lon="05.804584"><ele>42.9</ele><time>2020-12-26T10:54:38Z</time><name>PT507</name></trkpt>
<trkpt lat="52.040401" lon="05.804578"><ele>42.8</ele><time>2020-12-26T10:54:39Z</time><name>PT508</name></trkpt>
<trkpt lat="52.040393" lon="05.804568"><ele>42.3</ele><time>2020-12-26T10:54:40Z</time><name>PT509</name></trkpt>
<trkpt lat="52.040386" lon="05.804552"><ele>42.1</ele><time>2020-12-26T10:54:41Z</time><name>PT510</name></trkpt>
<trkpt lat="52.040380" lon="05.804533"><ele>41.7</ele><time>2020-12-26T10:54:42Z</time><name>PT511</name></trkpt>
<trkpt lat="52.040375" lon="05.804520"><ele>41.4</ele><time>2020-12-26T10:54:43Z</time><name>PT512</name></trkpt>
<trkpt lat="52.040371" lon="05.804509"><ele>41.4</ele><time>2020-12-26T10:54:44Z</time><name>PT513</name></trkpt>
<trkpt lat="52.040371" lon="05.804497"><ele>41</ele><time>2020-12-26T10:54:45Z</time><name>PT514</name></trkpt>
<trkpt lat="52.040365" lon="05.804486"><ele>41.1</ele><time>2020-12-26T10:54:46Z</time><name>PT515</name></trkpt>
<trkpt lat="52.040359" lon="05.804473"><ele>40.9</ele><time>2020-12-26T10:54:47Z</time><name>PT516</name></trkpt>
<trkpt lat="52.040356" lon="05.804462"><ele>40.9</ele><time>2020-12-26T10:54:48Z</time><name>PT517</name></trkpt>
<trkpt lat="52.040355" lon="05.804446"><ele>41</ele><time>2020-12-26T10:54:49Z</time><name>PT518</name></trkpt>
<trkpt lat="52.040352" lon="05.804435"><ele>41.1</ele><time>2020-12-26T10:54:50Z</time><name>PT519</name></trkpt>
<trkpt lat="52.040345" lon="05.804419"><ele>41</ele><time>2020-12-26T10:54:51Z</time><name>PT520</name></trkpt>
<trkpt lat="52.040341" lon="05.804401"><ele>41.3</ele><time>2020-12-26T10:54:52Z</time><name>PT521</name></trkpt>
<trkpt lat="52.040339" lon="05.804385"><ele>41.1</ele><time>2020-12-26T10:54:53Z</time><name>PT522</name></trkpt>
<trkpt lat="52.040334" lon="05.804368"><ele>41.3</ele><time>2020-12-26T10:54:54Z</time><name>PT523</name></trkpt>
<trkpt lat="52.040328" lon="05.804358"><ele>41.4</ele><time>2020-12-26T10:54:55Z</time><name>PT524</name></trkpt>
<trkpt lat="52.040325" lon="05.804342"><ele>41.4</ele><time>2020-12-26T10:54:56Z</time><name>PT525</name></trkpt>
<trkpt lat="52.040318" lon="05.804326"><ele>41.4</ele><time>2020-12-26T10:54:57Z</time><name>PT526</name></trkpt>
<trkpt lat="52.040311" lon="05.804312"><ele>41.4</ele><time>2020-12-26T10:54:58Z</time><name>PT527</name></trkpt>
<trkpt lat="52.040305" lon="05.804297"><ele>41.5</ele><time>2020-12-26T10:54:59Z</time><name>PT528</name></trkpt>
<trkpt lat="52.040299" lon="05.804282"><ele>41.8</ele><time>2020-12-26T10:55:00Z</time><name>PT529</name></trkpt>
<trkpt lat="52.040294" lon="05.804271"><ele>41.8</ele><time>2020-12-26T10:55:01Z</time><name>PT530</name></trkpt>
<trkpt lat="52.040277" lon="05.804258"><ele>41.9</ele><time>2020-12-26T10:55:02Z</time><name>PT531</name></trkpt>
<trkpt lat="52.040268" lon="05.804246"><ele>42.1</ele><time>2020-12-26T10:55:03Z</time><name>PT532</name></trkpt>
<trkpt lat="52.040264" lon="05.804233"><ele>42.3</ele><time>2020-12-26T10:55:04Z</time><name>PT533</name></trkpt>
<trkpt lat="52.040261" lon="05.804219"><ele>42.4</ele><time>2020-12-26T10:55:05Z</time><name>PT534</name></trkpt>
<trkpt lat="52.040256" lon="05.804203"><ele>42.3</ele><time>2020-12-26T10:55:06Z</time><name>PT535</name></trkpt>
<trkpt lat="52.040251" lon="05.804186"><ele>42.4</ele><time>2020-12-26T10:55:07Z</time><name>PT536</name></trkpt>
<trkpt lat="52.040247" lon="05.804168"><ele>42.2</ele><time>2020-12-26T10:55:08Z</time><name>PT537</name></trkpt>
<trkpt lat="52.040243" lon="05.804155"><ele>42</ele><time>2020-12-26T10:55:09Z</time><name>PT538</name></trkpt>
<trkpt lat="52.040255" lon="05.804143"><ele>42.1</ele><time>2020-12-26T10:55:10Z</time><name>PT539</name></trkpt>
<trkpt lat="52.040250" lon="05.804137"><ele>42.1</ele><time>2020-12-26T10:55:11Z</time><name>PT540</name></trkpt>
<trkpt lat="52.040250" lon="05.804132"><ele>42.3</ele><time>2020-12-26T10:55:12Z</time><name>PT541</name></trkpt>
<trkpt lat="52.040250" lon="05.804128"><ele>42.3</ele><time>2020-12-26T10:55:13Z</time><name>PT542</name></trkpt>
<trkpt lat="52.040249" lon="05.804118"><ele>42.4</ele><time>2020-12-26T10:55:17Z</time><name>PT543</name></trkpt>
<trkpt lat="52.040243" lon="05.804094"><ele>42.4</ele><time>2020-12-26T10:55:18Z</time><name>PT544</name></trkpt>
<trkpt lat="52.040235" lon="05.804079"><ele>42.6</ele><time>2020-12-26T10:55:19Z</time><name>PT545</name></trkpt>
<trkpt lat="52.040228" lon="05.804061"><ele>42.5</ele><time>2020-12-26T10:55:20Z</time><name>PT546</name></trkpt>
<trkpt lat="52.040222" lon="05.804040"><ele>42.5</ele><time>2020-12-26T10:55:21Z</time><name>PT547</name></trkpt>
<trkpt lat="52.040213" lon="05.804018"><ele>42.4</ele><time>2020-12-26T10:55:22Z</time><name>PT548</name></trkpt>
<trkpt lat="52.040210" lon="05.803999"><ele>42.3</ele><time>2020-12-26T10:55:23Z</time><name>PT549</name></trkpt>
<trkpt lat="52.040207" lon="05.803976"><ele>42.3</ele><time>2020-12-26T10:55:24Z</time><name>PT550</name></trkpt>
<trkpt lat="52.040203" lon="05.803961"><ele>42.3</ele><time>2020-12-26T10:55:25Z</time><name>PT551</name></trkpt>
<trkpt lat="52.040197" lon="05.803945"><ele>42.2</ele><time>2020-12-26T10:55:26Z</time><name>PT552</name></trkpt>
<trkpt lat="52.040190" lon="05.803932"><ele>42.2</ele><time>2020-12-26T10:55:27Z</time><name>PT553</name></trkpt>
<trkpt lat="52.040186" lon="05.803913"><ele>42.1</ele><time>2020-12-26T10:55:28Z</time><name>PT554</name></trkpt>
<trkpt lat="52.040184" lon="05.803896"><ele>42</ele><time>2020-12-26T10:55:29Z</time><name>PT555</name></trkpt>
<trkpt lat="52.040182" lon="05.803884"><ele>41.8</ele><time>2020-12-26T10:55:30Z</time><name>PT556</name></trkpt>
<trkpt lat="52.040178" lon="05.803871"><ele>41.8</ele><time>2020-12-26T10:55:31Z</time><name>PT557</name></trkpt>
<trkpt lat="52.040172" lon="05.803859"><ele>41.8</ele><time>2020-12-26T10:55:32Z</time><name>PT558</name></trkpt>
<trkpt lat="52.040166" lon="05.803845"><ele>41.8</ele><time>2020-12-26T10:55:33Z</time><name>PT559</name></trkpt>
<trkpt lat="52.040162" lon="05.803830"><ele>41.9</ele><time>2020-12-26T10:55:34Z</time><name>PT560</name></trkpt>
<trkpt lat="52.040156" lon="05.803813"><ele>41.9</ele><time>2020-12-26T10:55:35Z</time><name>PT561</name></trkpt>
<trkpt lat="52.040150" lon="05.803802"><ele>41.8</ele><time>2020-12-26T10:55:36Z</time><name>PT562</name></trkpt>
<trkpt lat="52.040144" lon="05.803790"><ele>41.8</ele><time>2020-12-26T10:55:37Z</time><name>PT563</name></trkpt>
<trkpt lat="52.040140" lon="05.803777"><ele>41.8</ele><time>2020-12-26T10:55:38Z</time><name>PT564</name></trkpt>
<trkpt lat="52.040135" lon="05.803766"><ele>41.8</ele><time>2020-12-26T10:55:39Z</time><name>PT565</name></trkpt>
<trkpt lat="52.040130" lon="05.803754"><ele>41.8</ele><time>2020-12-26T10:55:40Z</time><name>PT566</name></trkpt>
<trkpt lat="52.040126" lon="05.803746"><ele>41.9</ele><time>2020-12-26T10:55:41Z</time><name>PT567</name></trkpt>
<trkpt lat="52.040128" lon="05.803741"><ele>41.8</ele><time>2020-12-26T10:55:42Z</time><name>PT568</name></trkpt>
<trkpt lat="52.040126" lon="05.803735"><ele>41.8</ele><time>2020-12-26T10:55:43Z</time><name>PT569</name></trkpt>
<trkpt lat="52.040123" lon="05.803733"><ele>41.8</ele><time>2020-12-26T10:55:44Z</time><name>PT570</name></trkpt>
<trkpt lat="52.040118" lon="05.803727"><ele>41.9</ele><time>2020-12-26T10:55:45Z</time><name>PT571</name></trkpt>
<trkpt lat="52.040115" lon="05.803724"><ele>42</ele><time>2020-12-26T10:55:46Z</time><name>PT572</name></trkpt>
<trkpt lat="52.040111" lon="05.803721"><ele>42.1</ele><time>2020-12-26T10:55:47Z</time><name>PT573</name></trkpt>
<trkpt lat="52.040109" lon="05.803721"><ele>41.9</ele><time>2020-12-26T10:55:48Z</time><name>PT574</name></trkpt>
<trkpt lat="52.040094" lon="05.803719"><ele>42.2</ele><time>2020-12-26T10:56:14Z</time><name>PT575</name></trkpt>
<trkpt lat="52.040086" lon="05.803716"><ele>42.1</ele><time>2020-12-26T10:56:15Z</time><name>PT576</name></trkpt>
<trkpt lat="52.040083" lon="05.803711"><ele>42.1</ele><time>2020-12-26T10:56:16Z</time><name>PT577</name></trkpt>
<trkpt lat="52.040078" lon="05.803707"><ele>41.8</ele><time>2020-12-26T10:56:21Z</time><name>PT578</name></trkpt>
<trkpt lat="52.040070" lon="05.803699"><ele>41.9</ele><time>2020-12-26T10:56:22Z</time><name>PT579</name></trkpt>
<trkpt lat="52.040064" lon="05.803691"><ele>41.8</ele><time>2020-12-26T10:56:23Z</time><name>PT580</name></trkpt>
<trkpt lat="52.040059" lon="05.803685"><ele>41.8</ele><time>2020-12-26T10:56:24Z</time><name>PT581</name></trkpt>
<trkpt lat="52.040054" lon="05.803678"><ele>41.7</ele><time>2020-12-26T10:56:25Z</time><name>PT582</name></trkpt>
<trkpt lat="52.040046" lon="05.803668"><ele>41.8</ele><time>2020-12-26T10:56:26Z</time><name>PT583</name></trkpt>
<trkpt lat="52.040039" lon="05.803657"><ele>41.9</ele><time>2020-12-26T10:56:27Z</time><name>PT584</name></trkpt>
<trkpt lat="52.040031" lon="05.803649"><ele>41.8</ele><time>2020-12-26T10:56:28Z</time><name>PT585</name></trkpt>
<trkpt lat="52.040024" lon="05.803642"><ele>41.9</ele><time>2020-12-26T10:56:29Z</time><name>PT586</name></trkpt>
<trkpt lat="52.040019" lon="05.803634"><ele>42</ele><time>2020-12-26T10:56:30Z</time><name>PT587</name></trkpt>
<trkpt lat="52.040015" lon="05.803622"><ele>42</ele><time>2020-12-26T10:56:31Z</time><name>PT588</name></trkpt>
<trkpt lat="52.040008" lon="05.803614"><ele>42.2</ele><time>2020-12-26T10:56:32Z</time><name>PT589</name></trkpt>
<trkpt lat="52.039998" lon="05.803604"><ele>42.3</ele><time>2020-12-26T10:56:33Z</time><name>PT590</name></trkpt>
<trkpt lat="52.039987" lon="05.803595"><ele>42.5</ele><time>2020-12-26T10:56:34Z</time><name>PT591</name></trkpt>
<trkpt lat="52.039977" lon="05.803584"><ele>42.7</ele><time>2020-12-26T10:56:35Z</time><name>PT592</name></trkpt>
<trkpt lat="52.039968" lon="05.803573"><ele>42.8</ele><time>2020-12-26T10:56:36Z</time><name>PT593</name></trkpt>
<trkpt lat="52.039956" lon="05.803567"><ele>43</ele><time>2020-12-26T10:56:37Z</time><name>PT594</name></trkpt>
<trkpt lat="52.039946" lon="05.803559"><ele>43</ele><time>2020-12-26T10:56:38Z</time><name>PT595</name></trkpt>
<trkpt lat="52.039937" lon="05.803551"><ele>43</ele><time>2020-12-26T10:56:39Z</time><name>PT596</name></trkpt>
<trkpt lat="52.039931" lon="05.803543"><ele>42.8</ele><time>2020-12-26T10:56:40Z</time><name>PT597</name></trkpt>
<trkpt lat="52.039923" lon="05.803533"><ele>42.8</ele><time>2020-12-26T10:56:41Z</time><name>PT598</name></trkpt>
<trkpt lat="52.039914" lon="05.803524"><ele>42.7</ele><time>2020-12-26T10:56:42Z</time><name>PT599</name></trkpt>
<trkpt lat="52.039903" lon="05.803514"><ele>42.6</ele><time>2020-12-26T10:56:43Z</time><name>PT600</name></trkpt>
<trkpt lat="52.039893" lon="05.803504"><ele>42.6</ele><time>2020-12-26T10:56:44Z</time><name>PT601</name></trkpt>
<trkpt lat="52.039884" lon="05.803494"><ele>42.6</ele><time>2020-12-26T10:56:45Z</time><name>PT602</name></trkpt>
<trkpt lat="52.039872" lon="05.803486"><ele>42.4</ele><time>2020-12-26T10:56:46Z</time><name>PT603</name></trkpt>
<trkpt lat="52.039861" lon="05.803478"><ele>42.4</ele><time>2020-12-26T10:56:47Z</time><name>PT604</name></trkpt>
<trkpt lat="52.039851" lon="05.803471"><ele>42.4</ele><time>2020-12-26T10:56:48Z</time><name>PT605</name></trkpt>
<trkpt lat="52.039841" lon="05.803460"><ele>42.3</ele><time>2020-12-26T10:56:49Z</time><name>PT606</name></trkpt>
<trkpt lat="52.039829" lon="05.803451"><ele>42.1</ele><time>2020-12-26T10:56:50Z</time><name>PT607</name></trkpt>
<trkpt lat="52.039820" lon="05.803443"><ele>42</ele><time>2020-12-26T10:56:51Z</time><name>PT608</name></trkpt>
<trkpt lat="52.039811" lon="05.803431"><ele>41.6</ele><time>2020-12-26T10:56:52Z</time><name>PT609</name></trkpt>
<trkpt lat="52.039803" lon="05.803421"><ele>41.4</ele><time>2020-12-26T10:56:53Z</time><name>PT610</name></trkpt>
<trkpt lat="52.039795" lon="05.803412"><ele>41.4</ele><time>2020-12-26T10:56:54Z</time><name>PT611</name></trkpt>
<trkpt lat="52.039784" lon="05.803401"><ele>41.4</ele><time>2020-12-26T10:56:55Z</time><name>PT612</name></trkpt>
<trkpt lat="52.039772" lon="05.803387"><ele>41.4</ele><time>2020-12-26T10:56:56Z</time><name>PT613</name></trkpt>
<trkpt lat="52.039763" lon="05.803374"><ele>41.7</ele><time>2020-12-26T10:56:57Z</time><name>PT614</name></trkpt>
<trkpt lat="52.039753" lon="05.803364"><ele>41.6</ele><time>2020-12-26T10:56:58Z</time><name>PT615</name></trkpt>
<trkpt lat="52.039745" lon="05.803354"><ele>41.6</ele><time>2020-12-26T10:56:59Z</time><name>PT616</name></trkpt>
<trkpt lat="52.039735" lon="05.803345"><ele>41.6</ele><time>2020-12-26T10:57:00Z</time><name>PT617</name></trkpt>
<trkpt lat="52.039727" lon="05.803335"><ele>41.4</ele><time>2020-12-26T10:57:01Z</time><name>PT618</name></trkpt>
<trkpt lat="52.039717" lon="05.803328"><ele>41.4</ele><time>2020-12-26T10:57:02Z</time><name>PT619</name></trkpt>
<trkpt lat="52.039710" lon="05.803320"><ele>41.5</ele><time>2020-12-26T10:57:03Z</time><name>PT620</name></trkpt>
<trkpt lat="52.039700" lon="05.803308"><ele>41.8</ele><time>2020-12-26T10:57:04Z</time><name>PT621</name></trkpt>
<trkpt lat="52.039693" lon="05.803298"><ele>41.8</ele><time>2020-12-26T10:57:05Z</time><name>PT622</name></trkpt>
<trkpt lat="52.039685" lon="05.803286"><ele>42.2</ele><time>2020-12-26T10:57:06Z</time><name>PT623</name></trkpt>
<trkpt lat="52.039676" lon="05.803277"><ele>42.3</ele><time>2020-12-26T10:57:07Z</time><name>PT624</name></trkpt>
<trkpt lat="52.039666" lon="05.803267"><ele>42.2</ele><time>2020-12-26T10:57:08Z</time><name>PT625</name></trkpt>
<trkpt lat="52.039660" lon="05.803254"><ele>42.2</ele><time>2020-12-26T10:57:09Z</time><name>PT626</name></trkpt>
<trkpt lat="52.039653" lon="05.803241"><ele>42.1</ele><time>2020-12-26T10:57:10Z</time><name>PT627</name></trkpt>
<trkpt lat="52.039645" lon="05.803231"><ele>42</ele><time>2020-12-26T10:57:11Z</time><name>PT628</name></trkpt>
<trkpt lat="52.039635" lon="05.803223"><ele>42.1</ele><time>2020-12-26T10:57:12Z</time><name>PT629</name></trkpt>
<trkpt lat="52.039625" lon="05.803213"><ele>41.9</ele><time>2020-12-26T10:57:13Z</time><name>PT630</name></trkpt>
<trkpt lat="52.039616" lon="05.803203"><ele>41.8</ele><time>2020-12-26T10:57:14Z</time><name>PT631</name></trkpt>
<trkpt lat="52.039608" lon="05.803193"><ele>41.6</ele><time>2020-12-26T10:57:15Z</time><name>PT632</name></trkpt>
<trkpt lat="52.039599" lon="05.803181"><ele>41.5</ele><time>2020-12-26T10:57:16Z</time><name>PT633</name></trkpt>
<trkpt lat="52.039591" lon="05.803170"><ele>41.6</ele><time>2020-12-26T10:57:17Z</time><name>PT634</name></trkpt>
<trkpt lat="52.039582" lon="05.803160"><ele>41.7</ele><time>2020-12-26T10:57:18Z</time><name>PT635</name></trkpt>
<trkpt lat="52.039572" lon="05.803149"><ele>41.8</ele><time>2020-12-26T10:57:19Z</time><name>PT636</name></trkpt>
<trkpt lat="52.039561" lon="05.803136"><ele>41.7</ele><time>2020-12-26T10:57:20Z</time><name>PT637</name></trkpt>
<trkpt lat="52.039549" lon="05.803125"><ele>41.7</ele><time>2020-12-26T10:57:21Z</time><name>PT638</name></trkpt>
<trkpt lat="52.039540" lon="05.803114"><ele>41.5</ele><time>2020-12-26T10:57:22Z</time><name>PT639</name></trkpt>
<trkpt lat="52.039529" lon="05.803100"><ele>41.5</ele><time>2020-12-26T10:57:23Z</time><name>PT640</name></trkpt>
<trkpt lat="52.039516" lon="05.803091"><ele>41.5</ele><time>2020-12-26T10:57:24Z</time><name>PT641</name></trkpt>
<trkpt lat="52.039504" lon="05.803082"><ele>41.5</ele><time>2020-12-26T10:57:25Z</time><name>PT642</name></trkpt>
<trkpt lat="52.039489" lon="05.803075"><ele>41.6</ele><time>2020-12-26T10:57:26Z</time><name>PT643</name></trkpt>
<trkpt lat="52.039481" lon="05.803066"><ele>41.6</ele><time>2020-12-26T10:57:27Z</time><name>PT644</name></trkpt>
<trkpt lat="52.039473" lon="05.803056"><ele>41.5</ele><time>2020-12-26T10:57:28Z</time><name>PT645</name></trkpt>
<trkpt lat="52.039465" lon="05.803045"><ele>41.5</ele><time>2020-12-26T10:57:29Z</time><name>PT646</name></trkpt>
<trkpt lat="52.039454" lon="05.803034"><ele>41.5</ele><time>2020-12-26T10:57:30Z</time><name>PT647</name></trkpt>
<trkpt lat="52.039446" lon="05.803023"><ele>41.4</ele><time>2020-12-26T10:57:31Z</time><name>PT648</name></trkpt>
<trkpt lat="52.039434" lon="05.803010"><ele>41.2</ele><time>2020-12-26T10:57:32Z</time><name>PT649</name></trkpt>
<trkpt lat="52.039424" lon="05.803000"><ele>41.1</ele><time>2020-12-26T10:57:33Z</time><name>PT650</name></trkpt>
<trkpt lat="52.039411" lon="05.802992"><ele>41</ele><time>2020-12-26T10:57:34Z</time><name>PT651</name></trkpt>
<trkpt lat="52.039401" lon="05.802987"><ele>41.2</ele><time>2020-12-26T10:57:35Z</time><name>PT652</name></trkpt>
<trkpt lat="52.039393" lon="05.802977"><ele>41.4</ele><time>2020-12-26T10:57:36Z</time><name>PT653</name></trkpt>
<trkpt lat="52.039382" lon="05.802970"><ele>41.3</ele><time>2020-12-26T10:57:37Z</time><name>PT654</name></trkpt>
<trkpt lat="52.039375" lon="05.802959"><ele>41.4</ele><time>2020-12-26T10:57:38Z</time><name>PT655</name></trkpt>
<trkpt lat="52.039368" lon="05.802947"><ele>41.1</ele><time>2020-12-26T10:57:39Z</time><name>PT656</name></trkpt>
<trkpt lat="52.039362" lon="05.802934"><ele>41</ele><time>2020-12-26T10:57:40Z</time><name>PT657</name></trkpt>
<trkpt lat="52.039352" lon="05.802923"><ele>41</ele><time>2020-12-26T10:57:41Z</time><name>PT658</name></trkpt>
<trkpt lat="52.039342" lon="05.802914"><ele>40.9</ele><time>2020-12-26T10:57:42Z</time><name>PT659</name></trkpt>
<trkpt lat="52.039330" lon="05.802903"><ele>41.2</ele><time>2020-12-26T10:57:43Z</time><name>PT660</name></trkpt>
<trkpt lat="52.039321" lon="05.802892"><ele>41.2</ele><time>2020-12-26T10:57:44Z</time><name>PT661</name></trkpt>
<trkpt lat="52.039307" lon="05.802884"><ele>40.9</ele><time>2020-12-26T10:57:45Z</time><name>PT662</name></trkpt>
<trkpt lat="52.039295" lon="05.802874"><ele>40.9</ele><time>2020-12-26T10:57:46Z</time><name>PT663</name></trkpt>
<trkpt lat="52.039283" lon="05.802865"><ele>40.9</ele><time>2020-12-26T10:57:47Z</time><name>PT664</name></trkpt>
<trkpt lat="52.039272" lon="05.802858"><ele>40.7</ele><time>2020-12-26T10:57:48Z</time><name>PT665</name></trkpt>
<trkpt lat="52.039264" lon="05.802845"><ele>40.7</ele><time>2020-12-26T10:57:49Z</time><name>PT666</name></trkpt>
<trkpt lat="52.039243" lon="05.802829"><ele>40.8</ele><time>2020-12-26T10:57:50Z</time><name>PT667</name></trkpt>
<trkpt lat="52.039234" lon="05.802813"><ele>40.7</ele><time>2020-12-26T10:57:51Z</time><name>PT668</name></trkpt>
<trkpt lat="52.039220" lon="05.802795"><ele>40.5</ele><time>2020-12-26T10:57:52Z</time><name>PT669</name></trkpt>
<trkpt lat="52.039209" lon="05.802784"><ele>40.6</ele><time>2020-12-26T10:57:53Z</time><name>PT670</name></trkpt>
<trkpt lat="52.039199" lon="05.802773"><ele>40.5</ele><time>2020-12-26T10:57:54Z</time><name>PT671</name></trkpt>
<trkpt lat="52.039190" lon="05.802763"><ele>40.4</ele><time>2020-12-26T10:57:55Z</time><name>PT672</name></trkpt>
<trkpt lat="52.039180" lon="05.802753"><ele>40.4</ele><time>2020-12-26T10:57:56Z</time><name>PT673</name></trkpt>
<trkpt lat="52.039171" lon="05.802739"><ele>40.5</ele><time>2020-12-26T10:57:57Z</time><name>PT674</name></trkpt>
<trkpt lat="52.039164" lon="05.802723"><ele>40.5</ele><time>2020-12-26T10:57:58Z</time><name>PT675</name></trkpt>
<trkpt lat="52.039155" lon="05.802711"><ele>40.4</ele><time>2020-12-26T10:57:59Z</time><name>PT676</name></trkpt>
<trkpt lat="52.039149" lon="05.802701"><ele>40.4</ele><time>2020-12-26T10:58:00Z</time><name>PT677</name></trkpt>
<trkpt lat="52.039139" lon="05.802692"><ele>40.4</ele><time>2020-12-26T10:58:01Z</time><name>PT678</name></trkpt>
<trkpt lat="52.039126" lon="05.802680"><ele>40.4</ele><time>2020-12-26T10:58:02Z</time><name>PT679</name></trkpt>
<trkpt lat="52.039113" lon="05.802670"><ele>40.4</ele><time>2020-12-26T10:58:03Z</time><name>PT680</name></trkpt>
<trkpt lat="52.039102" lon="05.802658"><ele>40.5</ele><time>2020-12-26T10:58:04Z</time><name>PT681</name></trkpt>
<trkpt lat="52.039094" lon="05.802647"><ele>40.6</ele><time>2020-12-26T10:58:05Z</time><name>PT682</name></trkpt>
<trkpt lat="52.039085" lon="05.802632"><ele>40.6</ele><time>2020-12-26T10:58:06Z</time><name>PT683</name></trkpt>
<trkpt lat="52.039079" lon="05.802620"><ele>40.8</ele><time>2020-12-26T10:58:07Z</time><name>PT684</name></trkpt>
<trkpt lat="52.039069" lon="05.802609"><ele>40.7</ele><time>2020-12-26T10:58:08Z</time><name>PT685</name></trkpt>
<trkpt lat="52.039060" lon="05.802599"><ele>40.8</ele><time>2020-12-26T10:58:09Z</time><name>PT686</name></trkpt>
<trkpt lat="52.039051" lon="05.802589"><ele>40.7</ele><time>2020-12-26T10:58:10Z</time><name>PT687</name></trkpt>
<trkpt lat="52.039042" lon="05.802581"><ele>40.7</ele><time>2020-12-26T10:58:11Z</time><name>PT688</name></trkpt>
<trkpt lat="52.039034" lon="05.802572"><ele>40.6</ele><time>2020-12-26T10:58:12Z</time><name>PT689</name></trkpt>
<trkpt lat="52.039025" lon="05.802563"><ele>40.8</ele><time>2020-12-26T10:58:13Z</time><name>PT690</name></trkpt>
<trkpt lat="52.039016" lon="05.802553"><ele>40.8</ele><time>2020-12-26T10:58:14Z</time><name>PT691</name></trkpt>
<trkpt lat="52.039005" lon="05.802541"><ele>40.8</ele><time>2020-12-26T10:58:15Z</time><name>PT692</name></trkpt>
<trkpt lat="52.038995" lon="05.802531"><ele>40.9</ele><time>2020-12-26T10:58:16Z</time><name>PT693</name></trkpt>
<trkpt lat="52.038987" lon="05.802519"><ele>40.9</ele><time>2020-12-26T10:58:17Z</time><name>PT694</name></trkpt>
<trkpt lat="52.038973" lon="05.802505"><ele>40.6</ele><time>2020-12-26T10:58:18Z</time><name>PT695</name></trkpt>
<trkpt lat="52.038963" lon="05.802493"><ele>40.6</ele><time>2020-12-26T10:58:19Z</time><name>PT696</name></trkpt>
<trkpt lat="52.038954" lon="05.802485"><ele>40.4</ele><time>2020-12-26T10:58:20Z</time><name>PT697</name></trkpt>
<trkpt lat="52.038944" lon="05.802477"><ele>40.3</ele><time>2020-12-26T10:58:21Z</time><name>PT698</name></trkpt>
<trkpt lat="52.038933" lon="05.802466"><ele>40.3</ele><time>2020-12-26T10:58:22Z</time><name>PT699</name></trkpt>
<trkpt lat="52.038920" lon="05.802455"><ele>40.1</ele><time>2020-12-26T10:58:23Z</time><name>PT700</name></trkpt>
<trkpt lat="52.038912" lon="05.802445"><ele>40.1</ele><time>2020-12-26T10:58:24Z</time><name>PT701</name></trkpt>
<trkpt lat="52.038906" lon="05.802435"><ele>40.1</ele><time>2020-12-26T10:58:25Z</time><name>PT702</name></trkpt>
<trkpt lat="52.038896" lon="05.802423"><ele>40.1</ele><time>2020-12-26T10:58:26Z</time><name>PT703</name></trkpt>
<trkpt lat="52.038886" lon="05.802415"><ele>40.3</ele><time>2020-12-26T10:58:27Z</time><name>PT704</name></trkpt>
<trkpt lat="52.038874" lon="05.802407"><ele>40.4</ele><time>2020-12-26T10:58:28Z</time><name>PT705</name></trkpt>
<trkpt lat="52.038863" lon="05.802395"><ele>40.5</ele><time>2020-12-26T10:58:29Z</time><name>PT706</name></trkpt>
<trkpt lat="52.038854" lon="05.802382"><ele>40.5</ele><time>2020-12-26T10:58:30Z</time><name>PT707</name></trkpt>
<trkpt lat="52.038845" lon="05.802369"><ele>40.5</ele><time>2020-12-26T10:58:31Z</time><name>PT708</name></trkpt>
<trkpt lat="52.038834" lon="05.802360"><ele>40.4</ele><time>2020-12-26T10:58:32Z</time><name>PT709</name></trkpt>
<trkpt lat="52.038822" lon="05.802351"><ele>40.3</ele><time>2020-12-26T10:58:33Z</time><name>PT710</name></trkpt>
<trkpt lat="52.038811" lon="05.802346"><ele>40.2</ele><time>2020-12-26T10:58:34Z</time><name>PT711</name></trkpt>
<trkpt lat="52.038800" lon="05.802339"><ele>40.1</ele><time>2020-12-26T10:58:35Z</time><name>PT712</name></trkpt>
<trkpt lat="52.038790" lon="05.802333"><ele>40.1</ele><time>2020-12-26T10:58:36Z</time><name>PT713</name></trkpt>
<trkpt lat="52.038782" lon="05.802324"><ele>40.1</ele><time>2020-12-26T10:58:37Z</time><name>PT714</name></trkpt>
<trkpt lat="52.038773" lon="05.802312"><ele>40.4</ele><time>2020-12-26T10:58:38Z</time><name>PT715</name></trkpt>
<trkpt lat="52.038763" lon="05.802300"><ele>40.4</ele><time>2020-12-26T10:58:39Z</time><name>PT716</name></trkpt>
<trkpt lat="52.038754" lon="05.802286"><ele>40.4</ele><time>2020-12-26T10:58:40Z</time><name>PT717</name></trkpt>
<trkpt lat="52.038745" lon="05.802272"><ele>40.4</ele><time>2020-12-26T10:58:41Z</time><name>PT718</name></trkpt>
<trkpt lat="52.038733" lon="05.802261"><ele>40.4</ele><time>2020-12-26T10:58:42Z</time><name>PT719</name></trkpt>
<trkpt lat="52.038723" lon="05.802247"><ele>40.2</ele><time>2020-12-26T10:58:43Z</time><name>PT720</name></trkpt>
<trkpt lat="52.038711" lon="05.802237"><ele>40.2</ele><time>2020-12-26T10:58:44Z</time><name>PT721</name></trkpt>
<trkpt lat="52.038702" lon="05.802229"><ele>40.2</ele><time>2020-12-26T10:58:45Z</time><name>PT722</name></trkpt>
<trkpt lat="52.038691" lon="05.802220"><ele>40.3</ele><time>2020-12-26T10:58:46Z</time><name>PT723</name></trkpt>
<trkpt lat="52.038681" lon="05.802210"><ele>40.4</ele><time>2020-12-26T10:58:47Z</time><name>PT724</name></trkpt>
<trkpt lat="52.038671" lon="05.802196"><ele>40.4</ele><time>2020-12-26T10:58:48Z</time><name>PT725</name></trkpt>
<trkpt lat="52.038662" lon="05.802185"><ele>40.6</ele><time>2020-12-26T10:58:49Z</time><name>PT726</name></trkpt>
<trkpt lat="52.038653" lon="05.802176"><ele>40.4</ele><time>2020-12-26T10:58:50Z</time><name>PT727</name></trkpt>
<trkpt lat="52.038644" lon="05.802165"><ele>40.3</ele><time>2020-12-26T10:58:51Z</time><name>PT728</name></trkpt>
<trkpt lat="52.038633" lon="05.802152"><ele>40.3</ele><time>2020-12-26T10:58:52Z</time><name>PT729</name></trkpt>
<trkpt lat="52.038623" lon="05.802145"><ele>40.4</ele><time>2020-12-26T10:58:53Z</time><name>PT730</name></trkpt>
<trkpt lat="52.038613" lon="05.802141"><ele>40.5</ele><time>2020-12-26T10:58:54Z</time><name>PT731</name></trkpt>
<trkpt lat="52.038603" lon="05.802132"><ele>40.7</ele><time>2020-12-26T10:58:55Z</time><name>PT732</name></trkpt>
<trkpt lat="52.038593" lon="05.802123"><ele>40.9</ele><time>2020-12-26T10:58:56Z</time><name>PT733</name></trkpt>
<trkpt lat="52.038582" lon="05.802111"><ele>40.8</ele><time>2020-12-26T10:58:57Z</time><name>PT734</name></trkpt>
<trkpt lat="52.038571" lon="05.802100"><ele>40.6</ele><time>2020-12-26T10:58:58Z</time><name>PT735</name></trkpt>
<trkpt lat="52.038562" lon="05.802086"><ele>40.5</ele><time>2020-12-26T10:58:59Z</time><name>PT736</name></trkpt>
<trkpt lat="52.038552" lon="05.802073"><ele>40.4</ele><time>2020-12-26T10:59:00Z</time><name>PT737</name></trkpt>
<trkpt lat="52.038542" lon="05.802063"><ele>40.4</ele><time>2020-12-26T10:59:01Z</time><name>PT738</name></trkpt>
<trkpt lat="52.038531" lon="05.802051"><ele>40.6</ele><time>2020-12-26T10:59:02Z</time><name>PT739</name></trkpt>
<trkpt lat="52.038520" lon="05.802045"><ele>40.6</ele><time>2020-12-26T10:59:03Z</time><name>PT740</name></trkpt>
<trkpt lat="52.038506" lon="05.802039"><ele>40.8</ele><time>2020-12-26T10:59:04Z</time><name>PT741</name></trkpt>
<trkpt lat="52.038495" lon="05.802034"><ele>40.9</ele><time>2020-12-26T10:59:05Z</time><name>PT742</name></trkpt>
<trkpt lat="52.038484" lon="05.802028"><ele>40.6</ele><time>2020-12-26T10:59:06Z</time><name>PT743</name></trkpt>
<trkpt lat="52.038476" lon="05.802019"><ele>40.8</ele><time>2020-12-26T10:59:07Z</time><name>PT744</name></trkpt>
<trkpt lat="52.038469" lon="05.802009"><ele>40.7</ele><time>2020-12-26T10:59:08Z</time><name>PT745</name></trkpt>
<trkpt lat="52.038464" lon="05.801998"><ele>40.7</ele><time>2020-12-26T10:59:09Z</time><name>PT746</name></trkpt>
<trkpt lat="52.038456" lon="05.801988"><ele>40.9</ele><time>2020-12-26T10:59:10Z</time><name>PT747</name></trkpt>
<trkpt lat="52.038445" lon="05.801980"><ele>40.8</ele><time>2020-12-26T10:59:11Z</time><name>PT748</name></trkpt>
<trkpt lat="52.038440" lon="05.801979"><ele>40.9</ele><time>2020-12-26T10:59:12Z</time><name>PT749</name></trkpt>
<trkpt lat="52.038425" lon="05.801994"><ele>40.9</ele><time>2020-12-26T10:59:13Z</time><name>PT750</name></trkpt>
<trkpt lat="52.038423" lon="05.801993"><ele>41.1</ele><time>2020-12-26T10:59:14Z</time><name>PT751</name></trkpt>
<trkpt lat="52.038418" lon="05.801988"><ele>41.8</ele><time>2020-12-26T10:59:48Z</time><name>PT752</name></trkpt>
<trkpt lat="52.038391" lon="05.801983"><ele>41.8</ele><time>2020-12-26T10:59:49Z</time><name>PT753</name></trkpt>
<trkpt lat="52.038382" lon="05.801977"><ele>41.7</ele><time>2020-12-26T10:59:50Z</time><name>PT754</name></trkpt>
<trkpt lat="52.038376" lon="05.801970"><ele>41.6</ele><time>2020-12-26T10:59:51Z</time><name>PT755</name></trkpt>
<trkpt lat="52.038372" lon="05.801963"><ele>41.5</ele><time>2020-12-26T10:59:52Z</time><name>PT756</name></trkpt>
<trkpt lat="52.038365" lon="05.801953"><ele>41.4</ele><time>2020-12-26T10:59:53Z</time><name>PT757</name></trkpt>
<trkpt lat="52.038355" lon="05.801940"><ele>41.4</ele><time>2020-12-26T10:59:54Z</time><name>PT758</name></trkpt>
<trkpt lat="52.038347" lon="05.801929"><ele>41.2</ele><time>2020-12-26T10:59:55Z</time><name>PT759</name></trkpt>
<trkpt lat="52.038337" lon="05.801917"><ele>41.3</ele><time>2020-12-26T10:59:56Z</time><name>PT760</name></trkpt>
<trkpt lat="52.038329" lon="05.801906"><ele>41.3</ele><time>2020-12-26T10:59:57Z</time><name>PT761</name></trkpt>
<trkpt lat="52.038321" lon="05.801892"><ele>41.2</ele><time>2020-12-26T10:59:58Z</time><name>PT762</name></trkpt>
<trkpt lat="52.038310" lon="05.801881"><ele>41.1</ele><time>2020-12-26T10:59:59Z</time><name>PT763</name></trkpt>
<trkpt lat="52.038300" lon="05.801872"><ele>40.9</ele><time>2020-12-26T11:00:00Z</time><name>PT764</name></trkpt>
<trkpt lat="52.038293" lon="05.801861"><ele>40.8</ele><time>2020-12-26T11:00:01Z</time><name>PT765</name></trkpt>
<trkpt lat="52.038285" lon="05.801848"><ele>40.7</ele><time>2020-12-26T11:00:02Z</time><name>PT766</name></trkpt>
<trkpt lat="52.038276" lon="05.801838"><ele>40.6</ele><time>2020-12-26T11:00:03Z</time><name>PT767</name></trkpt>
<trkpt lat="52.038265" lon="05.801826"><ele>40.8</ele><time>2020-12-26T11:00:04Z</time><name>PT768</name></trkpt>
<trkpt lat="52.038257" lon="05.801814"><ele>40.8</ele><time>2020-12-26T11:00:05Z</time><name>PT769</name></trkpt>
<trkpt lat="52.038251" lon="05.801804"><ele>40.9</ele><time>2020-12-26T11:00:06Z</time><name>PT770</name></trkpt>
<trkpt lat="52.038246" lon="05.801793"><ele>40.9</ele><time>2020-12-26T11:00:07Z</time><name>PT771</name></trkpt>
<trkpt lat="52.038241" lon="05.801782"><ele>40.8</ele><time>2020-12-26T11:00:08Z</time><name>PT772</name></trkpt>
<trkpt lat="52.038230" lon="05.801773"><ele>40.8</ele><time>2020-12-26T11:00:09Z</time><name>PT773</name></trkpt>
<trkpt lat="52.038220" lon="05.801759"><ele>40.8</ele><time>2020-12-26T11:00:10Z</time><name>PT774</name></trkpt>
<trkpt lat="52.038212" lon="05.801747"><ele>40.9</ele><time>2020-12-26T11:00:11Z</time><name>PT775</name></trkpt>
<trkpt lat="52.038203" lon="05.801734"><ele>40.9</ele><time>2020-12-26T11:00:12Z</time><name>PT776</name></trkpt>
<trkpt lat="52.038194" lon="05.801722"><ele>40.9</ele><time>2020-12-26T11:00:13Z</time><name>PT777</name></trkpt>
<trkpt lat="52.038185" lon="05.801712"><ele>40.9</ele><time>2020-12-26T11:00:14Z</time><name>PT778</name></trkpt>
<trkpt lat="52.038176" lon="05.801705"><ele>40.9</ele><time>2020-12-26T11:00:15Z</time><name>PT779</name></trkpt>
<trkpt lat="52.038167" lon="05.801693"><ele>40.9</ele><time>2020-12-26T11:00:16Z</time><name>PT780</name></trkpt>
<trkpt lat="52.038161" lon="05.801681"><ele>40.9</ele><time>2020-12-26T11:00:17Z</time><name>PT781</name></trkpt>
<trkpt lat="52.038153" lon="05.801669"><ele>40.9</ele><time>2020-12-26T11:00:18Z</time><name>PT782</name></trkpt>
<trkpt lat="52.038147" lon="05.801659"><ele>41</ele><time>2020-12-26T11:00:19Z</time><name>PT783</name></trkpt>
<trkpt lat="52.038140" lon="05.801650"><ele>41</ele><time>2020-12-26T11:00:20Z</time><name>PT784</name></trkpt>
<trkpt lat="52.038136" lon="05.801644"><ele>41.1</ele><time>2020-12-26T11:00:21Z</time><name>PT785</name></trkpt>
<trkpt lat="52.038132" lon="05.801638"><ele>41.1</ele><time>2020-12-26T11:00:22Z</time><name>PT786</name></trkpt>
<trkpt lat="52.038129" lon="05.801632"><ele>41.1</ele><time>2020-12-26T11:00:23Z</time><name>PT787</name></trkpt>
<trkpt lat="52.038130" lon="05.801626"><ele>41.4</ele><time>2020-12-26T11:00:25Z</time><name>PT788</name></trkpt>
<trkpt lat="52.038130" lon="05.801622"><ele>41.4</ele><time>2020-12-26T11:00:26Z</time><name>PT789</name></trkpt>
<trkpt lat="52.038131" lon="05.801623"><ele>41.3</ele><time>2020-12-26T11:00:27Z</time><name>PT790</name></trkpt>
<trkpt lat="52.038132" lon="05.801608"><ele>41.7</ele><time>2020-12-26T11:01:38Z</time><name>PT791</name></trkpt>
<trkpt lat="52.038135" lon="05.801594"><ele>41.7</ele><time>2020-12-26T11:01:39Z</time><name>PT792</name></trkpt>
<trkpt lat="52.038137" lon="05.801583"><ele>41.7</ele><time>2020-12-26T11:01:40Z</time><name>PT793</name></trkpt>
<trkpt lat="52.038141" lon="05.801576"><ele>41.7</ele><time>2020-12-26T11:01:41Z</time><name>PT794</name></trkpt>
<trkpt lat="52.038146" lon="05.801570"><ele>41.6</ele><time>2020-12-26T11:01:42Z</time><name>PT795</name></trkpt>
<trkpt lat="52.038150" lon="05.801562"><ele>41.8</ele><time>2020-12-26T11:01:43Z</time><name>PT796</name></trkpt>
<trkpt lat="52.038154" lon="05.801557"><ele>41.7</ele><time>2020-12-26T11:01:44Z</time><name>PT797</name></trkpt>
<trkpt lat="52.038158" lon="05.801550"><ele>41.8</ele><time>2020-12-26T11:01:45Z</time><name>PT798</name></trkpt>
<trkpt lat="52.038166" lon="05.801540"><ele>41.8</ele><time>2020-12-26T11:01:46Z</time><name>PT799</name></trkpt>
<trkpt lat="52.038172" lon="05.801536"><ele>41.7</ele><time>2020-12-26T11:01:47Z</time><name>PT800</name></trkpt>
<trkpt lat="52.038178" lon="05.801533"><ele>41.7</ele><time>2020-12-26T11:01:48Z</time><name>PT801</name></trkpt>
<trkpt lat="52.038178" lon="05.801524"><ele>41.7</ele><time>2020-12-26T11:01:49Z</time><name>PT802</name></trkpt>
<trkpt lat="52.038178" lon="05.801520"><ele>41.8</ele><time>2020-12-26T11:01:50Z</time><name>PT803</name></trkpt>
<trkpt lat="52.038179" lon="05.801516"><ele>41.8</ele><time>2020-12-26T11:01:51Z</time><name>PT804</name></trkpt>
<trkpt lat="52.038178" lon="05.801504"><ele>41.9</ele><time>2020-12-26T11:02:01Z</time><name>PT805</name></trkpt>
<trkpt lat="52.038184" lon="05.801483"><ele>41.9</ele><time>2020-12-26T11:02:02Z</time><name>PT806</name></trkpt>
<trkpt lat="52.038187" lon="05.801468"><ele>42.2</ele><time>2020-12-26T11:02:03Z</time><name>PT807</name></trkpt>
<trkpt lat="52.038189" lon="05.801454"><ele>42.1</ele><time>2020-12-26T11:02:04Z</time><name>PT808</name></trkpt>
<trkpt lat="52.038190" lon="05.801438"><ele>41.9</ele><time>2020-12-26T11:02:05Z</time><name>PT809</name></trkpt>
<trkpt lat="52.038195" lon="05.801424"><ele>41.7</ele><time>2020-12-26T11:02:06Z</time><name>PT810</name></trkpt>
<trkpt lat="52.038202" lon="05.801410"><ele>41.4</ele><time>2020-12-26T11:02:07Z</time><name>PT811</name></trkpt>
<trkpt lat="52.038207" lon="05.801388"><ele>41.3</ele><time>2020-12-26T11:02:08Z</time><name>PT812</name></trkpt>
<trkpt lat="52.038206" lon="05.801373"><ele>41.4</ele><time>2020-12-26T11:02:09Z</time><name>PT813</name></trkpt>
<trkpt lat="52.038199" lon="05.801362"><ele>41.4</ele><time>2020-12-26T11:02:10Z</time><name>PT814</name></trkpt>
<trkpt lat="52.038192" lon="05.801347"><ele>41.4</ele><time>2020-12-26T11:02:11Z</time><name>PT815</name></trkpt>
<trkpt lat="52.038186" lon="05.801334"><ele>41.5</ele><time>2020-12-26T11:02:12Z</time><name>PT816</name></trkpt>
<trkpt lat="52.038180" lon="05.801323"><ele>41.6</ele><time>2020-12-26T11:02:13Z</time><name>PT817</name></trkpt>
<trkpt lat="52.038171" lon="05.801309"><ele>41.6</ele><time>2020-12-26T11:02:14Z</time><name>PT818</name></trkpt>
<trkpt lat="52.038162" lon="05.801295"><ele>41.5</ele><time>2020-12-26T11:02:15Z</time><name>PT819</name></trkpt>
<trkpt lat="52.038155" lon="05.801288"><ele>41.6</ele><time>2020-12-26T11:02:16Z</time><name>PT820</name></trkpt>
<trkpt lat="52.038146" lon="05.801281"><ele>41.5</ele><time>2020-12-26T11:02:17Z</time><name>PT821</name></trkpt>
<trkpt lat="52.038141" lon="05.801278"><ele>41.4</ele><time>2020-12-26T11:02:18Z</time><name>PT822</name></trkpt>
<trkpt lat="52.038133" lon="05.801271"><ele>41.7</ele><time>2020-12-26T11:02:19Z</time><name>PT823</name></trkpt>
<trkpt lat="52.038122" lon="05.801267"><ele>41.7</ele><time>2020-12-26T11:02:20Z</time><name>PT824</name></trkpt>
<trkpt lat="52.038113" lon="05.801262"><ele>41.4</ele><time>2020-12-26T11:02:21Z</time><name>PT825</name></trkpt>
<trkpt lat="52.038104" lon="05.801252"><ele>41.4</ele><time>2020-12-26T11:02:22Z</time><name>PT826</name></trkpt>
<trkpt lat="52.038089" lon="05.801244"><ele>41.3</ele><time>2020-12-26T11:02:23Z</time><name>PT827</name></trkpt>
<trkpt lat="52.038082" lon="05.801237"><ele>41.1</ele><time>2020-12-26T11:02:24Z</time><name>PT828</name></trkpt>
<trkpt lat="52.038069" lon="05.801229"><ele>41.1</ele><time>2020-12-26T11:02:25Z</time><name>PT829</name></trkpt>
<trkpt lat="52.038061" lon="05.801220"><ele>41.2</ele><time>2020-12-26T11:02:26Z</time><name>PT830</name></trkpt>
<trkpt lat="52.038052" lon="05.801209"><ele>41.3</ele><time>2020-12-26T11:02:27Z</time><name>PT831</name></trkpt>
<trkpt lat="52.038043" lon="05.801199"><ele>41.2</ele><time>2020-12-26T11:02:28Z</time><name>PT832</name></trkpt>
<trkpt lat="52.038033" lon="05.801186"><ele>41.1</ele><time>2020-12-26T11:02:29Z</time><name>PT833</name></trkpt>
<trkpt lat="52.038022" lon="05.801176"><ele>41.2</ele><time>2020-12-26T11:02:30Z</time><name>PT834</name></trkpt>
<trkpt lat="52.038004" lon="05.801168"><ele>41.3</ele><time>2020-12-26T11:02:31Z</time><name>PT835</name></trkpt>
<trkpt lat="52.037997" lon="05.801160"><ele>41.4</ele><time>2020-12-26T11:02:32Z</time><name>PT836</name></trkpt>
<trkpt lat="52.037983" lon="05.801153"><ele>41.4</ele><time>2020-12-26T11:02:33Z</time><name>PT837</name></trkpt>
<trkpt lat="52.037977" lon="05.801145"><ele>41.4</ele><time>2020-12-26T11:02:34Z</time><name>PT838</name></trkpt>
<trkpt lat="52.037974" lon="05.801138"><ele>41.5</ele><time>2020-12-26T11:02:35Z</time><name>PT839</name></trkpt>
<trkpt lat="52.037972" lon="05.801133"><ele>41.4</ele><time>2020-12-26T11:02:36Z</time><name>PT840</name></trkpt>
<trkpt lat="52.037971" lon="05.801127"><ele>41.4</ele><time>2020-12-26T11:02:37Z</time><name>PT841</name></trkpt>
<trkpt lat="52.037969" lon="05.801121"><ele>41.4</ele><time>2020-12-26T11:02:38Z</time><name>PT842</name></trkpt>
<trkpt lat="52.037964" lon="05.801115"><ele>41.6</ele><time>2020-12-26T11:02:57Z</time><name>PT843</name></trkpt>
<trkpt lat="52.037949" lon="05.801105"><ele>41.6</ele><time>2020-12-26T11:02:58Z</time><name>PT844</name></trkpt>
<trkpt lat="52.037941" lon="05.801096"><ele>41.7</ele><time>2020-12-26T11:02:59Z</time><name>PT845</name></trkpt>
<trkpt lat="52.037937" lon="05.801085"><ele>41.6</ele><time>2020-12-26T11:03:00Z</time><name>PT846</name></trkpt>
<trkpt lat="52.037932" lon="05.801075"><ele>41.5</ele><time>2020-12-26T11:03:01Z</time><name>PT847</name></trkpt>
<trkpt lat="52.037923" lon="05.801072"><ele>41.6</ele><time>2020-12-26T11:03:02Z</time><name>PT848</name></trkpt>
<trkpt lat="52.037913" lon="05.801062"><ele>41.4</ele><time>2020-12-26T11:03:03Z</time><name>PT849</name></trkpt>
<trkpt lat="52.037908" lon="05.801060"><ele>41.5</ele><time>2020-12-26T11:03:04Z</time><name>PT850</name></trkpt>
<trkpt lat="52.037898" lon="05.801053"><ele>41.4</ele><time>2020-12-26T11:03:05Z</time><name>PT851</name></trkpt>
<trkpt lat="52.037892" lon="05.801047"><ele>41.3</ele><time>2020-12-26T11:03:06Z</time><name>PT852</name></trkpt>
<trkpt lat="52.037887" lon="05.801040"><ele>41.2</ele><time>2020-12-26T11:03:07Z</time><name>PT853</name></trkpt>
<trkpt lat="52.037883" lon="05.801038"><ele>41.3</ele><time>2020-12-26T11:03:08Z</time><name>PT854</name></trkpt>
<trkpt lat="52.037882" lon="05.801042"><ele>41.3</ele><time>2020-12-26T11:03:09Z</time><name>PT855</name></trkpt>
<trkpt lat="52.037878" lon="05.801044"><ele>41.4</ele><time>2020-12-26T11:03:10Z</time><name>PT856</name></trkpt>
<trkpt lat="52.037873" lon="05.801037"><ele>41.4</ele><time>2020-12-26T11:03:14Z</time><name>PT857</name></trkpt>
<trkpt lat="52.037866" lon="05.801026"><ele>41.4</ele><time>2020-12-26T11:03:15Z</time><name>PT858</name></trkpt>
<trkpt lat="52.037859" lon="05.801018"><ele>41.4</ele><time>2020-12-26T11:03:16Z</time><name>PT859</name></trkpt>
<trkpt lat="52.037853" lon="05.801011"><ele>41.3</ele><time>2020-12-26T11:03:17Z</time><name>PT860</name></trkpt>
<trkpt lat="52.037844" lon="05.801001"><ele>41.4</ele><time>2020-12-26T11:03:18Z</time><name>PT861</name></trkpt>
<trkpt lat="52.037838" lon="05.800991"><ele>41.4</ele><time>2020-12-26T11:03:19Z</time><name>PT862</name></trkpt>
<trkpt lat="52.037832" lon="05.800982"><ele>41.4</ele><time>2020-12-26T11:03:20Z</time><name>PT863</name></trkpt>
<trkpt lat="52.037826" lon="05.800968"><ele>41.6</ele><time>2020-12-26T11:03:21Z</time><name>PT864</name></trkpt>
<trkpt lat="52.037824" lon="05.800948"><ele>41.7</ele><time>2020-12-26T11:03:22Z</time><name>PT865</name></trkpt>
<trkpt lat="52.037817" lon="05.800930"><ele>41.7</ele><time>2020-12-26T11:03:23Z</time><name>PT866</name></trkpt>
<trkpt lat="52.037810" lon="05.800919"><ele>41.6</ele><time>2020-12-26T11:03:24Z</time><name>PT867</name></trkpt>
<trkpt lat="52.037796" lon="05.800904"><ele>41.4</ele><time>2020-12-26T11:03:25Z</time><name>PT868</name></trkpt>
<trkpt lat="52.037772" lon="05.800896"><ele>41.4</ele><time>2020-12-26T11:03:26Z</time><name>PT869</name></trkpt>
<trkpt lat="52.037761" lon="05.800886"><ele>41.5</ele><time>2020-12-26T11:03:27Z</time><name>PT870</name></trkpt>
<trkpt lat="52.037750" lon="05.800874"><ele>41.6</ele><time>2020-12-26T11:03:28Z</time><name>PT871</name></trkpt>
<trkpt lat="52.037739" lon="05.800867"><ele>41.7</ele><time>2020-12-26T11:03:29Z</time><name>PT872</name></trkpt>
<trkpt lat="52.037732" lon="05.800859"><ele>41.4</ele><time>2020-12-26T11:03:30Z</time><name>PT873</name></trkpt>
<trkpt lat="52.037715" lon="05.800847"><ele>41.4</ele><time>2020-12-26T11:03:31Z</time><name>PT874</name></trkpt>
<trkpt lat="52.037703" lon="05.800836"><ele>41.3</ele><time>2020-12-26T11:03:32Z</time><name>PT875</name></trkpt>
<trkpt lat="52.037692" lon="05.800822"><ele>41.4</ele><time>2020-12-26T11:03:33Z</time><name>PT876</name></trkpt>
<trkpt lat="52.037680" lon="05.800811"><ele>41.6</ele><time>2020-12-26T11:03:34Z</time><name>PT877</name></trkpt>
<trkpt lat="52.037670" lon="05.800802"><ele>41.6</ele><time>2020-12-26T11:03:35Z</time><name>PT878</name></trkpt>
<trkpt lat="52.037663" lon="05.800790"><ele>41.8</ele><time>2020-12-26T11:03:36Z</time><name>PT879</name></trkpt>
<trkpt lat="52.037658" lon="05.800780"><ele>41.6</ele><time>2020-12-26T11:03:37Z</time><name>PT880</name></trkpt>
<trkpt lat="52.037647" lon="05.800773"><ele>41.6</ele><time>2020-12-26T11:03:38Z</time><name>PT881</name></trkpt>
<trkpt lat="52.037639" lon="05.800766"><ele>41.6</ele><time>2020-12-26T11:03:39Z</time><name>PT882</name></trkpt>
<trkpt lat="52.037631" lon="05.800758"><ele>41.7</ele><time>2020-12-26T11:03:40Z</time><name>PT883</name></trkpt>
<trkpt lat="52.037625" lon="05.800753"><ele>41.8</ele><time>2020-12-26T11:03:41Z</time><name>PT884</name></trkpt>
<trkpt lat="52.037613" lon="05.800743"><ele>41.8</ele><time>2020-12-26T11:03:42Z</time><name>PT885</name></trkpt>
<trkpt lat="52.037606" lon="05.800739"><ele>41.8</ele><time>2020-12-26T11:03:43Z</time><name>PT886</name></trkpt>
<trkpt lat="52.037594" lon="05.800732"><ele>41.9</ele><time>2020-12-26T11:03:44Z</time><name>PT887</name></trkpt>
<trkpt lat="52.037584" lon="05.800724"><ele>41.8</ele><time>2020-12-26T11:03:45Z</time><name>PT888</name></trkpt>
<trkpt lat="52.037576" lon="05.800718"><ele>41.8</ele><time>2020-12-26T11:03:46Z</time><name>PT889</name></trkpt>
<trkpt lat="52.037570" lon="05.800713"><ele>41.8</ele><time>2020-12-26T11:03:47Z</time><name>PT890</name></trkpt>
<trkpt lat="52.037562" lon="05.800701"><ele>41.7</ele><time>2020-12-26T11:03:48Z</time><name>PT891</name></trkpt>
<trkpt lat="52.037557" lon="05.800694"><ele>41.7</ele><time>2020-12-26T11:03:49Z</time><name>PT892</name></trkpt>
<trkpt lat="52.037549" lon="05.800684"><ele>41.6</ele><time>2020-12-26T11:03:50Z</time><name>PT893</name></trkpt>
<trkpt lat="52.037531" lon="05.800674"><ele>41.6</ele><time>2020-12-26T11:03:51Z</time><name>PT894</name></trkpt>
<trkpt lat="52.037520" lon="05.800669"><ele>41.7</ele><time>2020-12-26T11:03:52Z</time><name>PT895</name></trkpt>
<trkpt lat="52.037512" lon="05.800664"><ele>41.7</ele><time>2020-12-26T11:03:53Z</time><name>PT896</name></trkpt>
<trkpt lat="52.037503" lon="05.800661"><ele>41.7</ele><time>2020-12-26T11:03:54Z</time><name>PT897</name></trkpt>
<trkpt lat="52.037496" lon="05.800654"><ele>41.6</ele><time>2020-12-26T11:03:55Z</time><name>PT898</name></trkpt>
<trkpt lat="52.037486" lon="05.800644"><ele>41.7</ele><time>2020-12-26T11:03:56Z</time><name>PT899</name></trkpt>
<trkpt lat="52.037473" lon="05.800634"><ele>41.5</ele><time>2020-12-26T11:03:57Z</time><name>PT900</name></trkpt>
<trkpt lat="52.037455" lon="05.800622"><ele>41.8</ele><time>2020-12-26T11:03:58Z</time><name>PT901</name></trkpt>
<trkpt lat="52.037439" lon="05.800606"><ele>41.8</ele><time>2020-12-26T11:03:59Z</time><name>PT902</name></trkpt>
<trkpt lat="52.037430" lon="05.800597"><ele>41.8</ele><time>2020-12-26T11:04:00Z</time><name>PT903</name></trkpt>
<trkpt lat="52.037426" lon="05.800588"><ele>41.8</ele><time>2020-12-26T11:04:01Z</time><name>PT904</name></trkpt>
<trkpt lat="52.037419" lon="05.800580"><ele>41.8</ele><time>2020-12-26T11:04:02Z</time><name>PT905</name></trkpt>
<trkpt lat="52.037411" lon="05.800570"><ele>41.6</ele><time>2020-12-26T11:04:03Z</time><name>PT906</name></trkpt>
<trkpt lat="52.037403" lon="05.800561"><ele>41.4</ele><time>2020-12-26T11:04:04Z</time><name>PT907</name></trkpt>
<trkpt lat="52.037392" lon="05.800552"><ele>41.4</ele><time>2020-12-26T11:04:05Z</time><name>PT908</name></trkpt>
<trkpt lat="52.037381" lon="05.800539"><ele>41.3</ele><time>2020-12-26T11:04:06Z</time><name>PT909</name></trkpt>
<trkpt lat="52.037372" lon="05.800527"><ele>41.2</ele><time>2020-12-26T11:04:07Z</time><name>PT910</name></trkpt>
<trkpt lat="52.037362" lon="05.800515"><ele>41.1</ele><time>2020-12-26T11:04:08Z</time><name>PT911</name></trkpt>
<trkpt lat="52.037350" lon="05.800500"><ele>41.2</ele><time>2020-12-26T11:04:09Z</time><name>PT912</name></trkpt>
<trkpt lat="52.037344" lon="05.800493"><ele>41.2</ele><time>2020-12-26T11:04:10Z</time><name>PT913</name></trkpt>
<trkpt lat="52.037335" lon="05.800483"><ele>41.2</ele><time>2020-12-26T11:04:11Z</time><name>PT914</name></trkpt>
<trkpt lat="52.037325" lon="05.800478"><ele>41.4</ele><time>2020-12-26T11:04:12Z</time><name>PT915</name></trkpt>
<trkpt lat="52.037314" lon="05.800469"><ele>41.3</ele><time>2020-12-26T11:04:13Z</time><name>PT916</name></trkpt>
<trkpt lat="52.037300" lon="05.800452"><ele>41.4</ele><time>2020-12-26T11:04:14Z</time><name>PT917</name></trkpt>
<trkpt lat="52.037289" lon="05.800443"><ele>41.3</ele><time>2020-12-26T11:04:15Z</time><name>PT918</name></trkpt>
<trkpt lat="52.037283" lon="05.800431"><ele>41.4</ele><time>2020-12-26T11:04:16Z</time><name>PT919</name></trkpt>
<trkpt lat="52.037274" lon="05.800419"><ele>41.4</ele><time>2020-12-26T11:04:17Z</time><name>PT920</name></trkpt>
<trkpt lat="52.037265" lon="05.800412"><ele>41.5</ele><time>2020-12-26T11:04:18Z</time><name>PT921</name></trkpt>
<trkpt lat="52.037264" lon="05.800406"><ele>41.4</ele><time>2020-12-26T11:04:19Z</time><name>PT922</name></trkpt>
<trkpt lat="52.037256" lon="05.800396"><ele>41.4</ele><time>2020-12-26T11:04:20Z</time><name>PT923</name></trkpt>
<trkpt lat="52.037245" lon="05.800390"><ele>41.3</ele><time>2020-12-26T11:04:21Z</time><name>PT924</name></trkpt>
<trkpt lat="52.037231" lon="05.800378"><ele>41.2</ele><time>2020-12-26T11:04:22Z</time><name>PT925</name></trkpt>
<trkpt lat="52.037221" lon="05.800367"><ele>41.3</ele><time>2020-12-26T11:04:23Z</time><name>PT926</name></trkpt>
<trkpt lat="52.037213" lon="05.800362"><ele>41.1</ele><time>2020-12-26T11:04:24Z</time><name>PT927</name></trkpt>
<trkpt lat="52.037203" lon="05.800356"><ele>41</ele><time>2020-12-26T11:04:25Z</time><name>PT928</name></trkpt>
<trkpt lat="52.037191" lon="05.800346"><ele>41</ele><time>2020-12-26T11:04:26Z</time><name>PT929</name></trkpt>
<trkpt lat="52.037182" lon="05.800333"><ele>41.2</ele><time>2020-12-26T11:04:27Z</time><name>PT930</name></trkpt>
<trkpt lat="52.037174" lon="05.800324"><ele>41.1</ele><time>2020-12-26T11:04:28Z</time><name>PT931</name></trkpt>
<trkpt lat="52.037166" lon="05.800309"><ele>41.1</ele><time>2020-12-26T11:04:29Z</time><name>PT932</name></trkpt>
<trkpt lat="52.037157" lon="05.800299"><ele>41.1</ele><time>2020-12-26T11:04:30Z</time><name>PT933</name></trkpt>
<trkpt lat="52.037147" lon="05.800287"><ele>40.8</ele><time>2020-12-26T11:04:31Z</time><name>PT934</name></trkpt>
<trkpt lat="52.037136" lon="05.800279"><ele>40.8</ele><time>2020-12-26T11:04:32Z</time><name>PT935</name></trkpt>
<trkpt lat="52.037124" lon="05.800271"><ele>40.8</ele><time>2020-12-26T11:04:33Z</time><name>PT936</name></trkpt>
<trkpt lat="52.037114" lon="05.800258"><ele>40.9</ele><time>2020-12-26T11:04:34Z</time><name>PT937</name></trkpt>
<trkpt lat="52.037104" lon="05.800246"><ele>40.9</ele><time>2020-12-26T11:04:35Z</time><name>PT938</name></trkpt>
<trkpt lat="52.037086" lon="05.800228"><ele>40.8</ele><time>2020-12-26T11:04:36Z</time><name>PT939</name></trkpt>
<trkpt lat="52.037076" lon="05.800219"><ele>40.9</ele><time>2020-12-26T11:04:37Z</time><name>PT940</name></trkpt>
<trkpt lat="52.037069" lon="05.800210"><ele>40.9</ele><time>2020-12-26T11:04:38Z</time><name>PT941</name></trkpt>
<trkpt lat="52.037058" lon="05.800211"><ele>40.7</ele><time>2020-12-26T11:04:39Z</time><name>PT942</name></trkpt>
<trkpt lat="52.037046" lon="05.800204"><ele>40.9</ele><time>2020-12-26T11:04:40Z</time><name>PT943</name></trkpt>
<trkpt lat="52.037037" lon="05.800198"><ele>40.9</ele><time>2020-12-26T11:04:41Z</time><name>PT944</name></trkpt>
<trkpt lat="52.037022" lon="05.800181"><ele>40.9</ele><time>2020-12-26T11:04:42Z</time><name>PT945</name></trkpt>
<trkpt lat="52.037014" lon="05.800164"><ele>40.9</ele><time>2020-12-26T11:04:43Z</time><name>PT946</name></trkpt>
<trkpt lat="52.037001" lon="05.800149"><ele>40.9</ele><time>2020-12-26T11:04:44Z</time><name>PT947</name></trkpt>
<trkpt lat="52.036983" lon="05.800127"><ele>40.8</ele><time>2020-12-26T11:04:45Z</time><name>PT948</name></trkpt>
<trkpt lat="52.036968" lon="05.800117"><ele>40.8</ele><time>2020-12-26T11:04:46Z</time><name>PT949</name></trkpt>
<trkpt lat="52.036958" lon="05.800104"><ele>40.9</ele><time>2020-12-26T11:04:47Z</time><name>PT950</name></trkpt>
<trkpt lat="52.036948" lon="05.800090"><ele>41</ele><time>2020-12-26T11:04:48Z</time><name>PT951</name></trkpt>
<trkpt lat="52.036936" lon="05.800075"><ele>40.9</ele><time>2020-12-26T11:04:49Z</time><name>PT952</name></trkpt>
<trkpt lat="52.036927" lon="05.800061"><ele>41</ele><time>2020-12-26T11:04:50Z</time><name>PT953</name></trkpt>
<trkpt lat="52.036917" lon="05.800053"><ele>41</ele><time>2020-12-26T11:04:51Z</time><name>PT954</name></trkpt>
<trkpt lat="52.036903" lon="05.800046"><ele>40.8</ele><time>2020-12-26T11:04:52Z</time><name>PT955</name></trkpt>
<trkpt lat="52.036890" lon="05.800034"><ele>40.8</ele><time>2020-12-26T11:04:53Z</time><name>PT956</name></trkpt>
<trkpt lat="52.036874" lon="05.800016"><ele>40.6</ele><time>2020-12-26T11:04:54Z</time><name>PT957</name></trkpt>
<trkpt lat="52.036868" lon="05.800014"><ele>40.6</ele><time>2020-12-26T11:04:55Z</time><name>PT958</name></trkpt>
<trkpt lat="52.036861" lon="05.800012"><ele>40.6</ele><time>2020-12-26T11:04:56Z</time><name>PT959</name></trkpt>
<trkpt lat="52.036850" lon="05.800008"><ele>40.7</ele><time>2020-12-26T11:04:57Z</time><name>PT960</name></trkpt>
<trkpt lat="52.036839" lon="05.800001"><ele>40.8</ele><time>2020-12-26T11:04:58Z</time><name>PT961</name></trkpt>
<trkpt lat="52.036830" lon="05.799995"><ele>40.7</ele><time>2020-12-26T11:04:59Z</time><name>PT962</name></trkpt>
<trkpt lat="52.036819" lon="05.799983"><ele>40.7</ele><time>2020-12-26T11:05:00Z</time><name>PT963</name></trkpt>
<trkpt lat="52.036812" lon="05.799976"><ele>40.7</ele><time>2020-12-26T11:05:01Z</time><name>PT964</name></trkpt>
<trkpt lat="52.036800" lon="05.799969"><ele>40.8</ele><time>2020-12-26T11:05:02Z</time><name>PT965</name></trkpt>
<trkpt lat="52.036792" lon="05.799959"><ele>40.6</ele><time>2020-12-26T11:05:03Z</time><name>PT966</name></trkpt>
<trkpt lat="52.036784" lon="05.799948"><ele>40.6</ele><time>2020-12-26T11:05:04Z</time><name>PT967</name></trkpt>
<trkpt lat="52.036772" lon="05.799938"><ele>40.6</ele><time>2020-12-26T11:05:05Z</time><name>PT968</name></trkpt>
<trkpt lat="52.036763" lon="05.799935"><ele>40.6</ele><time>2020-12-26T11:05:06Z</time><name>PT969</name></trkpt>
<trkpt lat="52.036755" lon="05.799934"><ele>40.4</ele><time>2020-12-26T11:05:07Z</time><name>PT970</name></trkpt>
<trkpt lat="52.036745" lon="05.799927"><ele>40.5</ele><time>2020-12-26T11:05:08Z</time><name>PT971</name></trkpt>
<trkpt lat="52.036733" lon="05.799912"><ele>40.4</ele><time>2020-12-26T11:05:09Z</time><name>PT972</name></trkpt>
<trkpt lat="52.036724" lon="05.799901"><ele>40.3</ele><time>2020-12-26T11:05:10Z</time><name>PT973</name></trkpt>
<trkpt lat="52.036711" lon="05.799883"><ele>40.4</ele><time>2020-12-26T11:05:11Z</time><name>PT974</name></trkpt>
<trkpt lat="52.036702" lon="05.799867"><ele>40.3</ele><time>2020-12-26T11:05:12Z</time><name>PT975</name></trkpt>
<trkpt lat="52.036695" lon="05.799858"><ele>40.3</ele><time>2020-12-26T11:05:13Z</time><name>PT976</name></trkpt>
<trkpt lat="52.036687" lon="05.799850"><ele>40.4</ele><time>2020-12-26T11:05:14Z</time><name>PT977</name></trkpt>
<trkpt lat="52.036676" lon="05.799836"><ele>40.5</ele><time>2020-12-26T11:05:15Z</time><name>PT978</name></trkpt>
<trkpt lat="52.036669" lon="05.799821"><ele>40.5</ele><time>2020-12-26T11:05:16Z</time><name>PT979</name></trkpt>
<trkpt lat="52.036655" lon="05.799800"><ele>40.6</ele><time>2020-12-26T11:05:17Z</time><name>PT980</name></trkpt>
<trkpt lat="52.036643" lon="05.799787"><ele>40.6</ele><time>2020-12-26T11:05:18Z</time><name>PT981</name></trkpt>
<trkpt lat="52.036632" lon="05.799770"><ele>40.7</ele><time>2020-12-26T11:05:19Z</time><name>PT982</name></trkpt>
<trkpt lat="52.036624" lon="05.799761"><ele>40.6</ele><time>2020-12-26T11:05:20Z</time><name>PT983</name></trkpt>
<trkpt lat="52.036615" lon="05.799749"><ele>40.4</ele><time>2020-12-26T11:05:21Z</time><name>PT984</name></trkpt>
<trkpt lat="52.036611" lon="05.799743"><ele>40.5</ele><time>2020-12-26T11:05:22Z</time><name>PT985</name></trkpt>
<trkpt lat="52.036601" lon="05.799739"><ele>40.4</ele><time>2020-12-26T11:05:23Z</time><name>PT986</name></trkpt>
<trkpt lat="52.036594" lon="05.799734"><ele>40.6</ele><time>2020-12-26T11:05:24Z</time><name>PT987</name></trkpt>
<trkpt lat="52.036581" lon="05.799722"><ele>40.8</ele><time>2020-12-26T11:05:25Z</time><name>PT988</name></trkpt>
<trkpt lat="52.036574" lon="05.799715"><ele>40.6</ele><time>2020-12-26T11:05:26Z</time><name>PT989</name></trkpt>
<trkpt lat="52.036562" lon="05.799706"><ele>40.4</ele><time>2020-12-26T11:05:27Z</time><name>PT990</name></trkpt>
<trkpt lat="52.036548" lon="05.799688"><ele>40.4</ele><time>2020-12-26T11:05:28Z</time><name>PT991</name></trkpt>
<trkpt lat="52.036535" lon="05.799674"><ele>40.3</ele><time>2020-12-26T11:05:29Z</time><name>PT992</name></trkpt>
<trkpt lat="52.036519" lon="05.799640"><ele>40.5</ele><time>2020-12-26T11:05:30Z</time><name>PT993</name></trkpt>
<trkpt lat="52.036516" lon="05.799632"><ele>40.8</ele><time>2020-12-26T11:05:31Z</time><name>PT994</name></trkpt>
<trkpt lat="52.036511" lon="05.799618"><ele>40.8</ele><time>2020-12-26T11:05:32Z</time><name>PT995</name></trkpt>
<trkpt lat="52.036500" lon="05.799599"><ele>40.9</ele><time>2020-12-26T11:05:33Z</time><name>PT996</name></trkpt>
<trkpt lat="52.036490" lon="05.799583"><ele>40.7</ele><time>2020-12-26T11:05:34Z</time><name>PT997</name></trkpt>
<trkpt lat="52.036486" lon="05.799574"><ele>40.7</ele><time>2020-12-26T11:05:35Z</time><name>PT998</name></trkpt>
<trkpt lat="52.036477" lon="05.799566"><ele>40.8</ele><time>2020-12-26T11:05:36Z</time><name>PT999</name></trkpt>
<trkpt lat="52.036468" lon="05.799554"><ele>40.9</ele><time>2020-12-26T11:05:37Z</time><name>PT1000</name></trkpt>
<trkpt lat="52.036455" lon="05.799541"><ele>40.8</ele><time>2020-12-26T11:05:38Z</time><name>PT1001</name></trkpt>
<trkpt lat="52.036443" lon="05.799539"><ele>40.6</ele><time>2020-12-26T11:05:39Z</time><name>PT1002</name></trkpt>
<trkpt lat="52.036438" lon="05.799534"><ele>40.5</ele><time>2020-12-26T11:05:40Z</time><name>PT1003</name></trkpt>
<trkpt lat="52.036427" lon="05.799519"><ele>40.4</ele><time>2020-12-26T11:05:41Z</time><name>PT1004</name></trkpt>
<trkpt lat="52.036412" lon="05.799503"><ele>40.4</ele><time>2020-12-26T11:05:42Z</time><name>PT1005</name></trkpt>
<trkpt lat="52.036398" lon="05.799488"><ele>40.4</ele><time>2020-12-26T11:05:43Z</time><name>PT1006</name></trkpt>
<trkpt lat="52.036383" lon="05.799473"><ele>40.4</ele><time>2020-12-26T11:05:44Z</time><name>PT1007</name></trkpt>
<trkpt lat="52.036366" lon="05.799461"><ele>40.3</ele><time>2020-12-26T11:05:45Z</time><name>PT1008</name></trkpt>
<trkpt lat="52.036358" lon="05.799452"><ele>40.3</ele><time>2020-12-26T11:05:46Z</time><name>PT1009</name></trkpt>
<trkpt lat="52.036346" lon="05.799443"><ele>40.3</ele><time>2020-12-26T11:05:47Z</time><name>PT1010</name></trkpt>
<trkpt lat="52.036334" lon="05.799431"><ele>40.2</ele><time>2020-12-26T11:05:48Z</time><name>PT1011</name></trkpt>
<trkpt lat="52.036319" lon="05.799426"><ele>40.2</ele><time>2020-12-26T11:05:49Z</time><name>PT1012</name></trkpt>
<trkpt lat="52.036308" lon="05.799415"><ele>40.2</ele><time>2020-12-26T11:05:50Z</time><name>PT1013</name></trkpt>
<trkpt lat="52.036295" lon="05.799405"><ele>40.1</ele><time>2020-12-26T11:05:51Z</time><name>PT1014</name></trkpt>
<trkpt lat="52.036282" lon="05.799395"><ele>40</ele><time>2020-12-26T11:05:52Z</time><name>PT1015</name></trkpt>
<trkpt lat="52.036272" lon="05.799385"><ele>39.9</ele><time>2020-12-26T11:05:53Z</time><name>PT1016</name></trkpt>
<trkpt lat="52.036260" lon="05.799370"><ele>40</ele><time>2020-12-26T11:05:54Z</time><name>PT1017</name></trkpt>
<trkpt lat="52.036252" lon="05.799358"><ele>39.8</ele><time>2020-12-26T11:05:55Z</time><name>PT1018</name></trkpt>
<trkpt lat="52.036244" lon="05.799344"><ele>39.8</ele><time>2020-12-26T11:05:56Z</time><name>PT1019</name></trkpt>
<trkpt lat="52.036230" lon="05.799328"><ele>39.8</ele><time>2020-12-26T11:05:57Z</time><name>PT1020</name></trkpt>
<trkpt lat="52.036217" lon="05.799317"><ele>39.9</ele><time>2020-12-26T11:05:58Z</time><name>PT1021</name></trkpt>
<trkpt lat="52.036207" lon="05.799305"><ele>39.9</ele><time>2020-12-26T11:05:59Z</time><name>PT1022</name></trkpt>
<trkpt lat="52.036198" lon="05.799297"><ele>40.1</ele><time>2020-12-26T11:06:00Z</time><name>PT1023</name></trkpt>
<trkpt lat="52.036190" lon="05.799290"><ele>40.2</ele><time>2020-12-26T11:06:01Z</time><name>PT1024</name></trkpt>
<trkpt lat="52.036183" lon="05.799283"><ele>40.1</ele><time>2020-12-26T11:06:02Z</time><name>PT1025</name></trkpt>
<trkpt lat="52.036172" lon="05.799272"><ele>40.1</ele><time>2020-12-26T11:06:03Z</time><name>PT1026</name></trkpt>
<trkpt lat="52.036158" lon="05.799260"><ele>40.1</ele><time>2020-12-26T11:06:04Z</time><name>PT1027</name></trkpt>
<trkpt lat="52.036147" lon="05.799247"><ele>40.1</ele><time>2020-12-26T11:06:05Z</time><name>PT1028</name></trkpt>
<trkpt lat="52.036136" lon="05.799234"><ele>40.3</ele><time>2020-12-26T11:06:06Z</time><name>PT1029</name></trkpt>
<trkpt lat="52.036129" lon="05.799229"><ele>40.4</ele><time>2020-12-26T11:06:07Z</time><name>PT1030</name></trkpt>
<trkpt lat="52.036119" lon="05.799221"><ele>40.3</ele><time>2020-12-26T11:06:08Z</time><name>PT1031</name></trkpt>
<trkpt lat="52.036109" lon="05.799207"><ele>40.3</ele><time>2020-12-26T11:06:09Z</time><name>PT1032</name></trkpt>
<trkpt lat="52.036102" lon="05.799196"><ele>40</ele><time>2020-12-26T11:06:10Z</time><name>PT1033</name></trkpt>
<trkpt lat="52.036096" lon="05.799187"><ele>39.9</ele><time>2020-12-26T11:06:11Z</time><name>PT1034</name></trkpt>
<trkpt lat="52.036085" lon="05.799168"><ele>39.8</ele><time>2020-12-26T11:06:12Z</time><name>PT1035</name></trkpt>
<trkpt lat="52.036069" lon="05.799151"><ele>39.9</ele><time>2020-12-26T11:06:13Z</time><name>PT1036</name></trkpt>
<trkpt lat="52.036053" lon="05.799142"><ele>40</ele><time>2020-12-26T11:06:14Z</time><name>PT1037</name></trkpt>
<trkpt lat="52.036042" lon="05.799134"><ele>40.1</ele><time>2020-12-26T11:06:15Z</time><name>PT1038</name></trkpt>
<trkpt lat="52.036036" lon="05.799130"><ele>40.1</ele><time>2020-12-26T11:06:16Z</time><name>PT1039</name></trkpt>
<trkpt lat="52.036027" lon="05.799123"><ele>40.1</ele><time>2020-12-26T11:06:17Z</time><name>PT1040</name></trkpt>
<trkpt lat="52.036015" lon="05.799110"><ele>39.9</ele><time>2020-12-26T11:06:18Z</time><name>PT1041</name></trkpt>
<trkpt lat="52.036004" lon="05.799101"><ele>40.1</ele><time>2020-12-26T11:06:19Z</time><name>PT1042</name></trkpt>
<trkpt lat="52.035993" lon="05.799091"><ele>40.2</ele><time>2020-12-26T11:06:20Z</time><name>PT1043</name></trkpt>
<trkpt lat="52.035984" lon="05.799085"><ele>40.2</ele><time>2020-12-26T11:06:21Z</time><name>PT1044</name></trkpt>
<trkpt lat="52.035973" lon="05.799078"><ele>40.4</ele><time>2020-12-26T11:06:22Z</time><name>PT1045</name></trkpt>
<trkpt lat="52.035964" lon="05.799072"><ele>40.3</ele><time>2020-12-26T11:06:23Z</time><name>PT1046</name></trkpt>
<trkpt lat="52.035950" lon="05.799061"><ele>40.3</ele><time>2020-12-26T11:06:24Z</time><name>PT1047</name></trkpt>
<trkpt lat="52.035938" lon="05.799050"><ele>40.4</ele><time>2020-12-26T11:06:25Z</time><name>PT1048</name></trkpt>
<trkpt lat="52.035935" lon="05.799038"><ele>40.1</ele><time>2020-12-26T11:06:26Z</time><name>PT1049</name></trkpt>
<trkpt lat="52.035929" lon="05.799029"><ele>40.1</ele><time>2020-12-26T11:06:27Z</time><name>PT1050</name></trkpt>
<trkpt lat="52.035919" lon="05.799018"><ele>40</ele><time>2020-12-26T11:06:28Z</time><name>PT1051</name></trkpt>
<trkpt lat="52.035913" lon="05.799005"><ele>40</ele><time>2020-12-26T11:06:29Z</time><name>PT1052</name></trkpt>
<trkpt lat="52.035900" lon="05.798985"><ele>40</ele><time>2020-12-26T11:06:30Z</time><name>PT1053</name></trkpt>
<trkpt lat="52.035892" lon="05.798977"><ele>39.8</ele><time>2020-12-26T11:06:31Z</time><name>PT1054</name></trkpt>
<trkpt lat="52.035884" lon="05.798962"><ele>39.8</ele><time>2020-12-26T11:06:32Z</time><name>PT1055</name></trkpt>
<trkpt lat="52.035878" lon="05.798945"><ele>39.8</ele><time>2020-12-26T11:06:33Z</time><name>PT1056</name></trkpt>
<trkpt lat="52.035870" lon="05.798934"><ele>39.9</ele><time>2020-12-26T11:06:34Z</time><name>PT1057</name></trkpt>
<trkpt lat="52.035859" lon="05.798923"><ele>39.9</ele><time>2020-12-26T11:06:35Z</time><name>PT1058</name></trkpt>
<trkpt lat="52.035849" lon="05.798916"><ele>40.2</ele><time>2020-12-26T11:06:36Z</time><name>PT1059</name></trkpt>
<trkpt lat="52.035836" lon="05.798908"><ele>40.2</ele><time>2020-12-26T11:06:37Z</time><name>PT1060</name></trkpt>
<trkpt lat="52.035821" lon="05.798895"><ele>40.1</ele><time>2020-12-26T11:06:38Z</time><name>PT1061</name></trkpt>
<trkpt lat="52.035814" lon="05.798887"><ele>40</ele><time>2020-12-26T11:06:39Z</time><name>PT1062</name></trkpt>
<trkpt lat="52.035807" lon="05.798879"><ele>39.9</ele><time>2020-12-26T11:06:40Z</time><name>PT1063</name></trkpt>
<trkpt lat="52.035799" lon="05.798870"><ele>39.7</ele><time>2020-12-26T11:06:41Z</time><name>PT1064</name></trkpt>
<trkpt lat="52.035792" lon="05.798862"><ele>39.7</ele><time>2020-12-26T11:06:42Z</time><name>PT1065</name></trkpt>
<trkpt lat="52.035786" lon="05.798855"><ele>39.7</ele><time>2020-12-26T11:06:43Z</time><name>PT1066</name></trkpt>
<trkpt lat="52.035781" lon="05.798849"><ele>39.9</ele><time>2020-12-26T11:06:44Z</time><name>PT1067</name></trkpt>
<trkpt lat="52.035777" lon="05.798845"><ele>39.9</ele><time>2020-12-26T11:06:45Z</time><name>PT1068</name></trkpt>
<trkpt lat="52.035771" lon="05.798843"><ele>40</ele><time>2020-12-26T11:06:46Z</time><name>PT1069</name></trkpt>
<trkpt lat="52.035765" lon="05.798842"><ele>40.1</ele><time>2020-12-26T11:06:47Z</time><name>PT1070</name></trkpt>
<trkpt lat="52.035760" lon="05.798836"><ele>40.1</ele><time>2020-12-26T11:06:58Z</time><name>PT1071</name></trkpt>
<trkpt lat="52.035748" lon="05.798825"><ele>40.1</ele><time>2020-12-26T11:06:59Z</time><name>PT1072</name></trkpt>
<trkpt lat="52.035741" lon="05.798812"><ele>40</ele><time>2020-12-26T11:07:00Z</time><name>PT1073</name></trkpt>
<trkpt lat="52.035732" lon="05.798797"><ele>40.2</ele><time>2020-12-26T11:07:01Z</time><name>PT1074</name></trkpt>
<trkpt lat="52.035723" lon="05.798795"><ele>40.2</ele><time>2020-12-26T11:07:02Z</time><name>PT1075</name></trkpt>
<trkpt lat="52.035717" lon="05.798792"><ele>40.1</ele><time>2020-12-26T11:07:03Z</time><name>PT1076</name></trkpt>
<trkpt lat="52.035713" lon="05.798786"><ele>40.1</ele><time>2020-12-26T11:07:04Z</time><name>PT1077</name></trkpt>
<trkpt lat="52.035698" lon="05.798784"><ele>40</ele><time>2020-12-26T11:07:05Z</time><name>PT1078</name></trkpt>
<trkpt lat="52.035691" lon="05.798779"><ele>39.9</ele><time>2020-12-26T11:07:06Z</time><name>PT1079</name></trkpt>
<trkpt lat="52.035682" lon="05.798771"><ele>39.9</ele><time>2020-12-26T11:07:07Z</time><name>PT1080</name></trkpt>
<trkpt lat="52.035677" lon="05.798763"><ele>39.9</ele><time>2020-12-26T11:07:08Z</time><name>PT1081</name></trkpt>
<trkpt lat="52.035669" lon="05.798751"><ele>40</ele><time>2020-12-26T11:07:09Z</time><name>PT1082</name></trkpt>
<trkpt lat="52.035665" lon="05.798744"><ele>40.1</ele><time>2020-12-26T11:07:10Z</time><name>PT1083</name></trkpt>
<trkpt lat="52.035658" lon="05.798738"><ele>40.2</ele><time>2020-12-26T11:07:11Z</time><name>PT1084</name></trkpt>
<trkpt lat="52.035652" lon="05.798732"><ele>40.2</ele><time>2020-12-26T11:07:12Z</time><name>PT1085</name></trkpt>
<trkpt lat="52.035644" lon="05.798715"><ele>40.2</ele><time>2020-12-26T11:07:13Z</time><name>PT1086</name></trkpt>
<trkpt lat="52.035639" lon="05.798708"><ele>40.2</ele><time>2020-12-26T11:07:14Z</time><name>PT1087</name></trkpt>
<trkpt lat="52.035629" lon="05.798689"><ele>40.3</ele><time>2020-12-26T11:07:15Z</time><name>PT1088</name></trkpt>
<trkpt lat="52.035623" lon="05.798681"><ele>40.2</ele><time>2020-12-26T11:07:16Z</time><name>PT1089</name></trkpt>
<trkpt lat="52.035617" lon="05.798673"><ele>40.1</ele><time>2020-12-26T11:07:17Z</time><name>PT1090</name></trkpt>
<trkpt lat="52.035611" lon="05.798663"><ele>40.2</ele><time>2020-12-26T11:07:18Z</time><name>PT1091</name></trkpt>
<trkpt lat="52.035604" lon="05.798654"><ele>40.2</ele><time>2020-12-26T11:07:19Z</time><name>PT1092</name></trkpt>
<trkpt lat="52.035600" lon="05.798646"><ele>40.3</ele><time>2020-12-26T11:07:20Z</time><name>PT1093</name></trkpt>
<trkpt lat="52.035596" lon="05.798635"><ele>40.4</ele><time>2020-12-26T11:07:21Z</time><name>PT1094</name></trkpt>
<trkpt lat="52.035593" lon="05.798627"><ele>40.2</ele><time>2020-12-26T11:07:22Z</time><name>PT1095</name></trkpt>
<trkpt lat="52.035590" lon="05.798614"><ele>40.4</ele><time>2020-12-26T11:07:23Z</time><name>PT1096</name></trkpt>
<trkpt lat="52.035595" lon="05.798605"><ele>40.4</ele><time>2020-12-26T11:07:24Z</time><name>PT1097</name></trkpt>
<trkpt lat="52.035594" lon="05.798601"><ele>40.3</ele><time>2020-12-26T11:07:25Z</time><name>PT1098</name></trkpt>
<trkpt lat="52.035595" lon="05.798595"><ele>40.2</ele><time>2020-12-26T11:07:26Z</time><name>PT1099</name></trkpt>
<trkpt lat="52.035596" lon="05.798593"><ele>40.1</ele><time>2020-12-26T11:07:27Z</time><name>PT1100</name></trkpt>
<trkpt lat="52.035595" lon="05.798584"><ele>40.1</ele><time>2020-12-26T11:07:58Z</time><name>PT1101</name></trkpt>
<trkpt lat="52.035589" lon="05.798558"><ele>40</ele><time>2020-12-26T11:07:59Z</time><name>PT1102</name></trkpt>
<trkpt lat="52.035596" lon="05.798545"><ele>40</ele><time>2020-12-26T11:08:00Z</time><name>PT1103</name></trkpt>
<trkpt lat="52.035595" lon="05.798541"><ele>40.1</ele><time>2020-12-26T11:08:01Z</time><name>PT1104</name></trkpt>
<trkpt lat="52.035592" lon="05.798536"><ele>40.2</ele><time>2020-12-26T11:08:02Z</time><name>PT1105</name></trkpt>
<trkpt lat="52.035591" lon="05.798528"><ele>40.4</ele><time>2020-12-26T11:08:03Z</time><name>PT1106</name></trkpt>
<trkpt lat="52.035589" lon="05.798516"><ele>40.4</ele><time>2020-12-26T11:08:04Z</time><name>PT1107</name></trkpt>
<trkpt lat="52.035581" lon="05.798513"><ele>40.3</ele><time>2020-12-26T11:08:05Z</time><name>PT1108</name></trkpt>
<trkpt lat="52.035581" lon="05.798507"><ele>40.2</ele><time>2020-12-26T11:08:06Z</time><name>PT1109</name></trkpt>
<trkpt lat="52.035582" lon="05.798501"><ele>40.1</ele><time>2020-12-26T11:08:07Z</time><name>PT1110</name></trkpt>
<trkpt lat="52.035583" lon="05.798495"><ele>40.1</ele><time>2020-12-26T11:08:08Z</time><name>PT1111</name></trkpt>
<trkpt lat="52.035583" lon="05.798491"><ele>40.2</ele><time>2020-12-26T11:08:09Z</time><name>PT1112</name></trkpt>
<trkpt lat="52.035588" lon="05.798487"><ele>40</ele><time>2020-12-26T11:08:10Z</time><name>PT1113</name></trkpt>
<trkpt lat="52.035593" lon="05.798481"><ele>40</ele><time>2020-12-26T11:08:11Z</time><name>PT1114</name></trkpt>
<trkpt lat="52.035595" lon="05.798471"><ele>40</ele><time>2020-12-26T11:08:12Z</time><name>PT1115</name></trkpt>
<trkpt lat="52.035599" lon="05.798461"><ele>40</ele><time>2020-12-26T11:08:13Z</time><name>PT1116</name></trkpt>
<trkpt lat="52.035599" lon="05.798455"><ele>40.3</ele><time>2020-12-26T11:08:14Z</time><name>PT1117</name></trkpt>
<trkpt lat="52.035600" lon="05.798449"><ele>40.4</ele><time>2020-12-26T11:08:15Z</time><name>PT1118</name></trkpt>
<trkpt lat="52.035602" lon="05.798450"><ele>40.3</ele><time>2020-12-26T11:08:16Z</time><name>PT1119</name></trkpt>
<trkpt lat="52.035603" lon="05.798450"><ele>40.4</ele><time>2020-12-26T11:08:17Z</time><name>PT1120</name></trkpt>
<trkpt lat="52.035602" lon="05.798448"><ele>40.4</ele><time>2020-12-26T11:08:18Z</time><name>PT1121</name></trkpt>
<trkpt lat="52.035604" lon="05.798440"><ele>40.5</ele><time>2020-12-26T11:08:19Z</time><name>PT1122</name></trkpt>
<trkpt lat="52.035605" lon="05.798423"><ele>40.5</ele><time>2020-12-26T11:08:20Z</time><name>PT1123</name></trkpt>
<trkpt lat="52.035610" lon="05.798411"><ele>40.7</ele><time>2020-12-26T11:08:21Z</time><name>PT1124</name></trkpt>
<trkpt lat="52.035618" lon="05.798399"><ele>40.4</ele><time>2020-12-26T11:08:22Z</time><name>PT1125</name></trkpt>
<trkpt lat="52.035628" lon="05.798389"><ele>40.2</ele><time>2020-12-26T11:08:23Z</time><name>PT1126</name></trkpt>
<trkpt lat="52.035632" lon="05.798377"><ele>40.2</ele><time>2020-12-26T11:08:24Z</time><name>PT1127</name></trkpt>
<trkpt lat="52.035634" lon="05.798362"><ele>40.1</ele><time>2020-12-26T11:08:25Z</time><name>PT1128</name></trkpt>
<trkpt lat="52.035637" lon="05.798343"><ele>40.2</ele><time>2020-12-26T11:08:26Z</time><name>PT1129</name></trkpt>
<trkpt lat="52.035639" lon="05.798327"><ele>40.3</ele><time>2020-12-26T11:08:27Z</time><name>PT1130</name></trkpt>
<trkpt lat="52.035640" lon="05.798309"><ele>40.1</ele><time>2020-12-26T11:08:28Z</time><name>PT1131</name></trkpt>
<trkpt lat="52.035642" lon="05.798293"><ele>40.3</ele><time>2020-12-26T11:08:29Z</time><name>PT1132</name></trkpt>
<trkpt lat="52.035644" lon="05.798278"><ele>40.4</ele><time>2020-12-26T11:08:30Z</time><name>PT1133</name></trkpt>
<trkpt lat="52.035653" lon="05.798269"><ele>40.4</ele><time>2020-12-26T11:08:31Z</time><name>PT1134</name></trkpt>
<trkpt lat="52.035661" lon="05.798260"><ele>40.5</ele><time>2020-12-26T11:08:32Z</time><name>PT1135</name></trkpt>
<trkpt lat="52.035668" lon="05.798251"><ele>40.6</ele><time>2020-12-26T11:08:33Z</time><name>PT1136</name></trkpt>
<trkpt lat="52.035675" lon="05.798245"><ele>40.4</ele><time>2020-12-26T11:08:34Z</time><name>PT1137</name></trkpt>
<trkpt lat="52.035683" lon="05.798232"><ele>40.2</ele><time>2020-12-26T11:08:35Z</time><name>PT1138</name></trkpt>
<trkpt lat="52.035690" lon="05.798220"><ele>40</ele><time>2020-12-26T11:08:36Z</time><name>PT1139</name></trkpt>
<trkpt lat="52.035698" lon="05.798208"><ele>39.9</ele><time>2020-12-26T11:08:37Z</time><name>PT1140</name></trkpt>
<trkpt lat="52.035705" lon="05.798189"><ele>39.9</ele><time>2020-12-26T11:08:38Z</time><name>PT1141</name></trkpt>
<trkpt lat="52.035712" lon="05.798169"><ele>39.9</ele><time>2020-12-26T11:08:39Z</time><name>PT1142</name></trkpt>
<trkpt lat="52.035718" lon="05.798154"><ele>39.9</ele><time>2020-12-26T11:08:40Z</time><name>PT1143</name></trkpt>
<trkpt lat="52.035723" lon="05.798138"><ele>39.8</ele><time>2020-12-26T11:08:41Z</time><name>PT1144</name></trkpt>
<trkpt lat="52.035729" lon="05.798128"><ele>39.6</ele><time>2020-12-26T11:08:42Z</time><name>PT1145</name></trkpt>
<trkpt lat="52.035737" lon="05.798115"><ele>39.8</ele><time>2020-12-26T11:08:43Z</time><name>PT1146</name></trkpt>
<trkpt lat="52.035742" lon="05.798103"><ele>39.8</ele><time>2020-12-26T11:08:44Z</time><name>PT1147</name></trkpt>
<trkpt lat="52.035750" lon="05.798090"><ele>39.8</ele><time>2020-12-26T11:08:45Z</time><name>PT1148</name></trkpt>
<trkpt lat="52.035758" lon="05.798079"><ele>39.7</ele><time>2020-12-26T11:08:46Z</time><name>PT1149</name></trkpt>
<trkpt lat="52.035764" lon="05.798062"><ele>39.7</ele><time>2020-12-26T11:08:47Z</time><name>PT1150</name></trkpt>
<trkpt lat="52.035770" lon="05.798045"><ele>39.5</ele><time>2020-12-26T11:08:48Z</time><name>PT1151</name></trkpt>
<trkpt lat="52.035776" lon="05.798031"><ele>39.5</ele><time>2020-12-26T11:08:49Z</time><name>PT1152</name></trkpt>
<trkpt lat="52.035779" lon="05.798018"><ele>39.5</ele><time>2020-12-26T11:08:50Z</time><name>PT1153</name></trkpt>
<trkpt lat="52.035786" lon="05.798002"><ele>39.3</ele><time>2020-12-26T11:08:51Z</time><name>PT1154</name></trkpt>
<trkpt lat="52.035791" lon="05.797990"><ele>39.5</ele><time>2020-12-26T11:08:52Z</time><name>PT1155</name></trkpt>
<trkpt lat="52.035797" lon="05.797977"><ele>39.5</ele><time>2020-12-26T11:08:53Z</time><name>PT1156</name></trkpt>
<trkpt lat="52.035804" lon="05.797960"><ele>39.5</ele><time>2020-12-26T11:08:54Z</time><name>PT1157</name></trkpt>
<trkpt lat="52.035811" lon="05.797942"><ele>39.5</ele><time>2020-12-26T11:08:55Z</time><name>PT1158</name></trkpt>
<trkpt lat="52.035818" lon="05.797930"><ele>39.5</ele><time>2020-12-26T11:08:56Z</time><name>PT1159</name></trkpt>
<trkpt lat="52.035827" lon="05.797914"><ele>39.5</ele><time>2020-12-26T11:08:57Z</time><name>PT1160</name></trkpt>
<trkpt lat="52.035836" lon="05.797901"><ele>39.6</ele><time>2020-12-26T11:08:58Z</time><name>PT1161</name></trkpt>
<trkpt lat="52.035842" lon="05.797882"><ele>39.5</ele><time>2020-12-26T11:08:59Z</time><name>PT1162</name></trkpt>
<trkpt lat="52.035846" lon="05.797867"><ele>39.8</ele><time>2020-12-26T11:09:00Z</time><name>PT1163</name></trkpt>
<trkpt lat="52.035851" lon="05.797851"><ele>39.9</ele><time>2020-12-26T11:09:01Z</time><name>PT1164</name></trkpt>
<trkpt lat="52.035854" lon="05.797837"><ele>39.9</ele><time>2020-12-26T11:09:02Z</time><name>PT1165</name></trkpt>
<trkpt lat="52.035860" lon="05.797818"><ele>39.9</ele><time>2020-12-26T11:09:03Z</time><name>PT1166</name></trkpt>
<trkpt lat="52.035865" lon="05.797795"><ele>39.8</ele><time>2020-12-26T11:09:04Z</time><name>PT1167</name></trkpt>
<trkpt lat="52.035872" lon="05.797775"><ele>39.8</ele><time>2020-12-26T11:09:05Z</time><name>PT1168</name></trkpt>
<trkpt lat="52.035879" lon="05.797760"><ele>40</ele><time>2020-12-26T11:09:06Z</time><name>PT1169</name></trkpt>
<trkpt lat="52.035885" lon="05.797744"><ele>40</ele><time>2020-12-26T11:09:07Z</time><name>PT1170</name></trkpt>
<trkpt lat="52.035890" lon="05.797726"><ele>39.9</ele><time>2020-12-26T11:09:08Z</time><name>PT1171</name></trkpt>
<trkpt lat="52.035897" lon="05.797704"><ele>39.9</ele><time>2020-12-26T11:09:09Z</time><name>PT1172</name></trkpt>
<trkpt lat="52.035903" lon="05.797683"><ele>39.9</ele><time>2020-12-26T11:09:10Z</time><name>PT1173</name></trkpt>
<trkpt lat="52.035909" lon="05.797671"><ele>39.8</ele><time>2020-12-26T11:09:11Z</time><name>PT1174</name></trkpt>
<trkpt lat="52.035916" lon="05.797656"><ele>39.7</ele><time>2020-12-26T11:09:12Z</time><name>PT1175</name></trkpt>
<trkpt lat="52.035925" lon="05.797641"><ele>39.7</ele><time>2020-12-26T11:09:13Z</time><name>PT1176</name></trkpt>
<trkpt lat="52.035931" lon="05.797629"><ele>39.6</ele><time>2020-12-26T11:09:14Z</time><name>PT1177</name></trkpt>
<trkpt lat="52.035934" lon="05.797612"><ele>39.7</ele><time>2020-12-26T11:09:15Z</time><name>PT1178</name></trkpt>
<trkpt lat="52.035940" lon="05.797595"><ele>39.7</ele><time>2020-12-26T11:09:16Z</time><name>PT1179</name></trkpt>
<trkpt lat="52.035946" lon="05.797578"><ele>39.8</ele><time>2020-12-26T11:09:17Z</time><name>PT1180</name></trkpt>
<trkpt lat="52.035954" lon="05.797561"><ele>39.8</ele><time>2020-12-26T11:09:18Z</time><name>PT1181</name></trkpt>
<trkpt lat="52.035964" lon="05.797545"><ele>39.8</ele><time>2020-12-26T11:09:19Z</time><name>PT1182</name></trkpt>
<trkpt lat="52.035972" lon="05.797528"><ele>39.8</ele><time>2020-12-26T11:09:20Z</time><name>PT1183</name></trkpt>
<trkpt lat="52.035982" lon="05.797512"><ele>39.7</ele><time>2020-12-26T11:09:21Z</time><name>PT1184</name></trkpt>
<trkpt lat="52.035993" lon="05.797497"><ele>39.9</ele><time>2020-12-26T11:09:22Z</time><name>PT1185</name></trkpt>
<trkpt lat="52.036001" lon="05.797483"><ele>39.8</ele><time>2020-12-26T11:09:23Z</time><name>PT1186</name></trkpt>
<trkpt lat="52.036010" lon="05.797470"><ele>39.9</ele><time>2020-12-26T11:09:24Z</time><name>PT1187</name></trkpt>
<trkpt lat="52.036016" lon="05.797457"><ele>39.9</ele><time>2020-12-26T11:09:25Z</time><name>PT1188</name></trkpt>
<trkpt lat="52.036023" lon="05.797443"><ele>39.9</ele><time>2020-12-26T11:09:26Z</time><name>PT1189</name></trkpt>
<trkpt lat="52.036029" lon="05.797434"><ele>40</ele><time>2020-12-26T11:09:27Z</time><name>PT1190</name></trkpt>
<trkpt lat="52.036039" lon="05.797417"><ele>40</ele><time>2020-12-26T11:09:28Z</time><name>PT1191</name></trkpt>
<trkpt lat="52.036045" lon="05.797404"><ele>39.9</ele><time>2020-12-26T11:09:29Z</time><name>PT1192</name></trkpt>
<trkpt lat="52.036050" lon="05.797392"><ele>40</ele><time>2020-12-26T11:09:30Z</time><name>PT1193</name></trkpt>
<trkpt lat="52.036054" lon="05.797384"><ele>39.9</ele><time>2020-12-26T11:09:31Z</time><name>PT1194</name></trkpt>
<trkpt lat="52.036057" lon="05.797376"><ele>39.9</ele><time>2020-12-26T11:09:32Z</time><name>PT1195</name></trkpt>
<trkpt lat="52.036059" lon="05.797373"><ele>40</ele><time>2020-12-26T11:09:33Z</time><name>PT1196</name></trkpt>
<trkpt lat="52.036061" lon="05.797371"><ele>39.9</ele><time>2020-12-26T11:09:34Z</time><name>PT1197</name></trkpt>
<trkpt lat="52.036062" lon="05.797370"><ele>39.8</ele><time>2020-12-26T11:09:35Z</time><name>PT1198</name></trkpt>
<trkpt lat="52.036059" lon="05.797359"><ele>39.7</ele><time>2020-12-26T11:09:52Z</time><name>PT1199</name></trkpt>
<trkpt lat="52.036061" lon="05.797345"><ele>39.7</ele><time>2020-12-26T11:09:53Z</time><name>PT1200</name></trkpt>
<trkpt lat="52.036066" lon="05.797334"><ele>39.6</ele><time>2020-12-26T11:09:54Z</time><name>PT1201</name></trkpt>
<trkpt lat="52.036079" lon="05.797314"><ele>39.7</ele><time>2020-12-26T11:09:55Z</time><name>PT1202</name></trkpt>
<trkpt lat="52.036087" lon="05.797299"><ele>39.5</ele><time>2020-12-26T11:09:56Z</time><name>PT1203</name></trkpt>
<trkpt lat="52.036094" lon="05.797285"><ele>39.5</ele><time>2020-12-26T11:09:57Z</time><name>PT1204</name></trkpt>
<trkpt lat="52.036105" lon="05.797275"><ele>39.4</ele><time>2020-12-26T11:09:58Z</time><name>PT1205</name></trkpt>
<trkpt lat="52.036113" lon="05.797262"><ele>39.4</ele><time>2020-12-26T11:09:59Z</time><name>PT1206</name></trkpt>
<trkpt lat="52.036118" lon="05.797248"><ele>39.4</ele><time>2020-12-26T11:10:00Z</time><name>PT1207</name></trkpt>
<trkpt lat="52.036127" lon="05.797235"><ele>39.5</ele><time>2020-12-26T11:10:01Z</time><name>PT1208</name></trkpt>
<trkpt lat="52.036129" lon="05.797217"><ele>39.5</ele><time>2020-12-26T11:10:02Z</time><name>PT1209</name></trkpt>
<trkpt lat="52.036133" lon="05.797201"><ele>39.5</ele><time>2020-12-26T11:10:03Z</time><name>PT1210</name></trkpt>
<trkpt lat="52.036136" lon="05.797189"><ele>39.5</ele><time>2020-12-26T11:10:04Z</time><name>PT1211</name></trkpt>
<trkpt lat="52.036140" lon="05.797178"><ele>39.6</ele><time>2020-12-26T11:10:05Z</time><name>PT1212</name></trkpt>
<trkpt lat="52.036145" lon="05.797166"><ele>39.5</ele><time>2020-12-26T11:10:06Z</time><name>PT1213</name></trkpt>
<trkpt lat="52.036152" lon="05.797152"><ele>39.7</ele><time>2020-12-26T11:10:07Z</time><name>PT1214</name></trkpt>
<trkpt lat="52.036161" lon="05.797142"><ele>39.6</ele><time>2020-12-26T11:10:08Z</time><name>PT1215</name></trkpt>
<trkpt lat="52.036164" lon="05.797133"><ele>39.4</ele><time>2020-12-26T11:10:09Z</time><name>PT1216</name></trkpt>
<trkpt lat="52.036168" lon="05.797131"><ele>39.3</ele><time>2020-12-26T11:10:10Z</time><name>PT1217</name></trkpt>
<trkpt lat="52.036170" lon="05.797125"><ele>39.2</ele><time>2020-12-26T11:10:11Z</time><name>PT1218</name></trkpt>
<trkpt lat="52.036172" lon="05.797116"><ele>39.2</ele><time>2020-12-26T11:10:12Z</time><name>PT1219</name></trkpt>
<trkpt lat="52.036173" lon="05.797105"><ele>39.5</ele><time>2020-12-26T11:10:13Z</time><name>PT1220</name></trkpt>
<trkpt lat="52.036178" lon="05.797094"><ele>39.5</ele><time>2020-12-26T11:10:14Z</time><name>PT1221</name></trkpt>
<trkpt lat="52.036183" lon="05.797083"><ele>39.7</ele><time>2020-12-26T11:10:15Z</time><name>PT1222</name></trkpt>
<trkpt lat="52.036192" lon="05.797071"><ele>39.7</ele><time>2020-12-26T11:10:16Z</time><name>PT1223</name></trkpt>
<trkpt lat="52.036199" lon="05.797059"><ele>39.5</ele><time>2020-12-26T11:10:17Z</time><name>PT1224</name></trkpt>
<trkpt lat="52.036208" lon="05.797046"><ele>39.4</ele><time>2020-12-26T11:10:18Z</time><name>PT1225</name></trkpt>
<trkpt lat="52.036216" lon="05.797034"><ele>39.5</ele><time>2020-12-26T11:10:19Z</time><name>PT1226</name></trkpt>
<trkpt lat="52.036224" lon="05.797026"><ele>39.5</ele><time>2020-12-26T11:10:20Z</time><name>PT1227</name></trkpt>
<trkpt lat="52.036232" lon="05.797018"><ele>39.6</ele><time>2020-12-26T11:10:21Z</time><name>PT1228</name></trkpt>
<trkpt lat="52.036241" lon="05.797012"><ele>39.6</ele><time>2020-12-26T11:10:22Z</time><name>PT1229</name></trkpt>
<trkpt lat="52.036249" lon="05.797008"><ele>39.7</ele><time>2020-12-26T11:10:23Z</time><name>PT1230</name></trkpt>
<trkpt lat="52.036257" lon="05.796999"><ele>39.7</ele><time>2020-12-26T11:10:24Z</time><name>PT1231</name></trkpt>
<trkpt lat="52.036264" lon="05.796991"><ele>39.7</ele><time>2020-12-26T11:10:25Z</time><name>PT1232</name></trkpt>
<trkpt lat="52.036271" lon="05.796979"><ele>39.7</ele><time>2020-12-26T11:10:26Z</time><name>PT1233</name></trkpt>
<trkpt lat="52.036280" lon="05.796966"><ele>39.8</ele><time>2020-12-26T11:10:27Z</time><name>PT1234</name></trkpt>
<trkpt lat="52.036285" lon="05.796952"><ele>39.8</ele><time>2020-12-26T11:10:28Z</time><name>PT1235</name></trkpt>
<trkpt lat="52.036287" lon="05.796938"><ele>39.8</ele><time>2020-12-26T11:10:29Z</time><name>PT1236</name></trkpt>
<trkpt lat="52.036292" lon="05.796927"><ele>39.7</ele><time>2020-12-26T11:10:30Z</time><name>PT1237</name></trkpt>
<trkpt lat="52.036297" lon="05.796915"><ele>39.6</ele><time>2020-12-26T11:10:31Z</time><name>PT1238</name></trkpt>
<trkpt lat="52.036306" lon="05.796904"><ele>39.5</ele><time>2020-12-26T11:10:32Z</time><name>PT1239</name></trkpt>
<trkpt lat="52.036312" lon="05.796894"><ele>39.5</ele><time>2020-12-26T11:10:33Z</time><name>PT1240</name></trkpt>
<trkpt lat="52.036320" lon="05.796881"><ele>39.4</ele><time>2020-12-26T11:10:34Z</time><name>PT1241</name></trkpt>
<trkpt lat="52.036325" lon="05.796871"><ele>39.3</ele><time>2020-12-26T11:10:35Z</time><name>PT1242</name></trkpt>
<trkpt lat="52.036330" lon="05.796859"><ele>39.3</ele><time>2020-12-26T11:10:36Z</time><name>PT1243</name></trkpt>
<trkpt lat="52.036336" lon="05.796845"><ele>39.2</ele><time>2020-12-26T11:10:37Z</time><name>PT1244</name></trkpt>
<trkpt lat="52.036343" lon="05.796833"><ele>39.3</ele><time>2020-12-26T11:10:38Z</time><name>PT1245</name></trkpt>
<trkpt lat="52.036352" lon="05.796821"><ele>39.3</ele><time>2020-12-26T11:10:39Z</time><name>PT1246</name></trkpt>
<trkpt lat="52.036359" lon="05.796809"><ele>39</ele><time>2020-12-26T11:10:40Z</time><name>PT1247</name></trkpt>
<trkpt lat="52.036365" lon="05.796798"><ele>39.1</ele><time>2020-12-26T11:10:41Z</time><name>PT1248</name></trkpt>
<trkpt lat="52.036372" lon="05.796790"><ele>39.2</ele><time>2020-12-26T11:10:42Z</time><name>PT1249</name></trkpt>
<trkpt lat="52.036381" lon="05.796781"><ele>39.1</ele><time>2020-12-26T11:10:43Z</time><name>PT1250</name></trkpt>
<trkpt lat="52.036390" lon="05.796773"><ele>39.1</ele><time>2020-12-26T11:10:44Z</time><name>PT1251</name></trkpt>
<trkpt lat="52.036399" lon="05.796763"><ele>39.1</ele><time>2020-12-26T11:10:45Z</time><name>PT1252</name></trkpt>
<trkpt lat="52.036406" lon="05.796751"><ele>39.2</ele><time>2020-12-26T11:10:46Z</time><name>PT1253</name></trkpt>
<trkpt lat="52.036415" lon="05.796740"><ele>39.2</ele><time>2020-12-26T11:10:47Z</time><name>PT1254</name></trkpt>
<trkpt lat="52.036424" lon="05.796736"><ele>39.4</ele><time>2020-12-26T11:10:48Z</time><name>PT1255</name></trkpt>
<trkpt lat="52.036433" lon="05.796731"><ele>39.5</ele><time>2020-12-26T11:10:49Z</time><name>PT1256</name></trkpt>
<trkpt lat="52.036445" lon="05.796723"><ele>39.5</ele><time>2020-12-26T11:10:50Z</time><name>PT1257</name></trkpt>
<trkpt lat="52.036454" lon="05.796713"><ele>39.3</ele><time>2020-12-26T11:10:51Z</time><name>PT1258</name></trkpt>
<trkpt lat="52.036463" lon="05.796703"><ele>39.2</ele><time>2020-12-26T11:10:52Z</time><name>PT1259</name></trkpt>
<trkpt lat="52.036473" lon="05.796690"><ele>39.1</ele><time>2020-12-26T11:10:53Z</time><name>PT1260</name></trkpt>
<trkpt lat="52.036483" lon="05.796678"><ele>39</ele><time>2020-12-26T11:10:54Z</time><name>PT1261</name></trkpt>
<trkpt lat="52.036493" lon="05.796668"><ele>39</ele><time>2020-12-26T11:10:55Z</time><name>PT1262</name></trkpt>
<trkpt lat="52.036504" lon="05.796661"><ele>39</ele><time>2020-12-26T11:10:56Z</time><name>PT1263</name></trkpt>
<trkpt lat="52.036515" lon="05.796656"><ele>39.1</ele><time>2020-12-26T11:10:57Z</time><name>PT1264</name></trkpt>
<trkpt lat="52.036526" lon="05.796651"><ele>39.3</ele><time>2020-12-26T11:10:58Z</time><name>PT1265</name></trkpt>
<trkpt lat="52.036535" lon="05.796644"><ele>39.4</ele><time>2020-12-26T11:10:59Z</time><name>PT1266</name></trkpt>
<trkpt lat="52.036546" lon="05.796636"><ele>39.3</ele><time>2020-12-26T11:11:00Z</time><name>PT1267</name></trkpt>
<trkpt lat="52.036556" lon="05.796626"><ele>39.3</ele><time>2020-12-26T11:11:01Z</time><name>PT1268</name></trkpt>
<trkpt lat="52.036565" lon="05.796618"><ele>39.1</ele><time>2020-12-26T11:11:02Z</time><name>PT1269</name></trkpt>
<trkpt lat="52.036574" lon="05.796612"><ele>39</ele><time>2020-12-26T11:11:03Z</time><name>PT1270</name></trkpt>
<trkpt lat="52.036585" lon="05.796605"><ele>38.9</ele><time>2020-12-26T11:11:04Z</time><name>PT1271</name></trkpt>
<trkpt lat="52.036596" lon="05.796598"><ele>38.9</ele><time>2020-12-26T11:11:05Z</time><name>PT1272</name></trkpt>
<trkpt lat="52.036606" lon="05.796590"><ele>38.9</ele><time>2020-12-26T11:11:06Z</time><name>PT1273</name></trkpt>
<trkpt lat="52.036618" lon="05.796584"><ele>39</ele><time>2020-12-26T11:11:07Z</time><name>PT1274</name></trkpt>
<trkpt lat="52.036629" lon="05.796576"><ele>39</ele><time>2020-12-26T11:11:08Z</time><name>PT1275</name></trkpt>
<trkpt lat="52.036641" lon="05.796571"><ele>39.1</ele><time>2020-12-26T11:11:09Z</time><name>PT1276</name></trkpt>
<trkpt lat="52.036652" lon="05.796565"><ele>39.1</ele><time>2020-12-26T11:11:10Z</time><name>PT1277</name></trkpt>
<trkpt lat="52.036661" lon="05.796560"><ele>39.2</ele><time>2020-12-26T11:11:11Z</time><name>PT1278</name></trkpt>
<trkpt lat="52.036672" lon="05.796554"><ele>39.2</ele><time>2020-12-26T11:11:12Z</time><name>PT1279</name></trkpt>
<trkpt lat="52.036682" lon="05.796548"><ele>39.1</ele><time>2020-12-26T11:11:13Z</time><name>PT1280</name></trkpt>
<trkpt lat="52.036692" lon="05.796542"><ele>39.1</ele><time>2020-12-26T11:11:14Z</time><name>PT1281</name></trkpt>
<trkpt lat="52.036703" lon="05.796536"><ele>39</ele><time>2020-12-26T11:11:15Z</time><name>PT1282</name></trkpt>
<trkpt lat="52.036712" lon="05.796530"><ele>39.2</ele><time>2020-12-26T11:11:16Z</time><name>PT1283</name></trkpt>
<trkpt lat="52.036721" lon="05.796523"><ele>39.2</ele><time>2020-12-26T11:11:17Z</time><name>PT1284</name></trkpt>
<trkpt lat="52.036731" lon="05.796517"><ele>39.1</ele><time>2020-12-26T11:11:18Z</time><name>PT1285</name></trkpt>
<trkpt lat="52.036740" lon="05.796510"><ele>39.1</ele><time>2020-12-26T11:11:19Z</time><name>PT1286</name></trkpt>
<trkpt lat="52.036750" lon="05.796502"><ele>39</ele><time>2020-12-26T11:11:20Z</time><name>PT1287</name></trkpt>
<trkpt lat="52.036759" lon="05.796494"><ele>39</ele><time>2020-12-26T11:11:21Z</time><name>PT1288</name></trkpt>
<trkpt lat="52.036769" lon="05.796485"><ele>39</ele><time>2020-12-26T11:11:22Z</time><name>PT1289</name></trkpt>
<trkpt lat="52.036780" lon="05.796476"><ele>39</ele><time>2020-12-26T11:11:23Z</time><name>PT1290</name></trkpt>
<trkpt lat="52.036788" lon="05.796465"><ele>38.8</ele><time>2020-12-26T11:11:24Z</time><name>PT1291</name></trkpt>
<trkpt lat="52.036798" lon="05.796456"><ele>38.5</ele><time>2020-12-26T11:11:25Z</time><name>PT1292</name></trkpt>
<trkpt lat="52.036806" lon="05.796450"><ele>38.5</ele><time>2020-12-26T11:11:26Z</time><name>PT1293</name></trkpt>
<trkpt lat="52.036815" lon="05.796445"><ele>38.5</ele><time>2020-12-26T11:11:27Z</time><name>PT1294</name></trkpt>
<trkpt lat="52.036824" lon="05.796440"><ele>38.7</ele><time>2020-12-26T11:11:28Z</time><name>PT1295</name></trkpt>
<trkpt lat="52.036833" lon="05.796431"><ele>38.8</ele><time>2020-12-26T11:11:29Z</time><name>PT1296</name></trkpt>
<trkpt lat="52.036842" lon="05.796421"><ele>38.8</ele><time>2020-12-26T11:11:30Z</time><name>PT1297</name></trkpt>
<trkpt lat="52.036851" lon="05.796416"><ele>38.9</ele><time>2020-12-26T11:11:31Z</time><name>PT1298</name></trkpt>
<trkpt lat="52.036861" lon="05.796408"><ele>39</ele><time>2020-12-26T11:11:32Z</time><name>PT1299</name></trkpt>
<trkpt lat="52.036870" lon="05.796403"><ele>38.8</ele><time>2020-12-26T11:11:33Z</time><name>PT1300</name></trkpt>
<trkpt lat="52.036878" lon="05.796404"><ele>38.9</ele><time>2020-12-26T11:11:34Z</time><name>PT1301</name></trkpt>
<trkpt lat="52.036886" lon="05.796402"><ele>38.8</ele><time>2020-12-26T11:11:35Z</time><name>PT1302</name></trkpt>
<trkpt lat="52.036893" lon="05.796399"><ele>38.7</ele><time>2020-12-26T11:11:36Z</time><name>PT1303</name></trkpt>
<trkpt lat="52.036903" lon="05.796396"><ele>38.6</ele><time>2020-12-26T11:11:37Z</time><name>PT1304</name></trkpt>
<trkpt lat="52.036914" lon="05.796390"><ele>38.7</ele><time>2020-12-26T11:11:38Z</time><name>PT1305</name></trkpt>
<trkpt lat="52.036924" lon="05.796383"><ele>38.7</ele><time>2020-12-26T11:11:39Z</time><name>PT1306</name></trkpt>
<trkpt lat="52.036935" lon="05.796378"><ele>38.7</ele><time>2020-12-26T11:11:40Z</time><name>PT1307</name></trkpt>
<trkpt lat="52.036944" lon="05.796373"><ele>38.8</ele><time>2020-12-26T11:11:41Z</time><name>PT1308</name></trkpt>
<trkpt lat="52.036955" lon="05.796369"><ele>38.5</ele><time>2020-12-26T11:11:42Z</time><name>PT1309</name></trkpt>
<trkpt lat="52.036964" lon="05.796366"><ele>38.5</ele><time>2020-12-26T11:11:43Z</time><name>PT1310</name></trkpt>
<trkpt lat="52.036974" lon="05.796364"><ele>38.5</ele><time>2020-12-26T11:11:44Z</time><name>PT1311</name></trkpt>
<trkpt lat="52.036984" lon="05.796361"><ele>38.5</ele><time>2020-12-26T11:11:45Z</time><name>PT1312</name></trkpt>
<trkpt lat="52.036994" lon="05.796356"><ele>38.7</ele><time>2020-12-26T11:11:46Z</time><name>PT1313</name></trkpt>
<trkpt lat="52.037002" lon="05.796351"><ele>38.7</ele><time>2020-12-26T11:11:47Z</time><name>PT1314</name></trkpt>
<trkpt lat="52.037010" lon="05.796348"><ele>38.7</ele><time>2020-12-26T11:11:48Z</time><name>PT1315</name></trkpt>
<trkpt lat="52.037019" lon="05.796342"><ele>38.5</ele><time>2020-12-26T11:11:49Z</time><name>PT1316</name></trkpt>
<trkpt lat="52.037027" lon="05.796332"><ele>38.5</ele><time>2020-12-26T11:11:50Z</time><name>PT1317</name></trkpt>
<trkpt lat="52.037034" lon="05.796322"><ele>38.5</ele><time>2020-12-26T11:11:51Z</time><name>PT1318</name></trkpt>
<trkpt lat="52.037041" lon="05.796316"><ele>38.7</ele><time>2020-12-26T11:11:52Z</time><name>PT1319</name></trkpt>
<trkpt lat="52.037049" lon="05.796312"><ele>38.8</ele><time>2020-12-26T11:11:53Z</time><name>PT1320</name></trkpt>
<trkpt lat="52.037057" lon="05.796307"><ele>39</ele><time>2020-12-26T11:11:54Z</time><name>PT1321</name></trkpt>
<trkpt lat="52.037063" lon="05.796300"><ele>39</ele><time>2020-12-26T11:11:55Z</time><name>PT1322</name></trkpt>
<trkpt lat="52.037070" lon="05.796297"><ele>38.9</ele><time>2020-12-26T11:11:56Z</time><name>PT1323</name></trkpt>
<trkpt lat="52.037075" lon="05.796292"><ele>38.6</ele><time>2020-12-26T11:11:57Z</time><name>PT1324</name></trkpt>
<trkpt lat="52.037079" lon="05.796285"><ele>38.7</ele><time>2020-12-26T11:11:58Z</time><name>PT1325</name></trkpt>
<trkpt lat="52.037083" lon="05.796278"><ele>38.6</ele><time>2020-12-26T11:11:59Z</time><name>PT1326</name></trkpt>
<trkpt lat="52.037088" lon="05.796268"><ele>38.5</ele><time>2020-12-26T11:12:00Z</time><name>PT1327</name></trkpt>
<trkpt lat="52.037090" lon="05.796261"><ele>38.7</ele><time>2020-12-26T11:12:01Z</time><name>PT1328</name></trkpt>
<trkpt lat="52.037094" lon="05.796254"><ele>38.6</ele><time>2020-12-26T11:12:02Z</time><name>PT1329</name></trkpt>
<trkpt lat="52.037099" lon="05.796242"><ele>38.6</ele><time>2020-12-26T11:12:03Z</time><name>PT1330</name></trkpt>
<trkpt lat="52.037103" lon="05.796231"><ele>38.7</ele><time>2020-12-26T11:12:04Z</time><name>PT1331</name></trkpt>
<trkpt lat="52.037107" lon="05.796221"><ele>38.7</ele><time>2020-12-26T11:12:05Z</time><name>PT1332</name></trkpt>
<trkpt lat="52.037109" lon="05.796215"><ele>38.6</ele><time>2020-12-26T11:12:06Z</time><name>PT1333</name></trkpt>
<trkpt lat="52.037111" lon="05.796214"><ele>38.6</ele><time>2020-12-26T11:12:07Z</time><name>PT1334</name></trkpt>
<trkpt lat="52.037112" lon="05.796211"><ele>38.5</ele><time>2020-12-26T11:12:08Z</time><name>PT1335</name></trkpt>
<trkpt lat="52.037112" lon="05.796204"><ele>38.6</ele><time>2020-12-26T11:12:09Z</time><name>PT1336</name></trkpt>
<trkpt lat="52.037114" lon="05.796196"><ele>38.6</ele><time>2020-12-26T11:12:10Z</time><name>PT1337</name></trkpt>
<trkpt lat="52.037115" lon="05.796186"><ele>38.6</ele><time>2020-12-26T11:12:11Z</time><name>PT1338</name></trkpt>
<trkpt lat="52.037117" lon="05.796178"><ele>38.5</ele><time>2020-12-26T11:12:12Z</time><name>PT1339</name></trkpt>
<trkpt lat="52.037122" lon="05.796171"><ele>38.5</ele><time>2020-12-26T11:12:13Z</time><name>PT1340</name></trkpt>
<trkpt lat="52.037121" lon="05.796158"><ele>38.7</ele><time>2020-12-26T11:12:14Z</time><name>PT1341</name></trkpt>
<trkpt lat="52.037124" lon="05.796147"><ele>38.7</ele><time>2020-12-26T11:12:15Z</time><name>PT1342</name></trkpt>
<trkpt lat="52.037124" lon="05.796135"><ele>38.9</ele><time>2020-12-26T11:12:16Z</time><name>PT1343</name></trkpt>
<trkpt lat="52.037126" lon="05.796125"><ele>39.1</ele><time>2020-12-26T11:12:17Z</time><name>PT1344</name></trkpt>
<trkpt lat="52.037127" lon="05.796112"><ele>39.3</ele><time>2020-12-26T11:12:18Z</time><name>PT1345</name></trkpt>
<trkpt lat="52.037131" lon="05.796102"><ele>39.2</ele><time>2020-12-26T11:12:19Z</time><name>PT1346</name></trkpt>
<trkpt lat="52.037135" lon="05.796097"><ele>39.3</ele><time>2020-12-26T11:12:20Z</time><name>PT1347</name></trkpt>
<trkpt lat="52.037135" lon="05.796093"><ele>39.2</ele><time>2020-12-26T11:12:21Z</time><name>PT1348</name></trkpt>
<trkpt lat="52.037134" lon="05.796093"><ele>39</ele><time>2020-12-26T11:12:22Z</time><name>PT1349</name></trkpt>
<trkpt lat="52.037134" lon="05.796094"><ele>39.2</ele><time>2020-12-26T11:12:23Z</time><name>PT1350</name></trkpt>
<trkpt lat="52.037134" lon="05.796088"><ele>39.2</ele><time>2020-12-26T11:12:35Z</time><name>PT1351</name></trkpt>
<trkpt lat="52.037132" lon="05.796075"><ele>39</ele><time>2020-12-26T11:12:36Z</time><name>PT1352</name></trkpt>
<trkpt lat="52.037129" lon="05.796063"><ele>39</ele><time>2020-12-26T11:12:37Z</time><name>PT1353</name></trkpt>
<trkpt lat="52.037118" lon="05.796047"><ele>39</ele><time>2020-12-26T11:12:38Z</time><name>PT1354</name></trkpt>
<trkpt lat="52.037116" lon="05.796032"><ele>39</ele><time>2020-12-26T11:12:39Z</time><name>PT1355</name></trkpt>
<trkpt lat="52.037107" lon="05.796017"><ele>38.8</ele><time>2020-12-26T11:12:40Z</time><name>PT1356</name></trkpt>
<trkpt lat="52.037104" lon="05.796003"><ele>38.9</ele><time>2020-12-26T11:12:41Z</time><name>PT1357</name></trkpt>
<trkpt lat="52.037101" lon="05.795989"><ele>38.9</ele><time>2020-12-26T11:12:42Z</time><name>PT1358</name></trkpt>
<trkpt lat="52.037095" lon="05.795975"><ele>39</ele><time>2020-12-26T11:12:43Z</time><name>PT1359</name></trkpt>
<trkpt lat="52.037091" lon="05.795960"><ele>39.3</ele><time>2020-12-26T11:12:44Z</time><name>PT1360</name></trkpt>
<trkpt lat="52.037086" lon="05.795946"><ele>39.1</ele><time>2020-12-26T11:12:45Z</time><name>PT1361</name></trkpt>
<trkpt lat="52.037083" lon="05.795930"><ele>39</ele><time>2020-12-26T11:12:46Z</time><name>PT1362</name></trkpt>
<trkpt lat="52.037081" lon="05.795914"><ele>38.8</ele><time>2020-12-26T11:12:47Z</time><name>PT1363</name></trkpt>
<trkpt lat="52.037078" lon="05.795898"><ele>38.7</ele><time>2020-12-26T11:12:48Z</time><name>PT1364</name></trkpt>
<trkpt lat="52.037074" lon="05.795879"><ele>38.7</ele><time>2020-12-26T11:12:49Z</time><name>PT1365</name></trkpt>
<trkpt lat="52.037074" lon="05.795859"><ele>38.8</ele><time>2020-12-26T11:12:50Z</time><name>PT1366</name></trkpt>
<trkpt lat="52.037073" lon="05.795840"><ele>38.9</ele><time>2020-12-26T11:12:51Z</time><name>PT1367</name></trkpt>
<trkpt lat="52.037067" lon="05.795821"><ele>38.8</ele><time>2020-12-26T11:12:52Z</time><name>PT1368</name></trkpt>
<trkpt lat="52.037061" lon="05.795806"><ele>38.7</ele><time>2020-12-26T11:12:53Z</time><name>PT1369</name></trkpt>
<trkpt lat="52.037056" lon="05.795789"><ele>38.5</ele><time>2020-12-26T11:12:54Z</time><name>PT1370</name></trkpt>
<trkpt lat="52.037053" lon="05.795775"><ele>38.5</ele><time>2020-12-26T11:12:55Z</time><name>PT1371</name></trkpt>
<trkpt lat="52.037049" lon="05.795761"><ele>38.5</ele><time>2020-12-26T11:12:56Z</time><name>PT1372</name></trkpt>
<trkpt lat="52.037044" lon="05.795744"><ele>38.6</ele><time>2020-12-26T11:12:57Z</time><name>PT1373</name></trkpt>
<trkpt lat="52.037041" lon="05.795726"><ele>38.7</ele><time>2020-12-26T11:12:58Z</time><name>PT1374</name></trkpt>
<trkpt lat="52.037037" lon="05.795710"><ele>38.8</ele><time>2020-12-26T11:12:59Z</time><name>PT1375</name></trkpt>
<trkpt lat="52.037032" lon="05.795690"><ele>38.9</ele><time>2020-12-26T11:13:00Z</time><name>PT1376</name></trkpt>
<trkpt lat="52.037026" lon="05.795669"><ele>38.8</ele><time>2020-12-26T11:13:01Z</time><name>PT1377</name></trkpt>
<trkpt lat="52.037021" lon="05.795648"><ele>38.7</ele><time>2020-12-26T11:13:02Z</time><name>PT1378</name></trkpt>
<trkpt lat="52.037018" lon="05.795629"><ele>38.7</ele><time>2020-12-26T11:13:03Z</time><name>PT1379</name></trkpt>
<trkpt lat="52.037013" lon="05.795612"><ele>38.8</ele><time>2020-12-26T11:13:04Z</time><name>PT1380</name></trkpt>
<trkpt lat="52.037011" lon="05.795595"><ele>38.8</ele><time>2020-12-26T11:13:05Z</time><name>PT1381</name></trkpt>
<trkpt lat="52.037009" lon="05.795577"><ele>38.9</ele><time>2020-12-26T11:13:06Z</time><name>PT1382</name></trkpt>
<trkpt lat="52.037006" lon="05.795559"><ele>39</ele><time>2020-12-26T11:13:07Z</time><name>PT1383</name></trkpt>
<trkpt lat="52.037002" lon="05.795542"><ele>39</ele><time>2020-12-26T11:13:08Z</time><name>PT1384</name></trkpt>
<trkpt lat="52.036996" lon="05.795524"><ele>39</ele><time>2020-12-26T11:13:09Z</time><name>PT1385</name></trkpt>
<trkpt lat="52.036989" lon="05.795507"><ele>39.1</ele><time>2020-12-26T11:13:10Z</time><name>PT1386</name></trkpt>
<trkpt lat="52.036983" lon="05.795492"><ele>39</ele><time>2020-12-26T11:13:11Z</time><name>PT1387</name></trkpt>
<trkpt lat="52.036978" lon="05.795476"><ele>39</ele><time>2020-12-26T11:13:12Z</time><name>PT1388</name></trkpt>
<trkpt lat="52.036972" lon="05.795459"><ele>39</ele><time>2020-12-26T11:13:13Z</time><name>PT1389</name></trkpt>
<trkpt lat="52.036965" lon="05.795447"><ele>39</ele><time>2020-12-26T11:13:14Z</time><name>PT1390</name></trkpt>
<trkpt lat="52.036956" lon="05.795431"><ele>39</ele><time>2020-12-26T11:13:15Z</time><name>PT1391</name></trkpt>
<trkpt lat="52.036949" lon="05.795415"><ele>39</ele><time>2020-12-26T11:13:16Z</time><name>PT1392</name></trkpt>
<trkpt lat="52.036944" lon="05.795398"><ele>39</ele><time>2020-12-26T11:13:17Z</time><name>PT1393</name></trkpt>
<trkpt lat="52.036940" lon="05.795382"><ele>39.2</ele><time>2020-12-26T11:13:18Z</time><name>PT1394</name></trkpt>
<trkpt lat="52.036936" lon="05.795367"><ele>39.2</ele><time>2020-12-26T11:13:19Z</time><name>PT1395</name></trkpt>
<trkpt lat="52.036932" lon="05.795351"><ele>39.1</ele><time>2020-12-26T11:13:20Z</time><name>PT1396</name></trkpt>
<trkpt lat="52.036927" lon="05.795332"><ele>39.5</ele><time>2020-12-26T11:13:21Z</time><name>PT1397</name></trkpt>
<trkpt lat="52.036923" lon="05.795312"><ele>39.3</ele><time>2020-12-26T11:13:22Z</time><name>PT1398</name></trkpt>
<trkpt lat="52.036918" lon="05.795295"><ele>39.4</ele><time>2020-12-26T11:13:23Z</time><name>PT1399</name></trkpt>
<trkpt lat="52.036911" lon="05.795277"><ele>39.5</ele><time>2020-12-26T11:13:24Z</time><name>PT1400</name></trkpt>
<trkpt lat="52.036908" lon="05.795256"><ele>39.5</ele><time>2020-12-26T11:13:25Z</time><name>PT1401</name></trkpt>
<trkpt lat="52.036903" lon="05.795238"><ele>39.3</ele><time>2020-12-26T11:13:26Z</time><name>PT1402</name></trkpt>
<trkpt lat="52.036898" lon="05.795221"><ele>39.3</ele><time>2020-12-26T11:13:27Z</time><name>PT1403</name></trkpt>
<trkpt lat="52.036892" lon="05.795204"><ele>39</ele><time>2020-12-26T11:13:28Z</time><name>PT1404</name></trkpt>
<trkpt lat="52.036884" lon="05.795186"><ele>38.9</ele><time>2020-12-26T11:13:29Z</time><name>PT1405</name></trkpt>
<trkpt lat="52.036876" lon="05.795167"><ele>39</ele><time>2020-12-26T11:13:30Z</time><name>PT1406</name></trkpt>
<trkpt lat="52.036870" lon="05.795150"><ele>38.9</ele><time>2020-12-26T11:13:31Z</time><name>PT1407</name></trkpt>
<trkpt lat="52.036866" lon="05.795133"><ele>39</ele><time>2020-12-26T11:13:32Z</time><name>PT1408</name></trkpt>
<trkpt lat="52.036861" lon="05.795113"><ele>39</ele><time>2020-12-26T11:13:33Z</time><name>PT1409</name></trkpt>
<trkpt lat="52.036857" lon="05.795094"><ele>38.8</ele><time>2020-12-26T11:13:34Z</time><name>PT1410</name></trkpt>
<trkpt lat="52.036853" lon="05.795079"><ele>38.7</ele><time>2020-12-26T11:13:35Z</time><name>PT1411</name></trkpt>
<trkpt lat="52.036850" lon="05.795063"><ele>38.7</ele><time>2020-12-26T11:13:36Z</time><name>PT1412</name></trkpt>
<trkpt lat="52.036848" lon="05.795047"><ele>38.6</ele><time>2020-12-26T11:13:37Z</time><name>PT1413</name></trkpt>
<trkpt lat="52.036844" lon="05.795030"><ele>38.5</ele><time>2020-12-26T11:13:38Z</time><name>PT1414</name></trkpt>
<trkpt lat="52.036841" lon="05.795014"><ele>38.6</ele><time>2020-12-26T11:13:39Z</time><name>PT1415</name></trkpt>
<trkpt lat="52.036837" lon="05.794997"><ele>38.4</ele><time>2020-12-26T11:13:40Z</time><name>PT1416</name></trkpt>
<trkpt lat="52.036833" lon="05.794978"><ele>38.4</ele><time>2020-12-26T11:13:41Z</time><name>PT1417</name></trkpt>
<trkpt lat="52.036829" lon="05.794958"><ele>38.5</ele><time>2020-12-26T11:13:42Z</time><name>PT1418</name></trkpt>
<trkpt lat="52.036824" lon="05.794939"><ele>38.4</ele><time>2020-12-26T11:13:43Z</time><name>PT1419</name></trkpt>
<trkpt lat="52.036819" lon="05.794921"><ele>38.5</ele><time>2020-12-26T11:13:44Z</time><name>PT1420</name></trkpt>
<trkpt lat="52.036814" lon="05.794903"><ele>38.6</ele><time>2020-12-26T11:13:45Z</time><name>PT1421</name></trkpt>
<trkpt lat="52.036809" lon="05.794888"><ele>38.6</ele><time>2020-12-26T11:13:46Z</time><name>PT1422</name></trkpt>
<trkpt lat="52.036802" lon="05.794873"><ele>38.7</ele><time>2020-12-26T11:13:47Z</time><name>PT1423</name></trkpt>
<trkpt lat="52.036796" lon="05.794857"><ele>38.8</ele><time>2020-12-26T11:13:48Z</time><name>PT1424</name></trkpt>
<trkpt lat="52.036791" lon="05.794839"><ele>38.8</ele><time>2020-12-26T11:13:49Z</time><name>PT1425</name></trkpt>
<trkpt lat="52.036785" lon="05.794823"><ele>38.7</ele><time>2020-12-26T11:13:50Z</time><name>PT1426</name></trkpt>
<trkpt lat="52.036780" lon="05.794805"><ele>38.9</ele><time>2020-12-26T11:13:51Z</time><name>PT1427</name></trkpt>
<trkpt lat="52.036772" lon="05.794789"><ele>38.9</ele><time>2020-12-26T11:13:52Z</time><name>PT1428</name></trkpt>
<trkpt lat="52.036766" lon="05.794772"><ele>39</ele><time>2020-12-26T11:13:53Z</time><name>PT1429</name></trkpt>
<trkpt lat="52.036758" lon="05.794756"><ele>39</ele><time>2020-12-26T11:13:54Z</time><name>PT1430</name></trkpt>
<trkpt lat="52.036753" lon="05.794740"><ele>39</ele><time>2020-12-26T11:13:55Z</time><name>PT1431</name></trkpt>
<trkpt lat="52.036750" lon="05.794725"><ele>38.9</ele><time>2020-12-26T11:13:56Z</time><name>PT1432</name></trkpt>
<trkpt lat="52.036746" lon="05.794707"><ele>39</ele><time>2020-12-26T11:13:57Z</time><name>PT1433</name></trkpt>
<trkpt lat="52.036742" lon="05.794691"><ele>39</ele><time>2020-12-26T11:13:58Z</time><name>PT1434</name></trkpt>
<trkpt lat="52.036738" lon="05.794673"><ele>39.2</ele><time>2020-12-26T11:13:59Z</time><name>PT1435</name></trkpt>
<trkpt lat="52.036735" lon="05.794655"><ele>39.5</ele><time>2020-12-26T11:14:00Z</time><name>PT1436</name></trkpt>
<trkpt lat="52.036732" lon="05.794633"><ele>39.7</ele><time>2020-12-26T11:14:01Z</time><name>PT1437</name></trkpt>
<trkpt lat="52.036727" lon="05.794614"><ele>39.5</ele><time>2020-12-26T11:14:02Z</time><name>PT1438</name></trkpt>
<trkpt lat="52.036723" lon="05.794597"><ele>39.5</ele><time>2020-12-26T11:14:03Z</time><name>PT1439</name></trkpt>
<trkpt lat="52.036719" lon="05.794582"><ele>39.5</ele><time>2020-12-26T11:14:04Z</time><name>PT1440</name></trkpt>
<trkpt lat="52.036720" lon="05.794574"><ele>39.6</ele><time>2020-12-26T11:14:05Z</time><name>PT1441</name></trkpt>
<trkpt lat="52.036719" lon="05.794571"><ele>39.5</ele><time>2020-12-26T11:14:06Z</time><name>PT1442</name></trkpt>
<trkpt lat="52.036719" lon="05.794573"><ele>39.5</ele><time>2020-12-26T11:14:07Z</time><name>PT1443</name></trkpt>
<trkpt lat="52.036719" lon="05.794572"><ele>39.5</ele><time>2020-12-26T11:14:08Z</time><name>PT1444</name></trkpt>
<trkpt lat="52.036716" lon="05.794557"><ele>39</ele><time>2020-12-26T11:14:17Z</time><name>PT1445</name></trkpt>
<trkpt lat="52.036715" lon="05.794533"><ele>39</ele><time>2020-12-26T11:14:18Z</time><name>PT1446</name></trkpt>
<trkpt lat="52.036709" lon="05.794515"><ele>38.7</ele><time>2020-12-26T11:14:19Z</time><name>PT1447</name></trkpt>
<trkpt lat="52.036706" lon="05.794497"><ele>38.6</ele><time>2020-12-26T11:14:20Z</time><name>PT1448</name></trkpt>
<trkpt lat="52.036704" lon="05.794479"><ele>38.7</ele><time>2020-12-26T11:14:21Z</time><name>PT1449</name></trkpt>
<trkpt lat="52.036703" lon="05.794462"><ele>38.8</ele><time>2020-12-26T11:14:22Z</time><name>PT1450</name></trkpt>
<trkpt lat="52.036699" lon="05.794440"><ele>39</ele><time>2020-12-26T11:14:23Z</time><name>PT1451</name></trkpt>
<trkpt lat="52.036694" lon="05.794421"><ele>39</ele><time>2020-12-26T11:14:24Z</time><name>PT1452</name></trkpt>
<trkpt lat="52.036689" lon="05.794400"><ele>39</ele><time>2020-12-26T11:14:25Z</time><name>PT1453</name></trkpt>
<trkpt lat="52.036688" lon="05.794382"><ele>39</ele><time>2020-12-26T11:14:26Z</time><name>PT1454</name></trkpt>
<trkpt lat="52.036687" lon="05.794362"><ele>39</ele><time>2020-12-26T11:14:27Z</time><name>PT1455</name></trkpt>
<trkpt lat="52.036684" lon="05.794344"><ele>38.9</ele><time>2020-12-26T11:14:28Z</time><name>PT1456</name></trkpt>
<trkpt lat="52.036681" lon="05.794324"><ele>38.9</ele><time>2020-12-26T11:14:29Z</time><name>PT1457</name></trkpt>
<trkpt lat="52.036675" lon="05.794305"><ele>39</ele><time>2020-12-26T11:14:30Z</time><name>PT1458</name></trkpt>
<trkpt lat="52.036670" lon="05.794284"><ele>38.9</ele><time>2020-12-26T11:14:31Z</time><name>PT1459</name></trkpt>
<trkpt lat="52.036665" lon="05.794258"><ele>38.8</ele><time>2020-12-26T11:14:32Z</time><name>PT1460</name></trkpt>
<trkpt lat="52.036660" lon="05.794236"><ele>38.8</ele><time>2020-12-26T11:14:33Z</time><name>PT1461</name></trkpt>
<trkpt lat="52.036656" lon="05.794214"><ele>38.7</ele><time>2020-12-26T11:14:34Z</time><name>PT1462</name></trkpt>
<trkpt lat="52.036652" lon="05.794192"><ele>38.7</ele><time>2020-12-26T11:14:35Z</time><name>PT1463</name></trkpt>
<trkpt lat="52.036649" lon="05.794172"><ele>38.8</ele><time>2020-12-26T11:14:36Z</time><name>PT1464</name></trkpt>
<trkpt lat="52.036645" lon="05.794152"><ele>38.6</ele><time>2020-12-26T11:14:37Z</time><name>PT1465</name></trkpt>
<trkpt lat="52.036639" lon="05.794131"><ele>38.6</ele><time>2020-12-26T11:14:38Z</time><name>PT1466</name></trkpt>
<trkpt lat="52.036635" lon="05.794110"><ele>38.6</ele><time>2020-12-26T11:14:39Z</time><name>PT1467</name></trkpt>
<trkpt lat="52.036630" lon="05.794090"><ele>38.5</ele><time>2020-12-26T11:14:40Z</time><name>PT1468</name></trkpt>
<trkpt lat="52.036623" lon="05.794071"><ele>38.6</ele><time>2020-12-26T11:14:41Z</time><name>PT1469</name></trkpt>
<trkpt lat="52.036616" lon="05.794053"><ele>38.7</ele><time>2020-12-26T11:14:42Z</time><name>PT1470</name></trkpt>
<trkpt lat="52.036609" lon="05.794035"><ele>38.7</ele><time>2020-12-26T11:14:43Z</time><name>PT1471</name></trkpt>
<trkpt lat="52.036602" lon="05.794017"><ele>38.8</ele><time>2020-12-26T11:14:44Z</time><name>PT1472</name></trkpt>
<trkpt lat="52.036595" lon="05.794002"><ele>39</ele><time>2020-12-26T11:14:45Z</time><name>PT1473</name></trkpt>
<trkpt lat="52.036588" lon="05.793985"><ele>39</ele><time>2020-12-26T11:14:46Z</time><name>PT1474</name></trkpt>
<trkpt lat="52.036582" lon="05.793968"><ele>39</ele><time>2020-12-26T11:14:47Z</time><name>PT1475</name></trkpt>
<trkpt lat="52.036578" lon="05.793951"><ele>38.9</ele><time>2020-12-26T11:14:48Z</time><name>PT1476</name></trkpt>
<trkpt lat="52.036574" lon="05.793934"><ele>38.7</ele><time>2020-12-26T11:14:49Z</time><name>PT1477</name></trkpt>
<trkpt lat="52.036570" lon="05.793919"><ele>38.7</ele><time>2020-12-26T11:14:50Z</time><name>PT1478</name></trkpt>
<trkpt lat="52.036566" lon="05.793905"><ele>38.5</ele><time>2020-12-26T11:14:51Z</time><name>PT1479</name></trkpt>
<trkpt lat="52.036562" lon="05.793889"><ele>38.6</ele><time>2020-12-26T11:14:52Z</time><name>PT1480</name></trkpt>
<trkpt lat="52.036558" lon="05.793871"><ele>38.5</ele><time>2020-12-26T11:14:53Z</time><name>PT1481</name></trkpt>
<trkpt lat="52.036551" lon="05.793852"><ele>38.5</ele><time>2020-12-26T11:14:54Z</time><name>PT1482</name></trkpt>
<trkpt lat="52.036545" lon="05.793834"><ele>38.5</ele><time>2020-12-26T11:14:55Z</time><name>PT1483</name></trkpt>
<trkpt lat="52.036540" lon="05.793817"><ele>38.3</ele><time>2020-12-26T11:14:56Z</time><name>PT1484</name></trkpt>
<trkpt lat="52.036535" lon="05.793800"><ele>38.4</ele><time>2020-12-26T11:14:57Z</time><name>PT1485</name></trkpt>
<trkpt lat="52.036530" lon="05.793783"><ele>38.3</ele><time>2020-12-26T11:14:58Z</time><name>PT1486</name></trkpt>
<trkpt lat="52.036526" lon="05.793764"><ele>38.3</ele><time>2020-12-26T11:14:59Z</time><name>PT1487</name></trkpt>
<trkpt lat="52.036521" lon="05.793746"><ele>38.4</ele><time>2020-12-26T11:15:00Z</time><name>PT1488</name></trkpt>
<trkpt lat="52.036515" lon="05.793730"><ele>38.4</ele><time>2020-12-26T11:15:01Z</time><name>PT1489</name></trkpt>
<trkpt lat="52.036510" lon="05.793713"><ele>38.4</ele><time>2020-12-26T11:15:02Z</time><name>PT1490</name></trkpt>
<trkpt lat="52.036506" lon="05.793698"><ele>38.1</ele><time>2020-12-26T11:15:03Z</time><name>PT1491</name></trkpt>
<trkpt lat="52.036502" lon="05.793684"><ele>38</ele><time>2020-12-26T11:15:04Z</time><name>PT1492</name></trkpt>
<trkpt lat="52.036500" lon="05.793669"><ele>38</ele><time>2020-12-26T11:15:05Z</time><name>PT1493</name></trkpt>
<trkpt lat="52.036496" lon="05.793651"><ele>37.9</ele><time>2020-12-26T11:15:06Z</time><name>PT1494</name></trkpt>
<trkpt lat="52.036492" lon="05.793635"><ele>37.7</ele><time>2020-12-26T11:15:07Z</time><name>PT1495</name></trkpt>
<trkpt lat="52.036490" lon="05.793618"><ele>37.6</ele><time>2020-12-26T11:15:08Z</time><name>PT1496</name></trkpt>
<trkpt lat="52.036486" lon="05.793602"><ele>37.6</ele><time>2020-12-26T11:15:09Z</time><name>PT1497</name></trkpt>
<trkpt lat="52.036480" lon="05.793584"><ele>37.4</ele><time>2020-12-26T11:15:10Z</time><name>PT1498</name></trkpt>
<trkpt lat="52.036473" lon="05.793570"><ele>37.5</ele><time>2020-12-26T11:15:11Z</time><name>PT1499</name></trkpt>
<trkpt lat="52.036467" lon="05.793555"><ele>37.6</ele><time>2020-12-26T11:15:12Z</time><name>PT1500</name></trkpt>
<trkpt lat="52.036463" lon="05.793538"><ele>37.7</ele><time>2020-12-26T11:15:13Z</time><name>PT1501</name></trkpt>
<trkpt lat="52.036459" lon="05.793521"><ele>37.7</ele><time>2020-12-26T11:15:14Z</time><name>PT1502</name></trkpt>
<trkpt lat="52.036455" lon="05.793504"><ele>37.9</ele><time>2020-12-26T11:15:15Z</time><name>PT1503</name></trkpt>
<trkpt lat="52.036453" lon="05.793484"><ele>38.2</ele><time>2020-12-26T11:15:16Z</time><name>PT1504</name></trkpt>
<trkpt lat="52.036449" lon="05.793465"><ele>38.2</ele><time>2020-12-26T11:15:17Z</time><name>PT1505</name></trkpt>
<trkpt lat="52.036445" lon="05.793447"><ele>38.4</ele><time>2020-12-26T11:15:18Z</time><name>PT1506</name></trkpt>
<trkpt lat="52.036440" lon="05.793429"><ele>38.4</ele><time>2020-12-26T11:15:19Z</time><name>PT1507</name></trkpt>
<trkpt lat="52.036435" lon="05.793412"><ele>38.4</ele><time>2020-12-26T11:15:20Z</time><name>PT1508</name></trkpt>
<trkpt lat="52.036431" lon="05.793395"><ele>38.3</ele><time>2020-12-26T11:15:21Z</time><name>PT1509</name></trkpt>
<trkpt lat="52.036424" lon="05.793379"><ele>38.3</ele><time>2020-12-26T11:15:22Z</time><name>PT1510</name></trkpt>
<trkpt lat="52.036417" lon="05.793363"><ele>38.4</ele><time>2020-12-26T11:15:23Z</time><name>PT1511</name></trkpt>
<trkpt lat="52.036411" lon="05.793345"><ele>38.2</ele><time>2020-12-26T11:15:24Z</time><name>PT1512</name></trkpt>
<trkpt lat="52.036407" lon="05.793329"><ele>38.3</ele><time>2020-12-26T11:15:25Z</time><name>PT1513</name></trkpt>
<trkpt lat="52.036401" lon="05.793315"><ele>38.3</ele><time>2020-12-26T11:15:26Z</time><name>PT1514</name></trkpt>
<trkpt lat="52.036395" lon="05.793299"><ele>38.1</ele><time>2020-12-26T11:15:27Z</time><name>PT1515</name></trkpt>
<trkpt lat="52.036390" lon="05.793281"><ele>38</ele><time>2020-12-26T11:15:28Z</time><name>PT1516</name></trkpt>
<trkpt lat="52.036383" lon="05.793264"><ele>38</ele><time>2020-12-26T11:15:29Z</time><name>PT1517</name></trkpt>
<trkpt lat="52.036378" lon="05.793248"><ele>37.9</ele><time>2020-12-26T11:15:30Z</time><name>PT1518</name></trkpt>
<trkpt lat="52.036372" lon="05.793232"><ele>38</ele><time>2020-12-26T11:15:31Z</time><name>PT1519</name></trkpt>
<trkpt lat="52.036365" lon="05.793216"><ele>38</ele><time>2020-12-26T11:15:32Z</time><name>PT1520</name></trkpt>
<trkpt lat="52.036358" lon="05.793204"><ele>38.1</ele><time>2020-12-26T11:15:33Z</time><name>PT1521</name></trkpt>
<trkpt lat="52.036349" lon="05.793190"><ele>38.1</ele><time>2020-12-26T11:15:34Z</time><name>PT1522</name></trkpt>
<trkpt lat="52.036340" lon="05.793173"><ele>38.2</ele><time>2020-12-26T11:15:35Z</time><name>PT1523</name></trkpt>
<trkpt lat="52.036332" lon="05.793155"><ele>38.4</ele><time>2020-12-26T11:15:36Z</time><name>PT1524</name></trkpt>
<trkpt lat="52.036326" lon="05.793138"><ele>38.5</ele><time>2020-12-26T11:15:37Z</time><name>PT1525</name></trkpt>
<trkpt lat="52.036321" lon="05.793122"><ele>38.5</ele><time>2020-12-26T11:15:38Z</time><name>PT1526</name></trkpt>
<trkpt lat="52.036317" lon="05.793106"><ele>38.5</ele><time>2020-12-26T11:15:39Z</time><name>PT1527</name></trkpt>
<trkpt lat="52.036312" lon="05.793087"><ele>38.6</ele><time>2020-12-26T11:15:40Z</time><name>PT1528</name></trkpt>
<trkpt lat="52.036307" lon="05.793069"><ele>38.7</ele><time>2020-12-26T11:15:41Z</time><name>PT1529</name></trkpt>
<trkpt lat="52.036302" lon="05.793054"><ele>38.6</ele><time>2020-12-26T11:15:42Z</time><name>PT1530</name></trkpt>
<trkpt lat="52.036298" lon="05.793038"><ele>38.4</ele><time>2020-12-26T11:15:43Z</time><name>PT1531</name></trkpt>
<trkpt lat="52.036293" lon="05.793022"><ele>38.4</ele><time>2020-12-26T11:15:44Z</time><name>PT1532</name></trkpt>
<trkpt lat="52.036288" lon="05.793004"><ele>38.3</ele><time>2020-12-26T11:15:45Z</time><name>PT1533</name></trkpt>
<trkpt lat="52.036282" lon="05.792986"><ele>38.4</ele><time>2020-12-26T11:15:46Z</time><name>PT1534</name></trkpt>
<trkpt lat="52.036275" lon="05.792969"><ele>38.5</ele><time>2020-12-26T11:15:47Z</time><name>PT1535</name></trkpt>
<trkpt lat="52.036266" lon="05.792953"><ele>38.7</ele><time>2020-12-26T11:15:48Z</time><name>PT1536</name></trkpt>
<trkpt lat="52.036258" lon="05.792936"><ele>38.9</ele><time>2020-12-26T11:15:49Z</time><name>PT1537</name></trkpt>
<trkpt lat="52.036252" lon="05.792919"><ele>39</ele><time>2020-12-26T11:15:50Z</time><name>PT1538</name></trkpt>
<trkpt lat="52.036245" lon="05.792901"><ele>39</ele><time>2020-12-26T11:15:51Z</time><name>PT1539</name></trkpt>
<trkpt lat="52.036239" lon="05.792882"><ele>39.3</ele><time>2020-12-26T11:15:52Z</time><name>PT1540</name></trkpt>
<trkpt lat="52.036236" lon="05.792866"><ele>39.2</ele><time>2020-12-26T11:15:53Z</time><name>PT1541</name></trkpt>
<trkpt lat="52.036233" lon="05.792850"><ele>39.1</ele><time>2020-12-26T11:15:54Z</time><name>PT1542</name></trkpt>
<trkpt lat="52.036232" lon="05.792835"><ele>39.3</ele><time>2020-12-26T11:15:55Z</time><name>PT1543</name></trkpt>
<trkpt lat="52.036230" lon="05.792817"><ele>39</ele><time>2020-12-26T11:15:56Z</time><name>PT1544</name></trkpt>
<trkpt lat="52.036227" lon="05.792798"><ele>39.2</ele><time>2020-12-26T11:15:57Z</time><name>PT1545</name></trkpt>
<trkpt lat="52.036223" lon="05.792776"><ele>39.3</ele><time>2020-12-26T11:15:58Z</time><name>PT1546</name></trkpt>
<trkpt lat="52.036218" lon="05.792758"><ele>39.2</ele><time>2020-12-26T11:15:59Z</time><name>PT1547</name></trkpt>
<trkpt lat="52.036214" lon="05.792739"><ele>39.3</ele><time>2020-12-26T11:16:00Z</time><name>PT1548</name></trkpt>
<trkpt lat="52.036209" lon="05.792720"><ele>39.2</ele><time>2020-12-26T11:16:01Z</time><name>PT1549</name></trkpt>
<trkpt lat="52.036205" lon="05.792701"><ele>39.3</ele><time>2020-12-26T11:16:02Z</time><name>PT1550</name></trkpt>
<trkpt lat="52.036201" lon="05.792683"><ele>39.4</ele><time>2020-12-26T11:16:03Z</time><name>PT1551</name></trkpt>
<trkpt lat="52.036197" lon="05.792666"><ele>39.3</ele><time>2020-12-26T11:16:04Z</time><name>PT1552</name></trkpt>
<trkpt lat="52.036193" lon="05.792649"><ele>39.1</ele><time>2020-12-26T11:16:05Z</time><name>PT1553</name></trkpt>
<trkpt lat="52.036188" lon="05.792632"><ele>39</ele><time>2020-12-26T11:16:06Z</time><name>PT1554</name></trkpt>
<trkpt lat="52.036186" lon="05.792612"><ele>39</ele><time>2020-12-26T11:16:07Z</time><name>PT1555</name></trkpt>
<trkpt lat="52.036186" lon="05.792595"><ele>39</ele><time>2020-12-26T11:16:08Z</time><name>PT1556</name></trkpt>
<trkpt lat="52.036184" lon="05.792578"><ele>39</ele><time>2020-12-26T11:16:09Z</time><name>PT1557</name></trkpt>
<trkpt lat="52.036184" lon="05.792559"><ele>39.1</ele><time>2020-12-26T11:16:10Z</time><name>PT1558</name></trkpt>
<trkpt lat="52.036183" lon="05.792540"><ele>39</ele><time>2020-12-26T11:16:11Z</time><name>PT1559</name></trkpt>
<trkpt lat="52.036183" lon="05.792519"><ele>39</ele><time>2020-12-26T11:16:12Z</time><name>PT1560</name></trkpt>
<trkpt lat="52.036181" lon="05.792499"><ele>39.1</ele><time>2020-12-26T11:16:13Z</time><name>PT1561</name></trkpt>
<trkpt lat="52.036182" lon="05.792479"><ele>39.1</ele><time>2020-12-26T11:16:14Z</time><name>PT1562</name></trkpt>
<trkpt lat="52.036184" lon="05.792461"><ele>39.1</ele><time>2020-12-26T11:16:15Z</time><name>PT1563</name></trkpt>
<trkpt lat="52.036186" lon="05.792443"><ele>39</ele><time>2020-12-26T11:16:16Z</time><name>PT1564</name></trkpt>
<trkpt lat="52.036187" lon="05.792427"><ele>39</ele><time>2020-12-26T11:16:17Z</time><name>PT1565</name></trkpt>
<trkpt lat="52.036187" lon="05.792412"><ele>39.1</ele><time>2020-12-26T11:16:18Z</time><name>PT1566</name></trkpt>
<trkpt lat="52.036187" lon="05.792394"><ele>39.3</ele><time>2020-12-26T11:16:19Z</time><name>PT1567</name></trkpt>
<trkpt lat="52.036188" lon="05.792376"><ele>39.4</ele><time>2020-12-26T11:16:20Z</time><name>PT1568</name></trkpt>
<trkpt lat="52.036187" lon="05.792358"><ele>39.2</ele><time>2020-12-26T11:16:21Z</time><name>PT1569</name></trkpt>
<trkpt lat="52.036185" lon="05.792341"><ele>39.2</ele><time>2020-12-26T11:16:22Z</time><name>PT1570</name></trkpt>
<trkpt lat="52.036181" lon="05.792325"><ele>39.3</ele><time>2020-12-26T11:16:23Z</time><name>PT1571</name></trkpt>
<trkpt lat="52.036181" lon="05.792305"><ele>39.3</ele><time>2020-12-26T11:16:24Z</time><name>PT1572</name></trkpt>
<trkpt lat="52.036178" lon="05.792288"><ele>39.3</ele><time>2020-12-26T11:16:25Z</time><name>PT1573</name></trkpt>
<trkpt lat="52.036176" lon="05.792271"><ele>39.3</ele><time>2020-12-26T11:16:26Z</time><name>PT1574</name></trkpt>
<trkpt lat="52.036172" lon="05.792250"><ele>39.2</ele><time>2020-12-26T11:16:27Z</time><name>PT1575</name></trkpt>
<trkpt lat="52.036172" lon="05.792230"><ele>39.1</ele><time>2020-12-26T11:16:28Z</time><name>PT1576</name></trkpt>
<trkpt lat="52.036171" lon="05.792211"><ele>39.1</ele><time>2020-12-26T11:16:29Z</time><name>PT1577</name></trkpt>
<trkpt lat="52.036168" lon="05.792193"><ele>39</ele><time>2020-12-26T11:16:30Z</time><name>PT1578</name></trkpt>
<trkpt lat="52.036165" lon="05.792175"><ele>39</ele><time>2020-12-26T11:16:31Z</time><name>PT1579</name></trkpt>
<trkpt lat="52.036160" lon="05.792157"><ele>39</ele><time>2020-12-26T11:16:32Z</time><name>PT1580</name></trkpt>
<trkpt lat="52.036159" lon="05.792137"><ele>39.1</ele><time>2020-12-26T11:16:33Z</time><name>PT1581</name></trkpt>
<trkpt lat="52.036158" lon="05.792120"><ele>39.2</ele><time>2020-12-26T11:16:34Z</time><name>PT1582</name></trkpt>
<trkpt lat="52.036155" lon="05.792102"><ele>39.3</ele><time>2020-12-26T11:16:35Z</time><name>PT1583</name></trkpt>
<trkpt lat="52.036153" lon="05.792085"><ele>39.2</ele><time>2020-12-26T11:16:36Z</time><name>PT1584</name></trkpt>
<trkpt lat="52.036152" lon="05.792066"><ele>39</ele><time>2020-12-26T11:16:37Z</time><name>PT1585</name></trkpt>
<trkpt lat="52.036152" lon="05.792044"><ele>39</ele><time>2020-12-26T11:16:38Z</time><name>PT1586</name></trkpt>
<trkpt lat="52.036152" lon="05.792019"><ele>39.2</ele><time>2020-12-26T11:16:39Z</time><name>PT1587</name></trkpt>
<trkpt lat="52.036151" lon="05.791997"><ele>39.4</ele><time>2020-12-26T11:16:40Z</time><name>PT1588</name></trkpt>
<trkpt lat="52.036150" lon="05.791976"><ele>39.5</ele><time>2020-12-26T11:16:41Z</time><name>PT1589</name></trkpt>
<trkpt lat="52.036149" lon="05.791959"><ele>39.5</ele><time>2020-12-26T11:16:42Z</time><name>PT1590</name></trkpt>
<trkpt lat="52.036148" lon="05.791940"><ele>39.4</ele><time>2020-12-26T11:16:43Z</time><name>PT1591</name></trkpt>
<trkpt lat="52.036150" lon="05.791921"><ele>39.2</ele><time>2020-12-26T11:16:44Z</time><name>PT1592</name></trkpt>
<trkpt lat="52.036153" lon="05.791903"><ele>39</ele><time>2020-12-26T11:16:45Z</time><name>PT1593</name></trkpt>
<trkpt lat="52.036154" lon="05.791881"><ele>39</ele><time>2020-12-26T11:16:46Z</time><name>PT1594</name></trkpt>
<trkpt lat="52.036154" lon="05.791858"><ele>39</ele><time>2020-12-26T11:16:47Z</time><name>PT1595</name></trkpt>
<trkpt lat="52.036153" lon="05.791833"><ele>38.7</ele><time>2020-12-26T11:16:48Z</time><name>PT1596</name></trkpt>
<trkpt lat="52.036151" lon="05.791811"><ele>38.6</ele><time>2020-12-26T11:16:49Z</time><name>PT1597</name></trkpt>
<trkpt lat="52.036151" lon="05.791792"><ele>38.8</ele><time>2020-12-26T11:16:50Z</time><name>PT1598</name></trkpt>
<trkpt lat="52.036150" lon="05.791771"><ele>38.6</ele><time>2020-12-26T11:16:51Z</time><name>PT1599</name></trkpt>
<trkpt lat="52.036147" lon="05.791752"><ele>38.7</ele><time>2020-12-26T11:16:52Z</time><name>PT1600</name></trkpt>
<trkpt lat="52.036146" lon="05.791730"><ele>38.8</ele><time>2020-12-26T11:16:53Z</time><name>PT1601</name></trkpt>
<trkpt lat="52.036146" lon="05.791711"><ele>38.9</ele><time>2020-12-26T11:16:54Z</time><name>PT1602</name></trkpt>
<trkpt lat="52.036146" lon="05.791693"><ele>38.8</ele><time>2020-12-26T11:16:55Z</time><name>PT1603</name></trkpt>
<trkpt lat="52.036145" lon="05.791673"><ele>39</ele><time>2020-12-26T11:16:56Z</time><name>PT1604</name></trkpt>
<trkpt lat="52.036145" lon="05.791654"><ele>39</ele><time>2020-12-26T11:16:57Z</time><name>PT1605</name></trkpt>
<trkpt lat="52.036147" lon="05.791636"><ele>39</ele><time>2020-12-26T11:16:58Z</time><name>PT1606</name></trkpt>
<trkpt lat="52.036148" lon="05.791618"><ele>39</ele><time>2020-12-26T11:16:59Z</time><name>PT1607</name></trkpt>
<trkpt lat="52.036148" lon="05.791600"><ele>39</ele><time>2020-12-26T11:17:00Z</time><name>PT1608</name></trkpt>
<trkpt lat="52.036150" lon="05.791582"><ele>38.9</ele><time>2020-12-26T11:17:01Z</time><name>PT1609</name></trkpt>
<trkpt lat="52.036152" lon="05.791562"><ele>38.8</ele><time>2020-12-26T11:17:02Z</time><name>PT1610</name></trkpt>
<trkpt lat="52.036153" lon="05.791546"><ele>38.6</ele><time>2020-12-26T11:17:03Z</time><name>PT1611</name></trkpt>
<trkpt lat="52.036155" lon="05.791530"><ele>38.6</ele><time>2020-12-26T11:17:04Z</time><name>PT1612</name></trkpt>
<trkpt lat="52.036156" lon="05.791516"><ele>38.7</ele><time>2020-12-26T11:17:05Z</time><name>PT1613</name></trkpt>
<trkpt lat="52.036158" lon="05.791498"><ele>38.6</ele><time>2020-12-26T11:17:06Z</time><name>PT1614</name></trkpt>
<trkpt lat="52.036160" lon="05.791482"><ele>38.8</ele><time>2020-12-26T11:17:07Z</time><name>PT1615</name></trkpt>
<trkpt lat="52.036163" lon="05.791468"><ele>39</ele><time>2020-12-26T11:17:08Z</time><name>PT1616</name></trkpt>
<trkpt lat="52.036165" lon="05.791451"><ele>38.7</ele><time>2020-12-26T11:17:09Z</time><name>PT1617</name></trkpt>
<trkpt lat="52.036167" lon="05.791429"><ele>38.7</ele><time>2020-12-26T11:17:10Z</time><name>PT1618</name></trkpt>
<trkpt lat="52.036167" lon="05.791408"><ele>38.9</ele><time>2020-12-26T11:17:11Z</time><name>PT1619</name></trkpt>
<trkpt lat="52.036166" lon="05.791387"><ele>38.9</ele><time>2020-12-26T11:17:12Z</time><name>PT1620</name></trkpt>
<trkpt lat="52.036166" lon="05.791368"><ele>39</ele><time>2020-12-26T11:17:13Z</time><name>PT1621</name></trkpt>
<trkpt lat="52.036166" lon="05.791350"><ele>38.9</ele><time>2020-12-26T11:17:14Z</time><name>PT1622</name></trkpt>
<trkpt lat="52.036169" lon="05.791329"><ele>38.8</ele><time>2020-12-26T11:17:15Z</time><name>PT1623</name></trkpt>
<trkpt lat="52.036172" lon="05.791309"><ele>38.8</ele><time>2020-12-26T11:17:16Z</time><name>PT1624</name></trkpt>
<trkpt lat="52.036173" lon="05.791293"><ele>38.8</ele><time>2020-12-26T11:17:17Z</time><name>PT1625</name></trkpt>
<trkpt lat="52.036177" lon="05.791278"><ele>38.9</ele><time>2020-12-26T11:17:18Z</time><name>PT1626</name></trkpt>
<trkpt lat="52.036186" lon="05.791265"><ele>38.9</ele><time>2020-12-26T11:17:19Z</time><name>PT1627</name></trkpt>
<trkpt lat="52.036189" lon="05.791247"><ele>38.9</ele><time>2020-12-26T11:17:20Z</time><name>PT1628</name></trkpt>
<trkpt lat="52.036191" lon="05.791229"><ele>38.8</ele><time>2020-12-26T11:17:21Z</time><name>PT1629</name></trkpt>
<trkpt lat="52.036191" lon="05.791215"><ele>38.6</ele><time>2020-12-26T11:17:22Z</time><name>PT1630</name></trkpt>
<trkpt lat="52.036191" lon="05.791197"><ele>38.7</ele><time>2020-12-26T11:17:23Z</time><name>PT1631</name></trkpt>
<trkpt lat="52.036191" lon="05.791181"><ele>38.7</ele><time>2020-12-26T11:17:24Z</time><name>PT1632</name></trkpt>
<trkpt lat="52.036194" lon="05.791167"><ele>38.8</ele><time>2020-12-26T11:17:25Z</time><name>PT1633</name></trkpt>
<trkpt lat="52.036196" lon="05.791149"><ele>39</ele><time>2020-12-26T11:17:26Z</time><name>PT1634</name></trkpt>
<trkpt lat="52.036198" lon="05.791130"><ele>38.9</ele><time>2020-12-26T11:17:27Z</time><name>PT1635</name></trkpt>
<trkpt lat="52.036202" lon="05.791109"><ele>38.8</ele><time>2020-12-26T11:17:28Z</time><name>PT1636</name></trkpt>
<trkpt lat="52.036207" lon="05.791092"><ele>38.9</ele><time>2020-12-26T11:17:29Z</time><name>PT1637</name></trkpt>
<trkpt lat="52.036213" lon="05.791073"><ele>38.7</ele><time>2020-12-26T11:17:30Z</time><name>PT1638</name></trkpt>
<trkpt lat="52.036221" lon="05.791055"><ele>38.8</ele><time>2020-12-26T11:17:31Z</time><name>PT1639</name></trkpt>
<trkpt lat="52.036223" lon="05.791035"><ele>39</ele><time>2020-12-26T11:17:32Z</time><name>PT1640</name></trkpt>
<trkpt lat="52.036228" lon="05.791015"><ele>38.7</ele><time>2020-12-26T11:17:33Z</time><name>PT1641</name></trkpt>
<trkpt lat="52.036228" lon="05.790994"><ele>38.7</ele><time>2020-12-26T11:17:34Z</time><name>PT1642</name></trkpt>
<trkpt lat="52.036230" lon="05.790976"><ele>38.9</ele><time>2020-12-26T11:17:35Z</time><name>PT1643</name></trkpt>
<trkpt lat="52.036234" lon="05.790959"><ele>38.8</ele><time>2020-12-26T11:17:36Z</time><name>PT1644</name></trkpt>
<trkpt lat="52.036239" lon="05.790940"><ele>38.8</ele><time>2020-12-26T11:17:37Z</time><name>PT1645</name></trkpt>
<trkpt lat="52.036242" lon="05.790922"><ele>38.6</ele><time>2020-12-26T11:17:38Z</time><name>PT1646</name></trkpt>
<trkpt lat="52.036246" lon="05.790901"><ele>38.5</ele><time>2020-12-26T11:17:39Z</time><name>PT1647</name></trkpt>
<trkpt lat="52.036246" lon="05.790882"><ele>38.4</ele><time>2020-12-26T11:17:40Z</time><name>PT1648</name></trkpt>
<trkpt lat="52.036245" lon="05.790865"><ele>38.3</ele><time>2020-12-26T11:17:41Z</time><name>PT1649</name></trkpt>
<trkpt lat="52.036247" lon="05.790844"><ele>38.3</ele><time>2020-12-26T11:17:42Z</time><name>PT1650</name></trkpt>
<trkpt lat="52.036250" lon="05.790821"><ele>38.3</ele><time>2020-12-26T11:17:43Z</time><name>PT1651</name></trkpt>
<trkpt lat="52.036255" lon="05.790799"><ele>38.3</ele><time>2020-12-26T11:17:44Z</time><name>PT1652</name></trkpt>
<trkpt lat="52.036258" lon="05.790777"><ele>38.4</ele><time>2020-12-26T11:17:45Z</time><name>PT1653</name></trkpt>
<trkpt lat="52.036260" lon="05.790758"><ele>38.4</ele><time>2020-12-26T11:17:46Z</time><name>PT1654</name></trkpt>
<trkpt lat="52.036266" lon="05.790739"><ele>38.4</ele><time>2020-12-26T11:17:47Z</time><name>PT1655</name></trkpt>
<trkpt lat="52.036273" lon="05.790722"><ele>38.5</ele><time>2020-12-26T11:17:48Z</time><name>PT1656</name></trkpt>
<trkpt lat="52.036278" lon="05.790706"><ele>38.5</ele><time>2020-12-26T11:17:49Z</time><name>PT1657</name></trkpt>
<trkpt lat="52.036281" lon="05.790688"><ele>38.5</ele><time>2020-12-26T11:17:50Z</time><name>PT1658</name></trkpt>
<trkpt lat="52.036285" lon="05.790669"><ele>38.5</ele><time>2020-12-26T11:17:51Z</time><name>PT1659</name></trkpt>
<trkpt lat="52.036289" lon="05.790651"><ele>38.6</ele><time>2020-12-26T11:17:52Z</time><name>PT1660</name></trkpt>
<trkpt lat="52.036295" lon="05.790634"><ele>38.6</ele><time>2020-12-26T11:17:53Z</time><name>PT1661</name></trkpt>
<trkpt lat="52.036300" lon="05.790616"><ele>38.6</ele><time>2020-12-26T11:17:54Z</time><name>PT1662</name></trkpt>
<trkpt lat="52.036304" lon="05.790597"><ele>38.5</ele><time>2020-12-26T11:17:55Z</time><name>PT1663</name></trkpt>
<trkpt lat="52.036309" lon="05.790584"><ele>38.5</ele><time>2020-12-26T11:17:56Z</time><name>PT1664</name></trkpt>
<trkpt lat="52.036316" lon="05.790570"><ele>38.3</ele><time>2020-12-26T11:17:57Z</time><name>PT1665</name></trkpt>
<trkpt lat="52.036320" lon="05.790554"><ele>38.3</ele><time>2020-12-26T11:17:58Z</time><name>PT1666</name></trkpt>
<trkpt lat="52.036325" lon="05.790536"><ele>38.4</ele><time>2020-12-26T11:17:59Z</time><name>PT1667</name></trkpt>
<trkpt lat="52.036329" lon="05.790520"><ele>38.1</ele><time>2020-12-26T11:18:00Z</time><name>PT1668</name></trkpt>
<trkpt lat="52.036334" lon="05.790504"><ele>38.2</ele><time>2020-12-26T11:18:01Z</time><name>PT1669</name></trkpt>
<trkpt lat="52.036341" lon="05.790487"><ele>38.1</ele><time>2020-12-26T11:18:02Z</time><name>PT1670</name></trkpt>
<trkpt lat="52.036348" lon="05.790469"><ele>38</ele><time>2020-12-26T11:18:03Z</time><name>PT1671</name></trkpt>
<trkpt lat="52.036352" lon="05.790456"><ele>38</ele><time>2020-12-26T11:18:04Z</time><name>PT1672</name></trkpt>
<trkpt lat="52.036357" lon="05.790437"><ele>38</ele><time>2020-12-26T11:18:05Z</time><name>PT1673</name></trkpt>
<trkpt lat="52.036360" lon="05.790419"><ele>37.8</ele><time>2020-12-26T11:18:06Z</time><name>PT1674</name></trkpt>
<trkpt lat="52.036359" lon="05.790400"><ele>37.8</ele><time>2020-12-26T11:18:07Z</time><name>PT1675</name></trkpt>
<trkpt lat="52.036356" lon="05.790382"><ele>37.8</ele><time>2020-12-26T11:18:08Z</time><name>PT1676</name></trkpt>
<trkpt lat="52.036358" lon="05.790362"><ele>37.8</ele><time>2020-12-26T11:18:09Z</time><name>PT1677</name></trkpt>
<trkpt lat="52.036358" lon="05.790344"><ele>37.8</ele><time>2020-12-26T11:18:10Z</time><name>PT1678</name></trkpt>
<trkpt lat="52.036359" lon="05.790326"><ele>37.9</ele><time>2020-12-26T11:18:11Z</time><name>PT1679</name></trkpt>
<trkpt lat="52.036364" lon="05.790313"><ele>37.8</ele><time>2020-12-26T11:18:12Z</time><name>PT1680</name></trkpt>
<trkpt lat="52.036367" lon="05.790301"><ele>38.1</ele><time>2020-12-26T11:18:13Z</time><name>PT1681</name></trkpt>
<trkpt lat="52.036369" lon="05.790288"><ele>38.3</ele><time>2020-12-26T11:18:14Z</time><name>PT1682</name></trkpt>
<trkpt lat="52.036373" lon="05.790282"><ele>38.5</ele><time>2020-12-26T11:18:15Z</time><name>PT1683</name></trkpt>
<trkpt lat="52.036375" lon="05.790278"><ele>38.7</ele><time>2020-12-26T11:18:16Z</time><name>PT1684</name></trkpt>
<trkpt lat="52.036375" lon="05.790275"><ele>38.8</ele><time>2020-12-26T11:18:17Z</time><name>PT1685</name></trkpt>
<trkpt lat="52.036375" lon="05.790273"><ele>38.9</ele><time>2020-12-26T11:18:18Z</time><name>PT1686</name></trkpt>
<trkpt lat="52.036375" lon="05.790271"><ele>38.7</ele><time>2020-12-26T11:18:24Z</time><name>PT1687</name></trkpt>
<trkpt lat="52.036378" lon="05.790259"><ele>38.7</ele><time>2020-12-26T11:18:25Z</time><name>PT1688</name></trkpt>
<trkpt lat="52.036383" lon="05.790251"><ele>38.5</ele><time>2020-12-26T11:18:26Z</time><name>PT1689</name></trkpt>
<trkpt lat="52.036386" lon="05.790245"><ele>38.5</ele><time>2020-12-26T11:18:27Z</time><name>PT1690</name></trkpt>
<trkpt lat="52.036387" lon="05.790236"><ele>38.5</ele><time>2020-12-26T11:18:28Z</time><name>PT1691</name></trkpt>
<trkpt lat="52.036392" lon="05.790221"><ele>38.7</ele><time>2020-12-26T11:18:29Z</time><name>PT1692</name></trkpt>
<trkpt lat="52.036396" lon="05.790203"><ele>38.8</ele><time>2020-12-26T11:18:30Z</time><name>PT1693</name></trkpt>
<trkpt lat="52.036399" lon="05.790189"><ele>38.9</ele><time>2020-12-26T11:18:31Z</time><name>PT1694</name></trkpt>
<trkpt lat="52.036403" lon="05.790171"><ele>39</ele><time>2020-12-26T11:18:32Z</time><name>PT1695</name></trkpt>
<trkpt lat="52.036406" lon="05.790150"><ele>39</ele><time>2020-12-26T11:18:33Z</time><name>PT1696</name></trkpt>
<trkpt lat="52.036408" lon="05.790129"><ele>39</ele><time>2020-12-26T11:18:34Z</time><name>PT1697</name></trkpt>
<trkpt lat="52.036411" lon="05.790113"><ele>38.8</ele><time>2020-12-26T11:18:35Z</time><name>PT1698</name></trkpt>
<trkpt lat="52.036413" lon="05.790098"><ele>39</ele><time>2020-12-26T11:18:36Z</time><name>PT1699</name></trkpt>
<trkpt lat="52.036411" lon="05.790082"><ele>38.9</ele><time>2020-12-26T11:18:37Z</time><name>PT1700</name></trkpt>
<trkpt lat="52.036413" lon="05.790065"><ele>38.8</ele><time>2020-12-26T11:18:38Z</time><name>PT1701</name></trkpt>
<trkpt lat="52.036422" lon="05.790040"><ele>38.9</ele><time>2020-12-26T11:18:39Z</time><name>PT1702</name></trkpt>
<trkpt lat="52.036426" lon="05.790023"><ele>38.6</ele><time>2020-12-26T11:18:40Z</time><name>PT1703</name></trkpt>
<trkpt lat="52.036425" lon="05.790008"><ele>38.7</ele><time>2020-12-26T11:18:41Z</time><name>PT1704</name></trkpt>
<trkpt lat="52.036423" lon="05.789995"><ele>38.8</ele><time>2020-12-26T11:18:42Z</time><name>PT1705</name></trkpt>
<trkpt lat="52.036424" lon="05.789981"><ele>38.5</ele><time>2020-12-26T11:18:43Z</time><name>PT1706</name></trkpt>
<trkpt lat="52.036424" lon="05.789969"><ele>38.5</ele><time>2020-12-26T11:18:44Z</time><name>PT1707</name></trkpt>
<trkpt lat="52.036424" lon="05.789957"><ele>38.4</ele><time>2020-12-26T11:18:45Z</time><name>PT1708</name></trkpt>
<trkpt lat="52.036424" lon="05.789940"><ele>38.3</ele><time>2020-12-26T11:18:46Z</time><name>PT1709</name></trkpt>
<trkpt lat="52.036425" lon="05.789922"><ele>38.3</ele><time>2020-12-26T11:18:47Z</time><name>PT1710</name></trkpt>
<trkpt lat="52.036429" lon="05.789905"><ele>38.4</ele><time>2020-12-26T11:18:48Z</time><name>PT1711</name></trkpt>
<trkpt lat="52.036431" lon="05.789887"><ele>38.4</ele><time>2020-12-26T11:18:49Z</time><name>PT1712</name></trkpt>
<trkpt lat="52.036435" lon="05.789866"><ele>38.4</ele><time>2020-12-26T11:18:50Z</time><name>PT1713</name></trkpt>
<trkpt lat="52.036438" lon="05.789847"><ele>38.5</ele><time>2020-12-26T11:18:51Z</time><name>PT1714</name></trkpt>
<trkpt lat="52.036444" lon="05.789825"><ele>38.4</ele><time>2020-12-26T11:18:52Z</time><name>PT1715</name></trkpt>
<trkpt lat="52.036448" lon="05.789804"><ele>38.3</ele><time>2020-12-26T11:18:53Z</time><name>PT1716</name></trkpt>
<trkpt lat="52.036452" lon="05.789782"><ele>38.3</ele><time>2020-12-26T11:18:54Z</time><name>PT1717</name></trkpt>
<trkpt lat="52.036455" lon="05.789759"><ele>38.2</ele><time>2020-12-26T11:18:55Z</time><name>PT1718</name></trkpt>
<trkpt lat="52.036457" lon="05.789732"><ele>38</ele><time>2020-12-26T11:18:56Z</time><name>PT1719</name></trkpt>
<trkpt lat="52.036460" lon="05.789707"><ele>38</ele><time>2020-12-26T11:18:57Z</time><name>PT1720</name></trkpt>
<trkpt lat="52.036465" lon="05.789682"><ele>38</ele><time>2020-12-26T11:18:58Z</time><name>PT1721</name></trkpt>
<trkpt lat="52.036467" lon="05.789656"><ele>38.2</ele><time>2020-12-26T11:18:59Z</time><name>PT1722</name></trkpt>
<trkpt lat="52.036470" lon="05.789635"><ele>38.5</ele><time>2020-12-26T11:19:00Z</time><name>PT1723</name></trkpt>
<trkpt lat="52.036472" lon="05.789613"><ele>38.5</ele><time>2020-12-26T11:19:01Z</time><name>PT1724</name></trkpt>
<trkpt lat="52.036473" lon="05.789597"><ele>38.5</ele><time>2020-12-26T11:19:02Z</time><name>PT1725</name></trkpt>
<trkpt lat="52.036473" lon="05.789580"><ele>38.7</ele><time>2020-12-26T11:19:03Z</time><name>PT1726</name></trkpt>
<trkpt lat="52.036473" lon="05.789563"><ele>38.8</ele><time>2020-12-26T11:19:04Z</time><name>PT1727</name></trkpt>
<trkpt lat="52.036474" lon="05.789542"><ele>38.8</ele><time>2020-12-26T11:19:05Z</time><name>PT1728</name></trkpt>
<trkpt lat="52.036472" lon="05.789522"><ele>39</ele><time>2020-12-26T11:19:06Z</time><name>PT1729</name></trkpt>
<trkpt lat="52.036472" lon="05.789502"><ele>38.8</ele><time>2020-12-26T11:19:07Z</time><name>PT1730</name></trkpt>
<trkpt lat="52.036474" lon="05.789481"><ele>39</ele><time>2020-12-26T11:19:08Z</time><name>PT1731</name></trkpt>
<trkpt lat="52.036471" lon="05.789458"><ele>39.1</ele><time>2020-12-26T11:19:09Z</time><name>PT1732</name></trkpt>
<trkpt lat="52.036472" lon="05.789439"><ele>39.2</ele><time>2020-12-26T11:19:10Z</time><name>PT1733</name></trkpt>
<trkpt lat="52.036471" lon="05.789421"><ele>39.2</ele><time>2020-12-26T11:19:11Z</time><name>PT1734</name></trkpt>
<trkpt lat="52.036469" lon="05.789399"><ele>39</ele><time>2020-12-26T11:19:12Z</time><name>PT1735</name></trkpt>
<trkpt lat="52.036463" lon="05.789383"><ele>39</ele><time>2020-12-26T11:19:13Z</time><name>PT1736</name></trkpt>
<trkpt lat="52.036463" lon="05.789362"><ele>38.8</ele><time>2020-12-26T11:19:14Z</time><name>PT1737</name></trkpt>
<trkpt lat="52.036465" lon="05.789342"><ele>38.9</ele><time>2020-12-26T11:19:15Z</time><name>PT1738</name></trkpt>
<trkpt lat="52.036465" lon="05.789322"><ele>39</ele><time>2020-12-26T11:19:16Z</time><name>PT1739</name></trkpt>
<trkpt lat="52.036464" lon="05.789303"><ele>39</ele><time>2020-12-26T11:19:17Z</time><name>PT1740</name></trkpt>
<trkpt lat="52.036459" lon="05.789285"><ele>39</ele><time>2020-12-26T11:19:18Z</time><name>PT1741</name></trkpt>
<trkpt lat="52.036455" lon="05.789268"><ele>38.9</ele><time>2020-12-26T11:19:19Z</time><name>PT1742</name></trkpt>
<trkpt lat="52.036452" lon="05.789245"><ele>39</ele><time>2020-12-26T11:19:20Z</time><name>PT1743</name></trkpt>
<trkpt lat="52.036449" lon="05.789222"><ele>39</ele><time>2020-12-26T11:19:21Z</time><name>PT1744</name></trkpt>
<trkpt lat="52.036447" lon="05.789203"><ele>39</ele><time>2020-12-26T11:19:22Z</time><name>PT1745</name></trkpt>
<trkpt lat="52.036439" lon="05.789185"><ele>38.9</ele><time>2020-12-26T11:19:23Z</time><name>PT1746</name></trkpt>
<trkpt lat="52.036436" lon="05.789164"><ele>38.9</ele><time>2020-12-26T11:19:24Z</time><name>PT1747</name></trkpt>
<trkpt lat="52.036432" lon="05.789142"><ele>38.9</ele><time>2020-12-26T11:19:25Z</time><name>PT1748</name></trkpt>
<trkpt lat="52.036427" lon="05.789123"><ele>38.8</ele><time>2020-12-26T11:19:26Z</time><name>PT1749</name></trkpt>
<trkpt lat="52.036426" lon="05.789100"><ele>39</ele><time>2020-12-26T11:19:27Z</time><name>PT1750</name></trkpt>
<trkpt lat="52.036423" lon="05.789079"><ele>39</ele><time>2020-12-26T11:19:28Z</time><name>PT1751</name></trkpt>
<trkpt lat="52.036423" lon="05.789057"><ele>39</ele><time>2020-12-26T11:19:29Z</time><name>PT1752</name></trkpt>
<trkpt lat="52.036424" lon="05.789041"><ele>39.1</ele><time>2020-12-26T11:19:30Z</time><name>PT1753</name></trkpt>
<trkpt lat="52.036423" lon="05.789028"><ele>39</ele><time>2020-12-26T11:19:31Z</time><name>PT1754</name></trkpt>
<trkpt lat="52.036422" lon="05.789012"><ele>39.2</ele><time>2020-12-26T11:19:32Z</time><name>PT1755</name></trkpt>
<trkpt lat="52.036422" lon="05.788996"><ele>39.2</ele><time>2020-12-26T11:19:33Z</time><name>PT1756</name></trkpt>
<trkpt lat="52.036428" lon="05.788979"><ele>39.2</ele><time>2020-12-26T11:19:34Z</time><name>PT1757</name></trkpt>
<trkpt lat="52.036431" lon="05.788965"><ele>39.3</ele><time>2020-12-26T11:19:35Z</time><name>PT1758</name></trkpt>
<trkpt lat="52.036438" lon="05.788962"><ele>39.2</ele><time>2020-12-26T11:19:36Z</time><name>PT1759</name></trkpt>
<trkpt lat="52.036439" lon="05.788961"><ele>39.2</ele><time>2020-12-26T11:19:37Z</time><name>PT1760</name></trkpt>
<trkpt lat="52.036438" lon="05.788959"><ele>39.2</ele><time>2020-12-26T11:19:38Z</time><name>PT1761</name></trkpt>
<trkpt lat="52.036437" lon="05.788957"><ele>39.1</ele><time>2020-12-26T11:19:39Z</time><name>PT1762</name></trkpt>
<trkpt lat="52.036434" lon="05.788951"><ele>39.3</ele><time>2020-12-26T11:19:41Z</time><name>PT1763</name></trkpt>
<trkpt lat="52.036435" lon="05.788954"><ele>39.3</ele><time>2020-12-26T11:19:42Z</time><name>PT1764</name></trkpt>
<trkpt lat="52.036433" lon="05.788939"><ele>39.4</ele><time>2020-12-26T11:19:43Z</time><name>PT1765</name></trkpt>
<trkpt lat="52.036433" lon="05.788925"><ele>39.4</ele><time>2020-12-26T11:19:44Z</time><name>PT1766</name></trkpt>
<trkpt lat="52.036433" lon="05.788903"><ele>39.2</ele><time>2020-12-26T11:19:45Z</time><name>PT1767</name></trkpt>
<trkpt lat="52.036431" lon="05.788883"><ele>39.1</ele><time>2020-12-26T11:19:46Z</time><name>PT1768</name></trkpt>
<trkpt lat="52.036433" lon="05.788864"><ele>39</ele><time>2020-12-26T11:19:47Z</time><name>PT1769</name></trkpt>
<trkpt lat="52.036436" lon="05.788843"><ele>39.1</ele><time>2020-12-26T11:19:48Z</time><name>PT1770</name></trkpt>
<trkpt lat="52.036437" lon="05.788825"><ele>39</ele><time>2020-12-26T11:19:49Z</time><name>PT1771</name></trkpt>
<trkpt lat="52.036439" lon="05.788804"><ele>39</ele><time>2020-12-26T11:19:50Z</time><name>PT1772</name></trkpt>
<trkpt lat="52.036444" lon="05.788780"><ele>39</ele><time>2020-12-26T11:19:51Z</time><name>PT1773</name></trkpt>
<trkpt lat="52.036451" lon="05.788756"><ele>38.8</ele><time>2020-12-26T11:19:52Z</time><name>PT1774</name></trkpt>
<trkpt lat="52.036456" lon="05.788733"><ele>38.6</ele><time>2020-12-26T11:19:53Z</time><name>PT1775</name></trkpt>
<trkpt lat="52.036461" lon="05.788712"><ele>38.5</ele><time>2020-12-26T11:19:54Z</time><name>PT1776</name></trkpt>
<trkpt lat="52.036467" lon="05.788686"><ele>38.3</ele><time>2020-12-26T11:19:55Z</time><name>PT1777</name></trkpt>
<trkpt lat="52.036466" lon="05.788671"><ele>38.3</ele><time>2020-12-26T11:19:56Z</time><name>PT1778</name></trkpt>
<trkpt lat="52.036472" lon="05.788650"><ele>38.3</ele><time>2020-12-26T11:19:57Z</time><name>PT1779</name></trkpt>
<trkpt lat="52.036476" lon="05.788626"><ele>38.2</ele><time>2020-12-26T11:19:58Z</time><name>PT1780</name></trkpt>
<trkpt lat="52.036479" lon="05.788604"><ele>38.2</ele><time>2020-12-26T11:19:59Z</time><name>PT1781</name></trkpt>
<trkpt lat="52.036481" lon="05.788580"><ele>38.3</ele><time>2020-12-26T11:20:00Z</time><name>PT1782</name></trkpt>
<trkpt lat="52.036485" lon="05.788554"><ele>38.1</ele><time>2020-12-26T11:20:01Z</time><name>PT1783</name></trkpt>
<trkpt lat="52.036489" lon="05.788526"><ele>38</ele><time>2020-12-26T11:20:02Z</time><name>PT1784</name></trkpt>
<trkpt lat="52.036492" lon="05.788500"><ele>37.8</ele><time>2020-12-26T11:20:03Z</time><name>PT1785</name></trkpt>
<trkpt lat="52.036493" lon="05.788477"><ele>37.6</ele><time>2020-12-26T11:20:04Z</time><name>PT1786</name></trkpt>
<trkpt lat="52.036496" lon="05.788452"><ele>37.5</ele><time>2020-12-26T11:20:05Z</time><name>PT1787</name></trkpt>
<trkpt lat="52.036497" lon="05.788429"><ele>37.4</ele><time>2020-12-26T11:20:06Z</time><name>PT1788</name></trkpt>
<trkpt lat="52.036504" lon="05.788406"><ele>37.4</ele><time>2020-12-26T11:20:07Z</time><name>PT1789</name></trkpt>
<trkpt lat="52.036510" lon="05.788382"><ele>37.6</ele><time>2020-12-26T11:20:08Z</time><name>PT1790</name></trkpt>
<trkpt lat="52.036514" lon="05.788361"><ele>37.7</ele><time>2020-12-26T11:20:09Z</time><name>PT1791</name></trkpt>
<trkpt lat="52.036502" lon="05.788337"><ele>37.7</ele><time>2020-12-26T11:20:10Z</time><name>PT1792</name></trkpt>
<trkpt lat="52.036498" lon="05.788312"><ele>37.7</ele><time>2020-12-26T11:20:11Z</time><name>PT1793</name></trkpt>
<trkpt lat="52.036504" lon="05.788286"><ele>37.6</ele><time>2020-12-26T11:20:12Z</time><name>PT1794</name></trkpt>
<trkpt lat="52.036509" lon="05.788262"><ele>37.6</ele><time>2020-12-26T11:20:13Z</time><name>PT1795</name></trkpt>
<trkpt lat="52.036515" lon="05.788238"><ele>37.8</ele><time>2020-12-26T11:20:14Z</time><name>PT1796</name></trkpt>
<trkpt lat="52.036519" lon="05.788214"><ele>37.9</ele><time>2020-12-26T11:20:15Z</time><name>PT1797</name></trkpt>
<trkpt lat="52.036522" lon="05.788188"><ele>38.1</ele><time>2020-12-26T11:20:16Z</time><name>PT1798</name></trkpt>
<trkpt lat="52.036530" lon="05.788160"><ele>38.2</ele><time>2020-12-26T11:20:17Z</time><name>PT1799</name></trkpt>
<trkpt lat="52.036534" lon="05.788139"><ele>38.1</ele><time>2020-12-26T11:20:18Z</time><name>PT1800</name></trkpt>
<trkpt lat="52.036537" lon="05.788116"><ele>38.1</ele><time>2020-12-26T11:20:19Z</time><name>PT1801</name></trkpt>
<trkpt lat="52.036540" lon="05.788092"><ele>38.1</ele><time>2020-12-26T11:20:20Z</time><name>PT1802</name></trkpt>
<trkpt lat="52.036543" lon="05.788069"><ele>38</ele><time>2020-12-26T11:20:21Z</time><name>PT1803</name></trkpt>
<trkpt lat="52.036544" lon="05.788050"><ele>37.9</ele><time>2020-12-26T11:20:22Z</time><name>PT1804</name></trkpt>
<trkpt lat="52.036545" lon="05.788031"><ele>37.8</ele><time>2020-12-26T11:20:23Z</time><name>PT1805</name></trkpt>
<trkpt lat="52.036546" lon="05.788009"><ele>37.8</ele><time>2020-12-26T11:20:24Z</time><name>PT1806</name></trkpt>
<trkpt lat="52.036547" lon="05.787989"><ele>37.8</ele><time>2020-12-26T11:20:25Z</time><name>PT1807</name></trkpt>
<trkpt lat="52.036548" lon="05.787966"><ele>37.8</ele><time>2020-12-26T11:20:26Z</time><name>PT1808</name></trkpt>
<trkpt lat="52.036548" lon="05.787949"><ele>38</ele><time>2020-12-26T11:20:27Z</time><name>PT1809</name></trkpt>
<trkpt lat="52.036548" lon="05.787930"><ele>38</ele><time>2020-12-26T11:20:28Z</time><name>PT1810</name></trkpt>
<trkpt lat="52.036547" lon="05.787913"><ele>37.9</ele><time>2020-12-26T11:20:29Z</time><name>PT1811</name></trkpt>
<trkpt lat="52.036550" lon="05.787893"><ele>37.9</ele><time>2020-12-26T11:20:30Z</time><name>PT1812</name></trkpt>
<trkpt lat="52.036552" lon="05.787873"><ele>37.8</ele><time>2020-12-26T11:20:31Z</time><name>PT1813</name></trkpt>
<trkpt lat="52.036554" lon="05.787854"><ele>37.8</ele><time>2020-12-26T11:20:32Z</time><name>PT1814</name></trkpt>
<trkpt lat="52.036557" lon="05.787837"><ele>37.8</ele><time>2020-12-26T11:20:33Z</time><name>PT1815</name></trkpt>
<trkpt lat="52.036562" lon="05.787822"><ele>37.6</ele><time>2020-12-26T11:20:34Z</time><name>PT1816</name></trkpt>
<trkpt lat="52.036564" lon="05.787803"><ele>37.4</ele><time>2020-12-26T11:20:35Z</time><name>PT1817</name></trkpt>
<trkpt lat="52.036566" lon="05.787781"><ele>37.4</ele><time>2020-12-26T11:20:36Z</time><name>PT1818</name></trkpt>
<trkpt lat="52.036568" lon="05.787758"><ele>37.3</ele><time>2020-12-26T11:20:37Z</time><name>PT1819</name></trkpt>
<trkpt lat="52.036569" lon="05.787737"><ele>37.3</ele><time>2020-12-26T11:20:38Z</time><name>PT1820</name></trkpt>
<trkpt lat="52.036571" lon="05.787716"><ele>37.5</ele><time>2020-12-26T11:20:39Z</time><name>PT1821</name></trkpt>
<trkpt lat="52.036574" lon="05.787694"><ele>37.6</ele><time>2020-12-26T11:20:40Z</time><name>PT1822</name></trkpt>
<trkpt lat="52.036572" lon="05.787671"><ele>37.7</ele><time>2020-12-26T11:20:41Z</time><name>PT1823</name></trkpt>
<trkpt lat="52.036571" lon="05.787649"><ele>37.9</ele><time>2020-12-26T11:20:42Z</time><name>PT1824</name></trkpt>
<trkpt lat="52.036572" lon="05.787628"><ele>37.9</ele><time>2020-12-26T11:20:43Z</time><name>PT1825</name></trkpt>
<trkpt lat="52.036572" lon="05.787606"><ele>37.9</ele><time>2020-12-26T11:20:44Z</time><name>PT1826</name></trkpt>
<trkpt lat="52.036571" lon="05.787582"><ele>37.8</ele><time>2020-12-26T11:20:45Z</time><name>PT1827</name></trkpt>
<trkpt lat="52.036572" lon="05.787561"><ele>38</ele><time>2020-12-26T11:20:46Z</time><name>PT1828</name></trkpt>
<trkpt lat="52.036572" lon="05.787541"><ele>38</ele><time>2020-12-26T11:20:47Z</time><name>PT1829</name></trkpt>
<trkpt lat="52.036572" lon="05.787519"><ele>38</ele><time>2020-12-26T11:20:48Z</time><name>PT1830</name></trkpt>
<trkpt lat="52.036573" lon="05.787494"><ele>38.2</ele><time>2020-12-26T11:20:49Z</time><name>PT1831</name></trkpt>
<trkpt lat="52.036575" lon="05.787471"><ele>38.2</ele><time>2020-12-26T11:20:50Z</time><name>PT1832</name></trkpt>
<trkpt lat="52.036577" lon="05.787447"><ele>38.1</ele><time>2020-12-26T11:20:51Z</time><name>PT1833</name></trkpt>
<trkpt lat="52.036579" lon="05.787425"><ele>38</ele><time>2020-12-26T11:20:52Z</time><name>PT1834</name></trkpt>
<trkpt lat="52.036582" lon="05.787400"><ele>38</ele><time>2020-12-26T11:20:53Z</time><name>PT1835</name></trkpt>
<trkpt lat="52.036584" lon="05.787377"><ele>37.8</ele><time>2020-12-26T11:20:54Z</time><name>PT1836</name></trkpt>
<trkpt lat="52.036589" lon="05.787356"><ele>37.8</ele><time>2020-12-26T11:20:55Z</time><name>PT1837</name></trkpt>
<trkpt lat="52.036590" lon="05.787336"><ele>37.8</ele><time>2020-12-26T11:20:56Z</time><name>PT1838</name></trkpt>
<trkpt lat="52.036590" lon="05.787318"><ele>37.9</ele><time>2020-12-26T11:20:57Z</time><name>PT1839</name></trkpt>
<trkpt lat="52.036591" lon="05.787300"><ele>37.8</ele><time>2020-12-26T11:20:58Z</time><name>PT1840</name></trkpt>
<trkpt lat="52.036592" lon="05.787279"><ele>37.8</ele><time>2020-12-26T11:20:59Z</time><name>PT1841</name></trkpt>
<trkpt lat="52.036592" lon="05.787263"><ele>37.8</ele><time>2020-12-26T11:21:00Z</time><name>PT1842</name></trkpt>
<trkpt lat="52.036594" lon="05.787255"><ele>37.8</ele><time>2020-12-26T11:21:01Z</time><name>PT1843</name></trkpt>
<trkpt lat="52.036594" lon="05.787252"><ele>37.9</ele><time>2020-12-26T11:21:02Z</time><name>PT1844</name></trkpt>
<trkpt lat="52.036595" lon="05.787252"><ele>38</ele><time>2020-12-26T11:21:03Z</time><name>PT1845</name></trkpt>
<trkpt lat="52.036594" lon="05.787252"><ele>38</ele><time>2020-12-26T11:21:04Z</time><name>PT1846</name></trkpt>
<trkpt lat="52.036595" lon="05.787244"><ele>38.1</ele><time>2020-12-26T11:21:21Z</time><name>PT1847</name></trkpt>
<trkpt lat="52.036592" lon="05.787221"><ele>38.2</ele><time>2020-12-26T11:21:22Z</time><name>PT1848</name></trkpt>
<trkpt lat="52.036591" lon="05.787202"><ele>38.2</ele><time>2020-12-26T11:21:23Z</time><name>PT1849</name></trkpt>
<trkpt lat="52.036592" lon="05.787176"><ele>38.1</ele><time>2020-12-26T11:21:24Z</time><name>PT1850</name></trkpt>
<trkpt lat="52.036596" lon="05.787150"><ele>38</ele><time>2020-12-26T11:21:25Z</time><name>PT1851</name></trkpt>
<trkpt lat="52.036595" lon="05.787130"><ele>38</ele><time>2020-12-26T11:21:26Z</time><name>PT1852</name></trkpt>
<trkpt lat="52.036593" lon="05.787108"><ele>38.1</ele><time>2020-12-26T11:21:27Z</time><name>PT1853</name></trkpt>
<trkpt lat="52.036591" lon="05.787088"><ele>38.2</ele><time>2020-12-26T11:21:28Z</time><name>PT1854</name></trkpt>
<trkpt lat="52.036589" lon="05.787067"><ele>38.1</ele><time>2020-12-26T11:21:29Z</time><name>PT1855</name></trkpt>
<trkpt lat="52.036589" lon="05.787043"><ele>38</ele><time>2020-12-26T11:21:30Z</time><name>PT1856</name></trkpt>
<trkpt lat="52.036587" lon="05.787018"><ele>37.9</ele><time>2020-12-26T11:21:31Z</time><name>PT1857</name></trkpt>
<trkpt lat="52.036586" lon="05.786992"><ele>38</ele><time>2020-12-26T11:21:32Z</time><name>PT1858</name></trkpt>
<trkpt lat="52.036584" lon="05.786964"><ele>38</ele><time>2020-12-26T11:21:33Z</time><name>PT1859</name></trkpt>
<trkpt lat="52.036585" lon="05.786938"><ele>37.8</ele><time>2020-12-26T11:21:34Z</time><name>PT1860</name></trkpt>
<trkpt lat="52.036585" lon="05.786914"><ele>37.9</ele><time>2020-12-26T11:21:35Z</time><name>PT1861</name></trkpt>
<trkpt lat="52.036588" lon="05.786885"><ele>37.6</ele><time>2020-12-26T11:21:36Z</time><name>PT1862</name></trkpt>
<trkpt lat="52.036585" lon="05.786860"><ele>37.4</ele><time>2020-12-26T11:21:37Z</time><name>PT1863</name></trkpt>
<trkpt lat="52.036585" lon="05.786837"><ele>37.4</ele><time>2020-12-26T11:21:38Z</time><name>PT1864</name></trkpt>
<trkpt lat="52.036582" lon="05.786814"><ele>37.5</ele><time>2020-12-26T11:21:39Z</time><name>PT1865</name></trkpt>
<trkpt lat="52.036577" lon="05.786790"><ele>37.5</ele><time>2020-12-26T11:21:40Z</time><name>PT1866</name></trkpt>
<trkpt lat="52.036575" lon="05.786765"><ele>37.6</ele><time>2020-12-26T11:21:41Z</time><name>PT1867</name></trkpt>
<trkpt lat="52.036571" lon="05.786738"><ele>37.6</ele><time>2020-12-26T11:21:42Z</time><name>PT1868</name></trkpt>
<trkpt lat="52.036567" lon="05.786713"><ele>37.5</ele><time>2020-12-26T11:21:43Z</time><name>PT1869</name></trkpt>
<trkpt lat="52.036565" lon="05.786687"><ele>37.6</ele><time>2020-12-26T11:21:44Z</time><name>PT1870</name></trkpt>
<trkpt lat="52.036564" lon="05.786661"><ele>37.6</ele><time>2020-12-26T11:21:45Z</time><name>PT1871</name></trkpt>
<trkpt lat="52.036562" lon="05.786637"><ele>37.5</ele><time>2020-12-26T11:21:46Z</time><name>PT1872</name></trkpt>
<trkpt lat="52.036558" lon="05.786613"><ele>37.6</ele><time>2020-12-26T11:21:47Z</time><name>PT1873</name></trkpt>
<trkpt lat="52.036554" lon="05.786588"><ele>37.6</ele><time>2020-12-26T11:21:48Z</time><name>PT1874</name></trkpt>
<trkpt lat="52.036549" lon="05.786567"><ele>37.6</ele><time>2020-12-26T11:21:49Z</time><name>PT1875</name></trkpt>
<trkpt lat="52.036542" lon="05.786549"><ele>37.6</ele><time>2020-12-26T11:21:50Z</time><name>PT1876</name></trkpt>
<trkpt lat="52.036537" lon="05.786529"><ele>37.7</ele><time>2020-12-26T11:21:51Z</time><name>PT1877</name></trkpt>
<trkpt lat="52.036533" lon="05.786508"><ele>37.6</ele><time>2020-12-26T11:21:52Z</time><name>PT1878</name></trkpt>
<trkpt lat="52.036529" lon="05.786486"><ele>37.6</ele><time>2020-12-26T11:21:53Z</time><name>PT1879</name></trkpt>
<trkpt lat="52.036525" lon="05.786463"><ele>37.6</ele><time>2020-12-26T11:21:54Z</time><name>PT1880</name></trkpt>
<trkpt lat="52.036522" lon="05.786437"><ele>37.4</ele><time>2020-12-26T11:21:55Z</time><name>PT1881</name></trkpt>
<trkpt lat="52.036522" lon="05.786418"><ele>37.4</ele><time>2020-12-26T11:21:56Z</time><name>PT1882</name></trkpt>
<trkpt lat="52.036520" lon="05.786395"><ele>37.5</ele><time>2020-12-26T11:21:57Z</time><name>PT1883</name></trkpt>
<trkpt lat="52.036523" lon="05.786372"><ele>37.4</ele><time>2020-12-26T11:21:58Z</time><name>PT1884</name></trkpt>
<trkpt lat="52.036523" lon="05.786348"><ele>37.2</ele><time>2020-12-26T11:21:59Z</time><name>PT1885</name></trkpt>
<trkpt lat="52.036521" lon="05.786324"><ele>37.4</ele><time>2020-12-26T11:22:00Z</time><name>PT1886</name></trkpt>
<trkpt lat="52.036517" lon="05.786301"><ele>37.3</ele><time>2020-12-26T11:22:01Z</time><name>PT1887</name></trkpt>
<trkpt lat="52.036514" lon="05.786279"><ele>37.3</ele><time>2020-12-26T11:22:02Z</time><name>PT1888</name></trkpt>
<trkpt lat="52.036509" lon="05.786256"><ele>37.3</ele><time>2020-12-26T11:22:03Z</time><name>PT1889</name></trkpt>
<trkpt lat="52.036503" lon="05.786232"><ele>37.5</ele><time>2020-12-26T11:22:04Z</time><name>PT1890</name></trkpt>
<trkpt lat="52.036502" lon="05.786207"><ele>37.3</ele><time>2020-12-26T11:22:05Z</time><name>PT1891</name></trkpt>
<trkpt lat="52.036506" lon="05.786181"><ele>37.5</ele><time>2020-12-26T11:22:06Z</time><name>PT1892</name></trkpt>
<trkpt lat="52.036511" lon="05.786160"><ele>37.4</ele><time>2020-12-26T11:22:07Z</time><name>PT1893</name></trkpt>
<trkpt lat="52.036512" lon="05.786133"><ele>37.5</ele><time>2020-12-26T11:22:08Z</time><name>PT1894</name></trkpt>
<trkpt lat="52.036510" lon="05.786106"><ele>37.3</ele><time>2020-12-26T11:22:09Z</time><name>PT1895</name></trkpt>
<trkpt lat="52.036511" lon="05.786079"><ele>37.2</ele><time>2020-12-26T11:22:10Z</time><name>PT1896</name></trkpt>
<trkpt lat="52.036512" lon="05.786052"><ele>37.2</ele><time>2020-12-26T11:22:11Z</time><name>PT1897</name></trkpt>
<trkpt lat="52.036510" lon="05.786027"><ele>37.4</ele><time>2020-12-26T11:22:12Z</time><name>PT1898</name></trkpt>
<trkpt lat="52.036505" lon="05.786008"><ele>37.4</ele><time>2020-12-26T11:22:13Z</time><name>PT1899</name></trkpt>
<trkpt lat="52.036505" lon="05.785984"><ele>37.5</ele><time>2020-12-26T11:22:14Z</time><name>PT1900</name></trkpt>
<trkpt lat="52.036508" lon="05.785961"><ele>37.6</ele><time>2020-12-26T11:22:15Z</time><name>PT1901</name></trkpt>
<trkpt lat="52.036513" lon="05.785941"><ele>37.5</ele><time>2020-12-26T11:22:16Z</time><name>PT1902</name></trkpt>
<trkpt lat="52.036516" lon="05.785917"><ele>37.5</ele><time>2020-12-26T11:22:17Z</time><name>PT1903</name></trkpt>
<trkpt lat="52.036520" lon="05.785894"><ele>37.7</ele><time>2020-12-26T11:22:18Z</time><name>PT1904</name></trkpt>
<trkpt lat="52.036521" lon="05.785870"><ele>37.8</ele><time>2020-12-26T11:22:19Z</time><name>PT1905</name></trkpt>
<trkpt lat="52.036522" lon="05.785845"><ele>37.9</ele><time>2020-12-26T11:22:20Z</time><name>PT1906</name></trkpt>
<trkpt lat="52.036519" lon="05.785819"><ele>37.9</ele><time>2020-12-26T11:22:21Z</time><name>PT1907</name></trkpt>
<trkpt lat="52.036517" lon="05.785796"><ele>37.7</ele><time>2020-12-26T11:22:22Z</time><name>PT1908</name></trkpt>
<trkpt lat="52.036513" lon="05.785774"><ele>37.9</ele><time>2020-12-26T11:22:23Z</time><name>PT1909</name></trkpt>
<trkpt lat="52.036510" lon="05.785750"><ele>37.9</ele><time>2020-12-26T11:22:24Z</time><name>PT1910</name></trkpt>
<trkpt lat="52.036508" lon="05.785727"><ele>37.9</ele><time>2020-12-26T11:22:25Z</time><name>PT1911</name></trkpt>
<trkpt lat="52.036508" lon="05.785700"><ele>37.9</ele><time>2020-12-26T11:22:26Z</time><name>PT1912</name></trkpt>
<trkpt lat="52.036504" lon="05.785678"><ele>37.6</ele><time>2020-12-26T11:22:27Z</time><name>PT1913</name></trkpt>
<trkpt lat="52.036503" lon="05.785654"><ele>37.6</ele><time>2020-12-26T11:22:28Z</time><name>PT1914</name></trkpt>
<trkpt lat="52.036502" lon="05.785630"><ele>37.5</ele><time>2020-12-26T11:22:29Z</time><name>PT1915</name></trkpt>
<trkpt lat="52.036502" lon="05.785607"><ele>37.6</ele><time>2020-12-26T11:22:30Z</time><name>PT1916</name></trkpt>
<trkpt lat="52.036500" lon="05.785581"><ele>37.6</ele><time>2020-12-26T11:22:31Z</time><name>PT1917</name></trkpt>
<trkpt lat="52.036501" lon="05.785556"><ele>37.6</ele><time>2020-12-26T11:22:32Z</time><name>PT1918</name></trkpt>
<trkpt lat="52.036501" lon="05.785535"><ele>37.7</ele><time>2020-12-26T11:22:33Z</time><name>PT1919</name></trkpt>
<trkpt lat="52.036499" lon="05.785510"><ele>37.6</ele><time>2020-12-26T11:22:34Z</time><name>PT1920</name></trkpt>
<trkpt lat="52.036498" lon="05.785486"><ele>37.7</ele><time>2020-12-26T11:22:35Z</time><name>PT1921</name></trkpt>
<trkpt lat="52.036499" lon="05.785464"><ele>37.6</ele><time>2020-12-26T11:22:36Z</time><name>PT1922</name></trkpt>
<trkpt lat="52.036501" lon="05.785442"><ele>37.6</ele><time>2020-12-26T11:22:37Z</time><name>PT1923</name></trkpt>
<trkpt lat="52.036502" lon="05.785416"><ele>37.6</ele><time>2020-12-26T11:22:38Z</time><name>PT1924</name></trkpt>
<trkpt lat="52.036501" lon="05.785390"><ele>37.3</ele><time>2020-12-26T11:22:39Z</time><name>PT1925</name></trkpt>
<trkpt lat="52.036501" lon="05.785363"><ele>37.2</ele><time>2020-12-26T11:22:40Z</time><name>PT1926</name></trkpt>
<trkpt lat="52.036505" lon="05.785336"><ele>37.2</ele><time>2020-12-26T11:22:41Z</time><name>PT1927</name></trkpt>
<trkpt lat="52.036510" lon="05.785313"><ele>37.2</ele><time>2020-12-26T11:22:42Z</time><name>PT1928</name></trkpt>
<trkpt lat="52.036515" lon="05.785288"><ele>37.3</ele><time>2020-12-26T11:22:43Z</time><name>PT1929</name></trkpt>
<trkpt lat="52.036519" lon="05.785263"><ele>37.4</ele><time>2020-12-26T11:22:44Z</time><name>PT1930</name></trkpt>
<trkpt lat="52.036525" lon="05.785239"><ele>37.4</ele><time>2020-12-26T11:22:45Z</time><name>PT1931</name></trkpt>
<trkpt lat="52.036527" lon="05.785215"><ele>37.3</ele><time>2020-12-26T11:22:46Z</time><name>PT1932</name></trkpt>
<trkpt lat="52.036529" lon="05.785193"><ele>37.4</ele><time>2020-12-26T11:22:47Z</time><name>PT1933</name></trkpt>
<trkpt lat="52.036527" lon="05.785173"><ele>37.2</ele><time>2020-12-26T11:22:48Z</time><name>PT1934</name></trkpt>
<trkpt lat="52.036527" lon="05.785153"><ele>37.4</ele><time>2020-12-26T11:22:49Z</time><name>PT1935</name></trkpt>
<trkpt lat="52.036526" lon="05.785133"><ele>37.4</ele><time>2020-12-26T11:22:50Z</time><name>PT1936</name></trkpt>
<trkpt lat="52.036525" lon="05.785111"><ele>37.4</ele><time>2020-12-26T11:22:51Z</time><name>PT1937</name></trkpt>
<trkpt lat="52.036525" lon="05.785088"><ele>37.2</ele><time>2020-12-26T11:22:52Z</time><name>PT1938</name></trkpt>
<trkpt lat="52.036524" lon="05.785065"><ele>37.1</ele><time>2020-12-26T11:22:53Z</time><name>PT1939</name></trkpt>
<trkpt lat="52.036520" lon="05.785042"><ele>37.1</ele><time>2020-12-26T11:22:54Z</time><name>PT1940</name></trkpt>
<trkpt lat="52.036517" lon="05.785019"><ele>37.1</ele><time>2020-12-26T11:22:55Z</time><name>PT1941</name></trkpt>
<trkpt lat="52.036516" lon="05.784998"><ele>37.1</ele><time>2020-12-26T11:22:56Z</time><name>PT1942</name></trkpt>
<trkpt lat="52.036514" lon="05.784976"><ele>37.4</ele><time>2020-12-26T11:22:57Z</time><name>PT1943</name></trkpt>
<trkpt lat="52.036511" lon="05.784960"><ele>37.5</ele><time>2020-12-26T11:22:58Z</time><name>PT1944</name></trkpt>
<trkpt lat="52.036506" lon="05.784939"><ele>37.4</ele><time>2020-12-26T11:22:59Z</time><name>PT1945</name></trkpt>
<trkpt lat="52.036503" lon="05.784916"><ele>37.6</ele><time>2020-12-26T11:23:00Z</time><name>PT1946</name></trkpt>
<trkpt lat="52.036500" lon="05.784892"><ele>37.3</ele><time>2020-12-26T11:23:01Z</time><name>PT1947</name></trkpt>
<trkpt lat="52.036499" lon="05.784873"><ele>37.4</ele><time>2020-12-26T11:23:02Z</time><name>PT1948</name></trkpt>
<trkpt lat="52.036497" lon="05.784850"><ele>37.4</ele><time>2020-12-26T11:23:03Z</time><name>PT1949</name></trkpt>
<trkpt lat="52.036494" lon="05.784825"><ele>37.3</ele><time>2020-12-26T11:23:04Z</time><name>PT1950</name></trkpt>
<trkpt lat="52.036494" lon="05.784801"><ele>37.5</ele><time>2020-12-26T11:23:05Z</time><name>PT1951</name></trkpt>
<trkpt lat="52.036495" lon="05.784776"><ele>37.3</ele><time>2020-12-26T11:23:06Z</time><name>PT1952</name></trkpt>
<trkpt lat="52.036496" lon="05.784748"><ele>37.4</ele><time>2020-12-26T11:23:07Z</time><name>PT1953</name></trkpt>
<trkpt lat="52.036494" lon="05.784722"><ele>37.3</ele><time>2020-12-26T11:23:08Z</time><name>PT1954</name></trkpt>
<trkpt lat="52.036490" lon="05.784697"><ele>37.3</ele><time>2020-12-26T11:23:09Z</time><name>PT1955</name></trkpt>
<trkpt lat="52.036486" lon="05.784675"><ele>37.4</ele><time>2020-12-26T11:23:10Z</time><name>PT1956</name></trkpt>
<trkpt lat="52.036483" lon="05.784657"><ele>37.2</ele><time>2020-12-26T11:23:11Z</time><name>PT1957</name></trkpt>
<trkpt lat="52.036485" lon="05.784640"><ele>37.1</ele><time>2020-12-26T11:23:12Z</time><name>PT1958</name></trkpt>
<trkpt lat="52.036486" lon="05.784617"><ele>37.5</ele><time>2020-12-26T11:23:13Z</time><name>PT1959</name></trkpt>
<trkpt lat="52.036491" lon="05.784602"><ele>37.3</ele><time>2020-12-26T11:23:14Z</time><name>PT1960</name></trkpt>
<trkpt lat="52.036496" lon="05.784590"><ele>37.3</ele><time>2020-12-26T11:23:15Z</time><name>PT1961</name></trkpt>
<trkpt lat="52.036498" lon="05.784577"><ele>37.4</ele><time>2020-12-26T11:23:16Z</time><name>PT1962</name></trkpt>
<trkpt lat="52.036509" lon="05.784547"><ele>37.3</ele><time>2020-12-26T11:23:17Z</time><name>PT1963</name></trkpt>
<trkpt lat="52.036514" lon="05.784526"><ele>37.2</ele><time>2020-12-26T11:23:18Z</time><name>PT1964</name></trkpt>
<trkpt lat="52.036512" lon="05.784510"><ele>37.3</ele><time>2020-12-26T11:23:19Z</time><name>PT1965</name></trkpt>
<trkpt lat="52.036511" lon="05.784494"><ele>37.3</ele><time>2020-12-26T11:23:20Z</time><name>PT1966</name></trkpt>
<trkpt lat="52.036509" lon="05.784475"><ele>37.5</ele><time>2020-12-26T11:23:21Z</time><name>PT1967</name></trkpt>
<trkpt lat="52.036511" lon="05.784460"><ele>37.7</ele><time>2020-12-26T11:23:22Z</time><name>PT1968</name></trkpt>
<trkpt lat="52.036515" lon="05.784444"><ele>37.8</ele><time>2020-12-26T11:23:23Z</time><name>PT1969</name></trkpt>
<trkpt lat="52.036517" lon="05.784427"><ele>37.9</ele><time>2020-12-26T11:23:24Z</time><name>PT1970</name></trkpt>
<trkpt lat="52.036520" lon="05.784413"><ele>38</ele><time>2020-12-26T11:23:25Z</time><name>PT1971</name></trkpt>
<trkpt lat="52.036520" lon="05.784398"><ele>37.8</ele><time>2020-12-26T11:23:26Z</time><name>PT1972</name></trkpt>
<trkpt lat="52.036521" lon="05.784383"><ele>37.8</ele><time>2020-12-26T11:23:27Z</time><name>PT1973</name></trkpt>
<trkpt lat="52.036516" lon="05.784365"><ele>37.9</ele><time>2020-12-26T11:23:28Z</time><name>PT1974</name></trkpt>
<trkpt lat="52.036514" lon="05.784348"><ele>37.9</ele><time>2020-12-26T11:23:29Z</time><name>PT1975</name></trkpt>
<trkpt lat="52.036515" lon="05.784335"><ele>37.9</ele><time>2020-12-26T11:23:30Z</time><name>PT1976</name></trkpt>
<trkpt lat="52.036512" lon="05.784326"><ele>38</ele><time>2020-12-26T11:23:31Z</time><name>PT1977</name></trkpt>
<trkpt lat="52.036516" lon="05.784321"><ele>38</ele><time>2020-12-26T11:23:32Z</time><name>PT1978</name></trkpt>
<trkpt lat="52.036520" lon="05.784315"><ele>38.1</ele><time>2020-12-26T11:23:33Z</time><name>PT1979</name></trkpt>
<trkpt lat="52.036523" lon="05.784308"><ele>38</ele><time>2020-12-26T11:23:34Z</time><name>PT1980</name></trkpt>
<trkpt lat="52.036529" lon="05.784303"><ele>38.1</ele><time>2020-12-26T11:23:35Z</time><name>PT1981</name></trkpt>
<trkpt lat="52.036527" lon="05.784296"><ele>38</ele><time>2020-12-26T11:23:36Z</time><name>PT1982</name></trkpt>
<trkpt lat="52.036526" lon="05.784277"><ele>37.8</ele><time>2020-12-26T11:23:38Z</time><name>PT1983</name></trkpt>
<trkpt lat="52.036526" lon="05.784262"><ele>37.8</ele><time>2020-12-26T11:23:39Z</time><name>PT1984</name></trkpt>
<trkpt lat="52.036530" lon="05.784252"><ele>37.8</ele><time>2020-12-26T11:23:40Z</time><name>PT1985</name></trkpt>
<trkpt lat="52.036527" lon="05.784241"><ele>37.8</ele><time>2020-12-26T11:23:41Z</time><name>PT1986</name></trkpt>
<trkpt lat="52.036526" lon="05.784232"><ele>37.8</ele><time>2020-12-26T11:23:42Z</time><name>PT1987</name></trkpt>
<trkpt lat="52.036518" lon="05.784225"><ele>37.7</ele><time>2020-12-26T11:23:43Z</time><name>PT1988</name></trkpt>
<trkpt lat="52.036509" lon="05.784223"><ele>37.6</ele><time>2020-12-26T11:23:44Z</time><name>PT1989</name></trkpt>
<trkpt lat="52.036507" lon="05.784217"><ele>37.6</ele><time>2020-12-26T11:23:45Z</time><name>PT1990</name></trkpt>
<trkpt lat="52.036507" lon="05.784206"><ele>37.9</ele><time>2020-12-26T11:23:46Z</time><name>PT1991</name></trkpt>
<trkpt lat="52.036508" lon="05.784201"><ele>38</ele><time>2020-12-26T11:23:47Z</time><name>PT1992</name></trkpt>
<trkpt lat="52.036509" lon="05.784191"><ele>37.8</ele><time>2020-12-26T11:23:48Z</time><name>PT1993</name></trkpt>
<trkpt lat="52.036512" lon="05.784180"><ele>37.7</ele><time>2020-12-26T11:23:49Z</time><name>PT1994</name></trkpt>
<trkpt lat="52.036518" lon="05.784170"><ele>37.6</ele><time>2020-12-26T11:23:50Z</time><name>PT1995</name></trkpt>
<trkpt lat="52.036529" lon="05.784159"><ele>37.6</ele><time>2020-12-26T11:23:51Z</time><name>PT1996</name></trkpt>
<trkpt lat="52.036534" lon="05.784147"><ele>37.6</ele><time>2020-12-26T11:23:52Z</time><name>PT1997</name></trkpt>
<trkpt lat="52.036539" lon="05.784136"><ele>37.5</ele><time>2020-12-26T11:23:53Z</time><name>PT1998</name></trkpt>
<trkpt lat="52.036546" lon="05.784126"><ele>37.6</ele><time>2020-12-26T11:23:54Z</time><name>PT1999</name></trkpt>
<trkpt lat="52.036552" lon="05.784116"><ele>37.6</ele><time>2020-12-26T11:23:55Z</time><name>PT2000</name></trkpt>
<trkpt lat="52.036554" lon="05.784107"><ele>37.6</ele><time>2020-12-26T11:23:56Z</time><name>PT2001</name></trkpt>
<trkpt lat="52.036558" lon="05.784099"><ele>37.6</ele><time>2020-12-26T11:23:57Z</time><name>PT2002</name></trkpt>
<trkpt lat="52.036562" lon="05.784094"><ele>37.6</ele><time>2020-12-26T11:23:58Z</time><name>PT2003</name></trkpt>
<trkpt lat="52.036570" lon="05.784089"><ele>37.7</ele><time>2020-12-26T11:23:59Z</time><name>PT2004</name></trkpt>
<trkpt lat="52.036575" lon="05.784081"><ele>37.6</ele><time>2020-12-26T11:24:00Z</time><name>PT2005</name></trkpt>
<trkpt lat="52.036585" lon="05.784074"><ele>37.6</ele><time>2020-12-26T11:24:01Z</time><name>PT2006</name></trkpt>
<trkpt lat="52.036596" lon="05.784068"><ele>37.6</ele><time>2020-12-26T11:24:02Z</time><name>PT2007</name></trkpt>
<trkpt lat="52.036607" lon="05.784064"><ele>37.6</ele><time>2020-12-26T11:24:03Z</time><name>PT2008</name></trkpt>
<trkpt lat="52.036618" lon="05.784059"><ele>37.7</ele><time>2020-12-26T11:24:04Z</time><name>PT2009</name></trkpt>
<trkpt lat="52.036624" lon="05.784050"><ele>37.8</ele><time>2020-12-26T11:24:05Z</time><name>PT2010</name></trkpt>
<trkpt lat="52.036633" lon="05.784039"><ele>37.7</ele><time>2020-12-26T11:24:06Z</time><name>PT2011</name></trkpt>
<trkpt lat="52.036645" lon="05.784030"><ele>37.7</ele><time>2020-12-26T11:24:07Z</time><name>PT2012</name></trkpt>
<trkpt lat="52.036658" lon="05.784021"><ele>37.6</ele><time>2020-12-26T11:24:08Z</time><name>PT2013</name></trkpt>
<trkpt lat="52.036666" lon="05.784017"><ele>37.5</ele><time>2020-12-26T11:24:09Z</time><name>PT2014</name></trkpt>
<trkpt lat="52.036677" lon="05.784014"><ele>37.3</ele><time>2020-12-26T11:24:10Z</time><name>PT2015</name></trkpt>
<trkpt lat="52.036690" lon="05.784004"><ele>37.4</ele><time>2020-12-26T11:24:11Z</time><name>PT2016</name></trkpt>
<trkpt lat="52.036704" lon="05.783989"><ele>37.3</ele><time>2020-12-26T11:24:12Z</time><name>PT2017</name></trkpt>
<trkpt lat="52.036719" lon="05.783977"><ele>37.4</ele><time>2020-12-26T11:24:13Z</time><name>PT2018</name></trkpt>
<trkpt lat="52.036728" lon="05.783962"><ele>37.5</ele><time>2020-12-26T11:24:14Z</time><name>PT2019</name></trkpt>
<trkpt lat="52.036740" lon="05.783949"><ele>37.4</ele><time>2020-12-26T11:24:15Z</time><name>PT2020</name></trkpt>
<trkpt lat="52.036747" lon="05.783941"><ele>37.5</ele><time>2020-12-26T11:24:16Z</time><name>PT2021</name></trkpt>
<trkpt lat="52.036753" lon="05.783932"><ele>37.4</ele><time>2020-12-26T11:24:17Z</time><name>PT2022</name></trkpt>
<trkpt lat="52.036770" lon="05.783919"><ele>37.5</ele><time>2020-12-26T11:24:18Z</time><name>PT2023</name></trkpt>
<trkpt lat="52.036783" lon="05.783906"><ele>37.5</ele><time>2020-12-26T11:24:19Z</time><name>PT2024</name></trkpt>
<trkpt lat="52.036798" lon="05.783892"><ele>37.5</ele><time>2020-12-26T11:24:20Z</time><name>PT2025</name></trkpt>
<trkpt lat="52.036815" lon="05.783875"><ele>37.6</ele><time>2020-12-26T11:24:21Z</time><name>PT2026</name></trkpt>
<trkpt lat="52.036838" lon="05.783845"><ele>37.5</ele><time>2020-12-26T11:24:22Z</time><name>PT2027</name></trkpt>
<trkpt lat="52.036848" lon="05.783833"><ele>37.4</ele><time>2020-12-26T11:24:23Z</time><name>PT2028</name></trkpt>
<trkpt lat="52.036858" lon="05.783821"><ele>37.2</ele><time>2020-12-26T11:24:24Z</time><name>PT2029</name></trkpt>
<trkpt lat="52.036866" lon="05.783805"><ele>37.2</ele><time>2020-12-26T11:24:25Z</time><name>PT2030</name></trkpt>
<trkpt lat="52.036875" lon="05.783792"><ele>37.1</ele><time>2020-12-26T11:24:26Z</time><name>PT2031</name></trkpt>
<trkpt lat="52.036884" lon="05.783781"><ele>37.2</ele><time>2020-12-26T11:24:27Z</time><name>PT2032</name></trkpt>
<trkpt lat="52.036896" lon="05.783767"><ele>37.1</ele><time>2020-12-26T11:24:28Z</time><name>PT2033</name></trkpt>
<trkpt lat="52.036904" lon="05.783757"><ele>37.1</ele><time>2020-12-26T11:24:29Z</time><name>PT2034</name></trkpt>
<trkpt lat="52.036916" lon="05.783748"><ele>37.1</ele><time>2020-12-26T11:24:30Z</time><name>PT2035</name></trkpt>
<trkpt lat="52.036930" lon="05.783739"><ele>37</ele><time>2020-12-26T11:24:31Z</time><name>PT2036</name></trkpt>
<trkpt lat="52.036947" lon="05.783731"><ele>37.1</ele><time>2020-12-26T11:24:32Z</time><name>PT2037</name></trkpt>
<trkpt lat="52.036963" lon="05.783720"><ele>37.2</ele><time>2020-12-26T11:24:33Z</time><name>PT2038</name></trkpt>
<trkpt lat="52.036976" lon="05.783708"><ele>37.1</ele><time>2020-12-26T11:24:34Z</time><name>PT2039</name></trkpt>
<trkpt lat="52.036994" lon="05.783692"><ele>37.2</ele><time>2020-12-26T11:24:35Z</time><name>PT2040</name></trkpt>
<trkpt lat="52.037008" lon="05.783681"><ele>37.1</ele><time>2020-12-26T11:24:36Z</time><name>PT2041</name></trkpt>
<trkpt lat="52.037020" lon="05.783670"><ele>37.1</ele><time>2020-12-26T11:24:37Z</time><name>PT2042</name></trkpt>
<trkpt lat="52.037027" lon="05.783662"><ele>37.1</ele><time>2020-12-26T11:24:38Z</time><name>PT2043</name></trkpt>
<trkpt lat="52.037035" lon="05.783654"><ele>37.2</ele><time>2020-12-26T11:24:39Z</time><name>PT2044</name></trkpt>
<trkpt lat="52.037045" lon="05.783644"><ele>37.3</ele><time>2020-12-26T11:24:40Z</time><name>PT2045</name></trkpt>
<trkpt lat="52.037054" lon="05.783632"><ele>37.1</ele><time>2020-12-26T11:24:41Z</time><name>PT2046</name></trkpt>
<trkpt lat="52.037066" lon="05.783621"><ele>37.2</ele><time>2020-12-26T11:24:42Z</time><name>PT2047</name></trkpt>
<trkpt lat="52.037078" lon="05.783613"><ele>37.1</ele><time>2020-12-26T11:24:43Z</time><name>PT2048</name></trkpt>
<trkpt lat="52.037089" lon="05.783601"><ele>36.9</ele><time>2020-12-26T11:24:44Z</time><name>PT2049</name></trkpt>
<trkpt lat="52.037100" lon="05.783590"><ele>37</ele><time>2020-12-26T11:24:45Z</time><name>PT2050</name></trkpt>
<trkpt lat="52.037111" lon="05.783583"><ele>36.9</ele><time>2020-12-26T11:24:46Z</time><name>PT2051</name></trkpt>
<trkpt lat="52.037123" lon="05.783573"><ele>37</ele><time>2020-12-26T11:24:47Z</time><name>PT2052</name></trkpt>
<trkpt lat="52.037132" lon="05.783558"><ele>37</ele><time>2020-12-26T11:24:48Z</time><name>PT2053</name></trkpt>
<trkpt lat="52.037143" lon="05.783546"><ele>37.1</ele><time>2020-12-26T11:24:49Z</time><name>PT2054</name></trkpt>
<trkpt lat="52.037159" lon="05.783535"><ele>37.2</ele><time>2020-12-26T11:24:50Z</time><name>PT2055</name></trkpt>
<trkpt lat="52.037169" lon="05.783526"><ele>37.1</ele><time>2020-12-26T11:24:51Z</time><name>PT2056</name></trkpt>
<trkpt lat="52.037177" lon="05.783516"><ele>37.1</ele><time>2020-12-26T11:24:52Z</time><name>PT2057</name></trkpt>
<trkpt lat="52.037186" lon="05.783504"><ele>37</ele><time>2020-12-26T11:24:53Z</time><name>PT2058</name></trkpt>
<trkpt lat="52.037200" lon="05.783489"><ele>36.7</ele><time>2020-12-26T11:24:54Z</time><name>PT2059</name></trkpt>
<trkpt lat="52.037206" lon="05.783478"><ele>36.7</ele><time>2020-12-26T11:24:55Z</time><name>PT2060</name></trkpt>
<trkpt lat="52.037215" lon="05.783468"><ele>36.6</ele><time>2020-12-26T11:24:56Z</time><name>PT2061</name></trkpt>
<trkpt lat="52.037228" lon="05.783457"><ele>36.5</ele><time>2020-12-26T11:24:57Z</time><name>PT2062</name></trkpt>
<trkpt lat="52.037241" lon="05.783445"><ele>36.4</ele><time>2020-12-26T11:24:58Z</time><name>PT2063</name></trkpt>
<trkpt lat="52.037253" lon="05.783434"><ele>36.4</ele><time>2020-12-26T11:24:59Z</time><name>PT2064</name></trkpt>
<trkpt lat="52.037266" lon="05.783422"><ele>36.3</ele><time>2020-12-26T11:25:00Z</time><name>PT2065</name></trkpt>
<trkpt lat="52.037282" lon="05.783411"><ele>36.4</ele><time>2020-12-26T11:25:01Z</time><name>PT2066</name></trkpt>
<trkpt lat="52.037295" lon="05.783398"><ele>36.5</ele><time>2020-12-26T11:25:02Z</time><name>PT2067</name></trkpt>
<trkpt lat="52.037308" lon="05.783388"><ele>36.6</ele><time>2020-12-26T11:25:03Z</time><name>PT2068</name></trkpt>
<trkpt lat="52.037320" lon="05.783380"><ele>36.5</ele><time>2020-12-26T11:25:04Z</time><name>PT2069</name></trkpt>
<trkpt lat="52.037336" lon="05.783366"><ele>36.4</ele><time>2020-12-26T11:25:05Z</time><name>PT2070</name></trkpt>
<trkpt lat="52.037353" lon="05.783354"><ele>36.2</ele><time>2020-12-26T11:25:06Z</time><name>PT2071</name></trkpt>
<trkpt lat="52.037365" lon="05.783342"><ele>36.1</ele><time>2020-12-26T11:25:07Z</time><name>PT2072</name></trkpt>
<trkpt lat="52.037373" lon="05.783327"><ele>36.1</ele><time>2020-12-26T11:25:08Z</time><name>PT2073</name></trkpt>
<trkpt lat="52.037382" lon="05.783316"><ele>36.1</ele><time>2020-12-26T11:25:09Z</time><name>PT2074</name></trkpt>
<trkpt lat="52.037395" lon="05.783302"><ele>36.1</ele><time>2020-12-26T11:25:10Z</time><name>PT2075</name></trkpt>
<trkpt lat="52.037406" lon="05.783288"><ele>36.1</ele><time>2020-12-26T11:25:11Z</time><name>PT2076</name></trkpt>
<trkpt lat="52.037419" lon="05.783278"><ele>36</ele><time>2020-12-26T11:25:12Z</time><name>PT2077</name></trkpt>
<trkpt lat="52.037432" lon="05.783268"><ele>36.1</ele><time>2020-12-26T11:25:13Z</time><name>PT2078</name></trkpt>
<trkpt lat="52.037453" lon="05.783249"><ele>36.1</ele><time>2020-12-26T11:25:14Z</time><name>PT2079</name></trkpt>
<trkpt lat="52.037466" lon="05.783235"><ele>36.1</ele><time>2020-12-26T11:25:15Z</time><name>PT2080</name></trkpt>
<trkpt lat="52.037478" lon="05.783223"><ele>36.1</ele><time>2020-12-26T11:25:16Z</time><name>PT2081</name></trkpt>
<trkpt lat="52.037491" lon="05.783208"><ele>36.2</ele><time>2020-12-26T11:25:17Z</time><name>PT2082</name></trkpt>
<trkpt lat="52.037504" lon="05.783195"><ele>36.1</ele><time>2020-12-26T11:25:18Z</time><name>PT2083</name></trkpt>
<trkpt lat="52.037515" lon="05.783184"><ele>35.9</ele><time>2020-12-26T11:25:19Z</time><name>PT2084</name></trkpt>
<trkpt lat="52.037530" lon="05.783173"><ele>35.8</ele><time>2020-12-26T11:25:20Z</time><name>PT2085</name></trkpt>
<trkpt lat="52.037545" lon="05.783164"><ele>35.8</ele><time>2020-12-26T11:25:21Z</time><name>PT2086</name></trkpt>
<trkpt lat="52.037561" lon="05.783157"><ele>35.7</ele><time>2020-12-26T11:25:22Z</time><name>PT2087</name></trkpt>
<trkpt lat="52.037574" lon="05.783147"><ele>35.8</ele><time>2020-12-26T11:25:23Z</time><name>PT2088</name></trkpt>
<trkpt lat="52.037587" lon="05.783136"><ele>35.7</ele><time>2020-12-26T11:25:24Z</time><name>PT2089</name></trkpt>
<trkpt lat="52.037597" lon="05.783125"><ele>35.7</ele><time>2020-12-26T11:25:25Z</time><name>PT2090</name></trkpt>
<trkpt lat="52.037607" lon="05.783117"><ele>35.7</ele><time>2020-12-26T11:25:26Z</time><name>PT2091</name></trkpt>
<trkpt lat="52.037617" lon="05.783107"><ele>35.6</ele><time>2020-12-26T11:25:27Z</time><name>PT2092</name></trkpt>
<trkpt lat="52.037628" lon="05.783097"><ele>35.6</ele><time>2020-12-26T11:25:28Z</time><name>PT2093</name></trkpt>
<trkpt lat="52.037640" lon="05.783090"><ele>35.7</ele><time>2020-12-26T11:25:29Z</time><name>PT2094</name></trkpt>
<trkpt lat="52.037647" lon="05.783088"><ele>35.5</ele><time>2020-12-26T11:25:30Z</time><name>PT2095</name></trkpt>
<trkpt lat="52.037650" lon="05.783089"><ele>35.7</ele><time>2020-12-26T11:25:31Z</time><name>PT2096</name></trkpt>
<trkpt lat="52.037653" lon="05.783089"><ele>35.7</ele><time>2020-12-26T11:25:32Z</time><name>PT2097</name></trkpt>
<trkpt lat="52.037656" lon="05.783087"><ele>35.7</ele><time>2020-12-26T11:25:33Z</time><name>PT2098</name></trkpt>
<trkpt lat="52.037665" lon="05.783077"><ele>35.6</ele><time>2020-12-26T11:25:46Z</time><name>PT2099</name></trkpt>
<trkpt lat="52.037678" lon="05.783068"><ele>35.5</ele><time>2020-12-26T11:25:47Z</time><name>PT2100</name></trkpt>
<trkpt lat="52.037694" lon="05.783047"><ele>35.4</ele><time>2020-12-26T11:25:48Z</time><name>PT2101</name></trkpt>
<trkpt lat="52.037706" lon="05.783029"><ele>35.5</ele><time>2020-12-26T11:25:49Z</time><name>PT2102</name></trkpt>
<trkpt lat="52.037716" lon="05.783017"><ele>35.4</ele><time>2020-12-26T11:25:50Z</time><name>PT2103</name></trkpt>
<trkpt lat="52.037728" lon="05.783003"><ele>35.4</ele><time>2020-12-26T11:25:51Z</time><name>PT2104</name></trkpt>
<trkpt lat="52.037744" lon="05.782991"><ele>35.5</ele><time>2020-12-26T11:25:52Z</time><name>PT2105</name></trkpt>
<trkpt lat="52.037756" lon="05.782981"><ele>35.3</ele><time>2020-12-26T11:25:53Z</time><name>PT2106</name></trkpt>
<trkpt lat="52.037769" lon="05.782970"><ele>35.3</ele><time>2020-12-26T11:25:54Z</time><name>PT2107</name></trkpt>
<trkpt lat="52.037782" lon="05.782957"><ele>35.3</ele><time>2020-12-26T11:25:55Z</time><name>PT2108</name></trkpt>
<trkpt lat="52.037795" lon="05.782941"><ele>35.2</ele><time>2020-12-26T11:25:56Z</time><name>PT2109</name></trkpt>
<trkpt lat="52.037808" lon="05.782923"><ele>35.1</ele><time>2020-12-26T11:25:57Z</time><name>PT2110</name></trkpt>
<trkpt lat="52.037814" lon="05.782916"><ele>35.2</ele><time>2020-12-26T11:25:58Z</time><name>PT2111</name></trkpt>
<trkpt lat="52.037819" lon="05.782914"><ele>35.2</ele><time>2020-12-26T11:25:59Z</time><name>PT2112</name></trkpt>
<trkpt lat="52.037819" lon="05.782913"><ele>35.3</ele><time>2020-12-26T11:26:00Z</time><name>PT2113</name></trkpt>
<trkpt lat="52.037820" lon="05.782912"><ele>35.5</ele><time>2020-12-26T11:26:01Z</time><name>PT2114</name></trkpt>
<trkpt lat="52.037826" lon="05.782908"><ele>35.2</ele><time>2020-12-26T11:26:07Z</time><name>PT2115</name></trkpt>
<trkpt lat="52.037839" lon="05.782900"><ele>35.2</ele><time>2020-12-26T11:26:08Z</time><name>PT2116</name></trkpt>
<trkpt lat="52.037859" lon="05.782882"><ele>35.2</ele><time>2020-12-26T11:26:09Z</time><name>PT2117</name></trkpt>
<trkpt lat="52.037877" lon="05.782861"><ele>35</ele><time>2020-12-26T11:26:10Z</time><name>PT2118</name></trkpt>
<trkpt lat="52.037893" lon="05.782845"><ele>35.1</ele><time>2020-12-26T11:26:11Z</time><name>PT2119</name></trkpt>
<trkpt lat="52.037904" lon="05.782834"><ele>35.1</ele><time>2020-12-26T11:26:12Z</time><name>PT2120</name></trkpt>
<trkpt lat="52.037914" lon="05.782822"><ele>35.2</ele><time>2020-12-26T11:26:13Z</time><name>PT2121</name></trkpt>
<trkpt lat="52.037924" lon="05.782816"><ele>35.2</ele><time>2020-12-26T11:26:14Z</time><name>PT2122</name></trkpt>
<trkpt lat="52.037933" lon="05.782808"><ele>35.2</ele><time>2020-12-26T11:26:15Z</time><name>PT2123</name></trkpt>
<trkpt lat="52.037942" lon="05.782799"><ele>35.2</ele><time>2020-12-26T11:26:16Z</time><name>PT2124</name></trkpt>
<trkpt lat="52.037956" lon="05.782791"><ele>35</ele><time>2020-12-26T11:26:17Z</time><name>PT2125</name></trkpt>
<trkpt lat="52.037970" lon="05.782777"><ele>34.7</ele><time>2020-12-26T11:26:18Z</time><name>PT2126</name></trkpt>
<trkpt lat="52.037985" lon="05.782762"><ele>34.8</ele><time>2020-12-26T11:26:19Z</time><name>PT2127</name></trkpt>
<trkpt lat="52.037997" lon="05.782753"><ele>34.8</ele><time>2020-12-26T11:26:20Z</time><name>PT2128</name></trkpt>
<trkpt lat="52.038010" lon="05.782742"><ele>34.9</ele><time>2020-12-26T11:26:21Z</time><name>PT2129</name></trkpt>
<trkpt lat="52.038023" lon="05.782730"><ele>34.9</ele><time>2020-12-26T11:26:22Z</time><name>PT2130</name></trkpt>
<trkpt lat="52.038034" lon="05.782719"><ele>34.8</ele><time>2020-12-26T11:26:23Z</time><name>PT2131</name></trkpt>
<trkpt lat="52.038048" lon="05.782710"><ele>34.7</ele><time>2020-12-26T11:26:24Z</time><name>PT2132</name></trkpt>
<trkpt lat="52.038061" lon="05.782701"><ele>34.7</ele><time>2020-12-26T11:26:25Z</time><name>PT2133</name></trkpt>
<trkpt lat="52.038076" lon="05.782693"><ele>34.8</ele><time>2020-12-26T11:26:26Z</time><name>PT2134</name></trkpt>
<trkpt lat="52.038092" lon="05.782686"><ele>34.9</ele><time>2020-12-26T11:26:27Z</time><name>PT2135</name></trkpt>
<trkpt lat="52.038104" lon="05.782673"><ele>34.9</ele><time>2020-12-26T11:26:28Z</time><name>PT2136</name></trkpt>
<trkpt lat="52.038113" lon="05.782660"><ele>35</ele><time>2020-12-26T11:26:29Z</time><name>PT2137</name></trkpt>
<trkpt lat="52.038124" lon="05.782648"><ele>35.1</ele><time>2020-12-26T11:26:30Z</time><name>PT2138</name></trkpt>
<trkpt lat="52.038133" lon="05.782635"><ele>34.8</ele><time>2020-12-26T11:26:31Z</time><name>PT2139</name></trkpt>
<trkpt lat="52.038145" lon="05.782623"><ele>34.9</ele><time>2020-12-26T11:26:32Z</time><name>PT2140</name></trkpt>
<trkpt lat="52.038158" lon="05.782610"><ele>34.7</ele><time>2020-12-26T11:26:33Z</time><name>PT2141</name></trkpt>
<trkpt lat="52.038171" lon="05.782598"><ele>34.4</ele><time>2020-12-26T11:26:34Z</time><name>PT2142</name></trkpt>
<trkpt lat="52.038184" lon="05.782589"><ele>34.5</ele><time>2020-12-26T11:26:35Z</time><name>PT2143</name></trkpt>
<trkpt lat="52.038193" lon="05.782578"><ele>34.5</ele><time>2020-12-26T11:26:36Z</time><name>PT2144</name></trkpt>
<trkpt lat="52.038206" lon="05.782566"><ele>34.5</ele><time>2020-12-26T11:26:37Z</time><name>PT2145</name></trkpt>
<trkpt lat="52.038214" lon="05.782553"><ele>34.3</ele><time>2020-12-26T11:26:38Z</time><name>PT2146</name></trkpt>
<trkpt lat="52.038224" lon="05.782542"><ele>34.2</ele><time>2020-12-26T11:26:39Z</time><name>PT2147</name></trkpt>
<trkpt lat="52.038236" lon="05.782540"><ele>34.2</ele><time>2020-12-26T11:26:40Z</time><name>PT2148</name></trkpt>
<trkpt lat="52.038249" lon="05.782541"><ele>34.2</ele><time>2020-12-26T11:26:41Z</time><name>PT2149</name></trkpt>
<trkpt lat="52.038262" lon="05.782544"><ele>34.3</ele><time>2020-12-26T11:26:42Z</time><name>PT2150</name></trkpt>
<trkpt lat="52.038277" lon="05.782546"><ele>34.6</ele><time>2020-12-26T11:26:43Z</time><name>PT2151</name></trkpt>
<trkpt lat="52.038292" lon="05.782546"><ele>34.7</ele><time>2020-12-26T11:26:44Z</time><name>PT2152</name></trkpt>
<trkpt lat="52.038304" lon="05.782546"><ele>34.7</ele><time>2020-12-26T11:26:45Z</time><name>PT2153</name></trkpt>
<trkpt lat="52.038314" lon="05.782545"><ele>34.3</ele><time>2020-12-26T11:26:46Z</time><name>PT2154</name></trkpt>
<trkpt lat="52.038318" lon="05.782546"><ele>34.3</ele><time>2020-12-26T11:26:47Z</time><name>PT2155</name></trkpt>
<trkpt lat="52.038319" lon="05.782547"><ele>34.2</ele><time>2020-12-26T11:26:48Z</time><name>PT2156</name></trkpt>
<trkpt lat="52.038320" lon="05.782547"><ele>34.3</ele><time>2020-12-26T11:26:49Z</time><name>PT2157</name></trkpt>
<trkpt lat="52.038324" lon="05.782540"><ele>34.8</ele><time>2020-12-26T11:27:06Z</time><name>PT2158</name></trkpt>
<trkpt lat="52.038335" lon="05.782518"><ele>34.8</ele><time>2020-12-26T11:27:07Z</time><name>PT2159</name></trkpt>
<trkpt lat="52.038338" lon="05.782503"><ele>34.7</ele><time>2020-12-26T11:27:08Z</time><name>PT2160</name></trkpt>
<trkpt lat="52.038343" lon="05.782484"><ele>34.4</ele><time>2020-12-26T11:27:09Z</time><name>PT2161</name></trkpt>
<trkpt lat="52.038352" lon="05.782467"><ele>34.3</ele><time>2020-12-26T11:27:10Z</time><name>PT2162</name></trkpt>
<trkpt lat="52.038357" lon="05.782450"><ele>34.2</ele><time>2020-12-26T11:27:11Z</time><name>PT2163</name></trkpt>
<trkpt lat="52.038366" lon="05.782434"><ele>34.1</ele><time>2020-12-26T11:27:12Z</time><name>PT2164</name></trkpt>
<trkpt lat="52.038372" lon="05.782417"><ele>34.1</ele><time>2020-12-26T11:27:13Z</time><name>PT2165</name></trkpt>
<trkpt lat="52.038380" lon="05.782405"><ele>34.1</ele><time>2020-12-26T11:27:14Z</time><name>PT2166</name></trkpt>
<trkpt lat="52.038388" lon="05.782394"><ele>34.3</ele><time>2020-12-26T11:27:15Z</time><name>PT2167</name></trkpt>
<trkpt lat="52.038397" lon="05.782379"><ele>34.4</ele><time>2020-12-26T11:27:16Z</time><name>PT2168</name></trkpt>
<trkpt lat="52.038406" lon="05.782366"><ele>34.4</ele><time>2020-12-26T11:27:17Z</time><name>PT2169</name></trkpt>
<trkpt lat="52.038419" lon="05.782353"><ele>34.7</ele><time>2020-12-26T11:27:18Z</time><name>PT2170</name></trkpt>
<trkpt lat="52.038429" lon="05.782338"><ele>34.7</ele><time>2020-12-26T11:27:19Z</time><name>PT2171</name></trkpt>
<trkpt lat="52.038438" lon="05.782322"><ele>34.7</ele><time>2020-12-26T11:27:20Z</time><name>PT2172</name></trkpt>
<trkpt lat="52.038453" lon="05.782310"><ele>34.7</ele><time>2020-12-26T11:27:21Z</time><name>PT2173</name></trkpt>
<trkpt lat="52.038461" lon="05.782295"><ele>34.7</ele><time>2020-12-26T11:27:22Z</time><name>PT2174</name></trkpt>
<trkpt lat="52.038473" lon="05.782284"><ele>34.6</ele><time>2020-12-26T11:27:23Z</time><name>PT2175</name></trkpt>
<trkpt lat="52.038483" lon="05.782277"><ele>34.7</ele><time>2020-12-26T11:27:24Z</time><name>PT2176</name></trkpt>
<trkpt lat="52.038492" lon="05.782270"><ele>34.9</ele><time>2020-12-26T11:27:25Z</time><name>PT2177</name></trkpt>
<trkpt lat="52.038502" lon="05.782261"><ele>34.9</ele><time>2020-12-26T11:27:26Z</time><name>PT2178</name></trkpt>
<trkpt lat="52.038513" lon="05.782250"><ele>34.9</ele><time>2020-12-26T11:27:27Z</time><name>PT2179</name></trkpt>
<trkpt lat="52.038526" lon="05.782243"><ele>34.7</ele><time>2020-12-26T11:27:28Z</time><name>PT2180</name></trkpt>
<trkpt lat="52.038540" lon="05.782234"><ele>34.7</ele><time>2020-12-26T11:27:29Z</time><name>PT2181</name></trkpt>
<trkpt lat="52.038551" lon="05.782223"><ele>34.7</ele><time>2020-12-26T11:27:30Z</time><name>PT2182</name></trkpt>
<trkpt lat="52.038562" lon="05.782213"><ele>34.7</ele><time>2020-12-26T11:27:31Z</time><name>PT2183</name></trkpt>
<trkpt lat="52.038572" lon="05.782203"><ele>34.8</ele><time>2020-12-26T11:27:32Z</time><name>PT2184</name></trkpt>
<trkpt lat="52.038583" lon="05.782192"><ele>34.7</ele><time>2020-12-26T11:27:33Z</time><name>PT2185</name></trkpt>
<trkpt lat="52.038595" lon="05.782180"><ele>34.7</ele><time>2020-12-26T11:27:34Z</time><name>PT2186</name></trkpt>
<trkpt lat="52.038608" lon="05.782168"><ele>34.7</ele><time>2020-12-26T11:27:35Z</time><name>PT2187</name></trkpt>
<trkpt lat="52.038621" lon="05.782151"><ele>34.7</ele><time>2020-12-26T11:27:36Z</time><name>PT2188</name></trkpt>
<trkpt lat="52.038633" lon="05.782135"><ele>34.7</ele><time>2020-12-26T11:27:37Z</time><name>PT2189</name></trkpt>
<trkpt lat="52.038639" lon="05.782124"><ele>34.6</ele><time>2020-12-26T11:27:38Z</time><name>PT2190</name></trkpt>
<trkpt lat="52.038650" lon="05.782114"><ele>34.6</ele><time>2020-12-26T11:27:39Z</time><name>PT2191</name></trkpt>
<trkpt lat="52.038661" lon="05.782105"><ele>34.5</ele><time>2020-12-26T11:27:40Z</time><name>PT2192</name></trkpt>
<trkpt lat="52.038671" lon="05.782098"><ele>34.4</ele><time>2020-12-26T11:27:41Z</time><name>PT2193</name></trkpt>
<trkpt lat="52.038681" lon="05.782091"><ele>34.5</ele><time>2020-12-26T11:27:42Z</time><name>PT2194</name></trkpt>
<trkpt lat="52.038694" lon="05.782085"><ele>34.3</ele><time>2020-12-26T11:27:43Z</time><name>PT2195</name></trkpt>
<trkpt lat="52.038709" lon="05.782077"><ele>34.4</ele><time>2020-12-26T11:27:44Z</time><name>PT2196</name></trkpt>
<trkpt lat="52.038720" lon="05.782067"><ele>34.3</ele><time>2020-12-26T11:27:45Z</time><name>PT2197</name></trkpt>
<trkpt lat="52.038735" lon="05.782060"><ele>34.3</ele><time>2020-12-26T11:27:46Z</time><name>PT2198</name></trkpt>
<trkpt lat="52.038749" lon="05.782054"><ele>34.3</ele><time>2020-12-26T11:27:47Z</time><name>PT2199</name></trkpt>
<trkpt lat="52.038763" lon="05.782049"><ele>34.2</ele><time>2020-12-26T11:27:48Z</time><name>PT2200</name></trkpt>
<trkpt lat="52.038775" lon="05.782050"><ele>34.2</ele><time>2020-12-26T11:27:49Z</time><name>PT2201</name></trkpt>
<trkpt lat="52.038786" lon="05.782051"><ele>34.3</ele><time>2020-12-26T11:27:50Z</time><name>PT2202</name></trkpt>
<trkpt lat="52.038795" lon="05.782058"><ele>34.3</ele><time>2020-12-26T11:27:51Z</time><name>PT2203</name></trkpt>
<trkpt lat="52.038804" lon="05.782060"><ele>34.2</ele><time>2020-12-26T11:27:52Z</time><name>PT2204</name></trkpt>
<trkpt lat="52.038814" lon="05.782062"><ele>34.2</ele><time>2020-12-26T11:27:53Z</time><name>PT2205</name></trkpt>
<trkpt lat="52.038825" lon="05.782061"><ele>34.3</ele><time>2020-12-26T11:27:54Z</time><name>PT2206</name></trkpt>
<trkpt lat="52.038834" lon="05.782059"><ele>34.2</ele><time>2020-12-26T11:27:55Z</time><name>PT2207</name></trkpt>
<trkpt lat="52.038845" lon="05.782060"><ele>34.4</ele><time>2020-12-26T11:27:56Z</time><name>PT2208</name></trkpt>
<trkpt lat="52.038855" lon="05.782063"><ele>34.3</ele><time>2020-12-26T11:27:57Z</time><name>PT2209</name></trkpt>
<trkpt lat="52.038864" lon="05.782065"><ele>34.2</ele><time>2020-12-26T11:27:58Z</time><name>PT2210</name></trkpt>
<trkpt lat="52.038872" lon="05.782068"><ele>34.2</ele><time>2020-12-26T11:27:59Z</time><name>PT2211</name></trkpt>
<trkpt lat="52.038879" lon="05.782067"><ele>34.1</ele><time>2020-12-26T11:28:00Z</time><name>PT2212</name></trkpt>
<trkpt lat="52.038886" lon="05.782072"><ele>34.2</ele><time>2020-12-26T11:28:01Z</time><name>PT2213</name></trkpt>
<trkpt lat="52.038893" lon="05.782079"><ele>34.2</ele><time>2020-12-26T11:28:02Z</time><name>PT2214</name></trkpt>
<trkpt lat="52.038900" lon="05.782084"><ele>34.2</ele><time>2020-12-26T11:28:03Z</time><name>PT2215</name></trkpt>
<trkpt lat="52.038907" lon="05.782088"><ele>34.3</ele><time>2020-12-26T11:28:04Z</time><name>PT2216</name></trkpt>
<trkpt lat="52.038914" lon="05.782090"><ele>34.4</ele><time>2020-12-26T11:28:05Z</time><name>PT2217</name></trkpt>
<trkpt lat="52.038920" lon="05.782093"><ele>34.5</ele><time>2020-12-26T11:28:06Z</time><name>PT2218</name></trkpt>
<trkpt lat="52.038926" lon="05.782094"><ele>34.3</ele><time>2020-12-26T11:28:07Z</time><name>PT2219</name></trkpt>
<trkpt lat="52.038926" lon="05.782097"><ele>34.3</ele><time>2020-12-26T11:28:08Z</time><name>PT2220</name></trkpt>
<trkpt lat="52.038929" lon="05.782099"><ele>34.2</ele><time>2020-12-26T11:28:09Z</time><name>PT2221</name></trkpt>
<trkpt lat="52.038930" lon="05.782100"><ele>34.2</ele><time>2020-12-26T11:28:10Z</time><name>PT2222</name></trkpt>
<trkpt lat="52.038932" lon="05.782101"><ele>34.3</ele><time>2020-12-26T11:28:11Z</time><name>PT2223</name></trkpt>
<trkpt lat="52.038934" lon="05.782102"><ele>34.4</ele><time>2020-12-26T11:28:12Z</time><name>PT2224</name></trkpt>
<trkpt lat="52.038935" lon="05.782103"><ele>34.5</ele><time>2020-12-26T11:28:13Z</time><name>PT2225</name></trkpt>
<trkpt lat="52.038933" lon="05.782102"><ele>34.4</ele><time>2020-12-26T11:28:15Z</time><name>PT2226</name></trkpt>
<trkpt lat="52.038933" lon="05.782093"><ele>34.4</ele><time>2020-12-26T11:28:16Z</time><name>PT2227</name></trkpt>
<trkpt lat="52.038932" lon="05.782091"><ele>34.6</ele><time>2020-12-26T11:28:17Z</time><name>PT2228</name></trkpt>
<trkpt lat="52.038932" lon="05.782090"><ele>34.6</ele><time>2020-12-26T11:28:18Z</time><name>PT2229</name></trkpt>
<trkpt lat="52.038936" lon="05.782087"><ele>34.7</ele><time>2020-12-26T11:29:01Z</time><name>PT2230</name></trkpt>
<trkpt lat="52.038934" lon="05.782086"><ele>34.9</ele><time>2020-12-26T11:29:02Z</time><name>PT2231</name></trkpt>
<trkpt lat="52.038934" lon="05.782079"><ele>35</ele><time>2020-12-26T11:29:03Z</time><name>PT2232</name></trkpt>
<trkpt lat="52.038934" lon="05.782073"><ele>34.8</ele><time>2020-12-26T11:29:04Z</time><name>PT2233</name></trkpt>
<trkpt lat="52.038934" lon="05.782067"><ele>34.8</ele><time>2020-12-26T11:29:05Z</time><name>PT2234</name></trkpt>
<trkpt lat="52.038934" lon="05.782067"><ele>34.9</ele><time>2020-12-26T11:29:06Z</time><name>PT2235</name></trkpt>
<trkpt lat="52.038934" lon="05.782070"><ele>34.7</ele><time>2020-12-26T11:29:07Z</time><name>PT2236</name></trkpt>
<trkpt lat="52.038935" lon="05.782071"><ele>34.7</ele><time>2020-12-26T11:29:08Z</time><name>PT2237</name></trkpt>
<trkpt lat="52.038935" lon="05.782071"><ele>34.9</ele><time>2020-12-26T11:29:09Z</time><name>PT2238</name></trkpt>
<trkpt lat="52.038934" lon="05.782074"><ele>34.4</ele><time>2020-12-26T11:29:30Z</time><name>PT2239</name></trkpt>
<trkpt lat="52.038936" lon="05.782063"><ele>34.6</ele><time>2020-12-26T11:29:31Z</time><name>PT2240</name></trkpt>
<trkpt lat="52.038935" lon="05.782068"><ele>34.6</ele><time>2020-12-26T11:29:32Z</time><name>PT2241</name></trkpt>
<trkpt lat="52.038933" lon="05.782072"><ele>34.8</ele><time>2020-12-26T11:29:35Z</time><name>PT2242</name></trkpt>
<trkpt lat="52.038926" lon="05.782095"><ele>34.8</ele><time>2020-12-26T11:29:36Z</time><name>PT2243</name></trkpt>
<trkpt lat="52.038920" lon="05.782096"><ele>34.8</ele><time>2020-12-26T11:29:37Z</time><name>PT2244</name></trkpt>
<trkpt lat="52.038916" lon="05.782099"><ele>34.9</ele><time>2020-12-26T11:29:38Z</time><name>PT2245</name></trkpt>
<trkpt lat="52.038915" lon="05.782102"><ele>34.8</ele><time>2020-12-26T11:29:39Z</time><name>PT2246</name></trkpt>
<trkpt lat="52.038912" lon="05.782106"><ele>34.8</ele><time>2020-12-26T11:29:40Z</time><name>PT2247</name></trkpt>
<trkpt lat="52.038912" lon="05.782108"><ele>34.8</ele><time>2020-12-26T11:29:46Z</time><name>PT2248</name></trkpt>
<trkpt lat="52.038918" lon="05.782102"><ele>34.7</ele><time>2020-12-26T11:29:47Z</time><name>PT2249</name></trkpt>
<trkpt lat="52.038925" lon="05.782096"><ele>34.7</ele><time>2020-12-26T11:29:48Z</time><name>PT2250</name></trkpt>
<trkpt lat="52.038930" lon="05.782093"><ele>34.7</ele><time>2020-12-26T11:29:49Z</time><name>PT2251</name></trkpt>
<trkpt lat="52.038931" lon="05.782095"><ele>34.7</ele><time>2020-12-26T11:29:50Z</time><name>PT2252</name></trkpt>
<trkpt lat="52.038933" lon="05.782094"><ele>34.8</ele><time>2020-12-26T11:29:51Z</time><name>PT2253</name></trkpt>
<trkpt lat="52.038935" lon="05.782092"><ele>35</ele><time>2020-12-26T11:29:52Z</time><name>PT2254</name></trkpt>
<trkpt lat="52.038936" lon="05.782092"><ele>35</ele><time>2020-12-26T11:29:53Z</time><name>PT2255</name></trkpt>
<trkpt lat="52.038935" lon="05.782093"><ele>34.7</ele><time>2020-12-26T11:30:01Z</time><name>PT2256</name></trkpt>
<trkpt lat="52.038939" lon="05.782101"><ele>34.9</ele><time>2020-12-26T11:30:02Z</time><name>PT2257</name></trkpt>
<trkpt lat="52.038944" lon="05.782096"><ele>34.7</ele><time>2020-12-26T11:30:03Z</time><name>PT2258</name></trkpt>
<trkpt lat="52.038945" lon="05.782085"><ele>34.7</ele><time>2020-12-26T11:30:04Z</time><name>PT2259</name></trkpt>
<trkpt lat="52.038948" lon="05.782085"><ele>35.2</ele><time>2020-12-26T11:31:49Z</time><name>PT2260</name></trkpt>
<trkpt lat="52.038955" lon="05.782077"><ele>35.2</ele><time>2020-12-26T11:31:50Z</time><name>PT2261</name></trkpt>
<trkpt lat="52.038961" lon="05.782064"><ele>35.2</ele><time>2020-12-26T11:31:51Z</time><name>PT2262</name></trkpt>
<trkpt lat="52.038965" lon="05.782048"><ele>35.2</ele><time>2020-12-26T11:31:52Z</time><name>PT2263</name></trkpt>
<trkpt lat="52.038970" lon="05.782029"><ele>35.1</ele><time>2020-12-26T11:31:53Z</time><name>PT2264</name></trkpt>
<trkpt lat="52.038973" lon="05.782012"><ele>35</ele><time>2020-12-26T11:31:54Z</time><name>PT2265</name></trkpt>
<trkpt lat="52.038976" lon="05.781997"><ele>34.9</ele><time>2020-12-26T11:31:55Z</time><name>PT2266</name></trkpt>
<trkpt lat="52.038979" lon="05.781982"><ele>34.9</ele><time>2020-12-26T11:31:56Z</time><name>PT2267</name></trkpt>
<trkpt lat="52.038982" lon="05.781970"><ele>34.9</ele><time>2020-12-26T11:31:57Z</time><name>PT2268</name></trkpt>
<trkpt lat="52.038985" lon="05.781960"><ele>35</ele><time>2020-12-26T11:31:58Z</time><name>PT2269</name></trkpt>
<trkpt lat="52.038985" lon="05.781951"><ele>34.9</ele><time>2020-12-26T11:31:59Z</time><name>PT2270</name></trkpt>
<trkpt lat="52.038986" lon="05.781943"><ele>35.1</ele><time>2020-12-26T11:32:00Z</time><name>PT2271</name></trkpt>
<trkpt lat="52.038988" lon="05.781936"><ele>35</ele><time>2020-12-26T11:32:01Z</time><name>PT2272</name></trkpt>
<trkpt lat="52.038991" lon="05.781925"><ele>35</ele><time>2020-12-26T11:32:02Z</time><name>PT2273</name></trkpt>
<trkpt lat="52.038992" lon="05.781920"><ele>34.9</ele><time>2020-12-26T11:32:03Z</time><name>PT2274</name></trkpt>
<trkpt lat="52.038994" lon="05.781921"><ele>34.8</ele><time>2020-12-26T11:32:04Z</time><name>PT2275</name></trkpt>
<trkpt lat="52.038995" lon="05.781922"><ele>35</ele><time>2020-12-26T11:32:05Z</time><name>PT2276</name></trkpt>
<trkpt lat="52.038995" lon="05.781920"><ele>35</ele><time>2020-12-26T11:32:06Z</time><name>PT2277</name></trkpt>
<trkpt lat="52.038996" lon="05.781910"><ele>35</ele><time>2020-12-26T11:32:07Z</time><name>PT2278</name></trkpt>
<trkpt lat="52.038997" lon="05.781895"><ele>35.1</ele><time>2020-12-26T11:32:08Z</time><name>PT2279</name></trkpt>
<trkpt lat="52.038999" lon="05.781878"><ele>35</ele><time>2020-12-26T11:32:09Z</time><name>PT2280</name></trkpt>
<trkpt lat="52.039001" lon="05.781861"><ele>35.1</ele><time>2020-12-26T11:32:10Z</time><name>PT2281</name></trkpt>
<trkpt lat="52.039004" lon="05.781849"><ele>35</ele><time>2020-12-26T11:32:11Z</time><name>PT2282</name></trkpt>
<trkpt lat="52.039010" lon="05.781838"><ele>35.2</ele><time>2020-12-26T11:32:12Z</time><name>PT2283</name></trkpt>
<trkpt lat="52.039018" lon="05.781828"><ele>35.2</ele><time>2020-12-26T11:32:13Z</time><name>PT2284</name></trkpt>
<trkpt lat="52.039027" lon="05.781818"><ele>35.1</ele><time>2020-12-26T11:32:14Z</time><name>PT2285</name></trkpt>
<trkpt lat="52.039036" lon="05.781808"><ele>35.2</ele><time>2020-12-26T11:32:15Z</time><name>PT2286</name></trkpt>
<trkpt lat="52.039044" lon="05.781793"><ele>35.1</ele><time>2020-12-26T11:32:16Z</time><name>PT2287</name></trkpt>
<trkpt lat="52.039051" lon="05.781778"><ele>34.9</ele><time>2020-12-26T11:32:17Z</time><name>PT2288</name></trkpt>
<trkpt lat="52.039060" lon="05.781771"><ele>34.8</ele><time>2020-12-26T11:32:18Z</time><name>PT2289</name></trkpt>
<trkpt lat="52.039067" lon="05.781763"><ele>34.7</ele><time>2020-12-26T11:32:19Z</time><name>PT2290</name></trkpt>
<trkpt lat="52.039073" lon="05.781756"><ele>34.7</ele><time>2020-12-26T11:32:20Z</time><name>PT2291</name></trkpt>
<trkpt lat="52.039080" lon="05.781750"><ele>34.7</ele><time>2020-12-26T11:32:21Z</time><name>PT2292</name></trkpt>
<trkpt lat="52.039084" lon="05.781746"><ele>34.8</ele><time>2020-12-26T11:32:22Z</time><name>PT2293</name></trkpt>
<trkpt lat="52.039087" lon="05.781746"><ele>34.9</ele><time>2020-12-26T11:32:23Z</time><name>PT2294</name></trkpt>
<trkpt lat="52.039091" lon="05.781748"><ele>35.1</ele><time>2020-12-26T11:32:24Z</time><name>PT2295</name></trkpt>
<trkpt lat="52.039097" lon="05.781741"><ele>34.9</ele><time>2020-12-26T11:32:25Z</time><name>PT2296</name></trkpt>
<trkpt lat="52.039101" lon="05.781729"><ele>35</ele><time>2020-12-26T11:32:26Z</time><name>PT2297</name></trkpt>
<trkpt lat="52.039109" lon="05.781715"><ele>34.9</ele><time>2020-12-26T11:32:27Z</time><name>PT2298</name></trkpt>
<trkpt lat="52.039120" lon="05.781701"><ele>34.7</ele><time>2020-12-26T11:32:28Z</time><name>PT2299</name></trkpt>
<trkpt lat="52.039127" lon="05.781691"><ele>34.8</ele><time>2020-12-26T11:32:29Z</time><name>PT2300</name></trkpt>
<trkpt lat="52.039137" lon="05.781679"><ele>34.8</ele><time>2020-12-26T11:32:30Z</time><name>PT2301</name></trkpt>
<trkpt lat="52.039146" lon="05.781670"><ele>34.9</ele><time>2020-12-26T11:32:31Z</time><name>PT2302</name></trkpt>
<trkpt lat="52.039153" lon="05.781662"><ele>35</ele><time>2020-12-26T11:32:32Z</time><name>PT2303</name></trkpt>
<trkpt lat="52.039161" lon="05.781651"><ele>35.1</ele><time>2020-12-26T11:32:33Z</time><name>PT2304</name></trkpt>
<trkpt lat="52.039171" lon="05.781640"><ele>35.2</ele><time>2020-12-26T11:32:34Z</time><name>PT2305</name></trkpt>
<trkpt lat="52.039181" lon="05.781628"><ele>35.3</ele><time>2020-12-26T11:32:35Z</time><name>PT2306</name></trkpt>
<trkpt lat="52.039191" lon="05.781617"><ele>35.2</ele><time>2020-12-26T11:32:36Z</time><name>PT2307</name></trkpt>
<trkpt lat="52.039202" lon="05.781603"><ele>35.3</ele><time>2020-12-26T11:32:37Z</time><name>PT2308</name></trkpt>
<trkpt lat="52.039214" lon="05.781589"><ele>35.3</ele><time>2020-12-26T11:32:38Z</time><name>PT2309</name></trkpt>
<trkpt lat="52.039224" lon="05.781579"><ele>35.3</ele><time>2020-12-26T11:32:39Z</time><name>PT2310</name></trkpt>
<trkpt lat="52.039235" lon="05.781570"><ele>35.4</ele><time>2020-12-26T11:32:40Z</time><name>PT2311</name></trkpt>
<trkpt lat="52.039245" lon="05.781559"><ele>35.4</ele><time>2020-12-26T11:32:41Z</time><name>PT2312</name></trkpt>
<trkpt lat="52.039255" lon="05.781553"><ele>35.5</ele><time>2020-12-26T11:32:42Z</time><name>PT2313</name></trkpt>
<trkpt lat="52.039264" lon="05.781545"><ele>35.5</ele><time>2020-12-26T11:32:43Z</time><name>PT2314</name></trkpt>
<trkpt lat="52.039271" lon="05.781534"><ele>35.7</ele><time>2020-12-26T11:32:44Z</time><name>PT2315</name></trkpt>
<trkpt lat="52.039278" lon="05.781524"><ele>35.7</ele><time>2020-12-26T11:32:45Z</time><name>PT2316</name></trkpt>
<trkpt lat="52.039285" lon="05.781520"><ele>35.6</ele><time>2020-12-26T11:32:46Z</time><name>PT2317</name></trkpt>
<trkpt lat="52.039293" lon="05.781517"><ele>35.6</ele><time>2020-12-26T11:32:47Z</time><name>PT2318</name></trkpt>
<trkpt lat="52.039300" lon="05.781508"><ele>35.7</ele><time>2020-12-26T11:32:48Z</time><name>PT2319</name></trkpt>
<trkpt lat="52.039306" lon="05.781499"><ele>35.6</ele><time>2020-12-26T11:32:49Z</time><name>PT2320</name></trkpt>
<trkpt lat="52.039314" lon="05.781490"><ele>35.7</ele><time>2020-12-26T11:32:50Z</time><name>PT2321</name></trkpt>
<trkpt lat="52.039320" lon="05.781479"><ele>35.7</ele><time>2020-12-26T11:32:51Z</time><name>PT2322</name></trkpt>
<trkpt lat="52.039330" lon="05.781471"><ele>35.6</ele><time>2020-12-26T11:32:52Z</time><name>PT2323</name></trkpt>
<trkpt lat="52.039337" lon="05.781462"><ele>35.5</ele><time>2020-12-26T11:32:53Z</time><name>PT2324</name></trkpt>
<trkpt lat="52.039345" lon="05.781451"><ele>35.7</ele><time>2020-12-26T11:32:54Z</time><name>PT2325</name></trkpt>
<trkpt lat="52.039353" lon="05.781439"><ele>35.8</ele><time>2020-12-26T11:32:55Z</time><name>PT2326</name></trkpt>
<trkpt lat="52.039362" lon="05.781430"><ele>35.9</ele><time>2020-12-26T11:32:56Z</time><name>PT2327</name></trkpt>
<trkpt lat="52.039368" lon="05.781427"><ele>35.8</ele><time>2020-12-26T11:32:57Z</time><name>PT2328</name></trkpt>
<trkpt lat="52.039373" lon="05.781420"><ele>35.8</ele><time>2020-12-26T11:32:58Z</time><name>PT2329</name></trkpt>
<trkpt lat="52.039377" lon="05.781414"><ele>35.8</ele><time>2020-12-26T11:32:59Z</time><name>PT2330</name></trkpt>
<trkpt lat="52.039379" lon="05.781410"><ele>36</ele><time>2020-12-26T11:33:00Z</time><name>PT2331</name></trkpt>
<trkpt lat="52.039380" lon="05.781408"><ele>36</ele><time>2020-12-26T11:33:01Z</time><name>PT2332</name></trkpt>
<trkpt lat="52.039384" lon="05.781404"><ele>36.1</ele><time>2020-12-26T11:33:05Z</time><name>PT2333</name></trkpt>
<trkpt lat="52.039391" lon="05.781396"><ele>36.1</ele><time>2020-12-26T11:33:06Z</time><name>PT2334</name></trkpt>
<trkpt lat="52.039394" lon="05.781396"><ele>36.3</ele><time>2020-12-26T11:33:07Z</time><name>PT2335</name></trkpt>
<trkpt lat="52.039395" lon="05.781392"><ele>36.3</ele><time>2020-12-26T11:33:08Z</time><name>PT2336</name></trkpt>
<trkpt lat="52.039393" lon="05.781397"><ele>36.5</ele><time>2020-12-26T11:33:10Z</time><name>PT2337</name></trkpt>
<trkpt lat="52.039394" lon="05.781394"><ele>36.3</ele><time>2020-12-26T11:33:11Z</time><name>PT2338</name></trkpt>
<trkpt lat="52.039396" lon="05.781390"><ele>36.2</ele><time>2020-12-26T11:33:12Z</time><name>PT2339</name></trkpt>
<trkpt lat="52.039401" lon="05.781389"><ele>36</ele><time>2020-12-26T11:33:39Z</time><name>PT2340</name></trkpt>
<trkpt lat="52.039412" lon="05.781375"><ele>36.1</ele><time>2020-12-26T11:33:40Z</time><name>PT2341</name></trkpt>
<trkpt lat="52.039427" lon="05.781357"><ele>36</ele><time>2020-12-26T11:33:41Z</time><name>PT2342</name></trkpt>
<trkpt lat="52.039436" lon="05.781344"><ele>35.7</ele><time>2020-12-26T11:33:42Z</time><name>PT2343</name></trkpt>
<trkpt lat="52.039448" lon="05.781329"><ele>35.8</ele><time>2020-12-26T11:33:43Z</time><name>PT2344</name></trkpt>
<trkpt lat="52.039458" lon="05.781318"><ele>35.9</ele><time>2020-12-26T11:33:44Z</time><name>PT2345</name></trkpt>
<trkpt lat="52.039470" lon="05.781306"><ele>35.9</ele><time>2020-12-26T11:33:45Z</time><name>PT2346</name></trkpt>
<trkpt lat="52.039479" lon="05.781295"><ele>36.1</ele><time>2020-12-26T11:33:46Z</time><name>PT2347</name></trkpt>
<trkpt lat="52.039489" lon="05.781284"><ele>36.2</ele><time>2020-12-26T11:33:47Z</time><name>PT2348</name></trkpt>
<trkpt lat="52.039500" lon="05.781275"><ele>36.5</ele><time>2020-12-26T11:33:48Z</time><name>PT2349</name></trkpt>
<trkpt lat="52.039510" lon="05.781265"><ele>36.6</ele><time>2020-12-26T11:33:49Z</time><name>PT2350</name></trkpt>
<trkpt lat="52.039521" lon="05.781255"><ele>36.7</ele><time>2020-12-26T11:33:50Z</time><name>PT2351</name></trkpt>
<trkpt lat="52.039531" lon="05.781242"><ele>36.6</ele><time>2020-12-26T11:33:51Z</time><name>PT2352</name></trkpt>
<trkpt lat="52.039543" lon="05.781232"><ele>36.6</ele><time>2020-12-26T11:33:52Z</time><name>PT2353</name></trkpt>
<trkpt lat="52.039554" lon="05.781221"><ele>36.6</ele><time>2020-12-26T11:33:53Z</time><name>PT2354</name></trkpt>
<trkpt lat="52.039564" lon="05.781209"><ele>36.5</ele><time>2020-12-26T11:33:54Z</time><name>PT2355</name></trkpt>
<trkpt lat="52.039575" lon="05.781199"><ele>36.6</ele><time>2020-12-26T11:33:55Z</time><name>PT2356</name></trkpt>
<trkpt lat="52.039587" lon="05.781186"><ele>36.6</ele><time>2020-12-26T11:33:56Z</time><name>PT2357</name></trkpt>
<trkpt lat="52.039599" lon="05.781174"><ele>36.8</ele><time>2020-12-26T11:33:57Z</time><name>PT2358</name></trkpt>
<trkpt lat="52.039613" lon="05.781165"><ele>36.9</ele><time>2020-12-26T11:33:58Z</time><name>PT2359</name></trkpt>
<trkpt lat="52.039624" lon="05.781156"><ele>36.9</ele><time>2020-12-26T11:33:59Z</time><name>PT2360</name></trkpt>
<trkpt lat="52.039634" lon="05.781148"><ele>36.8</ele><time>2020-12-26T11:34:00Z</time><name>PT2361</name></trkpt>
<trkpt lat="52.039647" lon="05.781139"><ele>36.8</ele><time>2020-12-26T11:34:01Z</time><name>PT2362</name></trkpt>
<trkpt lat="52.039654" lon="05.781127"><ele>36.8</ele><time>2020-12-26T11:34:02Z</time><name>PT2363</name></trkpt>
<trkpt lat="52.039662" lon="05.781118"><ele>37.1</ele><time>2020-12-26T11:34:03Z</time><name>PT2364</name></trkpt>
<trkpt lat="52.039673" lon="05.781106"><ele>37.1</ele><time>2020-12-26T11:34:04Z</time><name>PT2365</name></trkpt>
<trkpt lat="52.039683" lon="05.781094"><ele>37.3</ele><time>2020-12-26T11:34:05Z</time><name>PT2366</name></trkpt>
<trkpt lat="52.039695" lon="05.781083"><ele>37.4</ele><time>2020-12-26T11:34:06Z</time><name>PT2367</name></trkpt>
<trkpt lat="52.039706" lon="05.781069"><ele>37.6</ele><time>2020-12-26T11:34:07Z</time><name>PT2368</name></trkpt>
<trkpt lat="52.039717" lon="05.781061"><ele>37.6</ele><time>2020-12-26T11:34:08Z</time><name>PT2369</name></trkpt>
<trkpt lat="52.039729" lon="05.781052"><ele>37.5</ele><time>2020-12-26T11:34:09Z</time><name>PT2370</name></trkpt>
<trkpt lat="52.039740" lon="05.781046"><ele>37.4</ele><time>2020-12-26T11:34:10Z</time><name>PT2371</name></trkpt>
<trkpt lat="52.039752" lon="05.781037"><ele>37.4</ele><time>2020-12-26T11:34:11Z</time><name>PT2372</name></trkpt>
<trkpt lat="52.039763" lon="05.781028"><ele>37.3</ele><time>2020-12-26T11:34:12Z</time><name>PT2373</name></trkpt>
<trkpt lat="52.039774" lon="05.781018"><ele>37.4</ele><time>2020-12-26T11:34:13Z</time><name>PT2374</name></trkpt>
<trkpt lat="52.039784" lon="05.781003"><ele>37.5</ele><time>2020-12-26T11:34:14Z</time><name>PT2375</name></trkpt>
<trkpt lat="52.039795" lon="05.780990"><ele>37.6</ele><time>2020-12-26T11:34:15Z</time><name>PT2376</name></trkpt>
<trkpt lat="52.039805" lon="05.780979"><ele>37.5</ele><time>2020-12-26T11:34:16Z</time><name>PT2377</name></trkpt>
<trkpt lat="52.039816" lon="05.780966"><ele>37.4</ele><time>2020-12-26T11:34:17Z</time><name>PT2378</name></trkpt>
<trkpt lat="52.039828" lon="05.780955"><ele>37.5</ele><time>2020-12-26T11:34:18Z</time><name>PT2379</name></trkpt>
<trkpt lat="52.039839" lon="05.780943"><ele>37.5</ele><time>2020-12-26T11:34:19Z</time><name>PT2380</name></trkpt>
<trkpt lat="52.039850" lon="05.780935"><ele>37.6</ele><time>2020-12-26T11:34:20Z</time><name>PT2381</name></trkpt>
<trkpt lat="52.039862" lon="05.780926"><ele>37.6</ele><time>2020-12-26T11:34:21Z</time><name>PT2382</name></trkpt>
<trkpt lat="52.039871" lon="05.780915"><ele>37.5</ele><time>2020-12-26T11:34:22Z</time><name>PT2383</name></trkpt>
<trkpt lat="52.039882" lon="05.780906"><ele>37.6</ele><time>2020-12-26T11:34:23Z</time><name>PT2384</name></trkpt>
<trkpt lat="52.039894" lon="05.780898"><ele>37.5</ele><time>2020-12-26T11:34:24Z</time><name>PT2385</name></trkpt>
<trkpt lat="52.039902" lon="05.780894"><ele>37.6</ele><time>2020-12-26T11:34:25Z</time><name>PT2386</name></trkpt>
<trkpt lat="52.039913" lon="05.780883"><ele>37.6</ele><time>2020-12-26T11:34:26Z</time><name>PT2387</name></trkpt>
<trkpt lat="52.039924" lon="05.780873"><ele>37.5</ele><time>2020-12-26T11:34:27Z</time><name>PT2388</name></trkpt>
<trkpt lat="52.039936" lon="05.780865"><ele>37.3</ele><time>2020-12-26T11:34:28Z</time><name>PT2389</name></trkpt>
<trkpt lat="52.039944" lon="05.780860"><ele>37.5</ele><time>2020-12-26T11:34:29Z</time><name>PT2390</name></trkpt>
<trkpt lat="52.039949" lon="05.780853"><ele>37.4</ele><time>2020-12-26T11:34:30Z</time><name>PT2391</name></trkpt>
<trkpt lat="52.039959" lon="05.780847"><ele>37.5</ele><time>2020-12-26T11:34:31Z</time><name>PT2392</name></trkpt>
<trkpt lat="52.039966" lon="05.780839"><ele>37.5</ele><time>2020-12-26T11:34:32Z</time><name>PT2393</name></trkpt>
<trkpt lat="52.039975" lon="05.780832"><ele>37.5</ele><time>2020-12-26T11:34:33Z</time><name>PT2394</name></trkpt>
<trkpt lat="52.039988" lon="05.780822"><ele>37.5</ele><time>2020-12-26T11:34:34Z</time><name>PT2395</name></trkpt>
<trkpt lat="52.040001" lon="05.780814"><ele>37.5</ele><time>2020-12-26T11:34:35Z</time><name>PT2396</name></trkpt>
<trkpt lat="52.040011" lon="05.780805"><ele>37.5</ele><time>2020-12-26T11:34:36Z</time><name>PT2397</name></trkpt>
<trkpt lat="52.040030" lon="05.780800"><ele>37.5</ele><time>2020-12-26T11:34:37Z</time><name>PT2398</name></trkpt>
<trkpt lat="52.040042" lon="05.780794"><ele>37.5</ele><time>2020-12-26T11:34:38Z</time><name>PT2399</name></trkpt>
<trkpt lat="52.040052" lon="05.780788"><ele>37.4</ele><time>2020-12-26T11:34:39Z</time><name>PT2400</name></trkpt>
<trkpt lat="52.040062" lon="05.780781"><ele>37.5</ele><time>2020-12-26T11:34:40Z</time><name>PT2401</name></trkpt>
<trkpt lat="52.040073" lon="05.780775"><ele>37.5</ele><time>2020-12-26T11:34:41Z</time><name>PT2402</name></trkpt>
<trkpt lat="52.040083" lon="05.780766"><ele>37.6</ele><time>2020-12-26T11:34:42Z</time><name>PT2403</name></trkpt>
<trkpt lat="52.040094" lon="05.780762"><ele>37.6</ele><time>2020-12-26T11:34:43Z</time><name>PT2404</name></trkpt>
<trkpt lat="52.040100" lon="05.780750"><ele>37.9</ele><time>2020-12-26T11:34:44Z</time><name>PT2405</name></trkpt>
<trkpt lat="52.040108" lon="05.780742"><ele>37.7</ele><time>2020-12-26T11:34:45Z</time><name>PT2406</name></trkpt>
<trkpt lat="52.040115" lon="05.780732"><ele>37.7</ele><time>2020-12-26T11:34:46Z</time><name>PT2407</name></trkpt>
<trkpt lat="52.040117" lon="05.780721"><ele>37.9</ele><time>2020-12-26T11:34:47Z</time><name>PT2408</name></trkpt>
<trkpt lat="52.040123" lon="05.780708"><ele>37.6</ele><time>2020-12-26T11:34:48Z</time><name>PT2409</name></trkpt>
<trkpt lat="52.040136" lon="05.780698"><ele>37.8</ele><time>2020-12-26T11:34:49Z</time><name>PT2410</name></trkpt>
<trkpt lat="52.040149" lon="05.780690"><ele>37.7</ele><time>2020-12-26T11:34:50Z</time><name>PT2411</name></trkpt>
<trkpt lat="52.040162" lon="05.780681"><ele>37.6</ele><time>2020-12-26T11:34:51Z</time><name>PT2412</name></trkpt>
<trkpt lat="52.040177" lon="05.780674"><ele>37.6</ele><time>2020-12-26T11:34:52Z</time><name>PT2413</name></trkpt>
<trkpt lat="52.040193" lon="05.780666"><ele>37.5</ele><time>2020-12-26T11:34:53Z</time><name>PT2414</name></trkpt>
<trkpt lat="52.040205" lon="05.780657"><ele>37.4</ele><time>2020-12-26T11:34:54Z</time><name>PT2415</name></trkpt>
<trkpt lat="52.040220" lon="05.780645"><ele>37.4</ele><time>2020-12-26T11:34:55Z</time><name>PT2416</name></trkpt>
<trkpt lat="52.040232" lon="05.780636"><ele>37.5</ele><time>2020-12-26T11:34:56Z</time><name>PT2417</name></trkpt>
<trkpt lat="52.040245" lon="05.780623"><ele>37.4</ele><time>2020-12-26T11:34:57Z</time><name>PT2418</name></trkpt>
<trkpt lat="52.040256" lon="05.780609"><ele>37.3</ele><time>2020-12-26T11:34:58Z</time><name>PT2419</name></trkpt>
<trkpt lat="52.040267" lon="05.780596"><ele>37.4</ele><time>2020-12-26T11:34:59Z</time><name>PT2420</name></trkpt>
<trkpt lat="52.040278" lon="05.780585"><ele>37.1</ele><time>2020-12-26T11:35:00Z</time><name>PT2421</name></trkpt>
<trkpt lat="52.040288" lon="05.780573"><ele>37.1</ele><time>2020-12-26T11:35:01Z</time><name>PT2422</name></trkpt>
<trkpt lat="52.040299" lon="05.780559"><ele>37.1</ele><time>2020-12-26T11:35:02Z</time><name>PT2423</name></trkpt>
<trkpt lat="52.040309" lon="05.780548"><ele>37.1</ele><time>2020-12-26T11:35:03Z</time><name>PT2424</name></trkpt>
<trkpt lat="52.040318" lon="05.780533"><ele>37.2</ele><time>2020-12-26T11:35:04Z</time><name>PT2425</name></trkpt>
<trkpt lat="52.040330" lon="05.780517"><ele>37.2</ele><time>2020-12-26T11:35:05Z</time><name>PT2426</name></trkpt>
<trkpt lat="52.040341" lon="05.780502"><ele>37.1</ele><time>2020-12-26T11:35:06Z</time><name>PT2427</name></trkpt>
<trkpt lat="52.040350" lon="05.780494"><ele>37.4</ele><time>2020-12-26T11:35:07Z</time><name>PT2428</name></trkpt>
<trkpt lat="52.040359" lon="05.780487"><ele>37.4</ele><time>2020-12-26T11:35:08Z</time><name>PT2429</name></trkpt>
<trkpt lat="52.040369" lon="05.780476"><ele>37.4</ele><time>2020-12-26T11:35:09Z</time><name>PT2430</name></trkpt>
<trkpt lat="52.040377" lon="05.780465"><ele>37.2</ele><time>2020-12-26T11:35:10Z</time><name>PT2431</name></trkpt>
<trkpt lat="52.040387" lon="05.780455"><ele>37.1</ele><time>2020-12-26T11:35:11Z</time><name>PT2432</name></trkpt>
<trkpt lat="52.040400" lon="05.780444"><ele>36.9</ele><time>2020-12-26T11:35:12Z</time><name>PT2433</name></trkpt>
<trkpt lat="52.040413" lon="05.780431"><ele>37</ele><time>2020-12-26T11:35:13Z</time><name>PT2434</name></trkpt>
<trkpt lat="52.040426" lon="05.780415"><ele>37.1</ele><time>2020-12-26T11:35:14Z</time><name>PT2435</name></trkpt>
<trkpt lat="52.040435" lon="05.780403"><ele>37.2</ele><time>2020-12-26T11:35:15Z</time><name>PT2436</name></trkpt>
<trkpt lat="52.040443" lon="05.780393"><ele>37.5</ele><time>2020-12-26T11:35:16Z</time><name>PT2437</name></trkpt>
<trkpt lat="52.040453" lon="05.780384"><ele>37.5</ele><time>2020-12-26T11:35:17Z</time><name>PT2438</name></trkpt>
<trkpt lat="52.040463" lon="05.780373"><ele>37.6</ele><time>2020-12-26T11:35:18Z</time><name>PT2439</name></trkpt>
<trkpt lat="52.040476" lon="05.780365"><ele>37.8</ele><time>2020-12-26T11:35:19Z</time><name>PT2440</name></trkpt>
<trkpt lat="52.040484" lon="05.780355"><ele>37.8</ele><time>2020-12-26T11:35:20Z</time><name>PT2441</name></trkpt>
<trkpt lat="52.040494" lon="05.780343"><ele>37.9</ele><time>2020-12-26T11:35:21Z</time><name>PT2442</name></trkpt>
<trkpt lat="52.040505" lon="05.780331"><ele>37.8</ele><time>2020-12-26T11:35:22Z</time><name>PT2443</name></trkpt>
<trkpt lat="52.040517" lon="05.780318"><ele>37.7</ele><time>2020-12-26T11:35:23Z</time><name>PT2444</name></trkpt>
<trkpt lat="52.040528" lon="05.780306"><ele>37.8</ele><time>2020-12-26T11:35:24Z</time><name>PT2445</name></trkpt>
<trkpt lat="52.040539" lon="05.780296"><ele>38</ele><time>2020-12-26T11:35:25Z</time><name>PT2446</name></trkpt>
<trkpt lat="52.040550" lon="05.780288"><ele>38</ele><time>2020-12-26T11:35:26Z</time><name>PT2447</name></trkpt>
<trkpt lat="52.040562" lon="05.780280"><ele>38</ele><time>2020-12-26T11:35:27Z</time><name>PT2448</name></trkpt>
<trkpt lat="52.040573" lon="05.780266"><ele>38</ele><time>2020-12-26T11:35:28Z</time><name>PT2449</name></trkpt>
<trkpt lat="52.040581" lon="05.780252"><ele>37.9</ele><time>2020-12-26T11:35:29Z</time><name>PT2450</name></trkpt>
<trkpt lat="52.040589" lon="05.780239"><ele>37.6</ele><time>2020-12-26T11:35:30Z</time><name>PT2451</name></trkpt>
<trkpt lat="52.040597" lon="05.780229"><ele>37.6</ele><time>2020-12-26T11:35:31Z</time><name>PT2452</name></trkpt>
<trkpt lat="52.040607" lon="05.780221"><ele>37.6</ele><time>2020-12-26T11:35:32Z</time><name>PT2453</name></trkpt>
<trkpt lat="52.040617" lon="05.780213"><ele>37.6</ele><time>2020-12-26T11:35:33Z</time><name>PT2454</name></trkpt>
<trkpt lat="52.040627" lon="05.780206"><ele>37.7</ele><time>2020-12-26T11:35:34Z</time><name>PT2455</name></trkpt>
<trkpt lat="52.040639" lon="05.780198"><ele>37.8</ele><time>2020-12-26T11:35:35Z</time><name>PT2456</name></trkpt>
<trkpt lat="52.040648" lon="05.780189"><ele>37.9</ele><time>2020-12-26T11:35:36Z</time><name>PT2457</name></trkpt>
<trkpt lat="52.040664" lon="05.780177"><ele>38</ele><time>2020-12-26T11:35:37Z</time><name>PT2458</name></trkpt>
<trkpt lat="52.040672" lon="05.780166"><ele>37.8</ele><time>2020-12-26T11:35:38Z</time><name>PT2459</name></trkpt>
<trkpt lat="52.040682" lon="05.780158"><ele>38</ele><time>2020-12-26T11:35:39Z</time><name>PT2460</name></trkpt>
<trkpt lat="52.040694" lon="05.780147"><ele>38</ele><time>2020-12-26T11:35:40Z</time><name>PT2461</name></trkpt>
<trkpt lat="52.040705" lon="05.780138"><ele>38</ele><time>2020-12-26T11:35:41Z</time><name>PT2462</name></trkpt>
<trkpt lat="52.040713" lon="05.780129"><ele>38.2</ele><time>2020-12-26T11:35:42Z</time><name>PT2463</name></trkpt>
<trkpt lat="52.040720" lon="05.780119"><ele>38</ele><time>2020-12-26T11:35:43Z</time><name>PT2464</name></trkpt>
<trkpt lat="52.040730" lon="05.780108"><ele>37.9</ele><time>2020-12-26T11:35:44Z</time><name>PT2465</name></trkpt>
<trkpt lat="52.040738" lon="05.780097"><ele>38</ele><time>2020-12-26T11:35:45Z</time><name>PT2466</name></trkpt>
<trkpt lat="52.040747" lon="05.780084"><ele>38</ele><time>2020-12-26T11:35:46Z</time><name>PT2467</name></trkpt>
<trkpt lat="52.040756" lon="05.780075"><ele>38.2</ele><time>2020-12-26T11:35:47Z</time><name>PT2468</name></trkpt>
<trkpt lat="52.040762" lon="05.780065"><ele>38.3</ele><time>2020-12-26T11:35:48Z</time><name>PT2469</name></trkpt>
<trkpt lat="52.040768" lon="05.780055"><ele>38.4</ele><time>2020-12-26T11:35:49Z</time><name>PT2470</name></trkpt>
<trkpt lat="52.040780" lon="05.780044"><ele>38.3</ele><time>2020-12-26T11:35:50Z</time><name>PT2471</name></trkpt>
<trkpt lat="52.040788" lon="05.780029"><ele>38.3</ele><time>2020-12-26T11:35:51Z</time><name>PT2472</name></trkpt>
<trkpt lat="52.040800" lon="05.780020"><ele>38.5</ele><time>2020-12-26T11:35:52Z</time><name>PT2473</name></trkpt>
<trkpt lat="52.040810" lon="05.780008"><ele>38.5</ele><time>2020-12-26T11:35:53Z</time><name>PT2474</name></trkpt>
<trkpt lat="52.040820" lon="05.779993"><ele>38.6</ele><time>2020-12-26T11:35:54Z</time><name>PT2475</name></trkpt>
<trkpt lat="52.040833" lon="05.779982"><ele>38.8</ele><time>2020-12-26T11:35:55Z</time><name>PT2476</name></trkpt>
<trkpt lat="52.040847" lon="05.779975"><ele>38.6</ele><time>2020-12-26T11:35:56Z</time><name>PT2477</name></trkpt>
<trkpt lat="52.040857" lon="05.779968"><ele>38.6</ele><time>2020-12-26T11:35:57Z</time><name>PT2478</name></trkpt>
<trkpt lat="52.040863" lon="05.779956"><ele>38.5</ele><time>2020-12-26T11:35:58Z</time><name>PT2479</name></trkpt>
<trkpt lat="52.040868" lon="05.779945"><ele>38.5</ele><time>2020-12-26T11:35:59Z</time><name>PT2480</name></trkpt>
<trkpt lat="52.040876" lon="05.779937"><ele>38.6</ele><time>2020-12-26T11:36:00Z</time><name>PT2481</name></trkpt>
<trkpt lat="52.040883" lon="05.779928"><ele>38.9</ele><time>2020-12-26T11:36:01Z</time><name>PT2482</name></trkpt>
<trkpt lat="52.040893" lon="05.779919"><ele>39</ele><time>2020-12-26T11:36:02Z</time><name>PT2483</name></trkpt>
<trkpt lat="52.040904" lon="05.779913"><ele>39.5</ele><time>2020-12-26T11:36:03Z</time><name>PT2484</name></trkpt>
<trkpt lat="52.040914" lon="05.779906"><ele>39.7</ele><time>2020-12-26T11:36:04Z</time><name>PT2485</name></trkpt>
<trkpt lat="52.040932" lon="05.779898"><ele>39.8</ele><time>2020-12-26T11:36:05Z</time><name>PT2486</name></trkpt>
<trkpt lat="52.040944" lon="05.779892"><ele>39.8</ele><time>2020-12-26T11:36:06Z</time><name>PT2487</name></trkpt>
<trkpt lat="52.040959" lon="05.779883"><ele>39.5</ele><time>2020-12-26T11:36:07Z</time><name>PT2488</name></trkpt>
<trkpt lat="52.040961" lon="05.779869"><ele>39.3</ele><time>2020-12-26T11:36:08Z</time><name>PT2489</name></trkpt>
<trkpt lat="52.040962" lon="05.779856"><ele>39.1</ele><time>2020-12-26T11:36:09Z</time><name>PT2490</name></trkpt>
<trkpt lat="52.040970" lon="05.779846"><ele>39</ele><time>2020-12-26T11:36:10Z</time><name>PT2491</name></trkpt>
<trkpt lat="52.040980" lon="05.779836"><ele>38.9</ele><time>2020-12-26T11:36:11Z</time><name>PT2492</name></trkpt>
<trkpt lat="52.040991" lon="05.779828"><ele>39</ele><time>2020-12-26T11:36:12Z</time><name>PT2493</name></trkpt>
<trkpt lat="52.041004" lon="05.779820"><ele>39</ele><time>2020-12-26T11:36:13Z</time><name>PT2494</name></trkpt>
<trkpt lat="52.041020" lon="05.779812"><ele>39</ele><time>2020-12-26T11:36:14Z</time><name>PT2495</name></trkpt>
<trkpt lat="52.041031" lon="05.779804"><ele>39.2</ele><time>2020-12-26T11:36:15Z</time><name>PT2496</name></trkpt>
<trkpt lat="52.041039" lon="05.779794"><ele>39.1</ele><time>2020-12-26T11:36:16Z</time><name>PT2497</name></trkpt>
<trkpt lat="52.041051" lon="05.779788"><ele>39</ele><time>2020-12-26T11:36:17Z</time><name>PT2498</name></trkpt>
<trkpt lat="52.041062" lon="05.779782"><ele>38.9</ele><time>2020-12-26T11:36:18Z</time><name>PT2499</name></trkpt>
<trkpt lat="52.041078" lon="05.779774"><ele>38.9</ele><time>2020-12-26T11:36:19Z</time><name>PT2500</name></trkpt>
<trkpt lat="52.041092" lon="05.779760"><ele>39</ele><time>2020-12-26T11:36:20Z</time><name>PT2501</name></trkpt>
<trkpt lat="52.041102" lon="05.779747"><ele>39</ele><time>2020-12-26T11:36:21Z</time><name>PT2502</name></trkpt>
<trkpt lat="52.041114" lon="05.779738"><ele>39</ele><time>2020-12-26T11:36:22Z</time><name>PT2503</name></trkpt>
<trkpt lat="52.041123" lon="05.779728"><ele>38.8</ele><time>2020-12-26T11:36:23Z</time><name>PT2504</name></trkpt>
<trkpt lat="52.041130" lon="05.779718"><ele>38.7</ele><time>2020-12-26T11:36:24Z</time><name>PT2505</name></trkpt>
<trkpt lat="52.041140" lon="05.779706"><ele>39</ele><time>2020-12-26T11:36:25Z</time><name>PT2506</name></trkpt>
<trkpt lat="52.041150" lon="05.779693"><ele>39</ele><time>2020-12-26T11:36:26Z</time><name>PT2507</name></trkpt>
<trkpt lat="52.041160" lon="05.779680"><ele>39</ele><time>2020-12-26T11:36:27Z</time><name>PT2508</name></trkpt>
<trkpt lat="52.041171" lon="05.779668"><ele>39.1</ele><time>2020-12-26T11:36:28Z</time><name>PT2509</name></trkpt>
<trkpt lat="52.041180" lon="05.779656"><ele>39</ele><time>2020-12-26T11:36:29Z</time><name>PT2510</name></trkpt>
<trkpt lat="52.041186" lon="05.779640"><ele>39</ele><time>2020-12-26T11:36:30Z</time><name>PT2511</name></trkpt>
<trkpt lat="52.041193" lon="05.779626"><ele>39</ele><time>2020-12-26T11:36:31Z</time><name>PT2512</name></trkpt>
<trkpt lat="52.041203" lon="05.779613"><ele>39</ele><time>2020-12-26T11:36:32Z</time><name>PT2513</name></trkpt>
<trkpt lat="52.041214" lon="05.779602"><ele>39</ele><time>2020-12-26T11:36:33Z</time><name>PT2514</name></trkpt>
<trkpt lat="52.041228" lon="05.779589"><ele>39</ele><time>2020-12-26T11:36:34Z</time><name>PT2515</name></trkpt>
<trkpt lat="52.041239" lon="05.779580"><ele>38.9</ele><time>2020-12-26T11:36:35Z</time><name>PT2516</name></trkpt>
<trkpt lat="52.041250" lon="05.779571"><ele>38.9</ele><time>2020-12-26T11:36:36Z</time><name>PT2517</name></trkpt>
<trkpt lat="52.041261" lon="05.779559"><ele>38.9</ele><time>2020-12-26T11:36:37Z</time><name>PT2518</name></trkpt>
<trkpt lat="52.041272" lon="05.779547"><ele>39</ele><time>2020-12-26T11:36:38Z</time><name>PT2519</name></trkpt>
<trkpt lat="52.041283" lon="05.779538"><ele>39</ele><time>2020-12-26T11:36:39Z</time><name>PT2520</name></trkpt>
<trkpt lat="52.041292" lon="05.779531"><ele>39</ele><time>2020-12-26T11:36:40Z</time><name>PT2521</name></trkpt>
<trkpt lat="52.041305" lon="05.779523"><ele>38.9</ele><time>2020-12-26T11:36:41Z</time><name>PT2522</name></trkpt>
<trkpt lat="52.041319" lon="05.779515"><ele>38.7</ele><time>2020-12-26T11:36:42Z</time><name>PT2523</name></trkpt>
<trkpt lat="52.041331" lon="05.779508"><ele>38.5</ele><time>2020-12-26T11:36:43Z</time><name>PT2524</name></trkpt>
<trkpt lat="52.041347" lon="05.779501"><ele>38.5</ele><time>2020-12-26T11:36:44Z</time><name>PT2525</name></trkpt>
<trkpt lat="52.041361" lon="05.779492"><ele>38.5</ele><time>2020-12-26T11:36:45Z</time><name>PT2526</name></trkpt>
<trkpt lat="52.041368" lon="05.779478"><ele>38.7</ele><time>2020-12-26T11:36:46Z</time><name>PT2527</name></trkpt>
<trkpt lat="52.041378" lon="05.779466"><ele>38.6</ele><time>2020-12-26T11:36:47Z</time><name>PT2528</name></trkpt>
<trkpt lat="52.041385" lon="05.779457"><ele>38.7</ele><time>2020-12-26T11:36:48Z</time><name>PT2529</name></trkpt>
<trkpt lat="52.041391" lon="05.779446"><ele>38.5</ele><time>2020-12-26T11:36:49Z</time><name>PT2530</name></trkpt>
<trkpt lat="52.041397" lon="05.779434"><ele>38.6</ele><time>2020-12-26T11:36:50Z</time><name>PT2531</name></trkpt>
<trkpt lat="52.041404" lon="05.779422"><ele>38.5</ele><time>2020-12-26T11:36:51Z</time><name>PT2532</name></trkpt>
<trkpt lat="52.041412" lon="05.779410"><ele>38.6</ele><time>2020-12-26T11:36:52Z</time><name>PT2533</name></trkpt>
<trkpt lat="52.041421" lon="05.779398"><ele>38.7</ele><time>2020-12-26T11:36:53Z</time><name>PT2534</name></trkpt>
<trkpt lat="52.041432" lon="05.779390"><ele>38.8</ele><time>2020-12-26T11:36:54Z</time><name>PT2535</name></trkpt>
<trkpt lat="52.041446" lon="05.779378"><ele>39.1</ele><time>2020-12-26T11:36:55Z</time><name>PT2536</name></trkpt>
<trkpt lat="52.041462" lon="05.779367"><ele>39</ele><time>2020-12-26T11:36:56Z</time><name>PT2537</name></trkpt>
<trkpt lat="52.041476" lon="05.779355"><ele>39.3</ele><time>2020-12-26T11:36:57Z</time><name>PT2538</name></trkpt>
<trkpt lat="52.041490" lon="05.779341"><ele>39.7</ele><time>2020-12-26T11:36:58Z</time><name>PT2539</name></trkpt>
<trkpt lat="52.041501" lon="05.779332"><ele>39.6</ele><time>2020-12-26T11:36:59Z</time><name>PT2540</name></trkpt>
<trkpt lat="52.041509" lon="05.779325"><ele>39.8</ele><time>2020-12-26T11:37:00Z</time><name>PT2541</name></trkpt>
<trkpt lat="52.041521" lon="05.779318"><ele>39.7</ele><time>2020-12-26T11:37:01Z</time><name>PT2542</name></trkpt>
<trkpt lat="52.041533" lon="05.779307"><ele>39.7</ele><time>2020-12-26T11:37:02Z</time><name>PT2543</name></trkpt>
<trkpt lat="52.041539" lon="05.779294"><ele>39.9</ele><time>2020-12-26T11:37:03Z</time><name>PT2544</name></trkpt>
<trkpt lat="52.041549" lon="05.779284"><ele>39.9</ele><time>2020-12-26T11:37:04Z</time><name>PT2545</name></trkpt>
<trkpt lat="52.041557" lon="05.779271"><ele>39.9</ele><time>2020-12-26T11:37:05Z</time><name>PT2546</name></trkpt>
<trkpt lat="52.041566" lon="05.779262"><ele>39.9</ele><time>2020-12-26T11:37:06Z</time><name>PT2547</name></trkpt>
<trkpt lat="52.041575" lon="05.779253"><ele>39.7</ele><time>2020-12-26T11:37:07Z</time><name>PT2548</name></trkpt>
<trkpt lat="52.041587" lon="05.779241"><ele>39.7</ele><time>2020-12-26T11:37:08Z</time><name>PT2549</name></trkpt>
<trkpt lat="52.041610" lon="05.779209"><ele>39.5</ele><time>2020-12-26T11:37:09Z</time><name>PT2550</name></trkpt>
<trkpt lat="52.041623" lon="05.779193"><ele>39.5</ele><time>2020-12-26T11:37:10Z</time><name>PT2551</name></trkpt>
<trkpt lat="52.041635" lon="05.779184"><ele>39.5</ele><time>2020-12-26T11:37:11Z</time><name>PT2552</name></trkpt>
<trkpt lat="52.041650" lon="05.779175"><ele>39.5</ele><time>2020-12-26T11:37:12Z</time><name>PT2553</name></trkpt>
<trkpt lat="52.041664" lon="05.779167"><ele>39.5</ele><time>2020-12-26T11:37:13Z</time><name>PT2554</name></trkpt>
<trkpt lat="52.041673" lon="05.779158"><ele>39.5</ele><time>2020-12-26T11:37:14Z</time><name>PT2555</name></trkpt>
<trkpt lat="52.041687" lon="05.779150"><ele>39.5</ele><time>2020-12-26T11:37:15Z</time><name>PT2556</name></trkpt>
<trkpt lat="52.041692" lon="05.779140"><ele>39.5</ele><time>2020-12-26T11:37:16Z</time><name>PT2557</name></trkpt>
<trkpt lat="52.041696" lon="05.779139"><ele>39.5</ele><time>2020-12-26T11:37:17Z</time><name>PT2558</name></trkpt>
<trkpt lat="52.041716" lon="05.779129"><ele>39.5</ele><time>2020-12-26T11:37:18Z</time><name>PT2559</name></trkpt>
<trkpt lat="52.041733" lon="05.779118"><ele>39.5</ele><time>2020-12-26T11:37:19Z</time><name>PT2560</name></trkpt>
<trkpt lat="52.041743" lon="05.779112"><ele>39.5</ele><time>2020-12-26T11:37:20Z</time><name>PT2561</name></trkpt>
<trkpt lat="52.041753" lon="05.779108"><ele>39.6</ele><time>2020-12-26T11:37:21Z</time><name>PT2562</name></trkpt>
<trkpt lat="52.041761" lon="05.779099"><ele>39.8</ele><time>2020-12-26T11:37:22Z</time><name>PT2563</name></trkpt>
<trkpt lat="52.041772" lon="05.779097"><ele>39.9</ele><time>2020-12-26T11:37:23Z</time><name>PT2564</name></trkpt>
<trkpt lat="52.041776" lon="05.779092"><ele>39.7</ele><time>2020-12-26T11:37:24Z</time><name>PT2565</name></trkpt>
<trkpt lat="52.041780" lon="05.779085"><ele>39.7</ele><time>2020-12-26T11:37:25Z</time><name>PT2566</name></trkpt>
<trkpt lat="52.041789" lon="05.779079"><ele>39.7</ele><time>2020-12-26T11:37:26Z</time><name>PT2567</name></trkpt>
<trkpt lat="52.041800" lon="05.779070"><ele>39.5</ele><time>2020-12-26T11:37:27Z</time><name>PT2568</name></trkpt>
<trkpt lat="52.041805" lon="05.779061"><ele>39.5</ele><time>2020-12-26T11:37:28Z</time><name>PT2569</name></trkpt>
<trkpt lat="52.041808" lon="05.779053"><ele>39.5</ele><time>2020-12-26T11:37:29Z</time><name>PT2570</name></trkpt>
<trkpt lat="52.041814" lon="05.779046"><ele>39.5</ele><time>2020-12-26T11:37:30Z</time><name>PT2571</name></trkpt>
<trkpt lat="52.041824" lon="05.779038"><ele>39.7</ele><time>2020-12-26T11:37:31Z</time><name>PT2572</name></trkpt>
<trkpt lat="52.041838" lon="05.779025"><ele>40</ele><time>2020-12-26T11:37:35Z</time><name>PT2573</name></trkpt>
<trkpt lat="52.041853" lon="05.778995"><ele>40.1</ele><time>2020-12-26T11:37:36Z</time><name>PT2574</name></trkpt>
<trkpt lat="52.041866" lon="05.778977"><ele>40</ele><time>2020-12-26T11:37:37Z</time><name>PT2575</name></trkpt>
<trkpt lat="52.041879" lon="05.778968"><ele>40</ele><time>2020-12-26T11:37:38Z</time><name>PT2576</name></trkpt>
<trkpt lat="52.041885" lon="05.778960"><ele>40</ele><time>2020-12-26T11:37:39Z</time><name>PT2577</name></trkpt>
<trkpt lat="52.041898" lon="05.778944"><ele>40</ele><time>2020-12-26T11:37:40Z</time><name>PT2578</name></trkpt>
<trkpt lat="52.041922" lon="05.778928"><ele>40</ele><time>2020-12-26T11:37:41Z</time><name>PT2579</name></trkpt>
<trkpt lat="52.041941" lon="05.778911"><ele>39.9</ele><time>2020-12-26T11:37:42Z</time><name>PT2580</name></trkpt>
<trkpt lat="52.041952" lon="05.778908"><ele>39.8</ele><time>2020-12-26T11:37:43Z</time><name>PT2581</name></trkpt>
<trkpt lat="52.041963" lon="05.778893"><ele>39.9</ele><time>2020-12-26T11:37:44Z</time><name>PT2582</name></trkpt>
<trkpt lat="52.041977" lon="05.778881"><ele>39.9</ele><time>2020-12-26T11:37:45Z</time><name>PT2583</name></trkpt>
<trkpt lat="52.041992" lon="05.778871"><ele>40</ele><time>2020-12-26T11:37:46Z</time><name>PT2584</name></trkpt>
<trkpt lat="52.042004" lon="05.778862"><ele>40</ele><time>2020-12-26T11:37:47Z</time><name>PT2585</name></trkpt>
<trkpt lat="52.042019" lon="05.778852"><ele>40.2</ele><time>2020-12-26T11:37:48Z</time><name>PT2586</name></trkpt>
<trkpt lat="52.042029" lon="05.778842"><ele>40.4</ele><time>2020-12-26T11:37:49Z</time><name>PT2587</name></trkpt>
<trkpt lat="52.042044" lon="05.778827"><ele>40.3</ele><time>2020-12-26T11:37:50Z</time><name>PT2588</name></trkpt>
<trkpt lat="52.042054" lon="05.778812"><ele>40.4</ele><time>2020-12-26T11:37:51Z</time><name>PT2589</name></trkpt>
<trkpt lat="52.042071" lon="05.778798"><ele>40.3</ele><time>2020-12-26T11:37:52Z</time><name>PT2590</name></trkpt>
<trkpt lat="52.042083" lon="05.778786"><ele>40.3</ele><time>2020-12-26T11:37:53Z</time><name>PT2591</name></trkpt>
<trkpt lat="52.042094" lon="05.778774"><ele>40.4</ele><time>2020-12-26T11:37:54Z</time><name>PT2592</name></trkpt>
<trkpt lat="52.042099" lon="05.778759"><ele>40.5</ele><time>2020-12-26T11:37:55Z</time><name>PT2593</name></trkpt>
<trkpt lat="52.042111" lon="05.778753"><ele>40.7</ele><time>2020-12-26T11:37:56Z</time><name>PT2594</name></trkpt>
<trkpt lat="52.042108" lon="05.778756"><ele>40.5</ele><time>2020-12-26T11:37:57Z</time><name>PT2595</name></trkpt>
<trkpt lat="52.042100" lon="05.778757"><ele>40.6</ele><time>2020-12-26T11:37:58Z</time><name>PT2596</name></trkpt>
<trkpt lat="52.042111" lon="05.778748"><ele>40.4</ele><time>2020-12-26T11:37:59Z</time><name>PT2597</name></trkpt>
<trkpt lat="52.042119" lon="05.778740"><ele>40.3</ele><time>2020-12-26T11:38:00Z</time><name>PT2598</name></trkpt>
<trkpt lat="52.042131" lon="05.778733"><ele>40.4</ele><time>2020-12-26T11:38:01Z</time><name>PT2599</name></trkpt>
<trkpt lat="52.042141" lon="05.778722"><ele>40.4</ele><time>2020-12-26T11:38:02Z</time><name>PT2600</name></trkpt>
<trkpt lat="52.042159" lon="05.778704"><ele>40.5</ele><time>2020-12-26T11:38:03Z</time><name>PT2601</name></trkpt>
<trkpt lat="52.042172" lon="05.778689"><ele>40.5</ele><time>2020-12-26T11:38:04Z</time><name>PT2602</name></trkpt>
<trkpt lat="52.042183" lon="05.778674"><ele>40.4</ele><time>2020-12-26T11:38:05Z</time><name>PT2603</name></trkpt>
<trkpt lat="52.042199" lon="05.778663"><ele>40.5</ele><time>2020-12-26T11:38:06Z</time><name>PT2604</name></trkpt>
<trkpt lat="52.042205" lon="05.778659"><ele>40.6</ele><time>2020-12-26T11:38:07Z</time><name>PT2605</name></trkpt>
<trkpt lat="52.042209" lon="05.778647"><ele>40.6</ele><time>2020-12-26T11:38:08Z</time><name>PT2606</name></trkpt>
<trkpt lat="52.042217" lon="05.778638"><ele>40.7</ele><time>2020-12-26T11:38:09Z</time><name>PT2607</name></trkpt>
<trkpt lat="52.042235" lon="05.778625"><ele>40.6</ele><time>2020-12-26T11:38:10Z</time><name>PT2608</name></trkpt>
<trkpt lat="52.042242" lon="05.778614"><ele>40.8</ele><time>2020-12-26T11:38:11Z</time><name>PT2609</name></trkpt>
<trkpt lat="52.042246" lon="05.778602"><ele>40.9</ele><time>2020-12-26T11:38:12Z</time><name>PT2610</name></trkpt>
<trkpt lat="52.042254" lon="05.778589"><ele>40.9</ele><time>2020-12-26T11:38:13Z</time><name>PT2611</name></trkpt>
<trkpt lat="52.042262" lon="05.778577"><ele>40.9</ele><time>2020-12-26T11:38:14Z</time><name>PT2612</name></trkpt>
<trkpt lat="52.042273" lon="05.778569"><ele>41</ele><time>2020-12-26T11:38:15Z</time><name>PT2613</name></trkpt>
<trkpt lat="52.042284" lon="05.778558"><ele>41.1</ele><time>2020-12-26T11:38:16Z</time><name>PT2614</name></trkpt>
<trkpt lat="52.042302" lon="05.778544"><ele>41</ele><time>2020-12-26T11:38:17Z</time><name>PT2615</name></trkpt>
<trkpt lat="52.042316" lon="05.778536"><ele>41.1</ele><time>2020-12-26T11:38:18Z</time><name>PT2616</name></trkpt>
<trkpt lat="52.042332" lon="05.778528"><ele>41.1</ele><time>2020-12-26T11:38:19Z</time><name>PT2617</name></trkpt>
<trkpt lat="52.042341" lon="05.778518"><ele>41.1</ele><time>2020-12-26T11:38:20Z</time><name>PT2618</name></trkpt>
<trkpt lat="52.042348" lon="05.778512"><ele>41.3</ele><time>2020-12-26T11:38:21Z</time><name>PT2619</name></trkpt>
<trkpt lat="52.042354" lon="05.778502"><ele>41.4</ele><time>2020-12-26T11:38:22Z</time><name>PT2620</name></trkpt>
<trkpt lat="52.042366" lon="05.778492"><ele>41.4</ele><time>2020-12-26T11:38:22Z</time><name>PT2621</name></trkpt>
<trkpt lat="52.042376" lon="05.778479"><ele>41.4</ele><time>2020-12-26T11:38:24Z</time><name>PT2622</name></trkpt>
<trkpt lat="52.042399" lon="05.778471"><ele>41.4</ele><time>2020-12-26T11:38:25Z</time><name>PT2623</name></trkpt>
<trkpt lat="52.042416" lon="05.778457"><ele>41.6</ele><time>2020-12-26T11:38:26Z</time><name>PT2624</name></trkpt>
<trkpt lat="52.042432" lon="05.778447"><ele>41.6</ele><time>2020-12-26T11:38:27Z</time><name>PT2625</name></trkpt>
<trkpt lat="52.042442" lon="05.778438"><ele>41.8</ele><time>2020-12-26T11:38:28Z</time><name>PT2626</name></trkpt>
<trkpt lat="52.042455" lon="05.778432"><ele>41.8</ele><time>2020-12-26T11:38:29Z</time><name>PT2627</name></trkpt>
<trkpt lat="52.042472" lon="05.778423"><ele>41.7</ele><time>2020-12-26T11:38:30Z</time><name>PT2628</name></trkpt>
<trkpt lat="52.042486" lon="05.778411"><ele>41.8</ele><time>2020-12-26T11:38:31Z</time><name>PT2629</name></trkpt>
<trkpt lat="52.042500" lon="05.778399"><ele>41.7</ele><time>2020-12-26T11:38:32Z</time><name>PT2630</name></trkpt>
<trkpt lat="52.042508" lon="05.778388"><ele>41.6</ele><time>2020-12-26T11:38:33Z</time><name>PT2631</name></trkpt>
<trkpt lat="52.042522" lon="05.778381"><ele>41.8</ele><time>2020-12-26T11:38:34Z</time><name>PT2632</name></trkpt>
<trkpt lat="52.042535" lon="05.778371"><ele>41.6</ele><time>2020-12-26T11:38:35Z</time><name>PT2633</name></trkpt>
<trkpt lat="52.042547" lon="05.778360"><ele>41.7</ele><time>2020-12-26T11:38:36Z</time><name>PT2634</name></trkpt>
<trkpt lat="52.042560" lon="05.778354"><ele>41.7</ele><time>2020-12-26T11:38:37Z</time><name>PT2635</name></trkpt>
<trkpt lat="52.042573" lon="05.778344"><ele>41.8</ele><time>2020-12-26T11:38:38Z</time><name>PT2636</name></trkpt>
<trkpt lat="52.042582" lon="05.778331"><ele>41.8</ele><time>2020-12-26T11:38:39Z</time><name>PT2637</name></trkpt>
<trkpt lat="52.042587" lon="05.778317"><ele>41.8</ele><time>2020-12-26T11:38:40Z</time><name>PT2638</name></trkpt>
<trkpt lat="52.042593" lon="05.778303"><ele>41.8</ele><time>2020-12-26T11:38:41Z</time><name>PT2639</name></trkpt>
<trkpt lat="52.042605" lon="05.778294"><ele>41.8</ele><time>2020-12-26T11:38:42Z</time><name>PT2640</name></trkpt>
<trkpt lat="52.042613" lon="05.778286"><ele>41.7</ele><time>2020-12-26T11:38:43Z</time><name>PT2641</name></trkpt>
<trkpt lat="52.042621" lon="05.778275"><ele>41.7</ele><time>2020-12-26T11:38:44Z</time><name>PT2642</name></trkpt>
<trkpt lat="52.042635" lon="05.778268"><ele>41.9</ele><time>2020-12-26T11:38:45Z</time><name>PT2643</name></trkpt>
<trkpt lat="52.042639" lon="05.778258"><ele>41.8</ele><time>2020-12-26T11:38:46Z</time><name>PT2644</name></trkpt>
<trkpt lat="52.042649" lon="05.778242"><ele>41.9</ele><time>2020-12-26T11:38:46Z</time><name>PT2645</name></trkpt>
<trkpt lat="52.042659" lon="05.778235"><ele>42</ele><time>2020-12-26T11:38:48Z</time><name>PT2646</name></trkpt>
<trkpt lat="52.042672" lon="05.778222"><ele>42</ele><time>2020-12-26T11:38:49Z</time><name>PT2647</name></trkpt>
<trkpt lat="52.042675" lon="05.778217"><ele>42</ele><time>2020-12-26T11:38:50Z</time><name>PT2648</name></trkpt>
<trkpt lat="52.042682" lon="05.778209"><ele>41.9</ele><time>2020-12-26T11:38:51Z</time><name>PT2649</name></trkpt>
<trkpt lat="52.042689" lon="05.778200"><ele>41.8</ele><time>2020-12-26T11:38:52Z</time><name>PT2650</name></trkpt>
<trkpt lat="52.042698" lon="05.778189"><ele>41.9</ele><time>2020-12-26T11:38:53Z</time><name>PT2651</name></trkpt>
<trkpt lat="52.042708" lon="05.778181"><ele>42.1</ele><time>2020-12-26T11:38:54Z</time><name>PT2652</name></trkpt>
<trkpt lat="52.042721" lon="05.778171"><ele>42.3</ele><time>2020-12-26T11:38:55Z</time><name>PT2653</name></trkpt>
<trkpt lat="52.042728" lon="05.778164"><ele>42.3</ele><time>2020-12-26T11:38:56Z</time><name>PT2654</name></trkpt>
<trkpt lat="52.042736" lon="05.778162"><ele>42.3</ele><time>2020-12-26T11:38:57Z</time><name>PT2655</name></trkpt>
<trkpt lat="52.042746" lon="05.778157"><ele>42.2</ele><time>2020-12-26T11:38:58Z</time><name>PT2656</name></trkpt>
<trkpt lat="52.042760" lon="05.778144"><ele>42.1</ele><time>2020-12-26T11:38:59Z</time><name>PT2657</name></trkpt>
<trkpt lat="52.042773" lon="05.778134"><ele>42.3</ele><time>2020-12-26T11:39:00Z</time><name>PT2658</name></trkpt>
<trkpt lat="52.042785" lon="05.778130"><ele>42.3</ele><time>2020-12-26T11:39:01Z</time><name>PT2659</name></trkpt>
<trkpt lat="52.042794" lon="05.778124"><ele>42.5</ele><time>2020-12-26T11:39:02Z</time><name>PT2660</name></trkpt>
<trkpt lat="52.042806" lon="05.778115"><ele>42.5</ele><time>2020-12-26T11:39:03Z</time><name>PT2661</name></trkpt>
<trkpt lat="52.042812" lon="05.778113"><ele>42.3</ele><time>2020-12-26T11:39:04Z</time><name>PT2662</name></trkpt>
<trkpt lat="52.042825" lon="05.778097"><ele>42.4</ele><time>2020-12-26T11:39:05Z</time><name>PT2663</name></trkpt>
<trkpt lat="52.042834" lon="05.778089"><ele>42.4</ele><time>2020-12-26T11:39:06Z</time><name>PT2664</name></trkpt>
<trkpt lat="52.042844" lon="05.778080"><ele>42.4</ele><time>2020-12-26T11:39:07Z</time><name>PT2665</name></trkpt>
<trkpt lat="52.042853" lon="05.778070"><ele>42.4</ele><time>2020-12-26T11:39:08Z</time><name>PT2666</name></trkpt>
<trkpt lat="52.042859" lon="05.778059"><ele>42.3</ele><time>2020-12-26T11:39:09Z</time><name>PT2667</name></trkpt>
<trkpt lat="52.042868" lon="05.778048"><ele>42.3</ele><time>2020-12-26T11:39:10Z</time><name>PT2668</name></trkpt>
<trkpt lat="52.042881" lon="05.778046"><ele>42.2</ele><time>2020-12-26T11:39:11Z</time><name>PT2669</name></trkpt>
<trkpt lat="52.042891" lon="05.778039"><ele>42.1</ele><time>2020-12-26T11:39:12Z</time><name>PT2670</name></trkpt>
<trkpt lat="52.042897" lon="05.778029"><ele>42.1</ele><time>2020-12-26T11:39:13Z</time><name>PT2671</name></trkpt>
<trkpt lat="52.042911" lon="05.778019"><ele>42</ele><time>2020-12-26T11:39:14Z</time><name>PT2672</name></trkpt>
<trkpt lat="52.042922" lon="05.778003"><ele>41.9</ele><time>2020-12-26T11:39:15Z</time><name>PT2673</name></trkpt>
<trkpt lat="52.042939" lon="05.777991"><ele>42</ele><time>2020-12-26T11:39:16Z</time><name>PT2674</name></trkpt>
<trkpt lat="52.042954" lon="05.777975"><ele>42</ele><time>2020-12-26T11:39:17Z</time><name>PT2675</name></trkpt>
<trkpt lat="52.042965" lon="05.777965"><ele>41.9</ele><time>2020-12-26T11:39:18Z</time><name>PT2676</name></trkpt>
<trkpt lat="52.042974" lon="05.777953"><ele>42.2</ele><time>2020-12-26T11:39:19Z</time><name>PT2677</name></trkpt>
<trkpt lat="52.042984" lon="05.777940"><ele>42.2</ele><time>2020-12-26T11:39:20Z</time><name>PT2678</name></trkpt>
<trkpt lat="52.042998" lon="05.777930"><ele>42.1</ele><time>2020-12-26T11:39:21Z</time><name>PT2679</name></trkpt>
<trkpt lat="52.043010" lon="05.777923"><ele>42</ele><time>2020-12-26T11:39:22Z</time><name>PT2680</name></trkpt>
<trkpt lat="52.043019" lon="05.777918"><ele>42</ele><time>2020-12-26T11:39:23Z</time><name>PT2681</name></trkpt>
<trkpt lat="52.043026" lon="05.777917"><ele>42</ele><time>2020-12-26T11:39:24Z</time><name>PT2682</name></trkpt>
<trkpt lat="52.043041" lon="05.777903"><ele>41.8</ele><time>2020-12-26T11:39:25Z</time><name>PT2683</name></trkpt>
<trkpt lat="52.043049" lon="05.777896"><ele>41.8</ele><time>2020-12-26T11:39:26Z</time><name>PT2684</name></trkpt>
<trkpt lat="52.043070" lon="05.777885"><ele>41.7</ele><time>2020-12-26T11:39:27Z</time><name>PT2685</name></trkpt>
<trkpt lat="52.043084" lon="05.777868"><ele>41.6</ele><time>2020-12-26T11:39:28Z</time><name>PT2686</name></trkpt>
<trkpt lat="52.043094" lon="05.777858"><ele>41.6</ele><time>2020-12-26T11:39:29Z</time><name>PT2687</name></trkpt>
<trkpt lat="52.043104" lon="05.777849"><ele>41.6</ele><time>2020-12-26T11:39:30Z</time><name>PT2688</name></trkpt>
<trkpt lat="52.043117" lon="05.777838"><ele>41.8</ele><time>2020-12-26T11:39:31Z</time><name>PT2689</name></trkpt>
<trkpt lat="52.043128" lon="05.777829"><ele>41.6</ele><time>2020-12-26T11:39:32Z</time><name>PT2690</name></trkpt>
<trkpt lat="52.043138" lon="05.777820"><ele>41.7</ele><time>2020-12-26T11:39:33Z</time><name>PT2691</name></trkpt>
<trkpt lat="52.043149" lon="05.777808"><ele>41.8</ele><time>2020-12-26T11:39:34Z</time><name>PT2692</name></trkpt>
<trkpt lat="52.043159" lon="05.777803"><ele>41.7</ele><time>2020-12-26T11:39:35Z</time><name>PT2693</name></trkpt>
<trkpt lat="52.043167" lon="05.777796"><ele>41.6</ele><time>2020-12-26T11:39:36Z</time><name>PT2694</name></trkpt>
<trkpt lat="52.043176" lon="05.777780"><ele>41.5</ele><time>2020-12-26T11:39:37Z</time><name>PT2695</name></trkpt>
<trkpt lat="52.043183" lon="05.777761"><ele>41.5</ele><time>2020-12-26T11:39:38Z</time><name>PT2696</name></trkpt>
<trkpt lat="52.043195" lon="05.777733"><ele>41.6</ele><time>2020-12-26T11:39:39Z</time><name>PT2697</name></trkpt>
<trkpt lat="52.043207" lon="05.777713"><ele>41.8</ele><time>2020-12-26T11:39:40Z</time><name>PT2698</name></trkpt>
<trkpt lat="52.043210" lon="05.777701"><ele>41.9</ele><time>2020-12-26T11:39:41Z</time><name>PT2699</name></trkpt>
<trkpt lat="52.043212" lon="05.777691"><ele>42</ele><time>2020-12-26T11:39:42Z</time><name>PT2700</name></trkpt>
<trkpt lat="52.043220" lon="05.777683"><ele>42.1</ele><time>2020-12-26T11:39:43Z</time><name>PT2701</name></trkpt>
<trkpt lat="52.043233" lon="05.777673"><ele>42.1</ele><time>2020-12-26T11:39:44Z</time><name>PT2702</name></trkpt>
<trkpt lat="52.043247" lon="05.777665"><ele>42.2</ele><time>2020-12-26T11:39:45Z</time><name>PT2703</name></trkpt>
<trkpt lat="52.043262" lon="05.777651"><ele>42.3</ele><time>2020-12-26T11:39:46Z</time><name>PT2704</name></trkpt>
<trkpt lat="52.043273" lon="05.777638"><ele>42.3</ele><time>2020-12-26T11:39:47Z</time><name>PT2705</name></trkpt>
<trkpt lat="52.043282" lon="05.777627"><ele>42.2</ele><time>2020-12-26T11:39:48Z</time><name>PT2706</name></trkpt>
<trkpt lat="52.043287" lon="05.777611"><ele>42.3</ele><time>2020-12-26T11:39:49Z</time><name>PT2707</name></trkpt>
<trkpt lat="52.043301" lon="05.777601"><ele>42.3</ele><time>2020-12-26T11:39:50Z</time><name>PT2708</name></trkpt>
<trkpt lat="52.043311" lon="05.777589"><ele>42.2</ele><time>2020-12-26T11:39:51Z</time><name>PT2709</name></trkpt>
<trkpt lat="52.043326" lon="05.777577"><ele>42.4</ele><time>2020-12-26T11:39:52Z</time><name>PT2710</name></trkpt>
<trkpt lat="52.043338" lon="05.777564"><ele>42.4</ele><time>2020-12-26T11:39:53Z</time><name>PT2711</name></trkpt>
<trkpt lat="52.043351" lon="05.777554"><ele>42.4</ele><time>2020-12-26T11:39:54Z</time><name>PT2712</name></trkpt>
<trkpt lat="52.043364" lon="05.777547"><ele>42.5</ele><time>2020-12-26T11:39:55Z</time><name>PT2713</name></trkpt>
<trkpt lat="52.043378" lon="05.777535"><ele>42.3</ele><time>2020-12-26T11:39:56Z</time><name>PT2714</name></trkpt>
<trkpt lat="52.043391" lon="05.777528"><ele>42.3</ele><time>2020-12-26T11:39:57Z</time><name>PT2715</name></trkpt>
<trkpt lat="52.043399" lon="05.777519"><ele>42.4</ele><time>2020-12-26T11:39:58Z</time><name>PT2716</name></trkpt>
<trkpt lat="52.043404" lon="05.777506"><ele>42.7</ele><time>2020-12-26T11:39:59Z</time><name>PT2717</name></trkpt>
<trkpt lat="52.043408" lon="05.777500"><ele>42.7</ele><time>2020-12-26T11:40:00Z</time><name>PT2718</name></trkpt>
<trkpt lat="52.043410" lon="05.777494"><ele>42.9</ele><time>2020-12-26T11:40:01Z</time><name>PT2719</name></trkpt>
<trkpt lat="52.043416" lon="05.777490"><ele>42.8</ele><time>2020-12-26T11:40:02Z</time><name>PT2720</name></trkpt>
<trkpt lat="52.043421" lon="05.777471"><ele>42.8</ele><time>2020-12-26T11:40:06Z</time><name>PT2721</name></trkpt>
<trkpt lat="52.043427" lon="05.777454"><ele>42.7</ele><time>2020-12-26T11:40:07Z</time><name>PT2722</name></trkpt>
<trkpt lat="52.043437" lon="05.777439"><ele>42.7</ele><time>2020-12-26T11:40:08Z</time><name>PT2723</name></trkpt>
<trkpt lat="52.043450" lon="05.777430"><ele>42.5</ele><time>2020-12-26T11:40:09Z</time><name>PT2724</name></trkpt>
<trkpt lat="52.043462" lon="05.777422"><ele>42.6</ele><time>2020-12-26T11:40:10Z</time><name>PT2725</name></trkpt>
<trkpt lat="52.043467" lon="05.777416"><ele>42.6</ele><time>2020-12-26T11:40:11Z</time><name>PT2726</name></trkpt>
<trkpt lat="52.043473" lon="05.777406"><ele>42.6</ele><time>2020-12-26T11:40:12Z</time><name>PT2727</name></trkpt>
<trkpt lat="52.043478" lon="05.777399"><ele>42.6</ele><time>2020-12-26T11:40:13Z</time><name>PT2728</name></trkpt>
<trkpt lat="52.043483" lon="05.777393"><ele>42.5</ele><time>2020-12-26T11:40:14Z</time><name>PT2729</name></trkpt>
<trkpt lat="52.043486" lon="05.777389"><ele>42.3</ele><time>2020-12-26T11:40:15Z</time><name>PT2730</name></trkpt>
<trkpt lat="52.043489" lon="05.777384"><ele>42.1</ele><time>2020-12-26T11:40:16Z</time><name>PT2731</name></trkpt>
<trkpt lat="52.043496" lon="05.777378"><ele>42.8</ele><time>2020-12-26T11:40:25Z</time><name>PT2732</name></trkpt>
<trkpt lat="52.043500" lon="05.777375"><ele>42.8</ele><time>2020-12-26T11:40:26Z</time><name>PT2733</name></trkpt>
<trkpt lat="52.043509" lon="05.777367"><ele>42.8</ele><time>2020-12-26T11:40:27Z</time><name>PT2734</name></trkpt>
<trkpt lat="52.043515" lon="05.777363"><ele>42.8</ele><time>2020-12-26T11:40:28Z</time><name>PT2735</name></trkpt>
<trkpt lat="52.043524" lon="05.777361"><ele>42.6</ele><time>2020-12-26T11:40:29Z</time><name>PT2736</name></trkpt>
<trkpt lat="52.043528" lon="05.777358"><ele>42.4</ele><time>2020-12-26T11:40:30Z</time><name>PT2737</name></trkpt>
<trkpt lat="52.043533" lon="05.777349"><ele>42.6</ele><time>2020-12-26T11:40:31Z</time><name>PT2738</name></trkpt>
<trkpt lat="52.043539" lon="05.777348"><ele>42.7</ele><time>2020-12-26T11:40:32Z</time><name>PT2739</name></trkpt>
<trkpt lat="52.043549" lon="05.777344"><ele>42.7</ele><time>2020-12-26T11:40:33Z</time><name>PT2740</name></trkpt>
<trkpt lat="52.043553" lon="05.777328"><ele>42.8</ele><time>2020-12-26T11:41:01Z</time><name>PT2741</name></trkpt>
<trkpt lat="52.043562" lon="05.777316"><ele>42.8</ele><time>2020-12-26T11:41:02Z</time><name>PT2742</name></trkpt>
<trkpt lat="52.043570" lon="05.777306"><ele>42.8</ele><time>2020-12-26T11:41:03Z</time><name>PT2743</name></trkpt>
<trkpt lat="52.043577" lon="05.777295"><ele>42.9</ele><time>2020-12-26T11:41:04Z</time><name>PT2744</name></trkpt>
<trkpt lat="52.043581" lon="05.777286"><ele>43</ele><time>2020-12-26T11:41:05Z</time><name>PT2745</name></trkpt>
<trkpt lat="52.043584" lon="05.777280"><ele>42.9</ele><time>2020-12-26T11:41:06Z</time><name>PT2746</name></trkpt>
<trkpt lat="52.043585" lon="05.777274"><ele>42.9</ele><time>2020-12-26T11:41:07Z</time><name>PT2747</name></trkpt>
<trkpt lat="52.043589" lon="05.777270"><ele>42.9</ele><time>2020-12-26T11:41:08Z</time><name>PT2748</name></trkpt>
<trkpt lat="52.043592" lon="05.777264"><ele>42.8</ele><time>2020-12-26T11:41:09Z</time><name>PT2749</name></trkpt>
<trkpt lat="52.043599" lon="05.777260"><ele>42.9</ele><time>2020-12-26T11:41:10Z</time><name>PT2750</name></trkpt>
<trkpt lat="52.043603" lon="05.777259"><ele>42.9</ele><time>2020-12-26T11:41:11Z</time><name>PT2751</name></trkpt>
<trkpt lat="52.043607" lon="05.777249"><ele>42.8</ele><time>2020-12-26T11:41:12Z</time><name>PT2752</name></trkpt>
<trkpt lat="52.043606" lon="05.777242"><ele>42.8</ele><time>2020-12-26T11:41:13Z</time><name>PT2753</name></trkpt>
<trkpt lat="52.043607" lon="05.777242"><ele>42.8</ele><time>2020-12-26T11:41:14Z</time><name>PT2754</name></trkpt>
<trkpt lat="52.043607" lon="05.777240"><ele>42.7</ele><time>2020-12-26T11:41:15Z</time><name>PT2755</name></trkpt>
<trkpt lat="52.043608" lon="05.777239"><ele>42.7</ele><time>2020-12-26T11:41:16Z</time><name>PT2756</name></trkpt>
<trkpt lat="52.043607" lon="05.777236"><ele>42.6</ele><time>2020-12-26T11:41:17Z</time><name>PT2757</name></trkpt>
<trkpt lat="52.043612" lon="05.777240"><ele>43</ele><time>2020-12-26T11:41:53Z</time><name>PT2758</name></trkpt>
<trkpt lat="52.043624" lon="05.777246"><ele>43.2</ele><time>2020-12-26T11:41:54Z</time><name>PT2759</name></trkpt>
<trkpt lat="52.043634" lon="05.777250"><ele>43.3</ele><time>2020-12-26T11:41:55Z</time><name>PT2760</name></trkpt>
<trkpt lat="52.043643" lon="05.777259"><ele>43.3</ele><time>2020-12-26T11:41:56Z</time><name>PT2761</name></trkpt>
<trkpt lat="52.043657" lon="05.777277"><ele>43.5</ele><time>2020-12-26T11:41:57Z</time><name>PT2762</name></trkpt>
<trkpt lat="52.043668" lon="05.777290"><ele>43.5</ele><time>2020-12-26T11:41:58Z</time><name>PT2763</name></trkpt>
<trkpt lat="52.043680" lon="05.777300"><ele>43.4</ele><time>2020-12-26T11:41:59Z</time><name>PT2764</name></trkpt>
<trkpt lat="52.043689" lon="05.777307"><ele>43.4</ele><time>2020-12-26T11:42:00Z</time><name>PT2765</name></trkpt>
<trkpt lat="52.043701" lon="05.777317"><ele>43.2</ele><time>2020-12-26T11:42:01Z</time><name>PT2766</name></trkpt>
<trkpt lat="52.043709" lon="05.777328"><ele>43.1</ele><time>2020-12-26T11:42:02Z</time><name>PT2767</name></trkpt>
<trkpt lat="52.043717" lon="05.777341"><ele>43.2</ele><time>2020-12-26T11:42:03Z</time><name>PT2768</name></trkpt>
<trkpt lat="52.043724" lon="05.777352"><ele>43.1</ele><time>2020-12-26T11:42:04Z</time><name>PT2769</name></trkpt>
<trkpt lat="52.043726" lon="05.777366"><ele>43.3</ele><time>2020-12-26T11:42:05Z</time><name>PT2770</name></trkpt>
<trkpt lat="52.043731" lon="05.777376"><ele>43.2</ele><time>2020-12-26T11:42:06Z</time><name>PT2771</name></trkpt>
<trkpt lat="52.043734" lon="05.777391"><ele>43.3</ele><time>2020-12-26T11:42:07Z</time><name>PT2772</name></trkpt>
<trkpt lat="52.043742" lon="05.777409"><ele>43.1</ele><time>2020-12-26T11:42:08Z</time><name>PT2773</name></trkpt>
<trkpt lat="52.043748" lon="05.777424"><ele>43</ele><time>2020-12-26T11:42:09Z</time><name>PT2774</name></trkpt>
<trkpt lat="52.043753" lon="05.777437"><ele>43.2</ele><time>2020-12-26T11:42:10Z</time><name>PT2775</name></trkpt>
<trkpt lat="52.043756" lon="05.777451"><ele>43.2</ele><time>2020-12-26T11:42:11Z</time><name>PT2776</name></trkpt>
<trkpt lat="52.043764" lon="05.777465"><ele>43.2</ele><time>2020-12-26T11:42:12Z</time><name>PT2777</name></trkpt>
<trkpt lat="52.043768" lon="05.777482"><ele>43.3</ele><time>2020-12-26T11:42:13Z</time><name>PT2778</name></trkpt>
<trkpt lat="52.043771" lon="05.777499"><ele>43.2</ele><time>2020-12-26T11:42:14Z</time><name>PT2779</name></trkpt>
<trkpt lat="52.043774" lon="05.777511"><ele>43.1</ele><time>2020-12-26T11:42:15Z</time><name>PT2780</name></trkpt>
<trkpt lat="52.043780" lon="05.777524"><ele>43.2</ele><time>2020-12-26T11:42:16Z</time><name>PT2781</name></trkpt>
<trkpt lat="52.043785" lon="05.777539"><ele>43.3</ele><time>2020-12-26T11:42:17Z</time><name>PT2782</name></trkpt>
<trkpt lat="52.043788" lon="05.777556"><ele>43.5</ele><time>2020-12-26T11:42:18Z</time><name>PT2783</name></trkpt>
<trkpt lat="52.043793" lon="05.777573"><ele>43.7</ele><time>2020-12-26T11:42:19Z</time><name>PT2784</name></trkpt>
<trkpt lat="52.043794" lon="05.777594"><ele>43.6</ele><time>2020-12-26T11:42:20Z</time><name>PT2785</name></trkpt>
<trkpt lat="52.043795" lon="05.777612"><ele>43.4</ele><time>2020-12-26T11:42:21Z</time><name>PT2786</name></trkpt>
<trkpt lat="52.043797" lon="05.777627"><ele>43.4</ele><time>2020-12-26T11:42:22Z</time><name>PT2787</name></trkpt>
<trkpt lat="52.043794" lon="05.777636"><ele>43.3</ele><time>2020-12-26T11:42:23Z</time><name>PT2788</name></trkpt>
<trkpt lat="52.043795" lon="05.777647"><ele>43.3</ele><time>2020-12-26T11:42:24Z</time><name>PT2789</name></trkpt>
<trkpt lat="52.043801" lon="05.777662"><ele>43.4</ele><time>2020-12-26T11:42:25Z</time><name>PT2790</name></trkpt>
<trkpt lat="52.043804" lon="05.777679"><ele>43.4</ele><time>2020-12-26T11:42:25Z</time><name>PT2791</name></trkpt>
<trkpt lat="52.043807" lon="05.777694"><ele>43.6</ele><time>2020-12-26T11:42:27Z</time><name>PT2792</name></trkpt>
<trkpt lat="52.043806" lon="05.777707"><ele>43.7</ele><time>2020-12-26T11:42:28Z</time><name>PT2793</name></trkpt>
<trkpt lat="52.043808" lon="05.777721"><ele>43.6</ele><time>2020-12-26T11:42:29Z</time><name>PT2794</name></trkpt>
<trkpt lat="52.043808" lon="05.777734"><ele>43.6</ele><time>2020-12-26T11:42:30Z</time><name>PT2795</name></trkpt>
<trkpt lat="52.043807" lon="05.777743"><ele>43.7</ele><time>2020-12-26T11:42:31Z</time><name>PT2796</name></trkpt>
<trkpt lat="52.043816" lon="05.777757"><ele>43.6</ele><time>2020-12-26T11:42:32Z</time><name>PT2797</name></trkpt>
<trkpt lat="52.043820" lon="05.777766"><ele>43.7</ele><time>2020-12-26T11:42:33Z</time><name>PT2798</name></trkpt>
<trkpt lat="52.043823" lon="05.777779"><ele>43.7</ele><time>2020-12-26T11:42:34Z</time><name>PT2799</name></trkpt>
<trkpt lat="52.043834" lon="05.777801"><ele>43.8</ele><time>2020-12-26T11:42:35Z</time><name>PT2800</name></trkpt>
<trkpt lat="52.043838" lon="05.777811"><ele>43.7</ele><time>2020-12-26T11:42:36Z</time><name>PT2801</name></trkpt>
<trkpt lat="52.043838" lon="05.777826"><ele>43.9</ele><time>2020-12-26T11:42:37Z</time><name>PT2802</name></trkpt>
<trkpt lat="52.043842" lon="05.777848"><ele>44</ele><time>2020-12-26T11:42:38Z</time><name>PT2803</name></trkpt>
<trkpt lat="52.043843" lon="05.777865"><ele>43.8</ele><time>2020-12-26T11:42:39Z</time><name>PT2804</name></trkpt>
<trkpt lat="52.043849" lon="05.777888"><ele>43.9</ele><time>2020-12-26T11:42:40Z</time><name>PT2805</name></trkpt>
<trkpt lat="52.043855" lon="05.777903"><ele>43.8</ele><time>2020-12-26T11:42:41Z</time><name>PT2806</name></trkpt>
<trkpt lat="52.043859" lon="05.777921"><ele>43.8</ele><time>2020-12-26T11:42:42Z</time><name>PT2807</name></trkpt>
<trkpt lat="52.043864" lon="05.777933"><ele>43.7</ele><time>2020-12-26T11:42:43Z</time><name>PT2808</name></trkpt>
<trkpt lat="52.043863" lon="05.777956"><ele>43.7</ele><time>2020-12-26T11:42:44Z</time><name>PT2809</name></trkpt>
<trkpt lat="52.043866" lon="05.777974"><ele>43.6</ele><time>2020-12-26T11:42:45Z</time><name>PT2810</name></trkpt>
<trkpt lat="52.043867" lon="05.777995"><ele>43.6</ele><time>2020-12-26T11:42:46Z</time><name>PT2811</name></trkpt>
<trkpt lat="52.043869" lon="05.778012"><ele>43.6</ele><time>2020-12-26T11:42:47Z</time><name>PT2812</name></trkpt>
<trkpt lat="52.043873" lon="05.778031"><ele>43.6</ele><time>2020-12-26T11:42:48Z</time><name>PT2813</name></trkpt>
<trkpt lat="52.043874" lon="05.778044"><ele>43.7</ele><time>2020-12-26T11:42:49Z</time><name>PT2814</name></trkpt>
<trkpt lat="52.043876" lon="05.778062"><ele>43.8</ele><time>2020-12-26T11:42:50Z</time><name>PT2815</name></trkpt>
<trkpt lat="52.043876" lon="05.778078"><ele>44</ele><time>2020-12-26T11:42:51Z</time><name>PT2816</name></trkpt>
<trkpt lat="52.043877" lon="05.778092"><ele>43.9</ele><time>2020-12-26T11:42:52Z</time><name>PT2817</name></trkpt>
<trkpt lat="52.043881" lon="05.778118"><ele>43.8</ele><time>2020-12-26T11:42:53Z</time><name>PT2818</name></trkpt>
<trkpt lat="52.043888" lon="05.778137"><ele>43.9</ele><time>2020-12-26T11:42:54Z</time><name>PT2819</name></trkpt>
<trkpt lat="52.043894" lon="05.778150"><ele>43.8</ele><time>2020-12-26T11:42:55Z</time><name>PT2820</name></trkpt>
<trkpt lat="52.043897" lon="05.778166"><ele>44</ele><time>2020-12-26T11:42:56Z</time><name>PT2821</name></trkpt>
<trkpt lat="52.043898" lon="05.778181"><ele>44</ele><time>2020-12-26T11:42:57Z</time><name>PT2822</name></trkpt>
<trkpt lat="52.043902" lon="05.778205"><ele>44.2</ele><time>2020-12-26T11:42:58Z</time><name>PT2823</name></trkpt>
<trkpt lat="52.043907" lon="05.778227"><ele>44.3</ele><time>2020-12-26T11:42:59Z</time><name>PT2824</name></trkpt>
<trkpt lat="52.043908" lon="05.778246"><ele>44.3</ele><time>2020-12-26T11:43:00Z</time><name>PT2825</name></trkpt>
<trkpt lat="52.043912" lon="05.778261"><ele>44.5</ele><time>2020-12-26T11:43:01Z</time><name>PT2826</name></trkpt>
<trkpt lat="52.043915" lon="05.778275"><ele>44.4</ele><time>2020-12-26T11:43:02Z</time><name>PT2827</name></trkpt>
<trkpt lat="52.043915" lon="05.778286"><ele>44.4</ele><time>2020-12-26T11:43:03Z</time><name>PT2828</name></trkpt>
<trkpt lat="52.043919" lon="05.778291"><ele>44.6</ele><time>2020-12-26T11:43:04Z</time><name>PT2829</name></trkpt>
<trkpt lat="52.043923" lon="05.778306"><ele>44.7</ele><time>2020-12-26T11:43:05Z</time><name>PT2830</name></trkpt>
<trkpt lat="52.043927" lon="05.778318"><ele>45</ele><time>2020-12-26T11:43:06Z</time><name>PT2831</name></trkpt>
<trkpt lat="52.043932" lon="05.778326"><ele>44.7</ele><time>2020-12-26T11:43:07Z</time><name>PT2832</name></trkpt>
<trkpt lat="52.043935" lon="05.778334"><ele>44.7</ele><time>2020-12-26T11:43:08Z</time><name>PT2833</name></trkpt>
<trkpt lat="52.043938" lon="05.778338"><ele>44.4</ele><time>2020-12-26T11:43:09Z</time><name>PT2834</name></trkpt>
<trkpt lat="52.043941" lon="05.778343"><ele>44.3</ele><time>2020-12-26T11:43:10Z</time><name>PT2835</name></trkpt>
<trkpt lat="52.043947" lon="05.778351"><ele>44.4</ele><time>2020-12-26T11:43:10Z</time><name>PT2836</name></trkpt>
<trkpt lat="52.043951" lon="05.778363"><ele>44.4</ele><time>2020-12-26T11:43:12Z</time><name>PT2837</name></trkpt>
<trkpt lat="52.043952" lon="05.778377"><ele>44.5</ele><time>2020-12-26T11:43:13Z</time><name>PT2838</name></trkpt>
<trkpt lat="52.043958" lon="05.778384"><ele>44.6</ele><time>2020-12-26T11:43:13Z</time><name>PT2839</name></trkpt>
<trkpt lat="52.043964" lon="05.778384"><ele>44.5</ele><time>2020-12-26T11:43:15Z</time><name>PT2840</name></trkpt>
<trkpt lat="52.043969" lon="05.778387"><ele>44.5</ele><time>2020-12-26T11:43:16Z</time><name>PT2841</name></trkpt>
<trkpt lat="52.043969" lon="05.778396"><ele>44.4</ele><time>2020-12-26T11:43:17Z</time><name>PT2842</name></trkpt>
<trkpt lat="52.043970" lon="05.778411"><ele>44.2</ele><time>2020-12-26T11:43:18Z</time><name>PT2843</name></trkpt>
<trkpt lat="52.043965" lon="05.778428"><ele>44.2</ele><time>2020-12-26T11:43:19Z</time><name>PT2844</name></trkpt>
<trkpt lat="52.043965" lon="05.778442"><ele>44.3</ele><time>2020-12-26T11:43:20Z</time><name>PT2845</name></trkpt>
<trkpt lat="52.043969" lon="05.778456"><ele>44.4</ele><time>2020-12-26T11:43:21Z</time><name>PT2846</name></trkpt>
<trkpt lat="52.043971" lon="05.778471"><ele>44.5</ele><time>2020-12-26T11:43:22Z</time><name>PT2847</name></trkpt>
<trkpt lat="52.043975" lon="05.778483"><ele>44.7</ele><time>2020-12-26T11:43:22Z</time><name>PT2848</name></trkpt>
<trkpt lat="52.043974" lon="05.778500"><ele>44.7</ele><time>2020-12-26T11:43:24Z</time><name>PT2849</name></trkpt>
<trkpt lat="52.043972" lon="05.778519"><ele>44.6</ele><time>2020-12-26T11:43:25Z</time><name>PT2850</name></trkpt>
<trkpt lat="52.043975" lon="05.778534"><ele>44.5</ele><time>2020-12-26T11:43:26Z</time><name>PT2851</name></trkpt>
<trkpt lat="52.043977" lon="05.778551"><ele>44.5</ele><time>2020-12-26T11:43:27Z</time><name>PT2852</name></trkpt>
<trkpt lat="52.043975" lon="05.778574"><ele>44.7</ele><time>2020-12-26T11:43:28Z</time><name>PT2853</name></trkpt>
<trkpt lat="52.043970" lon="05.778597"><ele>44.7</ele><time>2020-12-26T11:43:29Z</time><name>PT2854</name></trkpt>
<trkpt lat="52.043971" lon="05.778618"><ele>44.7</ele><time>2020-12-26T11:43:30Z</time><name>PT2855</name></trkpt>
<trkpt lat="52.043966" lon="05.778638"><ele>44.9</ele><time>2020-12-26T11:43:31Z</time><name>PT2856</name></trkpt>
<trkpt lat="52.043970" lon="05.778656"><ele>44.9</ele><time>2020-12-26T11:43:32Z</time><name>PT2857</name></trkpt>
<trkpt lat="52.043971" lon="05.778673"><ele>44.9</ele><time>2020-12-26T11:43:33Z</time><name>PT2858</name></trkpt>
<trkpt lat="52.043973" lon="05.778685"><ele>45</ele><time>2020-12-26T11:43:34Z</time><name>PT2859</name></trkpt>
<trkpt lat="52.043975" lon="05.778697"><ele>45</ele><time>2020-12-26T11:43:35Z</time><name>PT2860</name></trkpt>
<trkpt lat="52.043975" lon="05.778712"><ele>44.9</ele><time>2020-12-26T11:43:36Z</time><name>PT2861</name></trkpt>
<trkpt lat="52.043975" lon="05.778731"><ele>44.8</ele><time>2020-12-26T11:43:37Z</time><name>PT2862</name></trkpt>
<trkpt lat="52.043979" lon="05.778752"><ele>44.7</ele><time>2020-12-26T11:43:37Z</time><name>PT2863</name></trkpt>
<trkpt lat="52.043983" lon="05.778768"><ele>44.9</ele><time>2020-12-26T11:43:39Z</time><name>PT2864</name></trkpt>
<trkpt lat="52.043989" lon="05.778789"><ele>44.9</ele><time>2020-12-26T11:43:40Z</time><name>PT2865</name></trkpt>
<trkpt lat="52.043994" lon="05.778804"><ele>45.1</ele><time>2020-12-26T11:43:41Z</time><name>PT2866</name></trkpt>
<trkpt lat="52.043997" lon="05.778822"><ele>45</ele><time>2020-12-26T11:43:42Z</time><name>PT2867</name></trkpt>
<trkpt lat="52.044001" lon="05.778841"><ele>44.9</ele><time>2020-12-26T11:43:43Z</time><name>PT2868</name></trkpt>
<trkpt lat="52.044005" lon="05.778856"><ele>44.8</ele><time>2020-12-26T11:43:44Z</time><name>PT2869</name></trkpt>
<trkpt lat="52.044004" lon="05.778874"><ele>44.7</ele><time>2020-12-26T11:43:45Z</time><name>PT2870</name></trkpt>
<trkpt lat="52.044006" lon="05.778887"><ele>44.9</ele><time>2020-12-26T11:43:46Z</time><name>PT2871</name></trkpt>
<trkpt lat="52.044011" lon="05.778899"><ele>45</ele><time>2020-12-26T11:43:46Z</time><name>PT2872</name></trkpt>
<trkpt lat="52.044013" lon="05.778914"><ele>45.4</ele><time>2020-12-26T11:43:48Z</time><name>PT2873</name></trkpt>
<trkpt lat="52.044009" lon="05.778942"><ele>45.5</ele><time>2020-12-26T11:43:49Z</time><name>PT2874</name></trkpt>
<trkpt lat="52.044007" lon="05.778969"><ele>45.4</ele><time>2020-12-26T11:43:50Z</time><name>PT2875</name></trkpt>
<trkpt lat="52.044002" lon="05.778986"><ele>45.6</ele><time>2020-12-26T11:43:51Z</time><name>PT2876</name></trkpt>
<trkpt lat="52.044002" lon="05.779008"><ele>45.6</ele><time>2020-12-26T11:43:52Z</time><name>PT2877</name></trkpt>
<trkpt lat="52.044006" lon="05.779024"><ele>45.6</ele><time>2020-12-26T11:43:53Z</time><name>PT2878</name></trkpt>
<trkpt lat="52.044010" lon="05.779043"><ele>45.6</ele><time>2020-12-26T11:43:54Z</time><name>PT2879</name></trkpt>
<trkpt lat="52.044010" lon="05.779070"><ele>45.6</ele><time>2020-12-26T11:43:55Z</time><name>PT2880</name></trkpt>
<trkpt lat="52.044010" lon="05.779091"><ele>45.7</ele><time>2020-12-26T11:43:56Z</time><name>PT2881</name></trkpt>
<trkpt lat="52.044014" lon="05.779109"><ele>45.5</ele><time>2020-12-26T11:43:57Z</time><name>PT2882</name></trkpt>
<trkpt lat="52.044015" lon="05.779139"><ele>45.3</ele><time>2020-12-26T11:43:58Z</time><name>PT2883</name></trkpt>
<trkpt lat="52.044018" lon="05.779155"><ele>45.2</ele><time>2020-12-26T11:43:58Z</time><name>PT2884</name></trkpt>
<trkpt lat="52.044020" lon="05.779169"><ele>45.2</ele><time>2020-12-26T11:44:00Z</time><name>PT2885</name></trkpt>
<trkpt lat="52.044022" lon="05.779187"><ele>45.4</ele><time>2020-12-26T11:44:01Z</time><name>PT2886</name></trkpt>
<trkpt lat="52.044020" lon="05.779210"><ele>45.7</ele><time>2020-12-26T11:44:02Z</time><name>PT2887</name></trkpt>
<trkpt lat="52.044016" lon="05.779237"><ele>45.8</ele><time>2020-12-26T11:44:03Z</time><name>PT2888</name></trkpt>
<trkpt lat="52.044018" lon="05.779254"><ele>45.9</ele><time>2020-12-26T11:44:04Z</time><name>PT2889</name></trkpt>
<trkpt lat="52.044023" lon="05.779275"><ele>45.9</ele><time>2020-12-26T11:44:04Z</time><name>PT2890</name></trkpt>
<trkpt lat="52.044026" lon="05.779299"><ele>45.8</ele><time>2020-12-26T11:44:06Z</time><name>PT2891</name></trkpt>
<trkpt lat="52.044029" lon="05.779319"><ele>45.7</ele><time>2020-12-26T11:44:07Z</time><name>PT2892</name></trkpt>
<trkpt lat="52.044032" lon="05.779337"><ele>45.7</ele><time>2020-12-26T11:44:08Z</time><name>PT2893</name></trkpt>
<trkpt lat="52.044030" lon="05.779355"><ele>45.8</ele><time>2020-12-26T11:44:09Z</time><name>PT2894</name></trkpt>
<trkpt lat="52.044021" lon="05.779370"><ele>45.8</ele><time>2020-12-26T11:44:10Z</time><name>PT2895</name></trkpt>
<trkpt lat="52.044024" lon="05.779390"><ele>45.9</ele><time>2020-12-26T11:44:11Z</time><name>PT2896</name></trkpt>
<trkpt lat="52.044027" lon="05.779408"><ele>46.1</ele><time>2020-12-26T11:44:12Z</time><name>PT2897</name></trkpt>
<trkpt lat="52.044028" lon="05.779424"><ele>46.2</ele><time>2020-12-26T11:44:13Z</time><name>PT2898</name></trkpt>
<trkpt lat="52.044030" lon="05.779438"><ele>46.2</ele><time>2020-12-26T11:44:13Z</time><name>PT2899</name></trkpt>
<trkpt lat="52.044029" lon="05.779458"><ele>46.2</ele><time>2020-12-26T11:44:15Z</time><name>PT2900</name></trkpt>
<trkpt lat="52.044028" lon="05.779476"><ele>46.2</ele><time>2020-12-26T11:44:16Z</time><name>PT2901</name></trkpt>
<trkpt lat="52.044031" lon="05.779493"><ele>46.1</ele><time>2020-12-26T11:44:16Z</time><name>PT2902</name></trkpt>
<trkpt lat="52.044034" lon="05.779509"><ele>46.2</ele><time>2020-12-26T11:44:18Z</time><name>PT2903</name></trkpt>
<trkpt lat="52.044037" lon="05.779523"><ele>46.7</ele><time>2020-12-26T11:44:19Z</time><name>PT2904</name></trkpt>
<trkpt lat="52.044043" lon="05.779534"><ele>46.7</ele><time>2020-12-26T11:44:19Z</time><name>PT2905</name></trkpt>
<trkpt lat="52.044050" lon="05.779548"><ele>46.6</ele><time>2020-12-26T11:44:21Z</time><name>PT2906</name></trkpt>
<trkpt lat="52.044058" lon="05.779562"><ele>46.6</ele><time>2020-12-26T11:44:22Z</time><name>PT2907</name></trkpt>
<trkpt lat="52.044064" lon="05.779598"><ele>46.4</ele><time>2020-12-26T11:44:23Z</time><name>PT2908</name></trkpt>
<trkpt lat="52.044076" lon="05.779613"><ele>46.1</ele><time>2020-12-26T11:44:24Z</time><name>PT2909</name></trkpt>
<trkpt lat="52.044082" lon="05.779621"><ele>46.4</ele><time>2020-12-26T11:44:25Z</time><name>PT2910</name></trkpt>
<trkpt lat="52.044077" lon="05.779635"><ele>46.4</ele><time>2020-12-26T11:44:26Z</time><name>PT2911</name></trkpt>
<trkpt lat="52.044078" lon="05.779647"><ele>46.5</ele><time>2020-12-26T11:44:27Z</time><name>PT2912</name></trkpt>
<trkpt lat="52.044075" lon="05.779656"><ele>46.7</ele><time>2020-12-26T11:44:28Z</time><name>PT2913</name></trkpt>
<trkpt lat="52.044075" lon="05.779661"><ele>46.6</ele><time>2020-12-26T11:44:28Z</time><name>PT2914</name></trkpt>
<trkpt lat="52.044074" lon="05.779664"><ele>46.7</ele><time>2020-12-26T11:44:30Z</time><name>PT2915</name></trkpt>
<trkpt lat="52.044069" lon="05.779683"><ele>47.3</ele><time>2020-12-26T11:46:30Z</time><name>PT2916</name></trkpt>
<trkpt lat="52.044070" lon="05.779702"><ele>47.2</ele><time>2020-12-26T11:46:31Z</time><name>PT2917</name></trkpt>
<trkpt lat="52.044071" lon="05.779732"><ele>47.2</ele><time>2020-12-26T11:46:32Z</time><name>PT2918</name></trkpt>
<trkpt lat="52.044058" lon="05.779798"><ele>47.3</ele><time>2020-12-26T11:46:33Z</time><name>PT2919</name></trkpt>
<trkpt lat="52.044053" lon="05.779813"><ele>47.1</ele><time>2020-12-26T11:46:34Z</time><name>PT2920</name></trkpt>
<trkpt lat="52.044050" lon="05.779832"><ele>47</ele><time>2020-12-26T11:46:35Z</time><name>PT2921</name></trkpt>
<trkpt lat="52.044051" lon="05.779845"><ele>46.7</ele><time>2020-12-26T11:46:36Z</time><name>PT2922</name></trkpt>
<trkpt lat="52.044059" lon="05.779860"><ele>46.4</ele><time>2020-12-26T11:46:37Z</time><name>PT2923</name></trkpt>
<trkpt lat="52.044047" lon="05.779861"><ele>46.6</ele><time>2020-12-26T11:46:37Z</time><name>PT2924</name></trkpt>
<trkpt lat="52.044042" lon="05.779872"><ele>46.6</ele><time>2020-12-26T11:46:39Z</time><name>PT2925</name></trkpt>
<trkpt lat="52.044039" lon="05.779882"><ele>46.6</ele><time>2020-12-26T11:46:40Z</time><name>PT2926</name></trkpt>
<trkpt lat="52.044036" lon="05.779894"><ele>46.6</ele><time>2020-12-26T11:46:40Z</time><name>PT2927</name></trkpt>
<trkpt lat="52.044037" lon="05.779906"><ele>46.5</ele><time>2020-12-26T11:46:42Z</time><name>PT2928</name></trkpt>
<trkpt lat="52.044034" lon="05.779921"><ele>46.6</ele><time>2020-12-26T11:46:43Z</time><name>PT2929</name></trkpt>
<trkpt lat="52.044034" lon="05.779934"><ele>46.7</ele><time>2020-12-26T11:46:44Z</time><name>PT2930</name></trkpt>
<trkpt lat="52.044041" lon="05.779950"><ele>46.7</ele><time>2020-12-26T11:46:45Z</time><name>PT2931</name></trkpt>
<trkpt lat="52.044039" lon="05.779968"><ele>46.8</ele><time>2020-12-26T11:46:46Z</time><name>PT2932</name></trkpt>
<trkpt lat="52.044034" lon="05.779987"><ele>46.6</ele><time>2020-12-26T11:46:47Z</time><name>PT2933</name></trkpt>
<trkpt lat="52.044030" lon="05.780002"><ele>46.6</ele><time>2020-12-26T11:46:48Z</time><name>PT2934</name></trkpt>
<trkpt lat="52.044027" lon="05.780013"><ele>46.4</ele><time>2020-12-26T11:46:49Z</time><name>PT2935</name></trkpt>
<trkpt lat="52.044024" lon="05.780032"><ele>46.2</ele><time>2020-12-26T11:46:50Z</time><name>PT2936</name></trkpt>
<trkpt lat="52.044027" lon="05.780039"><ele>46.5</ele><time>2020-12-26T11:46:51Z</time><name>PT2937</name></trkpt>
<trkpt lat="52.044028" lon="05.780050"><ele>46.4</ele><time>2020-12-26T11:46:52Z</time><name>PT2938</name></trkpt>
<trkpt lat="52.044029" lon="05.780066"><ele>46.5</ele><time>2020-12-26T11:46:53Z</time><name>PT2939</name></trkpt>
<trkpt lat="52.044027" lon="05.780081"><ele>46.6</ele><time>2020-12-26T11:46:54Z</time><name>PT2940</name></trkpt>
<trkpt lat="52.044020" lon="05.780092"><ele>46.7</ele><time>2020-12-26T11:46:55Z</time><name>PT2941</name></trkpt>
<trkpt lat="52.044022" lon="05.780097"><ele>47</ele><time>2020-12-26T11:46:56Z</time><name>PT2942</name></trkpt>
<trkpt lat="52.044022" lon="05.780110"><ele>47.3</ele><time>2020-12-26T11:46:57Z</time><name>PT2943</name></trkpt>
<trkpt lat="52.044023" lon="05.780118"><ele>47.1</ele><time>2020-12-26T11:46:58Z</time><name>PT2944</name></trkpt>
<trkpt lat="52.044020" lon="05.780126"><ele>47.1</ele><time>2020-12-26T11:46:58Z</time><name>PT2945</name></trkpt>
<trkpt lat="52.044017" lon="05.780135"><ele>46.9</ele><time>2020-12-26T11:47:00Z</time><name>PT2946</name></trkpt>
<trkpt lat="52.044020" lon="05.780141"><ele>46.7</ele><time>2020-12-26T11:47:01Z</time><name>PT2947</name></trkpt>
<trkpt lat="52.044020" lon="05.780153"><ele>46.7</ele><time>2020-12-26T11:47:02Z</time><name>PT2948</name></trkpt>
<trkpt lat="52.044021" lon="05.780159"><ele>46.7</ele><time>2020-12-26T11:47:03Z</time><name>PT2949</name></trkpt>
<trkpt lat="52.044022" lon="05.780164"><ele>46.8</ele><time>2020-12-26T11:47:04Z</time><name>PT2950</name></trkpt>
<trkpt lat="52.044019" lon="05.780177"><ele>46.6</ele><time>2020-12-26T11:47:04Z</time><name>PT2951</name></trkpt>
<trkpt lat="52.044019" lon="05.780187"><ele>46.5</ele><time>2020-12-26T11:47:06Z</time><name>PT2952</name></trkpt>
<trkpt lat="52.044018" lon="05.780199"><ele>46.6</ele><time>2020-12-26T11:47:07Z</time><name>PT2953</name></trkpt>
<trkpt lat="52.044016" lon="05.780214"><ele>46.6</ele><time>2020-12-26T11:47:08Z</time><name>PT2954</name></trkpt>
<trkpt lat="52.044016" lon="05.780227"><ele>46.4</ele><time>2020-12-26T11:47:09Z</time><name>PT2955</name></trkpt>
<trkpt lat="52.044005" lon="05.780249"><ele>46.5</ele><time>2020-12-26T11:47:10Z</time><name>PT2956</name></trkpt>
<trkpt lat="52.043989" lon="05.780261"><ele>46.5</ele><time>2020-12-26T11:47:10Z</time><name>PT2957</name></trkpt>
<trkpt lat="52.043986" lon="05.780278"><ele>46.4</ele><time>2020-12-26T11:47:12Z</time><name>PT2958</name></trkpt>
<trkpt lat="52.043981" lon="05.780294"><ele>46.6</ele><time>2020-12-26T11:47:13Z</time><name>PT2959</name></trkpt>
<trkpt lat="52.043980" lon="05.780308"><ele>46.4</ele><time>2020-12-26T11:47:13Z</time><name>PT2960</name></trkpt>
<trkpt lat="52.043980" lon="05.780321"><ele>46.2</ele><time>2020-12-26T11:47:15Z</time><name>PT2961</name></trkpt>
<trkpt lat="52.043975" lon="05.780337"><ele>46.6</ele><time>2020-12-26T11:47:16Z</time><name>PT2962</name></trkpt>
<trkpt lat="52.043969" lon="05.780348"><ele>46.7</ele><time>2020-12-26T11:47:17Z</time><name>PT2963</name></trkpt>
<trkpt lat="52.043964" lon="05.780369"><ele>47</ele><time>2020-12-26T11:47:18Z</time><name>PT2964</name></trkpt>
<trkpt lat="52.043961" lon="05.780389"><ele>47.3</ele><time>2020-12-26T11:47:19Z</time><name>PT2965</name></trkpt>
<trkpt lat="52.043957" lon="05.780413"><ele>47.4</ele><time>2020-12-26T11:47:19Z</time><name>PT2966</name></trkpt>
<trkpt lat="52.043959" lon="05.780429"><ele>47.1</ele><time>2020-12-26T11:47:21Z</time><name>PT2967</name></trkpt>
<trkpt lat="52.043955" lon="05.780446"><ele>47.1</ele><time>2020-12-26T11:47:22Z</time><name>PT2968</name></trkpt>
<trkpt lat="52.043954" lon="05.780465"><ele>47.1</ele><time>2020-12-26T11:47:23Z</time><name>PT2969</name></trkpt>
<trkpt lat="52.043946" lon="05.780495"><ele>47</ele><time>2020-12-26T11:47:24Z</time><name>PT2970</name></trkpt>
<trkpt lat="52.043944" lon="05.780505"><ele>47</ele><time>2020-12-26T11:47:25Z</time><name>PT2971</name></trkpt>
<trkpt lat="52.043943" lon="05.780519"><ele>47.1</ele><time>2020-12-26T11:47:25Z</time><name>PT2972</name></trkpt>
<trkpt lat="52.043938" lon="05.780534"><ele>47.1</ele><time>2020-12-26T11:47:27Z</time><name>PT2973</name></trkpt>
<trkpt lat="52.043951" lon="05.780553"><ele>47.1</ele><time>2020-12-26T11:47:28Z</time><name>PT2974</name></trkpt>
<trkpt lat="52.043943" lon="05.780562"><ele>47.1</ele><time>2020-12-26T11:47:28Z</time><name>PT2975</name></trkpt>
<trkpt lat="52.043941" lon="05.780575"><ele>47</ele><time>2020-12-26T11:47:30Z</time><name>PT2976</name></trkpt>
<trkpt lat="52.043934" lon="05.780586"><ele>47</ele><time>2020-12-26T11:47:31Z</time><name>PT2977</name></trkpt>
<trkpt lat="52.043933" lon="05.780595"><ele>47</ele><time>2020-12-26T11:47:31Z</time><name>PT2978</name></trkpt>
<trkpt lat="52.043930" lon="05.780600"><ele>46.9</ele><time>2020-12-26T11:47:33Z</time><name>PT2979</name></trkpt>
<trkpt lat="52.043934" lon="05.780617"><ele>47.1</ele><time>2020-12-26T11:47:34Z</time><name>PT2980</name></trkpt>
<trkpt lat="52.043938" lon="05.780635"><ele>46.9</ele><time>2020-12-26T11:47:34Z</time><name>PT2981</name></trkpt>
<trkpt lat="52.043941" lon="05.780655"><ele>46.7</ele><time>2020-12-26T11:47:36Z</time><name>PT2982</name></trkpt>
<trkpt lat="52.043939" lon="05.780673"><ele>46.8</ele><time>2020-12-26T11:47:37Z</time><name>PT2983</name></trkpt>
<trkpt lat="52.043936" lon="05.780684"><ele>46.7</ele><time>2020-12-26T11:47:37Z</time><name>PT2984</name></trkpt>
<trkpt lat="52.043932" lon="05.780696"><ele>46.6</ele><time>2020-12-26T11:47:39Z</time><name>PT2985</name></trkpt>
<trkpt lat="52.043932" lon="05.780707"><ele>46.9</ele><time>2020-12-26T11:47:40Z</time><name>PT2986</name></trkpt>
<trkpt lat="52.043933" lon="05.780714"><ele>47</ele><time>2020-12-26T11:47:40Z</time><name>PT2987</name></trkpt>
<trkpt lat="52.043924" lon="05.780725"><ele>47.1</ele><time>2020-12-26T11:47:42Z</time><name>PT2988</name></trkpt>
<trkpt lat="52.043924" lon="05.780738"><ele>47</ele><time>2020-12-26T11:47:43Z</time><name>PT2989</name></trkpt>
<trkpt lat="52.043923" lon="05.780757"><ele>46.9</ele><time>2020-12-26T11:47:43Z</time><name>PT2990</name></trkpt>
<trkpt lat="52.043919" lon="05.780771"><ele>47</ele><time>2020-12-26T11:47:45Z</time><name>PT2991</name></trkpt>
<trkpt lat="52.043916" lon="05.780783"><ele>46.8</ele><time>2020-12-26T11:47:46Z</time><name>PT2992</name></trkpt>
<trkpt lat="52.043917" lon="05.780802"><ele>46.8</ele><time>2020-12-26T11:47:46Z</time><name>PT2993</name></trkpt>
<trkpt lat="52.043909" lon="05.780822"><ele>46.8</ele><time>2020-12-26T11:47:48Z</time><name>PT2994</name></trkpt>
<trkpt lat="52.043905" lon="05.780837"><ele>46.6</ele><time>2020-12-26T11:47:49Z</time><name>PT2995</name></trkpt>
<trkpt lat="52.043898" lon="05.780850"><ele>46.6</ele><time>2020-12-26T11:47:49Z</time><name>PT2996</name></trkpt>
<trkpt lat="52.043897" lon="05.780868"><ele>46.9</ele><time>2020-12-26T11:47:51Z</time><name>PT2997</name></trkpt>
<trkpt lat="52.043895" lon="05.780895"><ele>46.8</ele><time>2020-12-26T11:47:52Z</time><name>PT2998</name></trkpt>
<trkpt lat="52.043886" lon="05.780933"><ele>47</ele><time>2020-12-26T11:47:52Z</time><name>PT2999</name></trkpt>
<trkpt lat="52.043876" lon="05.780953"><ele>46.9</ele><time>2020-12-26T11:47:54Z</time><name>PT3000</name></trkpt>
<trkpt lat="52.043872" lon="05.780974"><ele>46.8</ele><time>2020-12-26T11:47:55Z</time><name>PT3001</name></trkpt>
<trkpt lat="52.043871" lon="05.780987"><ele>47</ele><time>2020-12-26T11:47:55Z</time><name>PT3002</name></trkpt>
<trkpt lat="52.043867" lon="05.781006"><ele>46.9</ele><time>2020-12-26T11:47:57Z</time><name>PT3003</name></trkpt>
<trkpt lat="52.043864" lon="05.781021"><ele>47.1</ele><time>2020-12-26T11:47:58Z</time><name>PT3004</name></trkpt>
<trkpt lat="52.043864" lon="05.781039"><ele>47.1</ele><time>2020-12-26T11:47:58Z</time><name>PT3005</name></trkpt>
<trkpt lat="52.043864" lon="05.781051"><ele>47.1</ele><time>2020-12-26T11:48:00Z</time><name>PT3006</name></trkpt>
<trkpt lat="52.043869" lon="05.781065"><ele>47.1</ele><time>2020-12-26T11:48:01Z</time><name>PT3007</name></trkpt>
<trkpt lat="52.043875" lon="05.781080"><ele>47.1</ele><time>2020-12-26T11:48:01Z</time><name>PT3008</name></trkpt>
<trkpt lat="52.043866" lon="05.781083"><ele>47.1</ele><time>2020-12-26T11:48:04Z</time><name>PT3009</name></trkpt>
<trkpt lat="52.043861" lon="05.781086"><ele>47.1</ele><time>2020-12-26T11:48:04Z</time><name>PT3010</name></trkpt>
<trkpt lat="52.043867" lon="05.781083"><ele>46.9</ele><time>2020-12-26T11:48:06Z</time><name>PT3011</name></trkpt>
<trkpt lat="52.043871" lon="05.781079"><ele>47.1</ele><time>2020-12-26T11:48:07Z</time><name>PT3012</name></trkpt>
<trkpt lat="52.043873" lon="05.781079"><ele>47.2</ele><time>2020-12-26T11:48:07Z</time><name>PT3013</name></trkpt>
<trkpt lat="52.043872" lon="05.781083"><ele>47.4</ele><time>2020-12-26T11:48:09Z</time><name>PT3014</name></trkpt>
<trkpt lat="52.043869" lon="05.781093"><ele>47.6</ele><time>2020-12-26T11:48:29Z</time><name>PT3015</name></trkpt>
<trkpt lat="52.043865" lon="05.781122"><ele>47.6</ele><time>2020-12-26T11:48:30Z</time><name>PT3016</name></trkpt>
<trkpt lat="52.043859" lon="05.781155"><ele>47.6</ele><time>2020-12-26T11:48:31Z</time><name>PT3017</name></trkpt>
<trkpt lat="52.043857" lon="05.781174"><ele>47.6</ele><time>2020-12-26T11:48:31Z</time><name>PT3018</name></trkpt>
<trkpt lat="52.043850" lon="05.781203"><ele>47.6</ele><time>2020-12-26T11:48:33Z</time><name>PT3019</name></trkpt>
<trkpt lat="52.043847" lon="05.781216"><ele>47.5</ele><time>2020-12-26T11:48:34Z</time><name>PT3020</name></trkpt>
<trkpt lat="52.043844" lon="05.781223"><ele>47.4</ele><time>2020-12-26T11:48:34Z</time><name>PT3021</name></trkpt>
<trkpt lat="52.043845" lon="05.781228"><ele>47.5</ele><time>2020-12-26T11:48:36Z</time><name>PT3022</name></trkpt>
<trkpt lat="52.043845" lon="05.781230"><ele>47.6</ele><time>2020-12-26T11:48:37Z</time><name>PT3023</name></trkpt>
<trkpt lat="52.043845" lon="05.781233"><ele>47.6</ele><time>2020-12-26T11:48:52Z</time><name>PT3024</name></trkpt>
<trkpt lat="52.043849" lon="05.781237"><ele>47.9</ele><time>2020-12-26T11:48:54Z</time><name>PT3025</name></trkpt>
<trkpt lat="52.043842" lon="05.781267"><ele>48</ele><time>2020-12-26T11:48:55Z</time><name>PT3026</name></trkpt>
<trkpt lat="52.043845" lon="05.781270"><ele>48</ele><time>2020-12-26T11:48:56Z</time><name>PT3027</name></trkpt>
<trkpt lat="52.043845" lon="05.781271"><ele>48</ele><time>2020-12-26T11:48:57Z</time><name>PT3028</name></trkpt>
<trkpt lat="52.043845" lon="05.781267"><ele>48</ele><time>2020-12-26T11:48:58Z</time><name>PT3029</name></trkpt>
<trkpt lat="52.043846" lon="05.781265"><ele>47.9</ele><time>2020-12-26T11:48:58Z</time><name>PT3030</name></trkpt>
<trkpt lat="52.043847" lon="05.781266"><ele>48</ele><time>2020-12-26T11:49:00Z</time><name>PT3031</name></trkpt>
<trkpt lat="52.043847" lon="05.781271"><ele>47.9</ele><time>2020-12-26T11:49:01Z</time><name>PT3032</name></trkpt>
<trkpt lat="52.043847" lon="05.781271"><ele>47.7</ele><time>2020-12-26T11:49:01Z</time><name>PT3033</name></trkpt>
<trkpt lat="52.043844" lon="05.781285"><ele>47.9</ele><time>2020-12-26T11:49:03Z</time><name>PT3034</name></trkpt>
<trkpt lat="52.043830" lon="05.781321"><ele>47.9</ele><time>2020-12-26T11:49:04Z</time><name>PT3035</name></trkpt>
<trkpt lat="52.043828" lon="05.781337"><ele>47.9</ele><time>2020-12-26T11:49:05Z</time><name>PT3036</name></trkpt>
<trkpt lat="52.043832" lon="05.781349"><ele>48</ele><time>2020-12-26T11:49:06Z</time><name>PT3037</name></trkpt>
<trkpt lat="52.043832" lon="05.781363"><ele>48</ele><time>2020-12-26T11:49:07Z</time><name>PT3038</name></trkpt>
<trkpt lat="52.043828" lon="05.781375"><ele>48</ele><time>2020-12-26T11:49:07Z</time><name>PT3039</name></trkpt>
<trkpt lat="52.043826" lon="05.781392"><ele>48</ele><time>2020-12-26T11:49:09Z</time><name>PT3040</name></trkpt>
<trkpt lat="52.043824" lon="05.781406"><ele>48</ele><time>2020-12-26T11:49:10Z</time><name>PT3041</name></trkpt>
<trkpt lat="52.043820" lon="05.781420"><ele>47.9</ele><time>2020-12-26T11:49:11Z</time><name>PT3042</name></trkpt>
<trkpt lat="52.043815" lon="05.781431"><ele>47.7</ele><time>2020-12-26T11:49:12Z</time><name>PT3043</name></trkpt>
<trkpt lat="52.043815" lon="05.781444"><ele>47.7</ele><time>2020-12-26T11:49:13Z</time><name>PT3044</name></trkpt>
<trkpt lat="52.043817" lon="05.781462"><ele>47.7</ele><time>2020-12-26T11:49:13Z</time><name>PT3045</name></trkpt>
<trkpt lat="52.043819" lon="05.781476"><ele>47.7</ele><time>2020-12-26T11:49:15Z</time><name>PT3046</name></trkpt>
<trkpt lat="52.043816" lon="05.781491"><ele>47.9</ele><time>2020-12-26T11:49:16Z</time><name>PT3047</name></trkpt>
<trkpt lat="52.043811" lon="05.781505"><ele>47.9</ele><time>2020-12-26T11:49:16Z</time><name>PT3048</name></trkpt>
<trkpt lat="52.043804" lon="05.781522"><ele>48</ele><time>2020-12-26T11:49:18Z</time><name>PT3049</name></trkpt>
<trkpt lat="52.043800" lon="05.781539"><ele>48</ele><time>2020-12-26T11:49:19Z</time><name>PT3050</name></trkpt>
<trkpt lat="52.043795" lon="05.781559"><ele>48</ele><time>2020-12-26T11:49:19Z</time><name>PT3051</name></trkpt>
<trkpt lat="52.043793" lon="05.781574"><ele>47.9</ele><time>2020-12-26T11:49:21Z</time><name>PT3052</name></trkpt>
<trkpt lat="52.043791" lon="05.781587"><ele>48</ele><time>2020-12-26T11:49:22Z</time><name>PT3053</name></trkpt>
<trkpt lat="52.043785" lon="05.781608"><ele>48</ele><time>2020-12-26T11:49:23Z</time><name>PT3054</name></trkpt>
<trkpt lat="52.043782" lon="05.781617"><ele>48.2</ele><time>2020-12-26T11:49:24Z</time><name>PT3055</name></trkpt>
<trkpt lat="52.043780" lon="05.781630"><ele>48.4</ele><time>2020-12-26T11:49:25Z</time><name>PT3056</name></trkpt>
<trkpt lat="52.043775" lon="05.781647"><ele>48.4</ele><time>2020-12-26T11:49:25Z</time><name>PT3057</name></trkpt>
<trkpt lat="52.043772" lon="05.781664"><ele>48.5</ele><time>2020-12-26T11:49:27Z</time><name>PT3058</name></trkpt>
<trkpt lat="52.043773" lon="05.781685"><ele>48.5</ele><time>2020-12-26T11:49:28Z</time><name>PT3059</name></trkpt>
<trkpt lat="52.043762" lon="05.781711"><ele>48.4</ele><time>2020-12-26T11:49:28Z</time><name>PT3060</name></trkpt>
<trkpt lat="52.043758" lon="05.781733"><ele>48.3</ele><time>2020-12-26T11:49:30Z</time><name>PT3061</name></trkpt>
<trkpt lat="52.043754" lon="05.781748"><ele>48.3</ele><time>2020-12-26T11:49:31Z</time><name>PT3062</name></trkpt>
<trkpt lat="52.043758" lon="05.781763"><ele>48.5</ele><time>2020-12-26T11:49:31Z</time><name>PT3063</name></trkpt>
<trkpt lat="52.043751" lon="05.781789"><ele>48.6</ele><time>2020-12-26T11:49:33Z</time><name>PT3064</name></trkpt>
<trkpt lat="52.043748" lon="05.781804"><ele>49</ele><time>2020-12-26T11:49:34Z</time><name>PT3065</name></trkpt>
<trkpt lat="52.043735" lon="05.781816"><ele>49.1</ele><time>2020-12-26T11:49:34Z</time><name>PT3066</name></trkpt>
<trkpt lat="52.043729" lon="05.781835"><ele>49.1</ele><time>2020-12-26T11:49:36Z</time><name>PT3067</name></trkpt>
<trkpt lat="52.043723" lon="05.781852"><ele>49</ele><time>2020-12-26T11:49:37Z</time><name>PT3068</name></trkpt>
<trkpt lat="52.043715" lon="05.781875"><ele>48.9</ele><time>2020-12-26T11:49:37Z</time><name>PT3069</name></trkpt>
<trkpt lat="52.043713" lon="05.781889"><ele>48.9</ele><time>2020-12-26T11:49:39Z</time><name>PT3070</name></trkpt>
<trkpt lat="52.043709" lon="05.781905"><ele>48.8</ele><time>2020-12-26T11:49:40Z</time><name>PT3071</name></trkpt>
<trkpt lat="52.043705" lon="05.781927"><ele>48.9</ele><time>2020-12-26T11:49:40Z</time><name>PT3072</name></trkpt>
<trkpt lat="52.043700" lon="05.781943"><ele>48.7</ele><time>2020-12-26T11:49:42Z</time><name>PT3073</name></trkpt>
<trkpt lat="52.043698" lon="05.781957"><ele>48.8</ele><time>2020-12-26T11:49:43Z</time><name>PT3074</name></trkpt>
<trkpt lat="52.043698" lon="05.781974"><ele>48.8</ele><time>2020-12-26T11:49:43Z</time><name>PT3075</name></trkpt>
<trkpt lat="52.043699" lon="05.781998"><ele>48.8</ele><time>2020-12-26T11:49:45Z</time><name>PT3076</name></trkpt>
<trkpt lat="52.043699" lon="05.782011"><ele>49</ele><time>2020-12-26T11:49:46Z</time><name>PT3077</name></trkpt>
<trkpt lat="52.043698" lon="05.782025"><ele>48.9</ele><time>2020-12-26T11:49:46Z</time><name>PT3078</name></trkpt>
<trkpt lat="52.043699" lon="05.782039"><ele>48.7</ele><time>2020-12-26T11:49:48Z</time><name>PT3079</name></trkpt>
<trkpt lat="52.043688" lon="05.782056"><ele>48.8</ele><time>2020-12-26T11:49:49Z</time><name>PT3080</name></trkpt>
<trkpt lat="52.043688" lon="05.782072"><ele>48.7</ele><time>2020-12-26T11:49:49Z</time><name>PT3081</name></trkpt>
<trkpt lat="52.043682" lon="05.782096"><ele>49</ele><time>2020-12-26T11:49:51Z</time><name>PT3082</name></trkpt>
<trkpt lat="52.043675" lon="05.782111"><ele>49.1</ele><time>2020-12-26T11:49:52Z</time><name>PT3083</name></trkpt>
<trkpt lat="52.043670" lon="05.782124"><ele>49</ele><time>2020-12-26T11:49:52Z</time><name>PT3084</name></trkpt>
<trkpt lat="52.043670" lon="05.782137"><ele>49.1</ele><time>2020-12-26T11:49:54Z</time><name>PT3085</name></trkpt>
<trkpt lat="52.043673" lon="05.782155"><ele>49.2</ele><time>2020-12-26T11:49:55Z</time><name>PT3086</name></trkpt>
<trkpt lat="52.043663" lon="05.782175"><ele>49.2</ele><time>2020-12-26T11:49:55Z</time><name>PT3087</name></trkpt>
<trkpt lat="52.043652" lon="05.782192"><ele>49.2</ele><time>2020-12-26T11:49:57Z</time><name>PT3088</name></trkpt>
<trkpt lat="52.043648" lon="05.782212"><ele>49.1</ele><time>2020-12-26T11:49:58Z</time><name>PT3089</name></trkpt>
<trkpt lat="52.043644" lon="05.782233"><ele>49</ele><time>2020-12-26T11:49:58Z</time><name>PT3090</name></trkpt>
<trkpt lat="52.043642" lon="05.782256"><ele>49</ele><time>2020-12-26T11:50:00Z</time><name>PT3091</name></trkpt>
<trkpt lat="52.043643" lon="05.782279"><ele>49</ele><time>2020-12-26T11:50:01Z</time><name>PT3092</name></trkpt>
<trkpt lat="52.043644" lon="05.782301"><ele>49</ele><time>2020-12-26T11:50:01Z</time><name>PT3093</name></trkpt>
<trkpt lat="52.043642" lon="05.782320"><ele>49</ele><time>2020-12-26T11:50:03Z</time><name>PT3094</name></trkpt>
<trkpt lat="52.043641" lon="05.782345"><ele>49</ele><time>2020-12-26T11:50:04Z</time><name>PT3095</name></trkpt>
<trkpt lat="52.043637" lon="05.782363"><ele>49.1</ele><time>2020-12-26T11:50:04Z</time><name>PT3096</name></trkpt>
<trkpt lat="52.043636" lon="05.782386"><ele>49.1</ele><time>2020-12-26T11:50:06Z</time><name>PT3097</name></trkpt>
<trkpt lat="52.043636" lon="05.782399"><ele>49.2</ele><time>2020-12-26T11:50:07Z</time><name>PT3098</name></trkpt>
<trkpt lat="52.043635" lon="05.782421"><ele>49.2</ele><time>2020-12-26T11:50:07Z</time><name>PT3099</name></trkpt>
<trkpt lat="52.043632" lon="05.782446"><ele>49.3</ele><time>2020-12-26T11:50:09Z</time><name>PT3100</name></trkpt>
<trkpt lat="52.043637" lon="05.782467"><ele>49.5</ele><time>2020-12-26T11:50:10Z</time><name>PT3101</name></trkpt>
<trkpt lat="52.043640" lon="05.782486"><ele>49.5</ele><time>2020-12-26T11:50:10Z</time><name>PT3102</name></trkpt>
<trkpt lat="52.043639" lon="05.782500"><ele>49.4</ele><time>2020-12-26T11:50:12Z</time><name>PT3103</name></trkpt>
<trkpt lat="52.043640" lon="05.782523"><ele>49.2</ele><time>2020-12-26T11:50:13Z</time><name>PT3104</name></trkpt>
<trkpt lat="52.043641" lon="05.782532"><ele>49.1</ele><time>2020-12-26T11:50:13Z</time><name>PT3105</name></trkpt>
<trkpt lat="52.043642" lon="05.782547"><ele>49</ele><time>2020-12-26T11:50:15Z</time><name>PT3106</name></trkpt>
<trkpt lat="52.043632" lon="05.782573"><ele>49.2</ele><time>2020-12-26T11:50:16Z</time><name>PT3107</name></trkpt>
<trkpt lat="52.043627" lon="05.782595"><ele>49.3</ele><time>2020-12-26T11:50:16Z</time><name>PT3108</name></trkpt>
<trkpt lat="52.043628" lon="05.782603"><ele>49.4</ele><time>2020-12-26T11:50:18Z</time><name>PT3109</name></trkpt>
<trkpt lat="52.043619" lon="05.782617"><ele>49.5</ele><time>2020-12-26T11:50:19Z</time><name>PT3110</name></trkpt>
<trkpt lat="52.043624" lon="05.782632"><ele>49.5</ele><time>2020-12-26T11:50:19Z</time><name>PT3111</name></trkpt>
<trkpt lat="52.043619" lon="05.782664"><ele>49.4</ele><time>2020-12-26T11:50:21Z</time><name>PT3112</name></trkpt>
<trkpt lat="52.043618" lon="05.782684"><ele>49.4</ele><time>2020-12-26T11:50:22Z</time><name>PT3113</name></trkpt>
<trkpt lat="52.043615" lon="05.782699"><ele>49.5</ele><time>2020-12-26T11:50:22Z</time><name>PT3114</name></trkpt>
<trkpt lat="52.043608" lon="05.782719"><ele>49.5</ele><time>2020-12-26T11:50:24Z</time><name>PT3115</name></trkpt>
<trkpt lat="52.043607" lon="05.782739"><ele>49.5</ele><time>2020-12-26T11:50:25Z</time><name>PT3116</name></trkpt>
<trkpt lat="52.043606" lon="05.782749"><ele>49.4</ele><time>2020-12-26T11:50:25Z</time><name>PT3117</name></trkpt>
<trkpt lat="52.043603" lon="05.782760"><ele>49.5</ele><time>2020-12-26T11:50:27Z</time><name>PT3118</name></trkpt>
<trkpt lat="52.043607" lon="05.782773"><ele>49.6</ele><time>2020-12-26T11:50:28Z</time><name>PT3119</name></trkpt>
<trkpt lat="52.043602" lon="05.782796"><ele>49.7</ele><time>2020-12-26T11:50:28Z</time><name>PT3120</name></trkpt>
<trkpt lat="52.043598" lon="05.782810"><ele>49.7</ele><time>2020-12-26T11:50:30Z</time><name>PT3121</name></trkpt>
<trkpt lat="52.043595" lon="05.782817"><ele>49.7</ele><time>2020-12-26T11:50:31Z</time><name>PT3122</name></trkpt>
<trkpt lat="52.043596" lon="05.782821"><ele>49.9</ele><time>2020-12-26T11:50:34Z</time><name>PT3123</name></trkpt>
<trkpt lat="52.043594" lon="05.782826"><ele>49.8</ele><time>2020-12-26T11:50:36Z</time><name>PT3124</name></trkpt>
<trkpt lat="52.043599" lon="05.782862"><ele>49.4</ele><time>2020-12-26T11:51:04Z</time><name>PT3125</name></trkpt>
<trkpt lat="52.043598" lon="05.782883"><ele>49.3</ele><time>2020-12-26T11:51:04Z</time><name>PT3126</name></trkpt>
<trkpt lat="52.043586" lon="05.782903"><ele>49.4</ele><time>2020-12-26T11:51:06Z</time><name>PT3127</name></trkpt>
<trkpt lat="52.043586" lon="05.782931"><ele>49.6</ele><time>2020-12-26T11:51:07Z</time><name>PT3128</name></trkpt>
<trkpt lat="52.043581" lon="05.782957"><ele>49.8</ele><time>2020-12-26T11:51:07Z</time><name>PT3129</name></trkpt>
<trkpt lat="52.043569" lon="05.782989"><ele>49.9</ele><time>2020-12-26T11:51:09Z</time><name>PT3130</name></trkpt>
<trkpt lat="52.043550" lon="05.783024"><ele>50</ele><time>2020-12-26T11:51:10Z</time><name>PT3131</name></trkpt>
<trkpt lat="52.043543" lon="05.783039"><ele>49.9</ele><time>2020-12-26T11:51:10Z</time><name>PT3132</name></trkpt>
<trkpt lat="52.043536" lon="05.783055"><ele>49.7</ele><time>2020-12-26T11:51:12Z</time><name>PT3133</name></trkpt>
<trkpt lat="52.043531" lon="05.783070"><ele>49.7</ele><time>2020-12-26T11:51:13Z</time><name>PT3134</name></trkpt>
<trkpt lat="52.043525" lon="05.783082"><ele>49.7</ele><time>2020-12-26T11:51:13Z</time><name>PT3135</name></trkpt>
<trkpt lat="52.043521" lon="05.783087"><ele>49.6</ele><time>2020-12-26T11:51:15Z</time><name>PT3136</name></trkpt>
<trkpt lat="52.043516" lon="05.783098"><ele>49.7</ele><time>2020-12-26T11:51:16Z</time><name>PT3137</name></trkpt>
<trkpt lat="52.043510" lon="05.783107"><ele>49.6</ele><time>2020-12-26T11:51:16Z</time><name>PT3138</name></trkpt>
<trkpt lat="52.043507" lon="05.783125"><ele>49.4</ele><time>2020-12-26T11:51:18Z</time><name>PT3139</name></trkpt>
<trkpt lat="52.043507" lon="05.783141"><ele>49.4</ele><time>2020-12-26T11:51:19Z</time><name>PT3140</name></trkpt>
<trkpt lat="52.043503" lon="05.783159"><ele>49.3</ele><time>2020-12-26T11:51:19Z</time><name>PT3141</name></trkpt>
<trkpt lat="52.043498" lon="05.783179"><ele>49.1</ele><time>2020-12-26T11:51:21Z</time><name>PT3142</name></trkpt>
<trkpt lat="52.043494" lon="05.783192"><ele>49.1</ele><time>2020-12-26T11:51:22Z</time><name>PT3143</name></trkpt>
<trkpt lat="52.043491" lon="05.783199"><ele>49</ele><time>2020-12-26T11:51:22Z</time><name>PT3144</name></trkpt>
<trkpt lat="52.043494" lon="05.783217"><ele>49.1</ele><time>2020-12-26T11:51:24Z</time><name>PT3145</name></trkpt>
<trkpt lat="52.043494" lon="05.783242"><ele>49.5</ele><time>2020-12-26T11:51:25Z</time><name>PT3146</name></trkpt>
<trkpt lat="52.043492" lon="05.783257"><ele>49.7</ele><time>2020-12-26T11:51:25Z</time><name>PT3147</name></trkpt>
<trkpt lat="52.043491" lon="05.783273"><ele>49.9</ele><time>2020-12-26T11:51:27Z</time><name>PT3148</name></trkpt>
<trkpt lat="52.043488" lon="05.783286"><ele>49.9</ele><time>2020-12-26T11:51:28Z</time><name>PT3149</name></trkpt>
<trkpt lat="52.043492" lon="05.783306"><ele>49.9</ele><time>2020-12-26T11:51:28Z</time><name>PT3150</name></trkpt>
<trkpt lat="52.043488" lon="05.783322"><ele>49.9</ele><time>2020-12-26T11:51:30Z</time><name>PT3151</name></trkpt>
<trkpt lat="52.043483" lon="05.783345"><ele>49.9</ele><time>2020-12-26T11:51:31Z</time><name>PT3152</name></trkpt>
<trkpt lat="52.043481" lon="05.783369"><ele>49.9</ele><time>2020-12-26T11:51:31Z</time><name>PT3153</name></trkpt>
<trkpt lat="52.043478" lon="05.783397"><ele>49.9</ele><time>2020-12-26T11:51:33Z</time><name>PT3154</name></trkpt>
<trkpt lat="52.043479" lon="05.783419"><ele>49.9</ele><time>2020-12-26T11:51:34Z</time><name>PT3155</name></trkpt>
<trkpt lat="52.043478" lon="05.783435"><ele>49.9</ele><time>2020-12-26T11:51:34Z</time><name>PT3156</name></trkpt>
<trkpt lat="52.043472" lon="05.783445"><ele>49.9</ele><time>2020-12-26T11:51:36Z</time><name>PT3157</name></trkpt>
<trkpt lat="52.043473" lon="05.783464"><ele>50.1</ele><time>2020-12-26T11:51:37Z</time><name>PT3158</name></trkpt>
<trkpt lat="52.043464" lon="05.783483"><ele>50</ele><time>2020-12-26T11:51:37Z</time><name>PT3159</name></trkpt>
<trkpt lat="52.043464" lon="05.783496"><ele>50.1</ele><time>2020-12-26T11:51:39Z</time><name>PT3160</name></trkpt>
<trkpt lat="52.043459" lon="05.783516"><ele>50.1</ele><time>2020-12-26T11:51:40Z</time><name>PT3161</name></trkpt>
<trkpt lat="52.043468" lon="05.783543"><ele>50.1</ele><time>2020-12-26T11:51:40Z</time><name>PT3162</name></trkpt>
<trkpt lat="52.043468" lon="05.783564"><ele>50.2</ele><time>2020-12-26T11:51:42Z</time><name>PT3163</name></trkpt>
<trkpt lat="52.043461" lon="05.783587"><ele>50.1</ele><time>2020-12-26T11:51:43Z</time><name>PT3164</name></trkpt>
<trkpt lat="52.043457" lon="05.783606"><ele>50.1</ele><time>2020-12-26T11:51:43Z</time><name>PT3165</name></trkpt>
<trkpt lat="52.043458" lon="05.783624"><ele>50.1</ele><time>2020-12-26T11:51:45Z</time><name>PT3166</name></trkpt>
<trkpt lat="52.043456" lon="05.783642"><ele>50</ele><time>2020-12-26T11:51:46Z</time><name>PT3167</name></trkpt>
<trkpt lat="52.043454" lon="05.783671"><ele>49.9</ele><time>2020-12-26T11:51:46Z</time><name>PT3168</name></trkpt>
<trkpt lat="52.043452" lon="05.783692"><ele>50</ele><time>2020-12-26T11:51:48Z</time><name>PT3169</name></trkpt>
<trkpt lat="52.043449" lon="05.783719"><ele>50</ele><time>2020-12-26T11:51:49Z</time><name>PT3170</name></trkpt>
<trkpt lat="52.043444" lon="05.783731"><ele>50.2</ele><time>2020-12-26T11:51:49Z</time><name>PT3171</name></trkpt>
<trkpt lat="52.043433" lon="05.783755"><ele>50.2</ele><time>2020-12-26T11:51:51Z</time><name>PT3172</name></trkpt>
<trkpt lat="52.043431" lon="05.783778"><ele>50.1</ele><time>2020-12-26T11:51:52Z</time><name>PT3173</name></trkpt>
<trkpt lat="52.043428" lon="05.783805"><ele>49.9</ele><time>2020-12-26T11:51:52Z</time><name>PT3174</name></trkpt>
<trkpt lat="52.043428" lon="05.783827"><ele>49.9</ele><time>2020-12-26T11:51:54Z</time><name>PT3175</name></trkpt>
<trkpt lat="52.043419" lon="05.783850"><ele>49.9</ele><time>2020-12-26T11:51:55Z</time><name>PT3176</name></trkpt>
<trkpt lat="52.043415" lon="05.783862"><ele>50.1</ele><time>2020-12-26T11:51:55Z</time><name>PT3177</name></trkpt>
<trkpt lat="52.043414" lon="05.783887"><ele>50.2</ele><time>2020-12-26T11:51:57Z</time><name>PT3178</name></trkpt>
<trkpt lat="52.043411" lon="05.783911"><ele>50.3</ele><time>2020-12-26T11:51:58Z</time><name>PT3179</name></trkpt>
<trkpt lat="52.043397" lon="05.783924"><ele>50.2</ele><time>2020-12-26T11:51:58Z</time><name>PT3180</name></trkpt>
<trkpt lat="52.043391" lon="05.783945"><ele>50.1</ele><time>2020-12-26T11:52:00Z</time><name>PT3181</name></trkpt>
<trkpt lat="52.043375" lon="05.783974"><ele>49.9</ele><time>2020-12-26T11:52:01Z</time><name>PT3182</name></trkpt>
<trkpt lat="52.043372" lon="05.783994"><ele>49.9</ele><time>2020-12-26T11:52:01Z</time><name>PT3183</name></trkpt>
<trkpt lat="52.043358" lon="05.784032"><ele>49.9</ele><time>2020-12-26T11:52:03Z</time><name>PT3184</name></trkpt>
<trkpt lat="52.043352" lon="05.784052"><ele>49.9</ele><time>2020-12-26T11:52:04Z</time><name>PT3185</name></trkpt>
<trkpt lat="52.043347" lon="05.784075"><ele>49.9</ele><time>2020-12-26T11:52:04Z</time><name>PT3186</name></trkpt>
<trkpt lat="52.043346" lon="05.784089"><ele>49.8</ele><time>2020-12-26T11:52:06Z</time><name>PT3187</name></trkpt>
<trkpt lat="52.043343" lon="05.784100"><ele>49.8</ele><time>2020-12-26T11:52:07Z</time><name>PT3188</name></trkpt>
<trkpt lat="52.043341" lon="05.784118"><ele>49.6</ele><time>2020-12-26T11:52:07Z</time><name>PT3189</name></trkpt>
<trkpt lat="52.043341" lon="05.784143"><ele>49.8</ele><time>2020-12-26T11:52:09Z</time><name>PT3190</name></trkpt>
<trkpt lat="52.043338" lon="05.784157"><ele>49.9</ele><time>2020-12-26T11:52:10Z</time><name>PT3191</name></trkpt>
<trkpt lat="52.043335" lon="05.784173"><ele>49.9</ele><time>2020-12-26T11:52:10Z</time><name>PT3192</name></trkpt>
<trkpt lat="52.043332" lon="05.784195"><ele>50.1</ele><time>2020-12-26T11:52:12Z</time><name>PT3193</name></trkpt>
<trkpt lat="52.043327" lon="05.784206"><ele>49.9</ele><time>2020-12-26T11:52:13Z</time><name>PT3194</name></trkpt>
<trkpt lat="52.043326" lon="05.784210"><ele>50</ele><time>2020-12-26T11:52:13Z</time><name>PT3195</name></trkpt>
<trkpt lat="52.043315" lon="05.784222"><ele>49.9</ele><time>2020-12-26T11:52:15Z</time><name>PT3196</name></trkpt>
<trkpt lat="52.043307" lon="05.784228"><ele>49.9</ele><time>2020-12-26T11:52:16Z</time><name>PT3197</name></trkpt>
<trkpt lat="52.043310" lon="05.784245"><ele>49.8</ele><time>2020-12-26T11:52:16Z</time><name>PT3198</name></trkpt>
<trkpt lat="52.043308" lon="05.784255"><ele>49.9</ele><time>2020-12-26T11:52:18Z</time><name>PT3199</name></trkpt>
<trkpt lat="52.043306" lon="05.784277"><ele>49.9</ele><time>2020-12-26T11:52:19Z</time><name>PT3200</name></trkpt>
<trkpt lat="52.043302" lon="05.784294"><ele>49.8</ele><time>2020-12-26T11:52:19Z</time><name>PT3201</name></trkpt>
<trkpt lat="52.043298" lon="05.784310"><ele>49.7</ele><time>2020-12-26T11:52:21Z</time><name>PT3202</name></trkpt>
<trkpt lat="52.043296" lon="05.784325"><ele>49.5</ele><time>2020-12-26T11:52:22Z</time><name>PT3203</name></trkpt>
<trkpt lat="52.043290" lon="05.784346"><ele>49.5</ele><time>2020-12-26T11:52:22Z</time><name>PT3204</name></trkpt>
<trkpt lat="52.043290" lon="05.784349"><ele>49.5</ele><time>2020-12-26T11:52:24Z</time><name>PT3205</name></trkpt>
<trkpt lat="52.043289" lon="05.784366"><ele>49.5</ele><time>2020-12-26T11:52:25Z</time><name>PT3206</name></trkpt>
<trkpt lat="52.043280" lon="05.784399"><ele>49.4</ele><time>2020-12-26T11:52:25Z</time><name>PT3207</name></trkpt>
<trkpt lat="52.043279" lon="05.784419"><ele>49.5</ele><time>2020-12-26T11:52:27Z</time><name>PT3208</name></trkpt>
<trkpt lat="52.043276" lon="05.784447"><ele>49.5</ele><time>2020-12-26T11:52:28Z</time><name>PT3209</name></trkpt>
<trkpt lat="52.043270" lon="05.784459"><ele>49.7</ele><time>2020-12-26T11:52:28Z</time><name>PT3210</name></trkpt>
<trkpt lat="52.043270" lon="05.784474"><ele>49.8</ele><time>2020-12-26T11:52:30Z</time><name>PT3211</name></trkpt>
<trkpt lat="52.043269" lon="05.784499"><ele>49.6</ele><time>2020-12-26T11:52:31Z</time><name>PT3212</name></trkpt>
<trkpt lat="52.043264" lon="05.784521"><ele>49.7</ele><time>2020-12-26T11:52:31Z</time><name>PT3213</name></trkpt>
<trkpt lat="52.043254" lon="05.784556"><ele>49.6</ele><time>2020-12-26T11:52:33Z</time><name>PT3214</name></trkpt>
<trkpt lat="52.043248" lon="05.784571"><ele>49.7</ele><time>2020-12-26T11:52:34Z</time><name>PT3215</name></trkpt>
<trkpt lat="52.043239" lon="05.784595"><ele>49.6</ele><time>2020-12-26T11:52:34Z</time><name>PT3216</name></trkpt>
<trkpt lat="52.043238" lon="05.784600"><ele>49.6</ele><time>2020-12-26T11:52:36Z</time><name>PT3217</name></trkpt>
<trkpt lat="52.043237" lon="05.784609"><ele>49.7</ele><time>2020-12-26T11:52:37Z</time><name>PT3218</name></trkpt>
<trkpt lat="52.043220" lon="05.784632"><ele>49.7</ele><time>2020-12-26T11:52:37Z</time><name>PT3219</name></trkpt>
<trkpt lat="52.043216" lon="05.784658"><ele>49.7</ele><time>2020-12-26T11:52:39Z</time><name>PT3220</name></trkpt>
<trkpt lat="52.043209" lon="05.784686"><ele>49.7</ele><time>2020-12-26T11:52:40Z</time><name>PT3221</name></trkpt>
<trkpt lat="52.043204" lon="05.784714"><ele>49.7</ele><time>2020-12-26T11:52:40Z</time><name>PT3222</name></trkpt>
<trkpt lat="52.043201" lon="05.784732"><ele>49.7</ele><time>2020-12-26T11:52:42Z</time><name>PT3223</name></trkpt>
<trkpt lat="52.043194" lon="05.784759"><ele>49.8</ele><time>2020-12-26T11:52:43Z</time><name>PT3224</name></trkpt>
<trkpt lat="52.043190" lon="05.784773"><ele>49.8</ele><time>2020-12-26T11:52:43Z</time><name>PT3225</name></trkpt>
<trkpt lat="52.043186" lon="05.784786"><ele>49.8</ele><time>2020-12-26T11:52:45Z</time><name>PT3226</name></trkpt>
<trkpt lat="52.043171" lon="05.784812"><ele>49.8</ele><time>2020-12-26T11:52:46Z</time><name>PT3227</name></trkpt>
<trkpt lat="52.043165" lon="05.784831"><ele>49.6</ele><time>2020-12-26T11:52:46Z</time><name>PT3228</name></trkpt>
<trkpt lat="52.043159" lon="05.784851"><ele>49.5</ele><time>2020-12-26T11:52:48Z</time><name>PT3229</name></trkpt>
<trkpt lat="52.043156" lon="05.784861"><ele>49.6</ele><time>2020-12-26T11:52:49Z</time><name>PT3230</name></trkpt>
<trkpt lat="52.043151" lon="05.784878"><ele>49.5</ele><time>2020-12-26T11:52:49Z</time><name>PT3231</name></trkpt>
<trkpt lat="52.043142" lon="05.784891"><ele>49.4</ele><time>2020-12-26T11:52:51Z</time><name>PT3232</name></trkpt>
<trkpt lat="52.043133" lon="05.784926"><ele>49.5</ele><time>2020-12-26T11:52:52Z</time><name>PT3233</name></trkpt>
<trkpt lat="52.043126" lon="05.784942"><ele>49.5</ele><time>2020-12-26T11:52:52Z</time><name>PT3234</name></trkpt>
<trkpt lat="52.043122" lon="05.784957"><ele>49.5</ele><time>2020-12-26T11:52:54Z</time><name>PT3235</name></trkpt>
<trkpt lat="52.043115" lon="05.784981"><ele>49.7</ele><time>2020-12-26T11:52:55Z</time><name>PT3236</name></trkpt>
<trkpt lat="52.043104" lon="05.785001"><ele>49.5</ele><time>2020-12-26T11:52:55Z</time><name>PT3237</name></trkpt>
<trkpt lat="52.043103" lon="05.785018"><ele>49.7</ele><time>2020-12-26T11:52:57Z</time><name>PT3238</name></trkpt>
<trkpt lat="52.043102" lon="05.785029"><ele>49.5</ele><time>2020-12-26T11:52:58Z</time><name>PT3239</name></trkpt>
<trkpt lat="52.043105" lon="05.785054"><ele>49.5</ele><time>2020-12-26T11:52:58Z</time><name>PT3240</name></trkpt>
<trkpt lat="52.043103" lon="05.785085"><ele>49.4</ele><time>2020-12-26T11:53:00Z</time><name>PT3241</name></trkpt>
<trkpt lat="52.043102" lon="05.785101"><ele>49.5</ele><time>2020-12-26T11:53:01Z</time><name>PT3242</name></trkpt>
<trkpt lat="52.043097" lon="05.785117"><ele>49.6</ele><time>2020-12-26T11:53:01Z</time><name>PT3243</name></trkpt>
<trkpt lat="52.043090" lon="05.785138"><ele>49.8</ele><time>2020-12-26T11:53:03Z</time><name>PT3244</name></trkpt>
<trkpt lat="52.043088" lon="05.785163"><ele>49.9</ele><time>2020-12-26T11:53:04Z</time><name>PT3245</name></trkpt>
<trkpt lat="52.043087" lon="05.785184"><ele>49.9</ele><time>2020-12-26T11:53:04Z</time><name>PT3246</name></trkpt>
<trkpt lat="52.043082" lon="05.785190"><ele>49.8</ele><time>2020-12-26T11:53:06Z</time><name>PT3247</name></trkpt>
<trkpt lat="52.043076" lon="05.785209"><ele>49.8</ele><time>2020-12-26T11:53:07Z</time><name>PT3248</name></trkpt>
<trkpt lat="52.043068" lon="05.785226"><ele>49.8</ele><time>2020-12-26T11:53:07Z</time><name>PT3249</name></trkpt>
<trkpt lat="52.043062" lon="05.785250"><ele>49.9</ele><time>2020-12-26T11:53:09Z</time><name>PT3250</name></trkpt>
<trkpt lat="52.043054" lon="05.785283"><ele>50.1</ele><time>2020-12-26T11:53:10Z</time><name>PT3251</name></trkpt>
<trkpt lat="52.043050" lon="05.785308"><ele>49.9</ele><time>2020-12-26T11:53:10Z</time><name>PT3252</name></trkpt>
<trkpt lat="52.043046" lon="05.785327"><ele>49.9</ele><time>2020-12-26T11:53:12Z</time><name>PT3253</name></trkpt>
<trkpt lat="52.043073" lon="05.785314"><ele>49.6</ele><time>2020-12-26T11:53:13Z</time><name>PT3254</name></trkpt>
<trkpt lat="52.043088" lon="05.785323"><ele>49.6</ele><time>2020-12-26T11:53:13Z</time><name>PT3255</name></trkpt>
<trkpt lat="52.043092" lon="05.785326"><ele>49.4</ele><time>2020-12-26T11:53:15Z</time><name>PT3256</name></trkpt>
<trkpt lat="52.043093" lon="05.785338"><ele>49.5</ele><time>2020-12-26T11:53:16Z</time><name>PT3257</name></trkpt>
<trkpt lat="52.043083" lon="05.785361"><ele>49.5</ele><time>2020-12-26T11:53:16Z</time><name>PT3258</name></trkpt>
<trkpt lat="52.043075" lon="05.785381"><ele>49.7</ele><time>2020-12-26T11:53:18Z</time><name>PT3259</name></trkpt>
<trkpt lat="52.043069" lon="05.785406"><ele>49.9</ele><time>2020-12-26T11:53:19Z</time><name>PT3260</name></trkpt>
<trkpt lat="52.043067" lon="05.785422"><ele>49.9</ele><time>2020-12-26T11:53:19Z</time><name>PT3261</name></trkpt>
<trkpt lat="52.043064" lon="05.785435"><ele>50</ele><time>2020-12-26T11:53:21Z</time><name>PT3262</name></trkpt>
<trkpt lat="52.043061" lon="05.785458"><ele>50.1</ele><time>2020-12-26T11:53:22Z</time><name>PT3263</name></trkpt>
<trkpt lat="52.043054" lon="05.785487"><ele>50</ele><time>2020-12-26T11:53:22Z</time><name>PT3264</name></trkpt>
<trkpt lat="52.043056" lon="05.785502"><ele>50</ele><time>2020-12-26T11:53:24Z</time><name>PT3265</name></trkpt>
<trkpt lat="52.043052" lon="05.785525"><ele>49.9</ele><time>2020-12-26T11:53:25Z</time><name>PT3266</name></trkpt>
<trkpt lat="52.043049" lon="05.785548"><ele>50</ele><time>2020-12-26T11:53:25Z</time><name>PT3267</name></trkpt>
<trkpt lat="52.043041" lon="05.785572"><ele>49.9</ele><time>2020-12-26T11:53:27Z</time><name>PT3268</name></trkpt>
<trkpt lat="52.043037" lon="05.785591"><ele>50</ele><time>2020-12-26T11:53:28Z</time><name>PT3269</name></trkpt>
<trkpt lat="52.043031" lon="05.785605"><ele>50.1</ele><time>2020-12-26T11:53:28Z</time><name>PT3270</name></trkpt>
<trkpt lat="52.043030" lon="05.785616"><ele>50.1</ele><time>2020-12-26T11:53:30Z</time><name>PT3271</name></trkpt>
<trkpt lat="52.043027" lon="05.785637"><ele>50.3</ele><time>2020-12-26T11:53:31Z</time><name>PT3272</name></trkpt>
<trkpt lat="52.043033" lon="05.785651"><ele>50.3</ele><time>2020-12-26T11:53:31Z</time><name>PT3273</name></trkpt>
<trkpt lat="52.043026" lon="05.785666"><ele>50.4</ele><time>2020-12-26T11:53:33Z</time><name>PT3274</name></trkpt>
<trkpt lat="52.043021" lon="05.785685"><ele>50.6</ele><time>2020-12-26T11:53:34Z</time><name>PT3275</name></trkpt>
<trkpt lat="52.043013" lon="05.785708"><ele>50.6</ele><time>2020-12-26T11:53:34Z</time><name>PT3276</name></trkpt>
<trkpt lat="52.043008" lon="05.785716"><ele>50.6</ele><time>2020-12-26T11:53:36Z</time><name>PT3277</name></trkpt>
<trkpt lat="52.042998" lon="05.785738"><ele>50.6</ele><time>2020-12-26T11:53:37Z</time><name>PT3278</name></trkpt>
<trkpt lat="52.042993" lon="05.785757"><ele>50.6</ele><time>2020-12-26T11:53:37Z</time><name>PT3279</name></trkpt>
<trkpt lat="52.042987" lon="05.785779"><ele>50.4</ele><time>2020-12-26T11:53:39Z</time><name>PT3280</name></trkpt>
<trkpt lat="52.042982" lon="05.785803"><ele>50.7</ele><time>2020-12-26T11:53:40Z</time><name>PT3281</name></trkpt>
<trkpt lat="52.042972" lon="05.785812"><ele>50.9</ele><time>2020-12-26T11:53:40Z</time><name>PT3282</name></trkpt>
<trkpt lat="52.042970" lon="05.785845"><ele>51</ele><time>2020-12-26T11:53:42Z</time><name>PT3283</name></trkpt>
<trkpt lat="52.042972" lon="05.785851"><ele>50.9</ele><time>2020-12-26T11:53:43Z</time><name>PT3284</name></trkpt>
<trkpt lat="52.042971" lon="05.785870"><ele>51</ele><time>2020-12-26T11:53:43Z</time><name>PT3285</name></trkpt>
<trkpt lat="52.042967" lon="05.785886"><ele>50.9</ele><time>2020-12-26T11:53:45Z</time><name>PT3286</name></trkpt>
<trkpt lat="52.042960" lon="05.785902"><ele>50.9</ele><time>2020-12-26T11:53:46Z</time><name>PT3287</name></trkpt>
<trkpt lat="52.042950" lon="05.785933"><ele>50.9</ele><time>2020-12-26T11:53:46Z</time><name>PT3288</name></trkpt>
<trkpt lat="52.042941" lon="05.785954"><ele>50.9</ele><time>2020-12-26T11:53:48Z</time><name>PT3289</name></trkpt>
<trkpt lat="52.042940" lon="05.785971"><ele>50.8</ele><time>2020-12-26T11:53:49Z</time><name>PT3290</name></trkpt>
<trkpt lat="52.042935" lon="05.785989"><ele>50.9</ele><time>2020-12-26T11:53:49Z</time><name>PT3291</name></trkpt>
<trkpt lat="52.042932" lon="05.786014"><ele>50.9</ele><time>2020-12-26T11:53:51Z</time><name>PT3292</name></trkpt>
<trkpt lat="52.042923" lon="05.786055"><ele>51</ele><time>2020-12-26T11:53:52Z</time><name>PT3293</name></trkpt>
<trkpt lat="52.042916" lon="05.786080"><ele>51</ele><time>2020-12-26T11:53:52Z</time><name>PT3294</name></trkpt>
<trkpt lat="52.042910" lon="05.786103"><ele>50.9</ele><time>2020-12-26T11:53:54Z</time><name>PT3295</name></trkpt>
<trkpt lat="52.042904" lon="05.786132"><ele>51.1</ele><time>2020-12-26T11:53:55Z</time><name>PT3296</name></trkpt>
<trkpt lat="52.042894" lon="05.786165"><ele>51.1</ele><time>2020-12-26T11:53:55Z</time><name>PT3297</name></trkpt>
<trkpt lat="52.042888" lon="05.786194"><ele>51.1</ele><time>2020-12-26T11:53:57Z</time><name>PT3298</name></trkpt>
<trkpt lat="52.042883" lon="05.786216"><ele>51.1</ele><time>2020-12-26T11:53:58Z</time><name>PT3299</name></trkpt>
<trkpt lat="52.042880" lon="05.786238"><ele>51.2</ele><time>2020-12-26T11:53:58Z</time><name>PT3300</name></trkpt>
<trkpt lat="52.042875" lon="05.786258"><ele>51</ele><time>2020-12-26T11:54:00Z</time><name>PT3301</name></trkpt>
<trkpt lat="52.042870" lon="05.786270"><ele>51</ele><time>2020-12-26T11:54:01Z</time><name>PT3302</name></trkpt>
<trkpt lat="52.042864" lon="05.786300"><ele>51</ele><time>2020-12-26T11:54:01Z</time><name>PT3303</name></trkpt>
<trkpt lat="52.042858" lon="05.786319"><ele>51.1</ele><time>2020-12-26T11:54:03Z</time><name>PT3304</name></trkpt>
<trkpt lat="52.042852" lon="05.786348"><ele>51.2</ele><time>2020-12-26T11:54:04Z</time><name>PT3305</name></trkpt>
<trkpt lat="52.042848" lon="05.786365"><ele>51.2</ele><time>2020-12-26T11:54:04Z</time><name>PT3306</name></trkpt>
<trkpt lat="52.042840" lon="05.786388"><ele>51.3</ele><time>2020-12-26T11:54:06Z</time><name>PT3307</name></trkpt>
<trkpt lat="52.042834" lon="05.786406"><ele>51.3</ele><time>2020-12-26T11:54:07Z</time><name>PT3308</name></trkpt>
<trkpt lat="52.042829" lon="05.786425"><ele>51.4</ele><time>2020-12-26T11:54:07Z</time><name>PT3309</name></trkpt>
<trkpt lat="52.042812" lon="05.786442"><ele>51.4</ele><time>2020-12-26T11:54:09Z</time><name>PT3310</name></trkpt>
<trkpt lat="52.042809" lon="05.786466"><ele>51.5</ele><time>2020-12-26T11:54:10Z</time><name>PT3311</name></trkpt>
<trkpt lat="52.042805" lon="05.786486"><ele>51.5</ele><time>2020-12-26T11:54:10Z</time><name>PT3312</name></trkpt>
<trkpt lat="52.042806" lon="05.786501"><ele>51.6</ele><time>2020-12-26T11:54:12Z</time><name>PT3313</name></trkpt>
<trkpt lat="52.042805" lon="05.786516"><ele>51.6</ele><time>2020-12-26T11:54:13Z</time><name>PT3314</name></trkpt>
<trkpt lat="52.042805" lon="05.786531"><ele>51.5</ele><time>2020-12-26T11:54:14Z</time><name>PT3315</name></trkpt>
<trkpt lat="52.042804" lon="05.786540"><ele>51.5</ele><time>2020-12-26T11:54:15Z</time><name>PT3316</name></trkpt>
<trkpt lat="52.042801" lon="05.786551"><ele>51.4</ele><time>2020-12-26T11:54:16Z</time><name>PT3317</name></trkpt>
<trkpt lat="52.042799" lon="05.786573"><ele>51.3</ele><time>2020-12-26T11:54:16Z</time><name>PT3318</name></trkpt>
<trkpt lat="52.042795" lon="05.786588"><ele>51.4</ele><time>2020-12-26T11:54:18Z</time><name>PT3319</name></trkpt>
<trkpt lat="52.042794" lon="05.786600"><ele>51.4</ele><time>2020-12-26T11:54:19Z</time><name>PT3320</name></trkpt>
<trkpt lat="52.042790" lon="05.786620"><ele>51.4</ele><time>2020-12-26T11:54:20Z</time><name>PT3321</name></trkpt>
<trkpt lat="52.042776" lon="05.786640"><ele>51.5</ele><time>2020-12-26T11:54:21Z</time><name>PT3322</name></trkpt>
<trkpt lat="52.042775" lon="05.786657"><ele>51.4</ele><time>2020-12-26T11:54:22Z</time><name>PT3323</name></trkpt>
<trkpt lat="52.042769" lon="05.786673"><ele>51.5</ele><time>2020-12-26T11:54:22Z</time><name>PT3324</name></trkpt>
<trkpt lat="52.042766" lon="05.786691"><ele>51.6</ele><time>2020-12-26T11:54:24Z</time><name>PT3325</name></trkpt>
<trkpt lat="52.042763" lon="05.786710"><ele>51.5</ele><time>2020-12-26T11:54:25Z</time><name>PT3326</name></trkpt>
<trkpt lat="52.042762" lon="05.786722"><ele>51.4</ele><time>2020-12-26T11:54:25Z</time><name>PT3327</name></trkpt>
<trkpt lat="52.042760" lon="05.786734"><ele>51.5</ele><time>2020-12-26T11:54:27Z</time><name>PT3328</name></trkpt>
<trkpt lat="52.042757" lon="05.786744"><ele>51.5</ele><time>2020-12-26T11:54:28Z</time><name>PT3329</name></trkpt>
<trkpt lat="52.042758" lon="05.786754"><ele>51.6</ele><time>2020-12-26T11:54:28Z</time><name>PT3330</name></trkpt>
<trkpt lat="52.042757" lon="05.786769"><ele>51.8</ele><time>2020-12-26T11:54:30Z</time><name>PT3331</name></trkpt>
<trkpt lat="52.042755" lon="05.786781"><ele>51.9</ele><time>2020-12-26T11:54:31Z</time><name>PT3332</name></trkpt>
<trkpt lat="52.042756" lon="05.786796"><ele>51.9</ele><time>2020-12-26T11:54:31Z</time><name>PT3333</name></trkpt>
<trkpt lat="52.042751" lon="05.786817"><ele>51.9</ele><time>2020-12-26T11:54:33Z</time><name>PT3334</name></trkpt>
<trkpt lat="52.042747" lon="05.786844"><ele>51.9</ele><time>2020-12-26T11:54:34Z</time><name>PT3335</name></trkpt>
<trkpt lat="52.042739" lon="05.786858"><ele>51.9</ele><time>2020-12-26T11:54:34Z</time><name>PT3336</name></trkpt>
<trkpt lat="52.042734" lon="05.786888"><ele>51.9</ele><time>2020-12-26T11:54:36Z</time><name>PT3337</name></trkpt>
<trkpt lat="52.042733" lon="05.786906"><ele>51.9</ele><time>2020-12-26T11:54:37Z</time><name>PT3338</name></trkpt>
<trkpt lat="52.042731" lon="05.786919"><ele>51.7</ele><time>2020-12-26T11:54:37Z</time><name>PT3339</name></trkpt>
<trkpt lat="52.042721" lon="05.786942"><ele>51.7</ele><time>2020-12-26T11:54:39Z</time><name>PT3340</name></trkpt>
<trkpt lat="52.042713" lon="05.786961"><ele>51.5</ele><time>2020-12-26T11:54:40Z</time><name>PT3341</name></trkpt>
<trkpt lat="52.042716" lon="05.786989"><ele>51.6</ele><time>2020-12-26T11:54:40Z</time><name>PT3342</name></trkpt>
<trkpt lat="52.042717" lon="05.787016"><ele>51.8</ele><time>2020-12-26T11:54:42Z</time><name>PT3343</name></trkpt>
<trkpt lat="52.042716" lon="05.787039"><ele>51.7</ele><time>2020-12-26T11:54:43Z</time><name>PT3344</name></trkpt>
<trkpt lat="52.042719" lon="05.787054"><ele>51.6</ele><time>2020-12-26T11:54:43Z</time><name>PT3345</name></trkpt>
<trkpt lat="52.042712" lon="05.787075"><ele>51.8</ele><time>2020-12-26T11:54:45Z</time><name>PT3346</name></trkpt>
<trkpt lat="52.042707" lon="05.787096"><ele>51.6</ele><time>2020-12-26T11:54:46Z</time><name>PT3347</name></trkpt>
<trkpt lat="52.042702" lon="05.787105"><ele>51.6</ele><time>2020-12-26T11:54:46Z</time><name>PT3348</name></trkpt>
<trkpt lat="52.042692" lon="05.787112"><ele>51.4</ele><time>2020-12-26T11:54:48Z</time><name>PT3349</name></trkpt>
<trkpt lat="52.042690" lon="05.787127"><ele>51.3</ele><time>2020-12-26T11:54:49Z</time><name>PT3350</name></trkpt>
<trkpt lat="52.042688" lon="05.787141"><ele>51.4</ele><time>2020-12-26T11:54:49Z</time><name>PT3351</name></trkpt>
<trkpt lat="52.042681" lon="05.787166"><ele>51.4</ele><time>2020-12-26T11:54:51Z</time><name>PT3352</name></trkpt>
<trkpt lat="52.042677" lon="05.787185"><ele>51.4</ele><time>2020-12-26T11:54:52Z</time><name>PT3353</name></trkpt>
<trkpt lat="52.042673" lon="05.787199"><ele>51.6</ele><time>2020-12-26T11:54:52Z</time><name>PT3354</name></trkpt>
<trkpt lat="52.042666" lon="05.787214"><ele>51.7</ele><time>2020-12-26T11:54:54Z</time><name>PT3355</name></trkpt>
<trkpt lat="52.042655" lon="05.787233"><ele>51.9</ele><time>2020-12-26T11:54:55Z</time><name>PT3356</name></trkpt>
<trkpt lat="52.042660" lon="05.787262"><ele>51.9</ele><time>2020-12-26T11:54:55Z</time><name>PT3357</name></trkpt>
<trkpt lat="52.042661" lon="05.787280"><ele>51.9</ele><time>2020-12-26T11:54:57Z</time><name>PT3358</name></trkpt>
<trkpt lat="52.042651" lon="05.787291"><ele>51.9</ele><time>2020-12-26T11:54:58Z</time><name>PT3359</name></trkpt>
<trkpt lat="52.042641" lon="05.787305"><ele>52</ele><time>2020-12-26T11:54:58Z</time><name>PT3360</name></trkpt>
<trkpt lat="52.042637" lon="05.787324"><ele>52.1</ele><time>2020-12-26T11:55:00Z</time><name>PT3361</name></trkpt>
<trkpt lat="52.042636" lon="05.787343"><ele>52.2</ele><time>2020-12-26T11:55:01Z</time><name>PT3362</name></trkpt>
<trkpt lat="52.042632" lon="05.787366"><ele>52.1</ele><time>2020-12-26T11:55:01Z</time><name>PT3363</name></trkpt>
<trkpt lat="52.042631" lon="05.787397"><ele>51.9</ele><time>2020-12-26T11:55:03Z</time><name>PT3364</name></trkpt>
<trkpt lat="52.042624" lon="05.787418"><ele>51.7</ele><time>2020-12-26T11:55:04Z</time><name>PT3365</name></trkpt>
<trkpt lat="52.042623" lon="05.787438"><ele>51.6</ele><time>2020-12-26T11:55:04Z</time><name>PT3366</name></trkpt>
<trkpt lat="52.042622" lon="05.787459"><ele>51.5</ele><time>2020-12-26T11:55:06Z</time><name>PT3367</name></trkpt>
<trkpt lat="52.042617" lon="05.787482"><ele>51.5</ele><time>2020-12-26T11:55:07Z</time><name>PT3368</name></trkpt>
<trkpt lat="52.042613" lon="05.787499"><ele>51.6</ele><time>2020-12-26T11:55:07Z</time><name>PT3369</name></trkpt>
<trkpt lat="52.042615" lon="05.787518"><ele>51.6</ele><time>2020-12-26T11:55:09Z</time><name>PT3370</name></trkpt>
<trkpt lat="52.042614" lon="05.787541"><ele>51.7</ele><time>2020-12-26T11:55:10Z</time><name>PT3371</name></trkpt>
<trkpt lat="52.042610" lon="05.787564"><ele>51.5</ele><time>2020-12-26T11:55:10Z</time><name>PT3372</name></trkpt>
<trkpt lat="52.042600" lon="05.787586"><ele>51.6</ele><time>2020-12-26T11:55:12Z</time><name>PT3373</name></trkpt>
<trkpt lat="52.042594" lon="05.787608"><ele>51.5</ele><time>2020-12-26T11:55:13Z</time><name>PT3374</name></trkpt>
<trkpt lat="52.042592" lon="05.787629"><ele>51.5</ele><time>2020-12-26T11:55:13Z</time><name>PT3375</name></trkpt>
<trkpt lat="52.042592" lon="05.787647"><ele>51.6</ele><time>2020-12-26T11:55:15Z</time><name>PT3376</name></trkpt>
<trkpt lat="52.042587" lon="05.787657"><ele>51.4</ele><time>2020-12-26T11:55:16Z</time><name>PT3377</name></trkpt>
<trkpt lat="52.042586" lon="05.787668"><ele>51.6</ele><time>2020-12-26T11:55:16Z</time><name>PT3378</name></trkpt>
<trkpt lat="52.042597" lon="05.787664"><ele>51.7</ele><time>2020-12-26T11:55:18Z</time><name>PT3379</name></trkpt>
<trkpt lat="52.042595" lon="05.787673"><ele>51.7</ele><time>2020-12-26T11:55:19Z</time><name>PT3380</name></trkpt>
<trkpt lat="52.042593" lon="05.787694"><ele>51.6</ele><time>2020-12-26T11:55:19Z</time><name>PT3381</name></trkpt>
<trkpt lat="52.042593" lon="05.787707"><ele>51.4</ele><time>2020-12-26T11:55:21Z</time><name>PT3382</name></trkpt>
<trkpt lat="52.042593" lon="05.787727"><ele>51.4</ele><time>2020-12-26T11:55:22Z</time><name>PT3383</name></trkpt>
<trkpt lat="52.042593" lon="05.787741"><ele>51.2</ele><time>2020-12-26T11:55:22Z</time><name>PT3384</name></trkpt>
<trkpt lat="52.042592" lon="05.787755"><ele>51.1</ele><time>2020-12-26T11:55:24Z</time><name>PT3385</name></trkpt>
<trkpt lat="52.042590" lon="05.787769"><ele>51.4</ele><time>2020-12-26T11:55:25Z</time><name>PT3386</name></trkpt>
<trkpt lat="52.042593" lon="05.787780"><ele>51.3</ele><time>2020-12-26T11:55:25Z</time><name>PT3387</name></trkpt>
<trkpt lat="52.042590" lon="05.787790"><ele>51.4</ele><time>2020-12-26T11:55:27Z</time><name>PT3388</name></trkpt>
<trkpt lat="52.042589" lon="05.787792"><ele>51.5</ele><time>2020-12-26T11:55:28Z</time><name>PT3389</name></trkpt>
<trkpt lat="52.042588" lon="05.787819"><ele>51.4</ele><time>2020-12-26T11:55:28Z</time><name>PT3390</name></trkpt>
<trkpt lat="52.042592" lon="05.787842"><ele>51.4</ele><time>2020-12-26T11:55:30Z</time><name>PT3391</name></trkpt>
<trkpt lat="52.042586" lon="05.787872"><ele>51.4</ele><time>2020-12-26T11:55:31Z</time><name>PT3392</name></trkpt>
<trkpt lat="52.042572" lon="05.787908"><ele>51.6</ele><time>2020-12-26T11:55:31Z</time><name>PT3393</name></trkpt>
<trkpt lat="52.042566" lon="05.787942"><ele>51.6</ele><time>2020-12-26T11:55:33Z</time><name>PT3394</name></trkpt>
<trkpt lat="52.042557" lon="05.787969"><ele>51.6</ele><time>2020-12-26T11:55:34Z</time><name>PT3395</name></trkpt>
<trkpt lat="52.042554" lon="05.787985"><ele>51.7</ele><time>2020-12-26T11:55:34Z</time><name>PT3396</name></trkpt>
<trkpt lat="52.042553" lon="05.788004"><ele>51.7</ele><time>2020-12-26T11:55:36Z</time><name>PT3397</name></trkpt>
<trkpt lat="52.042555" lon="05.788019"><ele>51.6</ele><time>2020-12-26T11:55:37Z</time><name>PT3398</name></trkpt>
<trkpt lat="52.042555" lon="05.788027"><ele>51.6</ele><time>2020-12-26T11:55:37Z</time><name>PT3399</name></trkpt>
<trkpt lat="52.042548" lon="05.788037"><ele>51.5</ele><time>2020-12-26T11:55:39Z</time><name>PT3400</name></trkpt>
<trkpt lat="52.042547" lon="05.788054"><ele>51.5</ele><time>2020-12-26T11:55:40Z</time><name>PT3401</name></trkpt>
<trkpt lat="52.042544" lon="05.788055"><ele>51.6</ele><time>2020-12-26T11:55:40Z</time><name>PT3402</name></trkpt>
<trkpt lat="52.042541" lon="05.788069"><ele>51.8</ele><time>2020-12-26T11:55:42Z</time><name>PT3403</name></trkpt>
<trkpt lat="52.042543" lon="05.788085"><ele>51.7</ele><time>2020-12-26T11:55:43Z</time><name>PT3404</name></trkpt>
<trkpt lat="52.042540" lon="05.788108"><ele>51.7</ele><time>2020-12-26T11:55:43Z</time><name>PT3405</name></trkpt>
<trkpt lat="52.042540" lon="05.788117"><ele>51.7</ele><time>2020-12-26T11:55:45Z</time><name>PT3406</name></trkpt>
<trkpt lat="52.042537" lon="05.788130"><ele>51.4</ele><time>2020-12-26T11:55:46Z</time><name>PT3407</name></trkpt>
<trkpt lat="52.042537" lon="05.788151"><ele>51.4</ele><time>2020-12-26T11:55:46Z</time><name>PT3408</name></trkpt>
<trkpt lat="52.042537" lon="05.788172"><ele>51.4</ele><time>2020-12-26T11:55:48Z</time><name>PT3409</name></trkpt>
<trkpt lat="52.042533" lon="05.788204"><ele>51.4</ele><time>2020-12-26T11:55:49Z</time><name>PT3410</name></trkpt>
<trkpt lat="52.042534" lon="05.788221"><ele>51.4</ele><time>2020-12-26T11:55:49Z</time><name>PT3411</name></trkpt>
<trkpt lat="52.042533" lon="05.788245"><ele>51.4</ele><time>2020-12-26T11:55:51Z</time><name>PT3412</name></trkpt>
<trkpt lat="52.042534" lon="05.788270"><ele>51.3</ele><time>2020-12-26T11:55:52Z</time><name>PT3413</name></trkpt>
<trkpt lat="52.042525" lon="05.788282"><ele>51.3</ele><time>2020-12-26T11:55:52Z</time><name>PT3414</name></trkpt>
<trkpt lat="52.042525" lon="05.788304"><ele>51.2</ele><time>2020-12-26T11:55:54Z</time><name>PT3415</name></trkpt>
<trkpt lat="52.042523" lon="05.788321"><ele>51.3</ele><time>2020-12-26T11:55:55Z</time><name>PT3416</name></trkpt>
<trkpt lat="52.042523" lon="05.788336"><ele>51.4</ele><time>2020-12-26T11:55:55Z</time><name>PT3417</name></trkpt>
<trkpt lat="52.042524" lon="05.788356"><ele>51.4</ele><time>2020-12-26T11:55:57Z</time><name>PT3418</name></trkpt>
<trkpt lat="52.042519" lon="05.788378"><ele>51.5</ele><time>2020-12-26T11:55:58Z</time><name>PT3419</name></trkpt>
<trkpt lat="52.042510" lon="05.788413"><ele>51.4</ele><time>2020-12-26T11:55:58Z</time><name>PT3420</name></trkpt>
<trkpt lat="52.042508" lon="05.788427"><ele>51.2</ele><time>2020-12-26T11:56:00Z</time><name>PT3421</name></trkpt>
<trkpt lat="52.042513" lon="05.788447"><ele>51.1</ele><time>2020-12-26T11:56:01Z</time><name>PT3422</name></trkpt>
<trkpt lat="52.042510" lon="05.788460"><ele>51</ele><time>2020-12-26T11:56:01Z</time><name>PT3423</name></trkpt>
<trkpt lat="52.042510" lon="05.788479"><ele>51.1</ele><time>2020-12-26T11:56:03Z</time><name>PT3424</name></trkpt>
<trkpt lat="52.042507" lon="05.788502"><ele>51.4</ele><time>2020-12-26T11:56:04Z</time><name>PT3425</name></trkpt>
<trkpt lat="52.042504" lon="05.788525"><ele>51.4</ele><time>2020-12-26T11:56:04Z</time><name>PT3426</name></trkpt>
<trkpt lat="52.042501" lon="05.788546"><ele>51.4</ele><time>2020-12-26T11:56:06Z</time><name>PT3427</name></trkpt>
<trkpt lat="52.042500" lon="05.788564"><ele>51.4</ele><time>2020-12-26T11:56:07Z</time><name>PT3428</name></trkpt>
<trkpt lat="52.042500" lon="05.788582"><ele>51.3</ele><time>2020-12-26T11:56:07Z</time><name>PT3429</name></trkpt>
<trkpt lat="52.042496" lon="05.788593"><ele>51.4</ele><time>2020-12-26T11:56:09Z</time><name>PT3430</name></trkpt>
<trkpt lat="52.042490" lon="05.788610"><ele>51.5</ele><time>2020-12-26T11:56:10Z</time><name>PT3431</name></trkpt>
<trkpt lat="52.042480" lon="05.788625"><ele>51.4</ele><time>2020-12-26T11:56:10Z</time><name>PT3432</name></trkpt>
<trkpt lat="52.042472" lon="05.788637"><ele>51.4</ele><time>2020-12-26T11:56:12Z</time><name>PT3433</name></trkpt>
<trkpt lat="52.042467" lon="05.788660"><ele>51.4</ele><time>2020-12-26T11:56:13Z</time><name>PT3434</name></trkpt>
<trkpt lat="52.042463" lon="05.788674"><ele>51.3</ele><time>2020-12-26T11:56:14Z</time><name>PT3435</name></trkpt>
<trkpt lat="52.042463" lon="05.788693"><ele>51.4</ele><time>2020-12-26T11:56:15Z</time><name>PT3436</name></trkpt>
<trkpt lat="52.042459" lon="05.788715"><ele>51.4</ele><time>2020-12-26T11:56:16Z</time><name>PT3437</name></trkpt>
<trkpt lat="52.042452" lon="05.788737"><ele>51.4</ele><time>2020-12-26T11:56:16Z</time><name>PT3438</name></trkpt>
<trkpt lat="52.042446" lon="05.788750"><ele>51.4</ele><time>2020-12-26T11:56:18Z</time><name>PT3439</name></trkpt>
<trkpt lat="52.042442" lon="05.788767"><ele>51.2</ele><time>2020-12-26T11:56:19Z</time><name>PT3440</name></trkpt>
<trkpt lat="52.042442" lon="05.788781"><ele>51.3</ele><time>2020-12-26T11:56:19Z</time><name>PT3441</name></trkpt>
<trkpt lat="52.042454" lon="05.788760"><ele>51.1</ele><time>2020-12-26T11:56:21Z</time><name>PT3442</name></trkpt>
<trkpt lat="52.042454" lon="05.788767"><ele>51</ele><time>2020-12-26T11:56:22Z</time><name>PT3443</name></trkpt>
<trkpt lat="52.042451" lon="05.788782"><ele>51</ele><time>2020-12-26T11:56:22Z</time><name>PT3444</name></trkpt>
<trkpt lat="52.042446" lon="05.788789"><ele>51.2</ele><time>2020-12-26T11:56:24Z</time><name>PT3445</name></trkpt>
<trkpt lat="52.042446" lon="05.788802"><ele>51.2</ele><time>2020-12-26T11:56:25Z</time><name>PT3446</name></trkpt>
<trkpt lat="52.042438" lon="05.788818"><ele>51.2</ele><time>2020-12-26T11:56:25Z</time><name>PT3447</name></trkpt>
<trkpt lat="52.042433" lon="05.788843"><ele>51.2</ele><time>2020-12-26T11:56:27Z</time><name>PT3448</name></trkpt>
<trkpt lat="52.042428" lon="05.788864"><ele>51.2</ele><time>2020-12-26T11:56:28Z</time><name>PT3449</name></trkpt>
<trkpt lat="52.042421" lon="05.788888"><ele>51.2</ele><time>2020-12-26T11:56:28Z</time><name>PT3450</name></trkpt>
<trkpt lat="52.042420" lon="05.788911"><ele>51.4</ele><time>2020-12-26T11:56:30Z</time><name>PT3451</name></trkpt>
<trkpt lat="52.042420" lon="05.788937"><ele>51.4</ele><time>2020-12-26T11:56:31Z</time><name>PT3452</name></trkpt>
<trkpt lat="52.042419" lon="05.788953"><ele>51.4</ele><time>2020-12-26T11:56:31Z</time><name>PT3453</name></trkpt>
<trkpt lat="52.042416" lon="05.788962"><ele>51.3</ele><time>2020-12-26T11:56:33Z</time><name>PT3454</name></trkpt>
<trkpt lat="52.042411" lon="05.788974"><ele>51.1</ele><time>2020-12-26T11:56:34Z</time><name>PT3455</name></trkpt>
<trkpt lat="52.042405" lon="05.788993"><ele>51</ele><time>2020-12-26T11:56:34Z</time><name>PT3456</name></trkpt>
<trkpt lat="52.042405" lon="05.789009"><ele>50.9</ele><time>2020-12-26T11:56:36Z</time><name>PT3457</name></trkpt>
<trkpt lat="52.042406" lon="05.789031"><ele>51.1</ele><time>2020-12-26T11:56:37Z</time><name>PT3458</name></trkpt>
<trkpt lat="52.042403" lon="05.789055"><ele>51.2</ele><time>2020-12-26T11:56:37Z</time><name>PT3459</name></trkpt>
<trkpt lat="52.042402" lon="05.789075"><ele>51.3</ele><time>2020-12-26T11:56:39Z</time><name>PT3460</name></trkpt>
<trkpt lat="52.042398" lon="05.789105"><ele>51.4</ele><time>2020-12-26T11:56:40Z</time><name>PT3461</name></trkpt>
<trkpt lat="52.042394" lon="05.789121"><ele>51.4</ele><time>2020-12-26T11:56:40Z</time><name>PT3462</name></trkpt>
<trkpt lat="52.042391" lon="05.789145"><ele>51.4</ele><time>2020-12-26T11:56:42Z</time><name>PT3463</name></trkpt>
<trkpt lat="52.042391" lon="05.789181"><ele>51.4</ele><time>2020-12-26T11:56:43Z</time><name>PT3464</name></trkpt>
<trkpt lat="52.042392" lon="05.789212"><ele>51.3</ele><time>2020-12-26T11:56:43Z</time><name>PT3465</name></trkpt>
<trkpt lat="52.042390" lon="05.789240"><ele>51.2</ele><time>2020-12-26T11:56:45Z</time><name>PT3466</name></trkpt>
<trkpt lat="52.042387" lon="05.789258"><ele>51.2</ele><time>2020-12-26T11:56:46Z</time><name>PT3467</name></trkpt>
<trkpt lat="52.042385" lon="05.789272"><ele>51.1</ele><time>2020-12-26T11:56:46Z</time><name>PT3468</name></trkpt>
<trkpt lat="52.042389" lon="05.789287"><ele>51.1</ele><time>2020-12-26T11:56:48Z</time><name>PT3469</name></trkpt>
<trkpt lat="52.042389" lon="05.789306"><ele>51.3</ele><time>2020-12-26T11:56:49Z</time><name>PT3470</name></trkpt>
<trkpt lat="52.042386" lon="05.789321"><ele>51.3</ele><time>2020-12-26T11:56:49Z</time><name>PT3471</name></trkpt>
<trkpt lat="52.042382" lon="05.789342"><ele>51.3</ele><time>2020-12-26T11:56:51Z</time><name>PT3472</name></trkpt>
<trkpt lat="52.042376" lon="05.789366"><ele>51.1</ele><time>2020-12-26T11:56:52Z</time><name>PT3473</name></trkpt>
<trkpt lat="52.042371" lon="05.789384"><ele>51.1</ele><time>2020-12-26T11:56:52Z</time><name>PT3474</name></trkpt>
<trkpt lat="52.042369" lon="05.789397"><ele>50.8</ele><time>2020-12-26T11:56:54Z</time><name>PT3475</name></trkpt>
<trkpt lat="52.042369" lon="05.789416"><ele>50.7</ele><time>2020-12-26T11:56:55Z</time><name>PT3476</name></trkpt>
<trkpt lat="52.042364" lon="05.789439"><ele>50.8</ele><time>2020-12-26T11:56:55Z</time><name>PT3477</name></trkpt>
<trkpt lat="52.042358" lon="05.789459"><ele>50.9</ele><time>2020-12-26T11:56:57Z</time><name>PT3478</name></trkpt>
<trkpt lat="52.042353" lon="05.789480"><ele>51</ele><time>2020-12-26T11:56:58Z</time><name>PT3479</name></trkpt>
<trkpt lat="52.042347" lon="05.789506"><ele>51</ele><time>2020-12-26T11:56:58Z</time><name>PT3480</name></trkpt>
<trkpt lat="52.042342" lon="05.789526"><ele>50.9</ele><time>2020-12-26T11:57:00Z</time><name>PT3481</name></trkpt>
<trkpt lat="52.042337" lon="05.789548"><ele>51.1</ele><time>2020-12-26T11:57:01Z</time><name>PT3482</name></trkpt>
<trkpt lat="52.042330" lon="05.789571"><ele>51.1</ele><time>2020-12-26T11:57:01Z</time><name>PT3483</name></trkpt>
<trkpt lat="52.042327" lon="05.789587"><ele>51.1</ele><time>2020-12-26T11:57:03Z</time><name>PT3484</name></trkpt>
<trkpt lat="52.042319" lon="05.789607"><ele>51.2</ele><time>2020-12-26T11:57:04Z</time><name>PT3485</name></trkpt>
<trkpt lat="52.042318" lon="05.789627"><ele>51.1</ele><time>2020-12-26T11:57:04Z</time><name>PT3486</name></trkpt>
<trkpt lat="52.042315" lon="05.789645"><ele>50.9</ele><time>2020-12-26T11:57:06Z</time><name>PT3487</name></trkpt>
<trkpt lat="52.042312" lon="05.789666"><ele>50.9</ele><time>2020-12-26T11:57:07Z</time><name>PT3488</name></trkpt>
<trkpt lat="52.042310" lon="05.789687"><ele>50.9</ele><time>2020-12-26T11:57:07Z</time><name>PT3489</name></trkpt>
<trkpt lat="52.042310" lon="05.789695"><ele>51</ele><time>2020-12-26T11:57:09Z</time><name>PT3490</name></trkpt>
<trkpt lat="52.042307" lon="05.789716"><ele>51</ele><time>2020-12-26T11:57:10Z</time><name>PT3491</name></trkpt>
<trkpt lat="52.042303" lon="05.789745"><ele>51</ele><time>2020-12-26T11:57:10Z</time><name>PT3492</name></trkpt>
<trkpt lat="52.042302" lon="05.789768"><ele>51.1</ele><time>2020-12-26T11:57:12Z</time><name>PT3493</name></trkpt>
<trkpt lat="52.042300" lon="05.789791"><ele>50.9</ele><time>2020-12-26T11:57:13Z</time><name>PT3494</name></trkpt>
<trkpt lat="52.042299" lon="05.789807"><ele>51</ele><time>2020-12-26T11:57:13Z</time><name>PT3495</name></trkpt>
<trkpt lat="52.042294" lon="05.789824"><ele>50.9</ele><time>2020-12-26T11:57:15Z</time><name>PT3496</name></trkpt>
<trkpt lat="52.042292" lon="05.789842"><ele>51</ele><time>2020-12-26T11:57:16Z</time><name>PT3497</name></trkpt>
<trkpt lat="52.042292" lon="05.789856"><ele>50.9</ele><time>2020-12-26T11:57:16Z</time><name>PT3498</name></trkpt>
<trkpt lat="52.042291" lon="05.789873"><ele>51.1</ele><time>2020-12-26T11:57:18Z</time><name>PT3499</name></trkpt>
<trkpt lat="52.042286" lon="05.789886"><ele>51.1</ele><time>2020-12-26T11:57:19Z</time><name>PT3500</name></trkpt>
<trkpt lat="52.042284" lon="05.789899"><ele>51.1</ele><time>2020-12-26T11:57:19Z</time><name>PT3501</name></trkpt>
<trkpt lat="52.042277" lon="05.789927"><ele>51.1</ele><time>2020-12-26T11:57:21Z</time><name>PT3502</name></trkpt>
<trkpt lat="52.042269" lon="05.789955"><ele>50.9</ele><time>2020-12-26T11:57:22Z</time><name>PT3503</name></trkpt>
<trkpt lat="52.042265" lon="05.789974"><ele>50.9</ele><time>2020-12-26T11:57:22Z</time><name>PT3504</name></trkpt>
<trkpt lat="52.042270" lon="05.789995"><ele>51</ele><time>2020-12-26T11:57:24Z</time><name>PT3505</name></trkpt>
<trkpt lat="52.042267" lon="05.790015"><ele>51.2</ele><time>2020-12-26T11:57:25Z</time><name>PT3506</name></trkpt>
<trkpt lat="52.042272" lon="05.790043"><ele>51.1</ele><time>2020-12-26T11:57:25Z</time><name>PT3507</name></trkpt>
<trkpt lat="52.042277" lon="05.790070"><ele>50.9</ele><time>2020-12-26T11:57:27Z</time><name>PT3508</name></trkpt>
<trkpt lat="52.042272" lon="05.790092"><ele>50.9</ele><time>2020-12-26T11:57:28Z</time><name>PT3509</name></trkpt>
<trkpt lat="52.042266" lon="05.790111"><ele>50.8</ele><time>2020-12-26T11:57:28Z</time><name>PT3510</name></trkpt>
<trkpt lat="52.042260" lon="05.790135"><ele>50.8</ele><time>2020-12-26T11:57:30Z</time><name>PT3511</name></trkpt>
<trkpt lat="52.042255" lon="05.790156"><ele>50.9</ele><time>2020-12-26T11:57:31Z</time><name>PT3512</name></trkpt>
<trkpt lat="52.042248" lon="05.790182"><ele>50.9</ele><time>2020-12-26T11:57:31Z</time><name>PT3513</name></trkpt>
<trkpt lat="52.042249" lon="05.790212"><ele>50.7</ele><time>2020-12-26T11:57:33Z</time><name>PT3514</name></trkpt>
<trkpt lat="52.042244" lon="05.790229"><ele>50.5</ele><time>2020-12-26T11:57:34Z</time><name>PT3515</name></trkpt>
<trkpt lat="52.042237" lon="05.790253"><ele>50.5</ele><time>2020-12-26T11:57:34Z</time><name>PT3516</name></trkpt>
<trkpt lat="52.042234" lon="05.790274"><ele>50.4</ele><time>2020-12-26T11:57:36Z</time><name>PT3517</name></trkpt>
<trkpt lat="52.042229" lon="05.790294"><ele>50.4</ele><time>2020-12-26T11:57:37Z</time><name>PT3518</name></trkpt>
<trkpt lat="52.042225" lon="05.790311"><ele>50.4</ele><time>2020-12-26T11:57:37Z</time><name>PT3519</name></trkpt>
<trkpt lat="52.042224" lon="05.790327"><ele>50.6</ele><time>2020-12-26T11:57:39Z</time><name>PT3520</name></trkpt>
<trkpt lat="52.042224" lon="05.790341"><ele>50.6</ele><time>2020-12-26T11:57:40Z</time><name>PT3521</name></trkpt>
<trkpt lat="52.042221" lon="05.790360"><ele>50.5</ele><time>2020-12-26T11:57:40Z</time><name>PT3522</name></trkpt>
<trkpt lat="52.042218" lon="05.790374"><ele>50.6</ele><time>2020-12-26T11:57:42Z</time><name>PT3523</name></trkpt>
<trkpt lat="52.042216" lon="05.790391"><ele>50.4</ele><time>2020-12-26T11:57:43Z</time><name>PT3524</name></trkpt>
<trkpt lat="52.042212" lon="05.790417"><ele>50.4</ele><time>2020-12-26T11:57:43Z</time><name>PT3525</name></trkpt>
<trkpt lat="52.042209" lon="05.790434"><ele>50.4</ele><time>2020-12-26T11:57:45Z</time><name>PT3526</name></trkpt>
<trkpt lat="52.042206" lon="05.790446"><ele>50.4</ele><time>2020-12-26T11:57:46Z</time><name>PT3527</name></trkpt>
<trkpt lat="52.042206" lon="05.790467"><ele>50.2</ele><time>2020-12-26T11:57:46Z</time><name>PT3528</name></trkpt>
<trkpt lat="52.042205" lon="05.790484"><ele>50.2</ele><time>2020-12-26T11:57:48Z</time><name>PT3529</name></trkpt>
<trkpt lat="52.042202" lon="05.790498"><ele>50.3</ele><time>2020-12-26T11:57:49Z</time><name>PT3530</name></trkpt>
<trkpt lat="52.042198" lon="05.790511"><ele>50.4</ele><time>2020-12-26T11:57:49Z</time><name>PT3531</name></trkpt>
<trkpt lat="52.042195" lon="05.790525"><ele>50.4</ele><time>2020-12-26T11:57:51Z</time><name>PT3532</name></trkpt>
<trkpt lat="52.042193" lon="05.790544"><ele>50.4</ele><time>2020-12-26T11:57:52Z</time><name>PT3533</name></trkpt>
<trkpt lat="52.042192" lon="05.790564"><ele>50.5</ele><time>2020-12-26T11:57:52Z</time><name>PT3534</name></trkpt>
<trkpt lat="52.042191" lon="05.790592"><ele>50.4</ele><time>2020-12-26T11:57:54Z</time><name>PT3535</name></trkpt>
<trkpt lat="52.042188" lon="05.790609"><ele>50.4</ele><time>2020-12-26T11:57:55Z</time><name>PT3536</name></trkpt>
<trkpt lat="52.042189" lon="05.790627"><ele>50.4</ele><time>2020-12-26T11:57:55Z</time><name>PT3537</name></trkpt>
<trkpt lat="52.042188" lon="05.790637"><ele>50.3</ele><time>2020-12-26T11:57:57Z</time><name>PT3538</name></trkpt>
<trkpt lat="52.042188" lon="05.790655"><ele>50.2</ele><time>2020-12-26T11:57:58Z</time><name>PT3539</name></trkpt>
<trkpt lat="52.042184" lon="05.790673"><ele>50.3</ele><time>2020-12-26T11:57:58Z</time><name>PT3540</name></trkpt>
<trkpt lat="52.042180" lon="05.790699"><ele>50.1</ele><time>2020-12-26T11:58:00Z</time><name>PT3541</name></trkpt>
<trkpt lat="52.042176" lon="05.790717"><ele>50.2</ele><time>2020-12-26T11:58:01Z</time><name>PT3542</name></trkpt>
<trkpt lat="52.042173" lon="05.790737"><ele>50.3</ele><time>2020-12-26T11:58:01Z</time><name>PT3543</name></trkpt>
<trkpt lat="52.042171" lon="05.790761"><ele>50.2</ele><time>2020-12-26T11:58:03Z</time><name>PT3544</name></trkpt>
<trkpt lat="52.042172" lon="05.790779"><ele>50.3</ele><time>2020-12-26T11:58:04Z</time><name>PT3545</name></trkpt>
<trkpt lat="52.042168" lon="05.790791"><ele>50.2</ele><time>2020-12-26T11:58:04Z</time><name>PT3546</name></trkpt>
<trkpt lat="52.042167" lon="05.790811"><ele>50</ele><time>2020-12-26T11:58:06Z</time><name>PT3547</name></trkpt>
<trkpt lat="52.042165" lon="05.790833"><ele>50.1</ele><time>2020-12-26T11:58:07Z</time><name>PT3548</name></trkpt>
<trkpt lat="52.042162" lon="05.790849"><ele>50.1</ele><time>2020-12-26T11:58:07Z</time><name>PT3549</name></trkpt>
<trkpt lat="52.042162" lon="05.790868"><ele>50.2</ele><time>2020-12-26T11:58:09Z</time><name>PT3550</name></trkpt>
<trkpt lat="52.042159" lon="05.790887"><ele>50.2</ele><time>2020-12-26T11:58:10Z</time><name>PT3551</name></trkpt>
<trkpt lat="52.042154" lon="05.790908"><ele>50.2</ele><time>2020-12-26T11:58:10Z</time><name>PT3552</name></trkpt>
<trkpt lat="52.042148" lon="05.790932"><ele>50.1</ele><time>2020-12-26T11:58:12Z</time><name>PT3553</name></trkpt>
<trkpt lat="52.042145" lon="05.790962"><ele>49.9</ele><time>2020-12-26T11:58:13Z</time><name>PT3554</name></trkpt>
<trkpt lat="52.042142" lon="05.790983"><ele>50.1</ele><time>2020-12-26T11:58:13Z</time><name>PT3555</name></trkpt>
<trkpt lat="52.042139" lon="05.791003"><ele>50.1</ele><time>2020-12-26T11:58:15Z</time><name>PT3556</name></trkpt>
<trkpt lat="52.042135" lon="05.791028"><ele>50.1</ele><time>2020-12-26T11:58:16Z</time><name>PT3557</name></trkpt>
<trkpt lat="52.042134" lon="05.791056"><ele>50.3</ele><time>2020-12-26T11:58:16Z</time><name>PT3558</name></trkpt>
<trkpt lat="52.042133" lon="05.791079"><ele>50</ele><time>2020-12-26T11:58:18Z</time><name>PT3559</name></trkpt>
<trkpt lat="52.042132" lon="05.791094"><ele>49.9</ele><time>2020-12-26T11:58:19Z</time><name>PT3560</name></trkpt>
<trkpt lat="52.042130" lon="05.791097"><ele>49.9</ele><time>2020-12-26T11:58:19Z</time><name>PT3561</name></trkpt>
<trkpt lat="52.042130" lon="05.791108"><ele>49.9</ele><time>2020-12-26T11:58:21Z</time><name>PT3562</name></trkpt>
<trkpt lat="52.042129" lon="05.791114"><ele>50</ele><time>2020-12-26T11:58:22Z</time><name>PT3563</name></trkpt>
<trkpt lat="52.042128" lon="05.791117"><ele>50</ele><time>2020-12-26T11:58:22Z</time><name>PT3564</name></trkpt>
<trkpt lat="52.042119" lon="05.791162"><ele>49.9</ele><time>2020-12-26T11:58:37Z</time><name>PT3565</name></trkpt>
<trkpt lat="52.042120" lon="05.791194"><ele>50</ele><time>2020-12-26T11:58:39Z</time><name>PT3566</name></trkpt>
<trkpt lat="52.042114" lon="05.791232"><ele>50.3</ele><time>2020-12-26T11:58:40Z</time><name>PT3567</name></trkpt>
<trkpt lat="52.042115" lon="05.791269"><ele>50.3</ele><time>2020-12-26T11:58:40Z</time><name>PT3568</name></trkpt>
<trkpt lat="52.042113" lon="05.791307"><ele>50.3</ele><time>2020-12-26T11:58:42Z</time><name>PT3569</name></trkpt>
<trkpt lat="52.042111" lon="05.791342"><ele>49.9</ele><time>2020-12-26T11:58:43Z</time><name>PT3570</name></trkpt>
<trkpt lat="52.042110" lon="05.791361"><ele>49.9</ele><time>2020-12-26T11:58:43Z</time><name>PT3571</name></trkpt>
<trkpt lat="52.042107" lon="05.791394"><ele>49.8</ele><time>2020-12-26T11:58:45Z</time><name>PT3572</name></trkpt>
<trkpt lat="52.042101" lon="05.791411"><ele>49.6</ele><time>2020-12-26T11:58:46Z</time><name>PT3573</name></trkpt>
<trkpt lat="52.042094" lon="05.791428"><ele>49.6</ele><time>2020-12-26T11:58:46Z</time><name>PT3574</name></trkpt>
<trkpt lat="52.042090" lon="05.791461"><ele>49.9</ele><time>2020-12-26T11:58:48Z</time><name>PT3575</name></trkpt>
<trkpt lat="52.042088" lon="05.791478"><ele>49.8</ele><time>2020-12-26T11:58:49Z</time><name>PT3576</name></trkpt>
<trkpt lat="52.042089" lon="05.791507"><ele>49.7</ele><time>2020-12-26T11:58:49Z</time><name>PT3577</name></trkpt>
<trkpt lat="52.042085" lon="05.791529"><ele>49.9</ele><time>2020-12-26T11:58:51Z</time><name>PT3578</name></trkpt>
<trkpt lat="52.042082" lon="05.791550"><ele>49.8</ele><time>2020-12-26T11:58:52Z</time><name>PT3579</name></trkpt>
<trkpt lat="52.042078" lon="05.791570"><ele>49.8</ele><time>2020-12-26T11:58:52Z</time><name>PT3580</name></trkpt>
<trkpt lat="52.042075" lon="05.791587"><ele>49.8</ele><time>2020-12-26T11:58:54Z</time><name>PT3581</name></trkpt>
<trkpt lat="52.042072" lon="05.791601"><ele>49.5</ele><time>2020-12-26T11:58:55Z</time><name>PT3582</name></trkpt>
<trkpt lat="52.042068" lon="05.791621"><ele>49.7</ele><time>2020-12-26T11:58:55Z</time><name>PT3583</name></trkpt>
<trkpt lat="52.042068" lon="05.791653"><ele>49.6</ele><time>2020-12-26T11:58:57Z</time><name>PT3584</name></trkpt>
<trkpt lat="52.042068" lon="05.791676"><ele>49.6</ele><time>2020-12-26T11:58:58Z</time><name>PT3585</name></trkpt>
<trkpt lat="52.042065" lon="05.791707"><ele>49.6</ele><time>2020-12-26T11:58:58Z</time><name>PT3586</name></trkpt>
<trkpt lat="52.042067" lon="05.791726"><ele>49.5</ele><time>2020-12-26T11:59:00Z</time><name>PT3587</name></trkpt>
<trkpt lat="52.042067" lon="05.791744"><ele>49.6</ele><time>2020-12-26T11:59:01Z</time><name>PT3588</name></trkpt>
<trkpt lat="52.042067" lon="05.791764"><ele>49.7</ele><time>2020-12-26T11:59:01Z</time><name>PT3589</name></trkpt>
<trkpt lat="52.042067" lon="05.791783"><ele>49.8</ele><time>2020-12-26T11:59:03Z</time><name>PT3590</name></trkpt>
<trkpt lat="52.042060" lon="05.791796"><ele>49.9</ele><time>2020-12-26T11:59:04Z</time><name>PT3591</name></trkpt>
<trkpt lat="52.042055" lon="05.791818"><ele>49.8</ele><time>2020-12-26T11:59:04Z</time><name>PT3592</name></trkpt>
<trkpt lat="52.042047" lon="05.791857"><ele>49.8</ele><time>2020-12-26T11:59:06Z</time><name>PT3593</name></trkpt>
<trkpt lat="52.042044" lon="05.791884"><ele>49.5</ele><time>2020-12-26T11:59:07Z</time><name>PT3594</name></trkpt>
<trkpt lat="52.042040" lon="05.791908"><ele>49.5</ele><time>2020-12-26T11:59:07Z</time><name>PT3595</name></trkpt>
<trkpt lat="52.042040" lon="05.791928"><ele>49.5</ele><time>2020-12-26T11:59:09Z</time><name>PT3596</name></trkpt>
<trkpt lat="52.042037" lon="05.791953"><ele>49.5</ele><time>2020-12-26T11:59:10Z</time><name>PT3597</name></trkpt>
<trkpt lat="52.042039" lon="05.791976"><ele>49.5</ele><time>2020-12-26T11:59:10Z</time><name>PT3598</name></trkpt>
<trkpt lat="52.042038" lon="05.791996"><ele>49.5</ele><time>2020-12-26T11:59:12Z</time><name>PT3599</name></trkpt>
<trkpt lat="52.042040" lon="05.792013"><ele>49.5</ele><time>2020-12-26T11:59:13Z</time><name>PT3600</name></trkpt>
<trkpt lat="52.042040" lon="05.792034"><ele>49.6</ele><time>2020-12-26T11:59:14Z</time><name>PT3601</name></trkpt>
<trkpt lat="52.042044" lon="05.792048"><ele>49.6</ele><time>2020-12-26T11:59:15Z</time><name>PT3602</name></trkpt>
<trkpt lat="52.042044" lon="05.792069"><ele>49.9</ele><time>2020-12-26T11:59:16Z</time><name>PT3603</name></trkpt>
<trkpt lat="52.042040" lon="05.792095"><ele>49.5</ele><time>2020-12-26T11:59:16Z</time><name>PT3604</name></trkpt>
<trkpt lat="52.042033" lon="05.792117"><ele>49.5</ele><time>2020-12-26T11:59:18Z</time><name>PT3605</name></trkpt>
<trkpt lat="52.042031" lon="05.792144"><ele>49.4</ele><time>2020-12-26T11:59:19Z</time><name>PT3606</name></trkpt>
<trkpt lat="52.042031" lon="05.792160"><ele>49.2</ele><time>2020-12-26T11:59:19Z</time><name>PT3607</name></trkpt>
<trkpt lat="52.042030" lon="05.792186"><ele>49.2</ele><time>2020-12-26T11:59:21Z</time><name>PT3608</name></trkpt>
<trkpt lat="52.042031" lon="05.792199"><ele>49.2</ele><time>2020-12-26T11:59:22Z</time><name>PT3609</name></trkpt>
<trkpt lat="52.042027" lon="05.792217"><ele>49.1</ele><time>2020-12-26T11:59:22Z</time><name>PT3610</name></trkpt>
<trkpt lat="52.042028" lon="05.792234"><ele>49.2</ele><time>2020-12-26T11:59:24Z</time><name>PT3611</name></trkpt>
<trkpt lat="52.042023" lon="05.792252"><ele>49</ele><time>2020-12-26T11:59:25Z</time><name>PT3612</name></trkpt>
<trkpt lat="52.042024" lon="05.792277"><ele>49.1</ele><time>2020-12-26T11:59:25Z</time><name>PT3613</name></trkpt>
<trkpt lat="52.042020" lon="05.792296"><ele>49.1</ele><time>2020-12-26T11:59:27Z</time><name>PT3614</name></trkpt>
<trkpt lat="52.042019" lon="05.792317"><ele>49.1</ele><time>2020-12-26T11:59:28Z</time><name>PT3615</name></trkpt>
<trkpt lat="52.042014" lon="05.792344"><ele>49.3</ele><time>2020-12-26T11:59:28Z</time><name>PT3616</name></trkpt>
<trkpt lat="52.042017" lon="05.792365"><ele>49.3</ele><time>2020-12-26T11:59:30Z</time><name>PT3617</name></trkpt>
<trkpt lat="52.042016" lon="05.792388"><ele>49.4</ele><time>2020-12-26T11:59:31Z</time><name>PT3618</name></trkpt>
<trkpt lat="52.042017" lon="05.792406"><ele>49.2</ele><time>2020-12-26T11:59:31Z</time><name>PT3619</name></trkpt>
<trkpt lat="52.042017" lon="05.792429"><ele>49</ele><time>2020-12-26T11:59:33Z</time><name>PT3620</name></trkpt>
<trkpt lat="52.042018" lon="05.792453"><ele>49.1</ele><time>2020-12-26T11:59:34Z</time><name>PT3621</name></trkpt>
<trkpt lat="52.042015" lon="05.792473"><ele>49</ele><time>2020-12-26T11:59:34Z</time><name>PT3622</name></trkpt>
<trkpt lat="52.042012" lon="05.792497"><ele>48.9</ele><time>2020-12-26T11:59:36Z</time><name>PT3623</name></trkpt>
<trkpt lat="52.042011" lon="05.792516"><ele>49</ele><time>2020-12-26T11:59:37Z</time><name>PT3624</name></trkpt>
<trkpt lat="52.042006" lon="05.792546"><ele>48.9</ele><time>2020-12-26T11:59:37Z</time><name>PT3625</name></trkpt>
<trkpt lat="52.042005" lon="05.792572"><ele>49</ele><time>2020-12-26T11:59:39Z</time><name>PT3626</name></trkpt>
<trkpt lat="52.042001" lon="05.792600"><ele>49</ele><time>2020-12-26T11:59:40Z</time><name>PT3627</name></trkpt>
<trkpt lat="52.042000" lon="05.792623"><ele>49.2</ele><time>2020-12-26T11:59:40Z</time><name>PT3628</name></trkpt>
<trkpt lat="52.041998" lon="05.792650"><ele>49.2</ele><time>2020-12-26T11:59:42Z</time><name>PT3629</name></trkpt>
<trkpt lat="52.041998" lon="05.792673"><ele>49.2</ele><time>2020-12-26T11:59:43Z</time><name>PT3630</name></trkpt>
<trkpt lat="52.041989" lon="05.792702"><ele>49.2</ele><time>2020-12-26T11:59:43Z</time><name>PT3631</name></trkpt>
<trkpt lat="52.041987" lon="05.792725"><ele>49</ele><time>2020-12-26T11:59:45Z</time><name>PT3632</name></trkpt>
<trkpt lat="52.041985" lon="05.792747"><ele>48.9</ele><time>2020-12-26T11:59:46Z</time><name>PT3633</name></trkpt>
<trkpt lat="52.041983" lon="05.792768"><ele>48.9</ele><time>2020-12-26T11:59:46Z</time><name>PT3634</name></trkpt>
<trkpt lat="52.041980" lon="05.792786"><ele>49</ele><time>2020-12-26T11:59:48Z</time><name>PT3635</name></trkpt>
<trkpt lat="52.041976" lon="05.792799"><ele>49</ele><time>2020-12-26T11:59:49Z</time><name>PT3636</name></trkpt>
<trkpt lat="52.041974" lon="05.792819"><ele>49</ele><time>2020-12-26T11:59:50Z</time><name>PT3637</name></trkpt>
<trkpt lat="52.041972" lon="05.792841"><ele>49</ele><time>2020-12-26T11:59:51Z</time><name>PT3638</name></trkpt>
<trkpt lat="52.041971" lon="05.792865"><ele>49</ele><time>2020-12-26T11:59:52Z</time><name>PT3639</name></trkpt>
<trkpt lat="52.041973" lon="05.792883"><ele>48.8</ele><time>2020-12-26T11:59:52Z</time><name>PT3640</name></trkpt>
<trkpt lat="52.041971" lon="05.792907"><ele>48.7</ele><time>2020-12-26T11:59:54Z</time><name>PT3641</name></trkpt>
<trkpt lat="52.041971" lon="05.792926"><ele>48.9</ele><time>2020-12-26T11:59:55Z</time><name>PT3642</name></trkpt>
<trkpt lat="52.041973" lon="05.792960"><ele>48.8</ele><time>2020-12-26T11:59:55Z</time><name>PT3643</name></trkpt>
<trkpt lat="52.041974" lon="05.792985"><ele>48.7</ele><time>2020-12-26T11:59:57Z</time><name>PT3644</name></trkpt>
<trkpt lat="52.041974" lon="05.793000"><ele>48.8</ele><time>2020-12-26T11:59:58Z</time><name>PT3645</name></trkpt>
<trkpt lat="52.041973" lon="05.793016"><ele>48.6</ele><time>2020-12-26T11:59:58Z</time><name>PT3646</name></trkpt>
<trkpt lat="52.041974" lon="05.793034"><ele>48.9</ele><time>2020-12-26T12:00:00Z</time><name>PT3647</name></trkpt>
<trkpt lat="52.041972" lon="05.793046"><ele>49.1</ele><time>2020-12-26T12:00:01Z</time><name>PT3648</name></trkpt>
<trkpt lat="52.041968" lon="05.793060"><ele>49</ele><time>2020-12-26T12:00:01Z</time><name>PT3649</name></trkpt>
<trkpt lat="52.041966" lon="05.793088"><ele>49</ele><time>2020-12-26T12:00:03Z</time><name>PT3650</name></trkpt>
<trkpt lat="52.041959" lon="05.793115"><ele>49</ele><time>2020-12-26T12:00:04Z</time><name>PT3651</name></trkpt>
<trkpt lat="52.041960" lon="05.793143"><ele>49</ele><time>2020-12-26T12:00:04Z</time><name>PT3652</name></trkpt>
<trkpt lat="52.041961" lon="05.793167"><ele>49</ele><time>2020-12-26T12:00:06Z</time><name>PT3653</name></trkpt>
<trkpt lat="52.041959" lon="05.793185"><ele>49</ele><time>2020-12-26T12:00:07Z</time><name>PT3654</name></trkpt>
<trkpt lat="52.041956" lon="05.793203"><ele>49</ele><time>2020-12-26T12:00:07Z</time><name>PT3655</name></trkpt>
<trkpt lat="52.041958" lon="05.793213"><ele>48.9</ele><time>2020-12-26T12:00:09Z</time><name>PT3656</name></trkpt>
<trkpt lat="52.041955" lon="05.793234"><ele>49</ele><time>2020-12-26T12:00:10Z</time><name>PT3657</name></trkpt>
<trkpt lat="52.041951" lon="05.793254"><ele>49</ele><time>2020-12-26T12:00:10Z</time><name>PT3658</name></trkpt>
<trkpt lat="52.041948" lon="05.793270"><ele>49</ele><time>2020-12-26T12:00:12Z</time><name>PT3659</name></trkpt>
<trkpt lat="52.041950" lon="05.793289"><ele>48.8</ele><time>2020-12-26T12:00:13Z</time><name>PT3660</name></trkpt>
<trkpt lat="52.041949" lon="05.793300"><ele>48.9</ele><time>2020-12-26T12:00:13Z</time><name>PT3661</name></trkpt>
<trkpt lat="52.041946" lon="05.793326"><ele>48.5</ele><time>2020-12-26T12:00:15Z</time><name>PT3662</name></trkpt>
<trkpt lat="52.041944" lon="05.793342"><ele>48.4</ele><time>2020-12-26T12:00:16Z</time><name>PT3663</name></trkpt>
<trkpt lat="52.041939" lon="05.793379"><ele>48.4</ele><time>2020-12-26T12:00:16Z</time><name>PT3664</name></trkpt>
<trkpt lat="52.041939" lon="05.793442"><ele>48.6</ele><time>2020-12-26T12:00:18Z</time><name>PT3665</name></trkpt>
<trkpt lat="52.041932" lon="05.793476"><ele>48.8</ele><time>2020-12-26T12:00:19Z</time><name>PT3666</name></trkpt>
<trkpt lat="52.041932" lon="05.793486"><ele>49</ele><time>2020-12-26T12:00:19Z</time><name>PT3667</name></trkpt>
<trkpt lat="52.041929" lon="05.793490"><ele>48.2</ele><time>2020-12-26T12:00:21Z</time><name>PT3668</name></trkpt>
<trkpt lat="52.041927" lon="05.793492"><ele>50.6</ele><time>2020-12-26T12:00:31Z</time><name>PT3669</name></trkpt>
<trkpt lat="52.041924" lon="05.793516"><ele>51</ele><time>2020-12-26T12:00:31Z</time><name>PT3670</name></trkpt>
<trkpt lat="52.041924" lon="05.793535"><ele>50.4</ele><time>2020-12-26T12:00:33Z</time><name>PT3671</name></trkpt>
<trkpt lat="52.041922" lon="05.793554"><ele>49.7</ele><time>2020-12-26T12:00:34Z</time><name>PT3672</name></trkpt>
<trkpt lat="52.041921" lon="05.793571"><ele>49.5</ele><time>2020-12-26T12:00:34Z</time><name>PT3673</name></trkpt>
<trkpt lat="52.041920" lon="05.793589"><ele>49</ele><time>2020-12-26T12:00:36Z</time><name>PT3674</name></trkpt>
<trkpt lat="52.041919" lon="05.793610"><ele>49.8</ele><time>2020-12-26T12:00:37Z</time><name>PT3675</name></trkpt>
<trkpt lat="52.041915" lon="05.793627"><ele>49.9</ele><time>2020-12-26T12:00:37Z</time><name>PT3676</name></trkpt>
<trkpt lat="52.041912" lon="05.793643"><ele>50.4</ele><time>2020-12-26T12:00:39Z</time><name>PT3677</name></trkpt>
<trkpt lat="52.041909" lon="05.793660"><ele>50.7</ele><time>2020-12-26T12:00:40Z</time><name>PT3678</name></trkpt>
<trkpt lat="52.041904" lon="05.793677"><ele>50.9</ele><time>2020-12-26T12:00:40Z</time><name>PT3679</name></trkpt>
<trkpt lat="52.041901" lon="05.793692"><ele>50.4</ele><time>2020-12-26T12:00:42Z</time><name>PT3680</name></trkpt>
<trkpt lat="52.041902" lon="05.793707"><ele>50</ele><time>2020-12-26T12:00:43Z</time><name>PT3681</name></trkpt>
<trkpt lat="52.041900" lon="05.793728"><ele>49.9</ele><time>2020-12-26T12:00:43Z</time><name>PT3682</name></trkpt>
<trkpt lat="52.041901" lon="05.793744"><ele>49.7</ele><time>2020-12-26T12:00:45Z</time><name>PT3683</name></trkpt>
<trkpt lat="52.041896" lon="05.793758"><ele>49.5</ele><time>2020-12-26T12:00:46Z</time><name>PT3684</name></trkpt>
<trkpt lat="52.041895" lon="05.793772"><ele>49.4</ele><time>2020-12-26T12:00:46Z</time><name>PT3685</name></trkpt>
<trkpt lat="52.041895" lon="05.793787"><ele>49.3</ele><time>2020-12-26T12:00:48Z</time><name>PT3686</name></trkpt>
<trkpt lat="52.041894" lon="05.793805"><ele>49.1</ele><time>2020-12-26T12:00:49Z</time><name>PT3687</name></trkpt>
<trkpt lat="52.041895" lon="05.793817"><ele>49</ele><time>2020-12-26T12:00:49Z</time><name>PT3688</name></trkpt>
<trkpt lat="52.041895" lon="05.793828"><ele>49.2</ele><time>2020-12-26T12:00:51Z</time><name>PT3689</name></trkpt>
<trkpt lat="52.041891" lon="05.793838"><ele>49.2</ele><time>2020-12-26T12:00:52Z</time><name>PT3690</name></trkpt>
<trkpt lat="52.041889" lon="05.793851"><ele>49.2</ele><time>2020-12-26T12:00:52Z</time><name>PT3691</name></trkpt>
<trkpt lat="52.041889" lon="05.793861"><ele>49.2</ele><time>2020-12-26T12:00:54Z</time><name>PT3692</name></trkpt>
<trkpt lat="52.041886" lon="05.793868"><ele>49.2</ele><time>2020-12-26T12:00:55Z</time><name>PT3693</name></trkpt>
<trkpt lat="52.041886" lon="05.793881"><ele>49.1</ele><time>2020-12-26T12:00:55Z</time><name>PT3694</name></trkpt>
<trkpt lat="52.041887" lon="05.793900"><ele>49.3</ele><time>2020-12-26T12:00:57Z</time><name>PT3695</name></trkpt>
<trkpt lat="52.041884" lon="05.793914"><ele>49.4</ele><time>2020-12-26T12:00:58Z</time><name>PT3696</name></trkpt>
<trkpt lat="52.041881" lon="05.793927"><ele>49.5</ele><time>2020-12-26T12:00:58Z</time><name>PT3697</name></trkpt>
<trkpt lat="52.041875" lon="05.793941"><ele>49.4</ele><time>2020-12-26T12:01:00Z</time><name>PT3698</name></trkpt>
<trkpt lat="52.041875" lon="05.793952"><ele>49.5</ele><time>2020-12-26T12:01:01Z</time><name>PT3699</name></trkpt>
<trkpt lat="52.041873" lon="05.793969"><ele>49.5</ele><time>2020-12-26T12:01:01Z</time><name>PT3700</name></trkpt>
<trkpt lat="52.041870" lon="05.793987"><ele>49.4</ele><time>2020-12-26T12:01:03Z</time><name>PT3701</name></trkpt>
<trkpt lat="52.041870" lon="05.794005"><ele>49.4</ele><time>2020-12-26T12:01:04Z</time><name>PT3702</name></trkpt>
<trkpt lat="52.041870" lon="05.794022"><ele>49.3</ele><time>2020-12-26T12:01:04Z</time><name>PT3703</name></trkpt>
<trkpt lat="52.041872" lon="05.794034"><ele>49.3</ele><time>2020-12-26T12:01:06Z</time><name>PT3704</name></trkpt>
<trkpt lat="52.041873" lon="05.794047"><ele>49.1</ele><time>2020-12-26T12:01:07Z</time><name>PT3705</name></trkpt>
<trkpt lat="52.041875" lon="05.794067"><ele>49.1</ele><time>2020-12-26T12:01:07Z</time><name>PT3706</name></trkpt>
<trkpt lat="52.041872" lon="05.794084"><ele>49</ele><time>2020-12-26T12:01:09Z</time><name>PT3707</name></trkpt>
<trkpt lat="52.041873" lon="05.794116"><ele>49</ele><time>2020-12-26T12:01:10Z</time><name>PT3708</name></trkpt>
<trkpt lat="52.041872" lon="05.794136"><ele>49.1</ele><time>2020-12-26T12:01:11Z</time><name>PT3709</name></trkpt>
<trkpt lat="52.041871" lon="05.794157"><ele>49.1</ele><time>2020-12-26T12:01:12Z</time><name>PT3710</name></trkpt>
<trkpt lat="52.041868" lon="05.794178"><ele>49.3</ele><time>2020-12-26T12:01:13Z</time><name>PT3711</name></trkpt>
<trkpt lat="52.041868" lon="05.794199"><ele>49.3</ele><time>2020-12-26T12:01:14Z</time><name>PT3712</name></trkpt>
<trkpt lat="52.041864" lon="05.794217"><ele>49.1</ele><time>2020-12-26T12:01:15Z</time><name>PT3713</name></trkpt>
<trkpt lat="52.041862" lon="05.794242"><ele>49</ele><time>2020-12-26T12:01:16Z</time><name>PT3714</name></trkpt>
<trkpt lat="52.041865" lon="05.794263"><ele>48.9</ele><time>2020-12-26T12:01:17Z</time><name>PT3715</name></trkpt>
<trkpt lat="52.041866" lon="05.794278"><ele>48.9</ele><time>2020-12-26T12:01:18Z</time><name>PT3716</name></trkpt>
<trkpt lat="52.041871" lon="05.794297"><ele>48.9</ele><time>2020-12-26T12:01:19Z</time><name>PT3717</name></trkpt>
<trkpt lat="52.041870" lon="05.794315"><ele>48.9</ele><time>2020-12-26T12:01:20Z</time><name>PT3718</name></trkpt>
<trkpt lat="52.041867" lon="05.794329"><ele>48.9</ele><time>2020-12-26T12:01:21Z</time><name>PT3719</name></trkpt>
<trkpt lat="52.041865" lon="05.794342"><ele>48.9</ele><time>2020-12-26T12:01:22Z</time><name>PT3720</name></trkpt>
<trkpt lat="52.041866" lon="05.794358"><ele>48.7</ele><time>2020-12-26T12:01:22Z</time><name>PT3721</name></trkpt>
<trkpt lat="52.041861" lon="05.794373"><ele>49</ele><time>2020-12-26T12:01:24Z</time><name>PT3722</name></trkpt>
<trkpt lat="52.041860" lon="05.794391"><ele>49.1</ele><time>2020-12-26T12:01:25Z</time><name>PT3723</name></trkpt>
<trkpt lat="52.041859" lon="05.794412"><ele>49.2</ele><time>2020-12-26T12:01:26Z</time><name>PT3724</name></trkpt>
<trkpt lat="52.041858" lon="05.794424"><ele>49.3</ele><time>2020-12-26T12:01:27Z</time><name>PT3725</name></trkpt>
<trkpt lat="52.041859" lon="05.794444"><ele>49.1</ele><time>2020-12-26T12:01:28Z</time><name>PT3726</name></trkpt>
<trkpt lat="52.041857" lon="05.794462"><ele>49</ele><time>2020-12-26T12:01:28Z</time><name>PT3727</name></trkpt>
<trkpt lat="52.041856" lon="05.794479"><ele>48.9</ele><time>2020-12-26T12:01:30Z</time><name>PT3728</name></trkpt>
<trkpt lat="52.041859" lon="05.794505"><ele>48.9</ele><time>2020-12-26T12:01:31Z</time><name>PT3729</name></trkpt>
<trkpt lat="52.041867" lon="05.794529"><ele>49</ele><time>2020-12-26T12:01:31Z</time><name>PT3730</name></trkpt>
<trkpt lat="52.041868" lon="05.794554"><ele>49</ele><time>2020-12-26T12:01:33Z</time><name>PT3731</name></trkpt>
<trkpt lat="52.041870" lon="05.794575"><ele>49.3</ele><time>2020-12-26T12:01:34Z</time><name>PT3732</name></trkpt>
<trkpt lat="52.041873" lon="05.794596"><ele>49.2</ele><time>2020-12-26T12:01:34Z</time><name>PT3733</name></trkpt>
<trkpt lat="52.041876" lon="05.794616"><ele>49.2</ele><time>2020-12-26T12:01:36Z</time><name>PT3734</name></trkpt>
<trkpt lat="52.041875" lon="05.794630"><ele>49</ele><time>2020-12-26T12:01:37Z</time><name>PT3735</name></trkpt>
<trkpt lat="52.041872" lon="05.794643"><ele>48.8</ele><time>2020-12-26T12:01:37Z</time><name>PT3736</name></trkpt>
<trkpt lat="52.041872" lon="05.794653"><ele>48.6</ele><time>2020-12-26T12:01:39Z</time><name>PT3737</name></trkpt>
<trkpt lat="52.041874" lon="05.794663"><ele>48.5</ele><time>2020-12-26T12:01:40Z</time><name>PT3738</name></trkpt>
<trkpt lat="52.041875" lon="05.794686"><ele>48.5</ele><time>2020-12-26T12:01:40Z</time><name>PT3739</name></trkpt>
<trkpt lat="52.041873" lon="05.794701"><ele>48.3</ele><time>2020-12-26T12:01:42Z</time><name>PT3740</name></trkpt>
<trkpt lat="52.041872" lon="05.794718"><ele>48.5</ele><time>2020-12-26T12:01:43Z</time><name>PT3741</name></trkpt>
<trkpt lat="52.041874" lon="05.794735"><ele>48.5</ele><time>2020-12-26T12:01:43Z</time><name>PT3742</name></trkpt>
<trkpt lat="52.041871" lon="05.794753"><ele>48.7</ele><time>2020-12-26T12:01:45Z</time><name>PT3743</name></trkpt>
<trkpt lat="52.041870" lon="05.794776"><ele>48.8</ele><time>2020-12-26T12:01:46Z</time><name>PT3744</name></trkpt>
<trkpt lat="52.041870" lon="05.794798"><ele>48.9</ele><time>2020-12-26T12:01:46Z</time><name>PT3745</name></trkpt>
<trkpt lat="52.041868" lon="05.794818"><ele>48.7</ele><time>2020-12-26T12:01:48Z</time><name>PT3746</name></trkpt>
<trkpt lat="52.041866" lon="05.794837"><ele>48.5</ele><time>2020-12-26T12:01:49Z</time><name>PT3747</name></trkpt>
<trkpt lat="52.041868" lon="05.794856"><ele>48.6</ele><time>2020-12-26T12:01:49Z</time><name>PT3748</name></trkpt>
<trkpt lat="52.041870" lon="05.794873"><ele>48.4</ele><time>2020-12-26T12:01:51Z</time><name>PT3749</name></trkpt>
<trkpt lat="52.041868" lon="05.794893"><ele>48.5</ele><time>2020-12-26T12:01:52Z</time><name>PT3750</name></trkpt>
<trkpt lat="52.041865" lon="05.794917"><ele>48.6</ele><time>2020-12-26T12:01:52Z</time><name>PT3751</name></trkpt>
<trkpt lat="52.041868" lon="05.794934"><ele>48.9</ele><time>2020-12-26T12:01:54Z</time><name>PT3752</name></trkpt>
<trkpt lat="52.041867" lon="05.794955"><ele>49</ele><time>2020-12-26T12:01:55Z</time><name>PT3753</name></trkpt>
<trkpt lat="52.041868" lon="05.794982"><ele>49</ele><time>2020-12-26T12:01:55Z</time><name>PT3754</name></trkpt>
<trkpt lat="52.041865" lon="05.795007"><ele>49</ele><time>2020-12-26T12:01:57Z</time><name>PT3755</name></trkpt>
<trkpt lat="52.041863" lon="05.795027"><ele>48.7</ele><time>2020-12-26T12:01:58Z</time><name>PT3756</name></trkpt>
<trkpt lat="52.041854" lon="05.795046"><ele>48.5</ele><time>2020-12-26T12:01:58Z</time><name>PT3757</name></trkpt>
<trkpt lat="52.041851" lon="05.795073"><ele>48.5</ele><time>2020-12-26T12:02:00Z</time><name>PT3758</name></trkpt>
<trkpt lat="52.041847" lon="05.795092"><ele>48.5</ele><time>2020-12-26T12:02:01Z</time><name>PT3759</name></trkpt>
<trkpt lat="52.041841" lon="05.795111"><ele>48.5</ele><time>2020-12-26T12:02:01Z</time><name>PT3760</name></trkpt>
<trkpt lat="52.041835" lon="05.795127"><ele>48.5</ele><time>2020-12-26T12:02:03Z</time><name>PT3761</name></trkpt>
<trkpt lat="52.041831" lon="05.795146"><ele>48.5</ele><time>2020-12-26T12:02:04Z</time><name>PT3762</name></trkpt>
<trkpt lat="52.041829" lon="05.795162"><ele>48.5</ele><time>2020-12-26T12:02:04Z</time><name>PT3763</name></trkpt>
<trkpt lat="52.041824" lon="05.795177"><ele>48.3</ele><time>2020-12-26T12:02:06Z</time><name>PT3764</name></trkpt>
<trkpt lat="52.041823" lon="05.795190"><ele>48.4</ele><time>2020-12-26T12:02:07Z</time><name>PT3765</name></trkpt>
<trkpt lat="52.041821" lon="05.795225"><ele>48.2</ele><time>2020-12-26T12:02:07Z</time><name>PT3766</name></trkpt>
<trkpt lat="52.041822" lon="05.795263"><ele>48.3</ele><time>2020-12-26T12:02:09Z</time><name>PT3767</name></trkpt>
<trkpt lat="52.041818" lon="05.795291"><ele>48.4</ele><time>2020-12-26T12:02:10Z</time><name>PT3768</name></trkpt>
<trkpt lat="52.041817" lon="05.795318"><ele>48.4</ele><time>2020-12-26T12:02:10Z</time><name>PT3769</name></trkpt>
<trkpt lat="52.041818" lon="05.795343"><ele>48.2</ele><time>2020-12-26T12:02:12Z</time><name>PT3770</name></trkpt>
<trkpt lat="52.041818" lon="05.795364"><ele>48.1</ele><time>2020-12-26T12:02:13Z</time><name>PT3771</name></trkpt>
<trkpt lat="52.041815" lon="05.795384"><ele>48</ele><time>2020-12-26T12:02:13Z</time><name>PT3772</name></trkpt>
<trkpt lat="52.041811" lon="05.795404"><ele>48.1</ele><time>2020-12-26T12:02:15Z</time><name>PT3773</name></trkpt>
<trkpt lat="52.041809" lon="05.795431"><ele>48.1</ele><time>2020-12-26T12:02:16Z</time><name>PT3774</name></trkpt>
<trkpt lat="52.041811" lon="05.795448"><ele>48.1</ele><time>2020-12-26T12:02:16Z</time><name>PT3775</name></trkpt>
<trkpt lat="52.041817" lon="05.795464"><ele>48.1</ele><time>2020-12-26T12:02:18Z</time><name>PT3776</name></trkpt>
<trkpt lat="52.041819" lon="05.795485"><ele>48</ele><time>2020-12-26T12:02:19Z</time><name>PT3777</name></trkpt>
<trkpt lat="52.041819" lon="05.795501"><ele>48</ele><time>2020-12-26T12:02:20Z</time><name>PT3778</name></trkpt>
<trkpt lat="52.041819" lon="05.795522"><ele>48.1</ele><time>2020-12-26T12:02:21Z</time><name>PT3779</name></trkpt>
<trkpt lat="52.041820" lon="05.795544"><ele>48.3</ele><time>2020-12-26T12:02:22Z</time><name>PT3780</name></trkpt>
<trkpt lat="52.041817" lon="05.795565"><ele>48.2</ele><time>2020-12-26T12:02:22Z</time><name>PT3781</name></trkpt>
<trkpt lat="52.041815" lon="05.795583"><ele>48.1</ele><time>2020-12-26T12:02:24Z</time><name>PT3782</name></trkpt>
<trkpt lat="52.041820" lon="05.795602"><ele>48</ele><time>2020-12-26T12:02:25Z</time><name>PT3783</name></trkpt>
<trkpt lat="52.041824" lon="05.795624"><ele>48</ele><time>2020-12-26T12:02:25Z</time><name>PT3784</name></trkpt>
<trkpt lat="52.041823" lon="05.795646"><ele>48</ele><time>2020-12-26T12:02:27Z</time><name>PT3785</name></trkpt>
<trkpt lat="52.041822" lon="05.795659"><ele>48</ele><time>2020-12-26T12:02:28Z</time><name>PT3786</name></trkpt>
<trkpt lat="52.041823" lon="05.795676"><ele>48</ele><time>2020-12-26T12:02:28Z</time><name>PT3787</name></trkpt>
<trkpt lat="52.041826" lon="05.795701"><ele>47.9</ele><time>2020-12-26T12:02:30Z</time><name>PT3788</name></trkpt>
<trkpt lat="52.041824" lon="05.795724"><ele>47.6</ele><time>2020-12-26T12:02:31Z</time><name>PT3789</name></trkpt>
<trkpt lat="52.041830" lon="05.795734"><ele>47.6</ele><time>2020-12-26T12:02:31Z</time><name>PT3790</name></trkpt>
<trkpt lat="52.041828" lon="05.795743"><ele>47.5</ele><time>2020-12-26T12:02:33Z</time><name>PT3791</name></trkpt>
<trkpt lat="52.041827" lon="05.795760"><ele>47.6</ele><time>2020-12-26T12:02:34Z</time><name>PT3792</name></trkpt>
<trkpt lat="52.041824" lon="05.795778"><ele>47.6</ele><time>2020-12-26T12:02:34Z</time><name>PT3793</name></trkpt>
<trkpt lat="52.041819" lon="05.795797"><ele>47.6</ele><time>2020-12-26T12:02:36Z</time><name>PT3794</name></trkpt>
<trkpt lat="52.041817" lon="05.795818"><ele>47.6</ele><time>2020-12-26T12:02:37Z</time><name>PT3795</name></trkpt>
<trkpt lat="52.041812" lon="05.795839"><ele>47.7</ele><time>2020-12-26T12:02:37Z</time><name>PT3796</name></trkpt>
<trkpt lat="52.041804" lon="05.795856"><ele>47.6</ele><time>2020-12-26T12:02:39Z</time><name>PT3797</name></trkpt>
<trkpt lat="52.041801" lon="05.795880"><ele>47.8</ele><time>2020-12-26T12:02:40Z</time><name>PT3798</name></trkpt>
<trkpt lat="52.041798" lon="05.795897"><ele>47.8</ele><time>2020-12-26T12:02:40Z</time><name>PT3799</name></trkpt>
<trkpt lat="52.041798" lon="05.795917"><ele>47.9</ele><time>2020-12-26T12:02:42Z</time><name>PT3800</name></trkpt>
<trkpt lat="52.041797" lon="05.795940"><ele>48</ele><time>2020-12-26T12:02:43Z</time><name>PT3801</name></trkpt>
<trkpt lat="52.041796" lon="05.795961"><ele>48</ele><time>2020-12-26T12:02:43Z</time><name>PT3802</name></trkpt>
<trkpt lat="52.041801" lon="05.795988"><ele>48.1</ele><time>2020-12-26T12:02:45Z</time><name>PT3803</name></trkpt>
<trkpt lat="52.041800" lon="05.796010"><ele>48</ele><time>2020-12-26T12:02:46Z</time><name>PT3804</name></trkpt>
<trkpt lat="52.041795" lon="05.796023"><ele>48</ele><time>2020-12-26T12:02:46Z</time><name>PT3805</name></trkpt>
<trkpt lat="52.041794" lon="05.796042"><ele>47.7</ele><time>2020-12-26T12:02:48Z</time><name>PT3806</name></trkpt>
<trkpt lat="52.041795" lon="05.796063"><ele>47.6</ele><time>2020-12-26T12:02:49Z</time><name>PT3807</name></trkpt>
<trkpt lat="52.041794" lon="05.796082"><ele>47.5</ele><time>2020-12-26T12:02:49Z</time><name>PT3808</name></trkpt>
<trkpt lat="52.041793" lon="05.796098"><ele>47.6</ele><time>2020-12-26T12:02:51Z</time><name>PT3809</name></trkpt>
<trkpt lat="52.041792" lon="05.796116"><ele>47.6</ele><time>2020-12-26T12:02:52Z</time><name>PT3810</name></trkpt>
<trkpt lat="52.041793" lon="05.796130"><ele>47.5</ele><time>2020-12-26T12:02:52Z</time><name>PT3811</name></trkpt>
<trkpt lat="52.041798" lon="05.796157"><ele>47.5</ele><time>2020-12-26T12:02:54Z</time><name>PT3812</name></trkpt>
<trkpt lat="52.041801" lon="05.796175"><ele>47.7</ele><time>2020-12-26T12:02:55Z</time><name>PT3813</name></trkpt>
<trkpt lat="52.041805" lon="05.796204"><ele>47.6</ele><time>2020-12-26T12:02:55Z</time><name>PT3814</name></trkpt>
<trkpt lat="52.041803" lon="05.796220"><ele>47.6</ele><time>2020-12-26T12:02:57Z</time><name>PT3815</name></trkpt>
<trkpt lat="52.041803" lon="05.796241"><ele>47.6</ele><time>2020-12-26T12:02:58Z</time><name>PT3816</name></trkpt>
<trkpt lat="52.041801" lon="05.796264"><ele>47.5</ele><time>2020-12-26T12:02:58Z</time><name>PT3817</name></trkpt>
<trkpt lat="52.041801" lon="05.796277"><ele>47.4</ele><time>2020-12-26T12:03:00Z</time><name>PT3818</name></trkpt>
<trkpt lat="52.041803" lon="05.796280"><ele>47.6</ele><time>2020-12-26T12:03:01Z</time><name>PT3819</name></trkpt>
<trkpt lat="52.041800" lon="05.796298"><ele>47.6</ele><time>2020-12-26T12:03:01Z</time><name>PT3820</name></trkpt>
<trkpt lat="52.041802" lon="05.796303"><ele>47.7</ele><time>2020-12-26T12:03:03Z</time><name>PT3821</name></trkpt>
<trkpt lat="52.041809" lon="05.796323"><ele>47.7</ele><time>2020-12-26T12:03:04Z</time><name>PT3822</name></trkpt>
<trkpt lat="52.041808" lon="05.796349"><ele>47.6</ele><time>2020-12-26T12:03:04Z</time><name>PT3823</name></trkpt>
<trkpt lat="52.041805" lon="05.796374"><ele>47.5</ele><time>2020-12-26T12:03:06Z</time><name>PT3824</name></trkpt>
<trkpt lat="52.041805" lon="05.796396"><ele>47.5</ele><time>2020-12-26T12:03:07Z</time><name>PT3825</name></trkpt>
<trkpt lat="52.041807" lon="05.796417"><ele>47.6</ele><time>2020-12-26T12:03:07Z</time><name>PT3826</name></trkpt>
<trkpt lat="52.041805" lon="05.796428"><ele>47.6</ele><time>2020-12-26T12:03:09Z</time><name>PT3827</name></trkpt>
<trkpt lat="52.041805" lon="05.796452"><ele>47.6</ele><time>2020-12-26T12:03:10Z</time><name>PT3828</name></trkpt>
<trkpt lat="52.041800" lon="05.796477"><ele>47.6</ele><time>2020-12-26T12:03:10Z</time><name>PT3829</name></trkpt>
<trkpt lat="52.041796" lon="05.796496"><ele>47.6</ele><time>2020-12-26T12:03:12Z</time><name>PT3830</name></trkpt>
<trkpt lat="52.041788" lon="05.796519"><ele>47.5</ele><time>2020-12-26T12:03:13Z</time><name>PT3831</name></trkpt>
<trkpt lat="52.041789" lon="05.796539"><ele>47.4</ele><time>2020-12-26T12:03:13Z</time><name>PT3832</name></trkpt>
<trkpt lat="52.041787" lon="05.796550"><ele>47.1</ele><time>2020-12-26T12:03:15Z</time><name>PT3833</name></trkpt>
<trkpt lat="52.041787" lon="05.796571"><ele>47.1</ele><time>2020-12-26T12:03:16Z</time><name>PT3834</name></trkpt>
<trkpt lat="52.041783" lon="05.796589"><ele>47.1</ele><time>2020-12-26T12:03:17Z</time><name>PT3835</name></trkpt>
<trkpt lat="52.041777" lon="05.796606"><ele>46.8</ele><time>2020-12-26T12:03:18Z</time><name>PT3836</name></trkpt>
<trkpt lat="52.041774" lon="05.796624"><ele>46.9</ele><time>2020-12-26T12:03:19Z</time><name>PT3837</name></trkpt>
<trkpt lat="52.041771" lon="05.796643"><ele>46.9</ele><time>2020-12-26T12:03:19Z</time><name>PT3838</name></trkpt>
<trkpt lat="52.041769" lon="05.796668"><ele>46.7</ele><time>2020-12-26T12:03:21Z</time><name>PT3839</name></trkpt>
<trkpt lat="52.041775" lon="05.796687"><ele>46.6</ele><time>2020-12-26T12:03:22Z</time><name>PT3840</name></trkpt>
<trkpt lat="52.041777" lon="05.796706"><ele>46.7</ele><time>2020-12-26T12:03:22Z</time><name>PT3841</name></trkpt>
<trkpt lat="52.041777" lon="05.796728"><ele>46.7</ele><time>2020-12-26T12:03:24Z</time><name>PT3842</name></trkpt>
<trkpt lat="52.041779" lon="05.796742"><ele>46.8</ele><time>2020-12-26T12:03:25Z</time><name>PT3843</name></trkpt>
<trkpt lat="52.041775" lon="05.796769"><ele>46.9</ele><time>2020-12-26T12:03:25Z</time><name>PT3844</name></trkpt>
<trkpt lat="52.041786" lon="05.796793"><ele>47</ele><time>2020-12-26T12:03:27Z</time><name>PT3845</name></trkpt>
<trkpt lat="52.041789" lon="05.796812"><ele>47.1</ele><time>2020-12-26T12:03:28Z</time><name>PT3846</name></trkpt>
<trkpt lat="52.041788" lon="05.796833"><ele>47.1</ele><time>2020-12-26T12:03:28Z</time><name>PT3847</name></trkpt>
<trkpt lat="52.041788" lon="05.796847"><ele>47</ele><time>2020-12-26T12:03:30Z</time><name>PT3848</name></trkpt>
<trkpt lat="52.041786" lon="05.796863"><ele>47</ele><time>2020-12-26T12:03:31Z</time><name>PT3849</name></trkpt>
<trkpt lat="52.041783" lon="05.796882"><ele>47.1</ele><time>2020-12-26T12:03:31Z</time><name>PT3850</name></trkpt>
<trkpt lat="52.041775" lon="05.796904"><ele>47.1</ele><time>2020-12-26T12:03:33Z</time><name>PT3851</name></trkpt>
<trkpt lat="52.041772" lon="05.796929"><ele>47.1</ele><time>2020-12-26T12:03:34Z</time><name>PT3852</name></trkpt>
<trkpt lat="52.041771" lon="05.796948"><ele>47.1</ele><time>2020-12-26T12:03:34Z</time><name>PT3853</name></trkpt>
<trkpt lat="52.041773" lon="05.796963"><ele>47.1</ele><time>2020-12-26T12:03:36Z</time><name>PT3854</name></trkpt>
<trkpt lat="52.041773" lon="05.796981"><ele>47.1</ele><time>2020-12-26T12:03:37Z</time><name>PT3855</name></trkpt>
<trkpt lat="52.041782" lon="05.797003"><ele>47.1</ele><time>2020-12-26T12:03:37Z</time><name>PT3856</name></trkpt>
<trkpt lat="52.041783" lon="05.797035"><ele>47.1</ele><time>2020-12-26T12:03:39Z</time><name>PT3857</name></trkpt>
<trkpt lat="52.041784" lon="05.797056"><ele>47</ele><time>2020-12-26T12:03:40Z</time><name>PT3858</name></trkpt>
<trkpt lat="52.041783" lon="05.797074"><ele>47</ele><time>2020-12-26T12:03:40Z</time><name>PT3859</name></trkpt>
<trkpt lat="52.041781" lon="05.797094"><ele>47</ele><time>2020-12-26T12:03:42Z</time><name>PT3860</name></trkpt>
<trkpt lat="52.041780" lon="05.797119"><ele>47.1</ele><time>2020-12-26T12:03:43Z</time><name>PT3861</name></trkpt>
<trkpt lat="52.041778" lon="05.797145"><ele>46.9</ele><time>2020-12-26T12:03:43Z</time><name>PT3862</name></trkpt>
<trkpt lat="52.041774" lon="05.797166"><ele>47</ele><time>2020-12-26T12:03:45Z</time><name>PT3863</name></trkpt>
<trkpt lat="52.041773" lon="05.797200"><ele>46.9</ele><time>2020-12-26T12:03:46Z</time><name>PT3864</name></trkpt>
<trkpt lat="52.041774" lon="05.797228"><ele>46.9</ele><time>2020-12-26T12:03:47Z</time><name>PT3865</name></trkpt>
<trkpt lat="52.041774" lon="05.797246"><ele>46.9</ele><time>2020-12-26T12:03:48Z</time><name>PT3866</name></trkpt>
<trkpt lat="52.041780" lon="05.797266"><ele>47</ele><time>2020-12-26T12:03:49Z</time><name>PT3867</name></trkpt>
<trkpt lat="52.041782" lon="05.797296"><ele>46.8</ele><time>2020-12-26T12:03:49Z</time><name>PT3868</name></trkpt>
<trkpt lat="52.041781" lon="05.797311"><ele>46.9</ele><time>2020-12-26T12:03:51Z</time><name>PT3869</name></trkpt>
<trkpt lat="52.041778" lon="05.797328"><ele>46.8</ele><time>2020-12-26T12:03:52Z</time><name>PT3870</name></trkpt>
<trkpt lat="52.041768" lon="05.797355"><ele>47</ele><time>2020-12-26T12:03:52Z</time><name>PT3871</name></trkpt>
<trkpt lat="52.041764" lon="05.797372"><ele>46.9</ele><time>2020-12-26T12:03:54Z</time><name>PT3872</name></trkpt>
<trkpt lat="52.041758" lon="05.797386"><ele>46.9</ele><time>2020-12-26T12:03:55Z</time><name>PT3873</name></trkpt>
<trkpt lat="52.041757" lon="05.797410"><ele>47</ele><time>2020-12-26T12:03:55Z</time><name>PT3874</name></trkpt>
<trkpt lat="52.041754" lon="05.797427"><ele>47.1</ele><time>2020-12-26T12:03:57Z</time><name>PT3875</name></trkpt>
<trkpt lat="52.041741" lon="05.797453"><ele>47</ele><time>2020-12-26T12:03:58Z</time><name>PT3876</name></trkpt>
<trkpt lat="52.041732" lon="05.797470"><ele>47.1</ele><time>2020-12-26T12:03:58Z</time><name>PT3877</name></trkpt>
<trkpt lat="52.041733" lon="05.797496"><ele>47.1</ele><time>2020-12-26T12:04:00Z</time><name>PT3878</name></trkpt>
<trkpt lat="52.041731" lon="05.797515"><ele>47.2</ele><time>2020-12-26T12:04:01Z</time><name>PT3879</name></trkpt>
<trkpt lat="52.041730" lon="05.797535"><ele>47.2</ele><time>2020-12-26T12:04:01Z</time><name>PT3880</name></trkpt>
<trkpt lat="52.041730" lon="05.797554"><ele>47.3</ele><time>2020-12-26T12:04:03Z</time><name>PT3881</name></trkpt>
<trkpt lat="52.041731" lon="05.797575"><ele>47.3</ele><time>2020-12-26T12:04:04Z</time><name>PT3882</name></trkpt>
<trkpt lat="52.041731" lon="05.797590"><ele>47.2</ele><time>2020-12-26T12:04:04Z</time><name>PT3883</name></trkpt>
<trkpt lat="52.041730" lon="05.797605"><ele>47.2</ele><time>2020-12-26T12:04:06Z</time><name>PT3884</name></trkpt>
<trkpt lat="52.041730" lon="05.797619"><ele>47.2</ele><time>2020-12-26T12:04:07Z</time><name>PT3885</name></trkpt>
<trkpt lat="52.041728" lon="05.797633"><ele>47.2</ele><time>2020-12-26T12:04:07Z</time><name>PT3886</name></trkpt>
<trkpt lat="52.041725" lon="05.797649"><ele>47.2</ele><time>2020-12-26T12:04:09Z</time><name>PT3887</name></trkpt>
<trkpt lat="52.041725" lon="05.797662"><ele>47.3</ele><time>2020-12-26T12:04:10Z</time><name>PT3888</name></trkpt>
<trkpt lat="52.041722" lon="05.797682"><ele>47.1</ele><time>2020-12-26T12:04:10Z</time><name>PT3889</name></trkpt>
<trkpt lat="52.041719" lon="05.797701"><ele>47.1</ele><time>2020-12-26T12:04:12Z</time><name>PT3890</name></trkpt>
<trkpt lat="52.041718" lon="05.797715"><ele>47.1</ele><time>2020-12-26T12:04:13Z</time><name>PT3891</name></trkpt>
<trkpt lat="52.041710" lon="05.797724"><ele>47.3</ele><time>2020-12-26T12:04:13Z</time><name>PT3892</name></trkpt>
<trkpt lat="52.041707" lon="05.797749"><ele>47.2</ele><time>2020-12-26T12:04:15Z</time><name>PT3893</name></trkpt>
<trkpt lat="52.041703" lon="05.797764"><ele>47.2</ele><time>2020-12-26T12:04:16Z</time><name>PT3894</name></trkpt>
<trkpt lat="52.041703" lon="05.797776"><ele>47.2</ele><time>2020-12-26T12:04:16Z</time><name>PT3895</name></trkpt>
<trkpt lat="52.041701" lon="05.797789"><ele>47.1</ele><time>2020-12-26T12:04:18Z</time><name>PT3896</name></trkpt>
<trkpt lat="52.041700" lon="05.797804"><ele>46.9</ele><time>2020-12-26T12:04:19Z</time><name>PT3897</name></trkpt>
<trkpt lat="52.041701" lon="05.797810"><ele>46.7</ele><time>2020-12-26T12:04:19Z</time><name>PT3898</name></trkpt>
<trkpt lat="52.041704" lon="05.797823"><ele>46.7</ele><time>2020-12-26T12:04:21Z</time><name>PT3899</name></trkpt>
<trkpt lat="52.041704" lon="05.797844"><ele>47</ele><time>2020-12-26T12:04:27Z</time><name>PT3900</name></trkpt>
<trkpt lat="52.041701" lon="05.797854"><ele>46.8</ele><time>2020-12-26T12:04:28Z</time><name>PT3901</name></trkpt>
<trkpt lat="52.041702" lon="05.797868"><ele>46.9</ele><time>2020-12-26T12:04:28Z</time><name>PT3902</name></trkpt>
<trkpt lat="52.041704" lon="05.797880"><ele>46.8</ele><time>2020-12-26T12:04:30Z</time><name>PT3903</name></trkpt>
<trkpt lat="52.041704" lon="05.797889"><ele>46.9</ele><time>2020-12-26T12:04:31Z</time><name>PT3904</name></trkpt>
<trkpt lat="52.041701" lon="05.797901"><ele>46.8</ele><time>2020-12-26T12:04:32Z</time><name>PT3905</name></trkpt>
<trkpt lat="52.041696" lon="05.797922"><ele>46.7</ele><time>2020-12-26T12:04:33Z</time><name>PT3906</name></trkpt>
<trkpt lat="52.041693" lon="05.797940"><ele>46.8</ele><time>2020-12-26T12:04:34Z</time><name>PT3907</name></trkpt>
<trkpt lat="52.041689" lon="05.797950"><ele>46.9</ele><time>2020-12-26T12:04:35Z</time><name>PT3908</name></trkpt>
<trkpt lat="52.041692" lon="05.797958"><ele>46.9</ele><time>2020-12-26T12:04:36Z</time><name>PT3909</name></trkpt>
<trkpt lat="52.041696" lon="05.797979"><ele>47</ele><time>2020-12-26T12:04:37Z</time><name>PT3910</name></trkpt>
<trkpt lat="52.041702" lon="05.797992"><ele>47.1</ele><time>2020-12-26T12:04:38Z</time><name>PT3911</name></trkpt>
<trkpt lat="52.041702" lon="05.797999"><ele>47</ele><time>2020-12-26T12:04:39Z</time><name>PT3912</name></trkpt>
<trkpt lat="52.041703" lon="05.798003"><ele>46.8</ele><time>2020-12-26T12:04:40Z</time><name>PT3913</name></trkpt>
<trkpt lat="52.041705" lon="05.798009"><ele>47</ele><time>2020-12-26T12:04:40Z</time><name>PT3914</name></trkpt>
<trkpt lat="52.041707" lon="05.798016"><ele>47.1</ele><time>2020-12-26T12:04:42Z</time><name>PT3915</name></trkpt>
<trkpt lat="52.041714" lon="05.798031"><ele>47.1</ele><time>2020-12-26T12:04:45Z</time><name>PT3916</name></trkpt>
<trkpt lat="52.041714" lon="05.798047"><ele>46.9</ele><time>2020-12-26T12:04:46Z</time><name>PT3917</name></trkpt>
<trkpt lat="52.041711" lon="05.798058"><ele>47</ele><time>2020-12-26T12:04:47Z</time><name>PT3918</name></trkpt>
<trkpt lat="52.041716" lon="05.798064"><ele>46.9</ele><time>2020-12-26T12:04:48Z</time><name>PT3919</name></trkpt>
<trkpt lat="52.041717" lon="05.798072"><ele>46.9</ele><time>2020-12-26T12:04:49Z</time><name>PT3920</name></trkpt>
<trkpt lat="52.041722" lon="05.798089"><ele>46.9</ele><time>2020-12-26T12:04:50Z</time><name>PT3921</name></trkpt>
<trkpt lat="52.041722" lon="05.798101"><ele>46.9</ele><time>2020-12-26T12:04:51Z</time><name>PT3922</name></trkpt>
<trkpt lat="52.041723" lon="05.798110"><ele>46.9</ele><time>2020-12-26T12:04:52Z</time><name>PT3923</name></trkpt>
<trkpt lat="52.041725" lon="05.798122"><ele>46.8</ele><time>2020-12-26T12:04:52Z</time><name>PT3924</name></trkpt>
<trkpt lat="52.041724" lon="05.798135"><ele>46.9</ele><time>2020-12-26T12:04:54Z</time><name>PT3925</name></trkpt>
<trkpt lat="52.041724" lon="05.798148"><ele>46.9</ele><time>2020-12-26T12:04:55Z</time><name>PT3926</name></trkpt>
<trkpt lat="52.041721" lon="05.798156"><ele>46.9</ele><time>2020-12-26T12:04:55Z</time><name>PT3927</name></trkpt>
<trkpt lat="52.041717" lon="05.798167"><ele>47</ele><time>2020-12-26T12:04:57Z</time><name>PT3928</name></trkpt>
<trkpt lat="52.041717" lon="05.798173"><ele>47.1</ele><time>2020-12-26T12:04:58Z</time><name>PT3929</name></trkpt>
<trkpt lat="52.041714" lon="05.798181"><ele>47</ele><time>2020-12-26T12:04:58Z</time><name>PT3930</name></trkpt>
<trkpt lat="52.041712" lon="05.798189"><ele>47.1</ele><time>2020-12-26T12:05:00Z</time><name>PT3931</name></trkpt>
<trkpt lat="52.041712" lon="05.798202"><ele>47.1</ele><time>2020-12-26T12:05:01Z</time><name>PT3932</name></trkpt>
<trkpt lat="52.041712" lon="05.798210"><ele>47.1</ele><time>2020-12-26T12:05:01Z</time><name>PT3933</name></trkpt>
<trkpt lat="52.041717" lon="05.798216"><ele>47.1</ele><time>2020-12-26T12:05:03Z</time><name>PT3934</name></trkpt>
<trkpt lat="52.041720" lon="05.798224"><ele>47.1</ele><time>2020-12-26T12:05:04Z</time><name>PT3935</name></trkpt>
<trkpt lat="52.041719" lon="05.798236"><ele>47.1</ele><time>2020-12-26T12:05:04Z</time><name>PT3936</name></trkpt>
<trkpt lat="52.041720" lon="05.798247"><ele>46.8</ele><time>2020-12-26T12:05:06Z</time><name>PT3937</name></trkpt>
<trkpt lat="52.041721" lon="05.798259"><ele>46.7</ele><time>2020-12-26T12:05:07Z</time><name>PT3938</name></trkpt>
<trkpt lat="52.041722" lon="05.798269"><ele>46.8</ele><time>2020-12-26T12:05:07Z</time><name>PT3939</name></trkpt>
<trkpt lat="52.041724" lon="05.798275"><ele>46.6</ele><time>2020-12-26T12:05:09Z</time><name>PT3940</name></trkpt>
<trkpt lat="52.041728" lon="05.798283"><ele>46.8</ele><time>2020-12-26T12:05:10Z</time><name>PT3941</name></trkpt>
<trkpt lat="52.041732" lon="05.798292"><ele>46.9</ele><time>2020-12-26T12:05:10Z</time><name>PT3942</name></trkpt>
<trkpt lat="52.041739" lon="05.798295"><ele>46.7</ele><time>2020-12-26T12:05:12Z</time><name>PT3943</name></trkpt>
<trkpt lat="52.041743" lon="05.798300"><ele>46.8</ele><time>2020-12-26T12:05:13Z</time><name>PT3944</name></trkpt>
<trkpt lat="52.041747" lon="05.798308"><ele>46.7</ele><time>2020-12-26T12:05:13Z</time><name>PT3945</name></trkpt>
<trkpt lat="52.041750" lon="05.798318"><ele>46.6</ele><time>2020-12-26T12:05:15Z</time><name>PT3946</name></trkpt>
<trkpt lat="52.041762" lon="05.798342"><ele>46.5</ele><time>2020-12-26T12:05:19Z</time><name>PT3947</name></trkpt>
<trkpt lat="52.041774" lon="05.798365"><ele>46.5</ele><time>2020-12-26T12:05:19Z</time><name>PT3948</name></trkpt>
<trkpt lat="52.041783" lon="05.798385"><ele>46.5</ele><time>2020-12-26T12:05:21Z</time><name>PT3949</name></trkpt>
<trkpt lat="52.041786" lon="05.798414"><ele>46.4</ele><time>2020-12-26T12:05:22Z</time><name>PT3950</name></trkpt>
<trkpt lat="52.041788" lon="05.798433"><ele>46.6</ele><time>2020-12-26T12:05:22Z</time><name>PT3951</name></trkpt>
<trkpt lat="52.041787" lon="05.798452"><ele>46.7</ele><time>2020-12-26T12:05:24Z</time><name>PT3952</name></trkpt>
<trkpt lat="52.041786" lon="05.798468"><ele>46.8</ele><time>2020-12-26T12:05:25Z</time><name>PT3953</name></trkpt>
<trkpt lat="52.041789" lon="05.798488"><ele>46.7</ele><time>2020-12-26T12:05:25Z</time><name>PT3954</name></trkpt>
<trkpt lat="52.041791" lon="05.798499"><ele>46.8</ele><time>2020-12-26T12:05:27Z</time><name>PT3955</name></trkpt>
<trkpt lat="52.041798" lon="05.798517"><ele>46.6</ele><time>2020-12-26T12:05:28Z</time><name>PT3956</name></trkpt>
<trkpt lat="52.041800" lon="05.798535"><ele>46.5</ele><time>2020-12-26T12:05:28Z</time><name>PT3957</name></trkpt>
<trkpt lat="52.041802" lon="05.798551"><ele>46.3</ele><time>2020-12-26T12:05:30Z</time><name>PT3958</name></trkpt>
<trkpt lat="52.041806" lon="05.798572"><ele>46.2</ele><time>2020-12-26T12:05:31Z</time><name>PT3959</name></trkpt>
<trkpt lat="52.041810" lon="05.798592"><ele>46.4</ele><time>2020-12-26T12:05:31Z</time><name>PT3960</name></trkpt>
<trkpt lat="52.041813" lon="05.798610"><ele>46.6</ele><time>2020-12-26T12:05:33Z</time><name>PT3961</name></trkpt>
<trkpt lat="52.041817" lon="05.798628"><ele>46.7</ele><time>2020-12-26T12:05:34Z</time><name>PT3962</name></trkpt>
<trkpt lat="52.041821" lon="05.798646"><ele>46.6</ele><time>2020-12-26T12:05:34Z</time><name>PT3963</name></trkpt>
<trkpt lat="52.041827" lon="05.798663"><ele>46.7</ele><time>2020-12-26T12:05:36Z</time><name>PT3964</name></trkpt>
<trkpt lat="52.041831" lon="05.798680"><ele>46.7</ele><time>2020-12-26T12:05:37Z</time><name>PT3965</name></trkpt>
<trkpt lat="52.041837" lon="05.798696"><ele>46.7</ele><time>2020-12-26T12:05:37Z</time><name>PT3966</name></trkpt>
<trkpt lat="52.041841" lon="05.798710"><ele>46.8</ele><time>2020-12-26T12:05:39Z</time><name>PT3967</name></trkpt>
<trkpt lat="52.041849" lon="05.798727"><ele>47</ele><time>2020-12-26T12:05:40Z</time><name>PT3968</name></trkpt>
<trkpt lat="52.041857" lon="05.798741"><ele>47</ele><time>2020-12-26T12:05:40Z</time><name>PT3969</name></trkpt>
<trkpt lat="52.041865" lon="05.798754"><ele>46.9</ele><time>2020-12-26T12:05:42Z</time><name>PT3970</name></trkpt>
<trkpt lat="52.041872" lon="05.798768"><ele>47</ele><time>2020-12-26T12:05:43Z</time><name>PT3971</name></trkpt>
<trkpt lat="52.041880" lon="05.798782"><ele>46.9</ele><time>2020-12-26T12:05:43Z</time><name>PT3972</name></trkpt>
<trkpt lat="52.041889" lon="05.798794"><ele>46.8</ele><time>2020-12-26T12:05:45Z</time><name>PT3973</name></trkpt>
<trkpt lat="52.041897" lon="05.798808"><ele>46.8</ele><time>2020-12-26T12:05:46Z</time><name>PT3974</name></trkpt>
<trkpt lat="52.041905" lon="05.798821"><ele>46.8</ele><time>2020-12-26T12:05:47Z</time><name>PT3975</name></trkpt>
<trkpt lat="52.041914" lon="05.798832"><ele>46.7</ele><time>2020-12-26T12:05:48Z</time><name>PT3976</name></trkpt>
<trkpt lat="52.041924" lon="05.798840"><ele>46.8</ele><time>2020-12-26T12:05:49Z</time><name>PT3977</name></trkpt>
<trkpt lat="52.041933" lon="05.798850"><ele>46.8</ele><time>2020-12-26T12:05:49Z</time><name>PT3978</name></trkpt>
<trkpt lat="52.041945" lon="05.798856"><ele>46.9</ele><time>2020-12-26T12:05:51Z</time><name>PT3979</name></trkpt>
<trkpt lat="52.041953" lon="05.798863"><ele>46.9</ele><time>2020-12-26T12:05:52Z</time><name>PT3980</name></trkpt>
<trkpt lat="52.041962" lon="05.798874"><ele>47</ele><time>2020-12-26T12:05:53Z</time><name>PT3981</name></trkpt>
<trkpt lat="52.041972" lon="05.798888"><ele>46.9</ele><time>2020-12-26T12:05:54Z</time><name>PT3982</name></trkpt>
<trkpt lat="52.041981" lon="05.798900"><ele>46.9</ele><time>2020-12-26T12:05:55Z</time><name>PT3983</name></trkpt>
<trkpt lat="52.041990" lon="05.798911"><ele>46.7</ele><time>2020-12-26T12:05:55Z</time><name>PT3984</name></trkpt>
<trkpt lat="52.042001" lon="05.798924"><ele>46.8</ele><time>2020-12-26T12:05:57Z</time><name>PT3985</name></trkpt>
<trkpt lat="52.042010" lon="05.798936"><ele>46.9</ele><time>2020-12-26T12:05:58Z</time><name>PT3986</name></trkpt>
<trkpt lat="52.042022" lon="05.798948"><ele>47</ele><time>2020-12-26T12:05:58Z</time><name>PT3987</name></trkpt>
<trkpt lat="52.042035" lon="05.798959"><ele>46.9</ele><time>2020-12-26T12:06:00Z</time><name>PT3988</name></trkpt>
<trkpt lat="52.042043" lon="05.798966"><ele>47</ele><time>2020-12-26T12:06:01Z</time><name>PT3989</name></trkpt>
<trkpt lat="52.042054" lon="05.798975"><ele>47</ele><time>2020-12-26T12:06:01Z</time><name>PT3990</name></trkpt>
<trkpt lat="52.042067" lon="05.798983"><ele>46.9</ele><time>2020-12-26T12:06:03Z</time><name>PT3991</name></trkpt>
<trkpt lat="52.042077" lon="05.798991"><ele>47</ele><time>2020-12-26T12:06:04Z</time><name>PT3992</name></trkpt>
<trkpt lat="52.042088" lon="05.799001"><ele>46.9</ele><time>2020-12-26T12:06:04Z</time><name>PT3993</name></trkpt>
<trkpt lat="52.042096" lon="05.799010"><ele>47</ele><time>2020-12-26T12:06:06Z</time><name>PT3994</name></trkpt>
<trkpt lat="52.042107" lon="05.799023"><ele>46.8</ele><time>2020-12-26T12:06:07Z</time><name>PT3995</name></trkpt>
<trkpt lat="52.042116" lon="05.799033"><ele>46.9</ele><time>2020-12-26T12:06:07Z</time><name>PT3996</name></trkpt>
<trkpt lat="52.042125" lon="05.799044"><ele>46.9</ele><time>2020-12-26T12:06:09Z</time><name>PT3997</name></trkpt>
<trkpt lat="52.042135" lon="05.799053"><ele>47.1</ele><time>2020-12-26T12:06:10Z</time><name>PT3998</name></trkpt>
<trkpt lat="52.042143" lon="05.799063"><ele>47.1</ele><time>2020-12-26T12:06:10Z</time><name>PT3999</name></trkpt>
<trkpt lat="52.042154" lon="05.799074"><ele>47.2</ele><time>2020-12-26T12:06:12Z</time><name>PT4000</name></trkpt>
<trkpt lat="52.042164" lon="05.799084"><ele>47.3</ele><time>2020-12-26T12:06:13Z</time><name>PT4001</name></trkpt>
<trkpt lat="52.042177" lon="05.799088"><ele>47.2</ele><time>2020-12-26T12:06:13Z</time><name>PT4002</name></trkpt>
<trkpt lat="52.042188" lon="05.799093"><ele>47</ele><time>2020-12-26T12:06:15Z</time><name>PT4003</name></trkpt>
<trkpt lat="52.042198" lon="05.799098"><ele>47</ele><time>2020-12-26T12:06:16Z</time><name>PT4004</name></trkpt>
<trkpt lat="52.042209" lon="05.799102"><ele>47.1</ele><time>2020-12-26T12:06:16Z</time><name>PT4005</name></trkpt>
<trkpt lat="52.042221" lon="05.799106"><ele>47.2</ele><time>2020-12-26T12:06:18Z</time><name>PT4006</name></trkpt>
<trkpt lat="52.042234" lon="05.799113"><ele>47.3</ele><time>2020-12-26T12:06:19Z</time><name>PT4007</name></trkpt>
<trkpt lat="52.042246" lon="05.799120"><ele>47.3</ele><time>2020-12-26T12:06:19Z</time><name>PT4008</name></trkpt>
<trkpt lat="52.042261" lon="05.799125"><ele>47.3</ele><time>2020-12-26T12:06:21Z</time><name>PT4009</name></trkpt>
<trkpt lat="52.042273" lon="05.799131"><ele>47.1</ele><time>2020-12-26T12:06:22Z</time><name>PT4010</name></trkpt>
<trkpt lat="52.042285" lon="05.799135"><ele>47.1</ele><time>2020-12-26T12:06:23Z</time><name>PT4011</name></trkpt>
<trkpt lat="52.042298" lon="05.799137"><ele>47.1</ele><time>2020-12-26T12:06:24Z</time><name>PT4012</name></trkpt>
<trkpt lat="52.042310" lon="05.799142"><ele>47.2</ele><time>2020-12-26T12:06:25Z</time><name>PT4013</name></trkpt>
<trkpt lat="52.042322" lon="05.799144"><ele>47.2</ele><time>2020-12-26T12:06:25Z</time><name>PT4014</name></trkpt>
<trkpt lat="52.042333" lon="05.799150"><ele>47.3</ele><time>2020-12-26T12:06:27Z</time><name>PT4015</name></trkpt>
<trkpt lat="52.042345" lon="05.799157"><ele>47.3</ele><time>2020-12-26T12:06:28Z</time><name>PT4016</name></trkpt>
<trkpt lat="52.042355" lon="05.799164"><ele>47.4</ele><time>2020-12-26T12:06:28Z</time><name>PT4017</name></trkpt>
<trkpt lat="52.042366" lon="05.799171"><ele>47.4</ele><time>2020-12-26T12:06:30Z</time><name>PT4018</name></trkpt>
<trkpt lat="52.042378" lon="05.799179"><ele>47.5</ele><time>2020-12-26T12:06:31Z</time><name>PT4019</name></trkpt>
<trkpt lat="52.042392" lon="05.799185"><ele>47.5</ele><time>2020-12-26T12:06:31Z</time><name>PT4020</name></trkpt>
<trkpt lat="52.042404" lon="05.799189"><ele>47.6</ele><time>2020-12-26T12:06:33Z</time><name>PT4021</name></trkpt>
<trkpt lat="52.042414" lon="05.799193"><ele>47.6</ele><time>2020-12-26T12:06:34Z</time><name>PT4022</name></trkpt>
<trkpt lat="52.042427" lon="05.799197"><ele>47.6</ele><time>2020-12-26T12:06:34Z</time><name>PT4023</name></trkpt>
<trkpt lat="52.042440" lon="05.799196"><ele>47.4</ele><time>2020-12-26T12:06:36Z</time><name>PT4024</name></trkpt>
<trkpt lat="52.042454" lon="05.799199"><ele>47.3</ele><time>2020-12-26T12:06:37Z</time><name>PT4025</name></trkpt>
<trkpt lat="52.042466" lon="05.799197"><ele>47.1</ele><time>2020-12-26T12:06:38Z</time><name>PT4026</name></trkpt>
<trkpt lat="52.042477" lon="05.799198"><ele>47</ele><time>2020-12-26T12:06:39Z</time><name>PT4027</name></trkpt>
<trkpt lat="52.042488" lon="05.799202"><ele>47.1</ele><time>2020-12-26T12:06:40Z</time><name>PT4028</name></trkpt>
<trkpt lat="52.042500" lon="05.799207"><ele>47.3</ele><time>2020-12-26T12:06:41Z</time><name>PT4029</name></trkpt>
<trkpt lat="52.042512" lon="05.799210"><ele>47.3</ele><time>2020-12-26T12:06:42Z</time><name>PT4030</name></trkpt>
<trkpt lat="52.042525" lon="05.799213"><ele>47.4</ele><time>2020-12-26T12:06:43Z</time><name>PT4031</name></trkpt>
<trkpt lat="52.042538" lon="05.799217"><ele>47.4</ele><time>2020-12-26T12:06:43Z</time><name>PT4032</name></trkpt>
<trkpt lat="52.042550" lon="05.799219"><ele>47.4</ele><time>2020-12-26T12:06:45Z</time><name>PT4033</name></trkpt>
<trkpt lat="52.042564" lon="05.799220"><ele>47.2</ele><time>2020-12-26T12:06:46Z</time><name>PT4034</name></trkpt>
<trkpt lat="52.042576" lon="05.799226"><ele>47.2</ele><time>2020-12-26T12:06:46Z</time><name>PT4035</name></trkpt>
<trkpt lat="52.042587" lon="05.799233"><ele>47.2</ele><time>2020-12-26T12:06:48Z</time><name>PT4036</name></trkpt>
<trkpt lat="52.042597" lon="05.799239"><ele>47.3</ele><time>2020-12-26T12:06:49Z</time><name>PT4037</name></trkpt>
<trkpt lat="52.042609" lon="05.799245"><ele>47.4</ele><time>2020-12-26T12:06:49Z</time><name>PT4038</name></trkpt>
<trkpt lat="52.042620" lon="05.799252"><ele>47.4</ele><time>2020-12-26T12:06:51Z</time><name>PT4039</name></trkpt>
<trkpt lat="52.042633" lon="05.799258"><ele>47.3</ele><time>2020-12-26T12:06:52Z</time><name>PT4040</name></trkpt>
<trkpt lat="52.042644" lon="05.799266"><ele>47.4</ele><time>2020-12-26T12:06:52Z</time><name>PT4041</name></trkpt>
<trkpt lat="52.042655" lon="05.799277"><ele>47.4</ele><time>2020-12-26T12:06:54Z</time><name>PT4042</name></trkpt>
<trkpt lat="52.042665" lon="05.799285"><ele>47.3</ele><time>2020-12-26T12:06:55Z</time><name>PT4043</name></trkpt>
<trkpt lat="52.042675" lon="05.799292"><ele>47.6</ele><time>2020-12-26T12:06:55Z</time><name>PT4044</name></trkpt>
<trkpt lat="52.042686" lon="05.799302"><ele>47.7</ele><time>2020-12-26T12:06:57Z</time><name>PT4045</name></trkpt>
<trkpt lat="52.042693" lon="05.799310"><ele>47.8</ele><time>2020-12-26T12:06:58Z</time><name>PT4046</name></trkpt>
<trkpt lat="52.042702" lon="05.799318"><ele>47.9</ele><time>2020-12-26T12:06:58Z</time><name>PT4047</name></trkpt>
<trkpt lat="52.042712" lon="05.799331"><ele>47.9</ele><time>2020-12-26T12:07:00Z</time><name>PT4048</name></trkpt>
<trkpt lat="52.042723" lon="05.799344"><ele>47.8</ele><time>2020-12-26T12:07:01Z</time><name>PT4049</name></trkpt>
<trkpt lat="52.042732" lon="05.799356"><ele>47.8</ele><time>2020-12-26T12:07:01Z</time><name>PT4050</name></trkpt>
<trkpt lat="52.042742" lon="05.799368"><ele>47.9</ele><time>2020-12-26T12:07:03Z</time><name>PT4051</name></trkpt>
<trkpt lat="52.042752" lon="05.799380"><ele>47.7</ele><time>2020-12-26T12:07:04Z</time><name>PT4052</name></trkpt>
<trkpt lat="52.042761" lon="05.799392"><ele>47.7</ele><time>2020-12-26T12:07:04Z</time><name>PT4053</name></trkpt>
<trkpt lat="52.042768" lon="05.799405"><ele>47.8</ele><time>2020-12-26T12:07:06Z</time><name>PT4054</name></trkpt>
<trkpt lat="52.042779" lon="05.799416"><ele>47.8</ele><time>2020-12-26T12:07:07Z</time><name>PT4055</name></trkpt>
<trkpt lat="52.042787" lon="05.799430"><ele>47.8</ele><time>2020-12-26T12:07:07Z</time><name>PT4056</name></trkpt>
<trkpt lat="52.042794" lon="05.799441"><ele>47.9</ele><time>2020-12-26T12:07:09Z</time><name>PT4057</name></trkpt>
<trkpt lat="52.042804" lon="05.799456"><ele>48</ele><time>2020-12-26T12:07:10Z</time><name>PT4058</name></trkpt>
<trkpt lat="52.042812" lon="05.799470"><ele>47.9</ele><time>2020-12-26T12:07:10Z</time><name>PT4059</name></trkpt>
<trkpt lat="52.042822" lon="05.799484"><ele>48</ele><time>2020-12-26T12:07:12Z</time><name>PT4060</name></trkpt>
<trkpt lat="52.042833" lon="05.799496"><ele>47.8</ele><time>2020-12-26T12:07:13Z</time><name>PT4061</name></trkpt>
<trkpt lat="52.042844" lon="05.799507"><ele>47.8</ele><time>2020-12-26T12:07:13Z</time><name>PT4062</name></trkpt>
<trkpt lat="52.042852" lon="05.799517"><ele>47.9</ele><time>2020-12-26T12:07:15Z</time><name>PT4063</name></trkpt>
<trkpt lat="52.042861" lon="05.799528"><ele>47.8</ele><time>2020-12-26T12:07:16Z</time><name>PT4064</name></trkpt>
<trkpt lat="52.042872" lon="05.799539"><ele>47.7</ele><time>2020-12-26T12:07:16Z</time><name>PT4065</name></trkpt>
<trkpt lat="52.042882" lon="05.799552"><ele>47.9</ele><time>2020-12-26T12:07:18Z</time><name>PT4066</name></trkpt>
<trkpt lat="52.042892" lon="05.799565"><ele>48</ele><time>2020-12-26T12:07:19Z</time><name>PT4067</name></trkpt>
<trkpt lat="52.042900" lon="05.799575"><ele>47.9</ele><time>2020-12-26T12:07:20Z</time><name>PT4068</name></trkpt>
<trkpt lat="52.042907" lon="05.799586"><ele>48</ele><time>2020-12-26T12:07:21Z</time><name>PT4069</name></trkpt>
<trkpt lat="52.042914" lon="05.799599"><ele>48</ele><time>2020-12-26T12:07:22Z</time><name>PT4070</name></trkpt>
<trkpt lat="52.042924" lon="05.799614"><ele>48</ele><time>2020-12-26T12:07:23Z</time><name>PT4071</name></trkpt>
<trkpt lat="52.042931" lon="05.799625"><ele>48</ele><time>2020-12-26T12:07:24Z</time><name>PT4072</name></trkpt>
<trkpt lat="52.042937" lon="05.799638"><ele>48</ele><time>2020-12-26T12:07:25Z</time><name>PT4073</name></trkpt>
<trkpt lat="52.042949" lon="05.799651"><ele>48</ele><time>2020-12-26T12:07:25Z</time><name>PT4074</name></trkpt>
<trkpt lat="52.042957" lon="05.799665"><ele>47.9</ele><time>2020-12-26T12:07:27Z</time><name>PT4075</name></trkpt>
<trkpt lat="52.042963" lon="05.799679"><ele>47.8</ele><time>2020-12-26T12:07:28Z</time><name>PT4076</name></trkpt>
<trkpt lat="52.042968" lon="05.799691"><ele>47.8</ele><time>2020-12-26T12:07:28Z</time><name>PT4077</name></trkpt>
<trkpt lat="52.042974" lon="05.799705"><ele>48</ele><time>2020-12-26T12:07:30Z</time><name>PT4078</name></trkpt>
<trkpt lat="52.042984" lon="05.799725"><ele>48.2</ele><time>2020-12-26T12:07:31Z</time><name>PT4079</name></trkpt>
<trkpt lat="52.042991" lon="05.799742"><ele>48.3</ele><time>2020-12-26T12:07:31Z</time><name>PT4080</name></trkpt>
<trkpt lat="52.043001" lon="05.799756"><ele>48.4</ele><time>2020-12-26T12:07:33Z</time><name>PT4081</name></trkpt>
<trkpt lat="52.043011" lon="05.799768"><ele>48.4</ele><time>2020-12-26T12:07:34Z</time><name>PT4082</name></trkpt>
<trkpt lat="52.043018" lon="05.799780"><ele>48.2</ele><time>2020-12-26T12:07:34Z</time><name>PT4083</name></trkpt>
<trkpt lat="52.043025" lon="05.799792"><ele>48.4</ele><time>2020-12-26T12:07:36Z</time><name>PT4084</name></trkpt>
<trkpt lat="52.043034" lon="05.799802"><ele>48.1</ele><time>2020-12-26T12:07:37Z</time><name>PT4085</name></trkpt>
<trkpt lat="52.043045" lon="05.799814"><ele>48.2</ele><time>2020-12-26T12:07:37Z</time><name>PT4086</name></trkpt>
<trkpt lat="52.043053" lon="05.799826"><ele>48.2</ele><time>2020-12-26T12:07:39Z</time><name>PT4087</name></trkpt>
<trkpt lat="52.043062" lon="05.799836"><ele>48.1</ele><time>2020-12-26T12:07:40Z</time><name>PT4088</name></trkpt>
<trkpt lat="52.043070" lon="05.799847"><ele>48</ele><time>2020-12-26T12:07:40Z</time><name>PT4089</name></trkpt>
<trkpt lat="52.043078" lon="05.799854"><ele>48</ele><time>2020-12-26T12:07:42Z</time><name>PT4090</name></trkpt>
<trkpt lat="52.043088" lon="05.799861"><ele>48.1</ele><time>2020-12-26T12:07:43Z</time><name>PT4091</name></trkpt>
<trkpt lat="52.043099" lon="05.799867"><ele>48.1</ele><time>2020-12-26T12:07:43Z</time><name>PT4092</name></trkpt>
<trkpt lat="52.043106" lon="05.799876"><ele>48.3</ele><time>2020-12-26T12:07:45Z</time><name>PT4093</name></trkpt>
<trkpt lat="52.043112" lon="05.799887"><ele>48.5</ele><time>2020-12-26T12:07:46Z</time><name>PT4094</name></trkpt>
<trkpt lat="52.043118" lon="05.799899"><ele>48.5</ele><time>2020-12-26T12:07:46Z</time><name>PT4095</name></trkpt>
<trkpt lat="52.043126" lon="05.799915"><ele>48.4</ele><time>2020-12-26T12:07:48Z</time><name>PT4096</name></trkpt>
<trkpt lat="52.043134" lon="05.799927"><ele>48.3</ele><time>2020-12-26T12:07:49Z</time><name>PT4097</name></trkpt>
<trkpt lat="52.043143" lon="05.799938"><ele>48.2</ele><time>2020-12-26T12:07:49Z</time><name>PT4098</name></trkpt>
<trkpt lat="52.043152" lon="05.799950"><ele>48</ele><time>2020-12-26T12:07:51Z</time><name>PT4099</name></trkpt>
<trkpt lat="52.043162" lon="05.799962"><ele>48</ele><time>2020-12-26T12:07:52Z</time><name>PT4100</name></trkpt>
<trkpt lat="52.043170" lon="05.799971"><ele>48.1</ele><time>2020-12-26T12:07:52Z</time><name>PT4101</name></trkpt>
<trkpt lat="52.043179" lon="05.799979"><ele>48.3</ele><time>2020-12-26T12:07:54Z</time><name>PT4102</name></trkpt>
<trkpt lat="52.043189" lon="05.799989"><ele>48.2</ele><time>2020-12-26T12:07:55Z</time><name>PT4103</name></trkpt>
<trkpt lat="52.043196" lon="05.799998"><ele>48.2</ele><time>2020-12-26T12:07:55Z</time><name>PT4104</name></trkpt>
<trkpt lat="52.043203" lon="05.800010"><ele>48.3</ele><time>2020-12-26T12:07:57Z</time><name>PT4105</name></trkpt>
<trkpt lat="52.043217" lon="05.800020"><ele>48.2</ele><time>2020-12-26T12:07:58Z</time><name>PT4106</name></trkpt>
<trkpt lat="52.043227" lon="05.800030"><ele>48.1</ele><time>2020-12-26T12:07:59Z</time><name>PT4107</name></trkpt>
<trkpt lat="52.043238" lon="05.800042"><ele>48.4</ele><time>2020-12-26T12:08:00Z</time><name>PT4108</name></trkpt>
<trkpt lat="52.043252" lon="05.800051"><ele>48.6</ele><time>2020-12-26T12:08:01Z</time><name>PT4109</name></trkpt>
<trkpt lat="52.043264" lon="05.800059"><ele>48.5</ele><time>2020-12-26T12:08:01Z</time><name>PT4110</name></trkpt>
<trkpt lat="52.043276" lon="05.800066"><ele>48.6</ele><time>2020-12-26T12:08:03Z</time><name>PT4111</name></trkpt>
<trkpt lat="52.043287" lon="05.800073"><ele>48.8</ele><time>2020-12-26T12:08:04Z</time><name>PT4112</name></trkpt>
<trkpt lat="52.043298" lon="05.800082"><ele>48.7</ele><time>2020-12-26T12:08:04Z</time><name>PT4113</name></trkpt>
<trkpt lat="52.043308" lon="05.800094"><ele>48.5</ele><time>2020-12-26T12:08:06Z</time><name>PT4114</name></trkpt>
<trkpt lat="52.043317" lon="05.800108"><ele>48.5</ele><time>2020-12-26T12:08:07Z</time><name>PT4115</name></trkpt>
<trkpt lat="52.043325" lon="05.800119"><ele>48.5</ele><time>2020-12-26T12:08:07Z</time><name>PT4116</name></trkpt>
<trkpt lat="52.043335" lon="05.800129"><ele>48.5</ele><time>2020-12-26T12:08:09Z</time><name>PT4117</name></trkpt>
<trkpt lat="52.043343" lon="05.800139"><ele>48.5</ele><time>2020-12-26T12:08:10Z</time><name>PT4118</name></trkpt>
<trkpt lat="52.043348" lon="05.800148"><ele>48.5</ele><time>2020-12-26T12:08:11Z</time><name>PT4119</name></trkpt>
<trkpt lat="52.043354" lon="05.800160"><ele>48.7</ele><time>2020-12-26T12:08:12Z</time><name>PT4120</name></trkpt>
<trkpt lat="52.043362" lon="05.800169"><ele>48.5</ele><time>2020-12-26T12:08:13Z</time><name>PT4121</name></trkpt>
<trkpt lat="52.043372" lon="05.800180"><ele>48.5</ele><time>2020-12-26T12:08:13Z</time><name>PT4122</name></trkpt>
<trkpt lat="52.043384" lon="05.800191"><ele>48.7</ele><time>2020-12-26T12:08:15Z</time><name>PT4123</name></trkpt>
<trkpt lat="52.043393" lon="05.800203"><ele>48.7</ele><time>2020-12-26T12:08:16Z</time><name>PT4124</name></trkpt>
<trkpt lat="52.043403" lon="05.800212"><ele>48.5</ele><time>2020-12-26T12:08:17Z</time><name>PT4125</name></trkpt>
<trkpt lat="52.043412" lon="05.800224"><ele>48.6</ele><time>2020-12-26T12:08:18Z</time><name>PT4126</name></trkpt>
<trkpt lat="52.043419" lon="05.800238"><ele>48.7</ele><time>2020-12-26T12:08:19Z</time><name>PT4127</name></trkpt>
<trkpt lat="52.043427" lon="05.800253"><ele>48.7</ele><time>2020-12-26T12:08:20Z</time><name>PT4128</name></trkpt>
<trkpt lat="52.043434" lon="05.800266"><ele>48.8</ele><time>2020-12-26T12:08:21Z</time><name>PT4129</name></trkpt>
<trkpt lat="52.043446" lon="05.800276"><ele>48.8</ele><time>2020-12-26T12:08:22Z</time><name>PT4130</name></trkpt>
<trkpt lat="52.043458" lon="05.800289"><ele>48.8</ele><time>2020-12-26T12:08:23Z</time><name>PT4131</name></trkpt>
<trkpt lat="52.043468" lon="05.800298"><ele>48.7</ele><time>2020-12-26T12:08:24Z</time><name>PT4132</name></trkpt>
<trkpt lat="52.043476" lon="05.800310"><ele>48.8</ele><time>2020-12-26T12:08:25Z</time><name>PT4133</name></trkpt>
<trkpt lat="52.043484" lon="05.800321"><ele>48.6</ele><time>2020-12-26T12:08:26Z</time><name>PT4134</name></trkpt>
<trkpt lat="52.043492" lon="05.800333"><ele>48.6</ele><time>2020-12-26T12:08:27Z</time><name>PT4135</name></trkpt>
<trkpt lat="52.043497" lon="05.800348"><ele>48.6</ele><time>2020-12-26T12:08:28Z</time><name>PT4136</name></trkpt>
<trkpt lat="52.043505" lon="05.800361"><ele>48.7</ele><time>2020-12-26T12:08:29Z</time><name>PT4137</name></trkpt>
<trkpt lat="52.043519" lon="05.800371"><ele>48.9</ele><time>2020-12-26T12:08:30Z</time><name>PT4138</name></trkpt>
<trkpt lat="52.043528" lon="05.800380"><ele>49</ele><time>2020-12-26T12:08:31Z</time><name>PT4139</name></trkpt>
<trkpt lat="52.043538" lon="05.800392"><ele>49</ele><time>2020-12-26T12:08:31Z</time><name>PT4140</name></trkpt>
<trkpt lat="52.043549" lon="05.800402"><ele>49</ele><time>2020-12-26T12:08:33Z</time><name>PT4141</name></trkpt>
<trkpt lat="52.043559" lon="05.800411"><ele>49.2</ele><time>2020-12-26T12:08:34Z</time><name>PT4142</name></trkpt>
<trkpt lat="52.043569" lon="05.800422"><ele>49.1</ele><time>2020-12-26T12:08:34Z</time><name>PT4143</name></trkpt>
<trkpt lat="52.043580" lon="05.800429"><ele>49</ele><time>2020-12-26T12:08:36Z</time><name>PT4144</name></trkpt>
<trkpt lat="52.043594" lon="05.800436"><ele>49.2</ele><time>2020-12-26T12:08:37Z</time><name>PT4145</name></trkpt>
<trkpt lat="52.043607" lon="05.800442"><ele>49.2</ele><time>2020-12-26T12:08:37Z</time><name>PT4146</name></trkpt>
<trkpt lat="52.043620" lon="05.800447"><ele>49.1</ele><time>2020-12-26T12:08:39Z</time><name>PT4147</name></trkpt>
<trkpt lat="52.043630" lon="05.800452"><ele>49.2</ele><time>2020-12-26T12:08:40Z</time><name>PT4148</name></trkpt>
<trkpt lat="52.043643" lon="05.800456"><ele>49.3</ele><time>2020-12-26T12:08:40Z</time><name>PT4149</name></trkpt>
<trkpt lat="52.043652" lon="05.800463"><ele>49.1</ele><time>2020-12-26T12:08:42Z</time><name>PT4150</name></trkpt>
<trkpt lat="52.043663" lon="05.800469"><ele>49.1</ele><time>2020-12-26T12:08:43Z</time><name>PT4151</name></trkpt>
<trkpt lat="52.043673" lon="05.800479"><ele>49.2</ele><time>2020-12-26T12:08:43Z</time><name>PT4152</name></trkpt>
<trkpt lat="52.043681" lon="05.800489"><ele>49.3</ele><time>2020-12-26T12:08:45Z</time><name>PT4153</name></trkpt>
<trkpt lat="52.043692" lon="05.800497"><ele>49.4</ele><time>2020-12-26T12:08:46Z</time><name>PT4154</name></trkpt>
<trkpt lat="52.043704" lon="05.800505"><ele>49.5</ele><time>2020-12-26T12:08:46Z</time><name>PT4155</name></trkpt>
<trkpt lat="52.043716" lon="05.800511"><ele>49.5</ele><time>2020-12-26T12:08:48Z</time><name>PT4156</name></trkpt>
<trkpt lat="52.043728" lon="05.800518"><ele>49.5</ele><time>2020-12-26T12:08:49Z</time><name>PT4157</name></trkpt>
<trkpt lat="52.043739" lon="05.800524"><ele>49.5</ele><time>2020-12-26T12:08:49Z</time><name>PT4158</name></trkpt>
<trkpt lat="52.043749" lon="05.800530"><ele>49.5</ele><time>2020-12-26T12:08:51Z</time><name>PT4159</name></trkpt>
<trkpt lat="52.043760" lon="05.800534"><ele>49.4</ele><time>2020-12-26T12:08:52Z</time><name>PT4160</name></trkpt>
<trkpt lat="52.043771" lon="05.800543"><ele>49.5</ele><time>2020-12-26T12:08:52Z</time><name>PT4161</name></trkpt>
<trkpt lat="52.043779" lon="05.800555"><ele>49.6</ele><time>2020-12-26T12:08:54Z</time><name>PT4162</name></trkpt>
<trkpt lat="52.043790" lon="05.800560"><ele>49.7</ele><time>2020-12-26T12:08:55Z</time><name>PT4163</name></trkpt>
<trkpt lat="52.043801" lon="05.800564"><ele>49.7</ele><time>2020-12-26T12:08:55Z</time><name>PT4164</name></trkpt>
<trkpt lat="52.043814" lon="05.800569"><ele>50</ele><time>2020-12-26T12:08:57Z</time><name>PT4165</name></trkpt>
<trkpt lat="52.043823" lon="05.800577"><ele>49.9</ele><time>2020-12-26T12:08:58Z</time><name>PT4166</name></trkpt>
<trkpt lat="52.043831" lon="05.800585"><ele>49.9</ele><time>2020-12-26T12:08:58Z</time><name>PT4167</name></trkpt>
<trkpt lat="52.043837" lon="05.800595"><ele>49.8</ele><time>2020-12-26T12:09:00Z</time><name>PT4168</name></trkpt>
<trkpt lat="52.043846" lon="05.800602"><ele>49.9</ele><time>2020-12-26T12:09:01Z</time><name>PT4169</name></trkpt>
<trkpt lat="52.043856" lon="05.800609"><ele>49.9</ele><time>2020-12-26T12:09:01Z</time><name>PT4170</name></trkpt>
<trkpt lat="52.043863" lon="05.800616"><ele>50</ele><time>2020-12-26T12:09:03Z</time><name>PT4171</name></trkpt>
<trkpt lat="52.043872" lon="05.800622"><ele>50.2</ele><time>2020-12-26T12:09:04Z</time><name>PT4172</name></trkpt>
<trkpt lat="52.043879" lon="05.800628"><ele>50.2</ele><time>2020-12-26T12:09:04Z</time><name>PT4173</name></trkpt>
<trkpt lat="52.043888" lon="05.800634"><ele>50.4</ele><time>2020-12-26T12:09:06Z</time><name>PT4174</name></trkpt>
<trkpt lat="52.043897" lon="05.800639"><ele>50.4</ele><time>2020-12-26T12:09:07Z</time><name>PT4175</name></trkpt>
<trkpt lat="52.043907" lon="05.800644"><ele>50.5</ele><time>2020-12-26T12:09:07Z</time><name>PT4176</name></trkpt>
<trkpt lat="52.043916" lon="05.800650"><ele>50.6</ele><time>2020-12-26T12:09:09Z</time><name>PT4177</name></trkpt>
<trkpt lat="52.043925" lon="05.800658"><ele>50.8</ele><time>2020-12-26T12:09:10Z</time><name>PT4178</name></trkpt>
<trkpt lat="52.043935" lon="05.800664"><ele>50.7</ele><time>2020-12-26T12:09:10Z</time><name>PT4179</name></trkpt>
<trkpt lat="52.043947" lon="05.800668"><ele>50.9</ele><time>2020-12-26T12:09:12Z</time><name>PT4180</name></trkpt>
<trkpt lat="52.043958" lon="05.800671"><ele>50.8</ele><time>2020-12-26T12:09:13Z</time><name>PT4181</name></trkpt>
<trkpt lat="52.043969" lon="05.800672"><ele>50.9</ele><time>2020-12-26T12:09:13Z</time><name>PT4182</name></trkpt>
<trkpt lat="52.043980" lon="05.800675"><ele>50.8</ele><time>2020-12-26T12:09:15Z</time><name>PT4183</name></trkpt>
<trkpt lat="52.043991" lon="05.800677"><ele>50.8</ele><time>2020-12-26T12:09:16Z</time><name>PT4184</name></trkpt>
<trkpt lat="52.044000" lon="05.800685"><ele>50.8</ele><time>2020-12-26T12:09:16Z</time><name>PT4185</name></trkpt>
<trkpt lat="52.044007" lon="05.800694"><ele>50.9</ele><time>2020-12-26T12:09:18Z</time><name>PT4186</name></trkpt>
<trkpt lat="52.044015" lon="05.800699"><ele>50.9</ele><time>2020-12-26T12:09:19Z</time><name>PT4187</name></trkpt>
<trkpt lat="52.044024" lon="05.800704"><ele>50.9</ele><time>2020-12-26T12:09:20Z</time><name>PT4188</name></trkpt>
<trkpt lat="52.044037" lon="05.800706"><ele>50.9</ele><time>2020-12-26T12:09:21Z</time><name>PT4189</name></trkpt>
<trkpt lat="52.044049" lon="05.800706"><ele>50.7</ele><time>2020-12-26T12:09:22Z</time><name>PT4190</name></trkpt>
<trkpt lat="52.044061" lon="05.800705"><ele>50.6</ele><time>2020-12-26T12:09:23Z</time><name>PT4191</name></trkpt>
<trkpt lat="52.044072" lon="05.800704"><ele>50.6</ele><time>2020-12-26T12:09:24Z</time><name>PT4192</name></trkpt>
<trkpt lat="52.044080" lon="05.800708"><ele>50.8</ele><time>2020-12-26T12:09:25Z</time><name>PT4193</name></trkpt>
<trkpt lat="52.044088" lon="05.800713"><ele>50.8</ele><time>2020-12-26T12:09:26Z</time><name>PT4194</name></trkpt>
<trkpt lat="52.044096" lon="05.800715"><ele>50.9</ele><time>2020-12-26T12:09:27Z</time><name>PT4195</name></trkpt>
<trkpt lat="52.044104" lon="05.800716"><ele>50.9</ele><time>2020-12-26T12:09:28Z</time><name>PT4196</name></trkpt>
<trkpt lat="52.044112" lon="05.800717"><ele>50.9</ele><time>2020-12-26T12:09:29Z</time><name>PT4197</name></trkpt>
<trkpt lat="52.044119" lon="05.800722"><ele>50.9</ele><time>2020-12-26T12:09:30Z</time><name>PT4198</name></trkpt>
<trkpt lat="52.044128" lon="05.800723"><ele>51</ele><time>2020-12-26T12:09:31Z</time><name>PT4199</name></trkpt>
<trkpt lat="52.044137" lon="05.800725"><ele>50.9</ele><time>2020-12-26T12:09:31Z</time><name>PT4200</name></trkpt>
<trkpt lat="52.044146" lon="05.800728"><ele>51</ele><time>2020-12-26T12:09:33Z</time><name>PT4201</name></trkpt>
<trkpt lat="52.044155" lon="05.800732"><ele>50.9</ele><time>2020-12-26T12:09:34Z</time><name>PT4202</name></trkpt>
<trkpt lat="52.044164" lon="05.800737"><ele>50.9</ele><time>2020-12-26T12:09:34Z</time><name>PT4203</name></trkpt>
<trkpt lat="52.044173" lon="05.800742"><ele>50.9</ele><time>2020-12-26T12:09:36Z</time><name>PT4204</name></trkpt>
<trkpt lat="52.044180" lon="05.800747"><ele>50.7</ele><time>2020-12-26T12:09:37Z</time><name>PT4205</name></trkpt>
<trkpt lat="52.044184" lon="05.800755"><ele>50.8</ele><time>2020-12-26T12:09:37Z</time><name>PT4206</name></trkpt>
<trkpt lat="52.044191" lon="05.800765"><ele>50.9</ele><time>2020-12-26T12:09:39Z</time><name>PT4207</name></trkpt>
<trkpt lat="52.044198" lon="05.800773"><ele>50.9</ele><time>2020-12-26T12:09:40Z</time><name>PT4208</name></trkpt>
<trkpt lat="52.044205" lon="05.800780"><ele>50.9</ele><time>2020-12-26T12:09:40Z</time><name>PT4209</name></trkpt>
<trkpt lat="52.044211" lon="05.800788"><ele>51</ele><time>2020-12-26T12:09:42Z</time><name>PT4210</name></trkpt>
<trkpt lat="52.044219" lon="05.800796"><ele>50.9</ele><time>2020-12-26T12:09:43Z</time><name>PT4211</name></trkpt>
<trkpt lat="52.044225" lon="05.800805"><ele>51</ele><time>2020-12-26T12:09:43Z</time><name>PT4212</name></trkpt>
<trkpt lat="52.044231" lon="05.800815"><ele>51.2</ele><time>2020-12-26T12:09:45Z</time><name>PT4213</name></trkpt>
<trkpt lat="52.044237" lon="05.800822"><ele>51</ele><time>2020-12-26T12:09:46Z</time><name>PT4214</name></trkpt>
<trkpt lat="52.044243" lon="05.800831"><ele>50.9</ele><time>2020-12-26T12:09:46Z</time><name>PT4215</name></trkpt>
<trkpt lat="52.044248" lon="05.800841"><ele>50.8</ele><time>2020-12-26T12:09:48Z</time><name>PT4216</name></trkpt>
<trkpt lat="52.044255" lon="05.800849"><ele>50.7</ele><time>2020-12-26T12:09:49Z</time><name>PT4217</name></trkpt>
<trkpt lat="52.044260" lon="05.800857"><ele>50.6</ele><time>2020-12-26T12:09:49Z</time><name>PT4218</name></trkpt>
<trkpt lat="52.044266" lon="05.800864"><ele>50.8</ele><time>2020-12-26T12:09:51Z</time><name>PT4219</name></trkpt>
<trkpt lat="52.044269" lon="05.800867"><ele>50.9</ele><time>2020-12-26T12:09:52Z</time><name>PT4220</name></trkpt>
<trkpt lat="52.044269" lon="05.800868"><ele>51</ele><time>2020-12-26T12:09:52Z</time><name>PT4221</name></trkpt>
<trkpt lat="52.044270" lon="05.800866"><ele>51.2</ele><time>2020-12-26T12:09:54Z</time><name>PT4222</name></trkpt>
<trkpt lat="52.044271" lon="05.800865"><ele>51</ele><time>2020-12-26T12:09:55Z</time><name>PT4223</name></trkpt>
<trkpt lat="52.044275" lon="05.800868"><ele>51</ele><time>2020-12-26T12:10:39Z</time><name>PT4224</name></trkpt>
<trkpt lat="52.044281" lon="05.800876"><ele>50.9</ele><time>2020-12-26T12:10:40Z</time><name>PT4225</name></trkpt>
<trkpt lat="52.044285" lon="05.800886"><ele>50.9</ele><time>2020-12-26T12:10:40Z</time><name>PT4226</name></trkpt>
<trkpt lat="52.044291" lon="05.800895"><ele>50.9</ele><time>2020-12-26T12:10:42Z</time><name>PT4227</name></trkpt>
<trkpt lat="52.044297" lon="05.800903"><ele>51.1</ele><time>2020-12-26T12:10:43Z</time><name>PT4228</name></trkpt>
<trkpt lat="52.044302" lon="05.800913"><ele>51.1</ele><time>2020-12-26T12:10:43Z</time><name>PT4229</name></trkpt>
<trkpt lat="52.044307" lon="05.800925"><ele>50.9</ele><time>2020-12-26T12:10:45Z</time><name>PT4230</name></trkpt>
<trkpt lat="52.044313" lon="05.800934"><ele>51</ele><time>2020-12-26T12:10:46Z</time><name>PT4231</name></trkpt>
<trkpt lat="52.044320" lon="05.800941"><ele>50.8</ele><time>2020-12-26T12:10:46Z</time><name>PT4232</name></trkpt>
<trkpt lat="52.044325" lon="05.800946"><ele>50.7</ele><time>2020-12-26T12:10:48Z</time><name>PT4233</name></trkpt>
<trkpt lat="52.044330" lon="05.800951"><ele>51</ele><time>2020-12-26T12:10:49Z</time><name>PT4234</name></trkpt>
<trkpt lat="52.044335" lon="05.800958"><ele>51.3</ele><time>2020-12-26T12:10:50Z</time><name>PT4235</name></trkpt>
<trkpt lat="52.044343" lon="05.800970"><ele>51.4</ele><time>2020-12-26T12:10:51Z</time><name>PT4236</name></trkpt>
<trkpt lat="52.044354" lon="05.800978"><ele>51.4</ele><time>2020-12-26T12:10:52Z</time><name>PT4237</name></trkpt>
<trkpt lat="52.044366" lon="05.800977"><ele>51.4</ele><time>2020-12-26T12:10:52Z</time><name>PT4238</name></trkpt>
<trkpt lat="52.044379" lon="05.800976"><ele>51.2</ele><time>2020-12-26T12:10:54Z</time><name>PT4239</name></trkpt>
<trkpt lat="52.044390" lon="05.800980"><ele>51.1</ele><time>2020-12-26T12:10:55Z</time><name>PT4240</name></trkpt>
<trkpt lat="52.044398" lon="05.800989"><ele>51.2</ele><time>2020-12-26T12:10:55Z</time><name>PT4241</name></trkpt>
<trkpt lat="52.044407" lon="05.800998"><ele>51.2</ele><time>2020-12-26T12:10:57Z</time><name>PT4242</name></trkpt>
<trkpt lat="52.044417" lon="05.801009"><ele>51.2</ele><time>2020-12-26T12:10:58Z</time><name>PT4243</name></trkpt>
<trkpt lat="52.044422" lon="05.801023"><ele>51.4</ele><time>2020-12-26T12:10:58Z</time><name>PT4244</name></trkpt>
<trkpt lat="52.044423" lon="05.801037"><ele>51.4</ele><time>2020-12-26T12:11:00Z</time><name>PT4245</name></trkpt>
<trkpt lat="52.044428" lon="05.801050"><ele>51.4</ele><time>2020-12-26T12:11:01Z</time><name>PT4246</name></trkpt>
<trkpt lat="52.044435" lon="05.801061"><ele>51.4</ele><time>2020-12-26T12:11:01Z</time><name>PT4247</name></trkpt>
<trkpt lat="52.044442" lon="05.801071"><ele>51.5</ele><time>2020-12-26T12:11:03Z</time><name>PT4248</name></trkpt>
<trkpt lat="52.044449" lon="05.801080"><ele>51.6</ele><time>2020-12-26T12:11:04Z</time><name>PT4249</name></trkpt>
<trkpt lat="52.044456" lon="05.801092"><ele>51.5</ele><time>2020-12-26T12:11:04Z</time><name>PT4250</name></trkpt>
<trkpt lat="52.044465" lon="05.801105"><ele>51.4</ele><time>2020-12-26T12:11:06Z</time><name>PT4251</name></trkpt>
<trkpt lat="52.044473" lon="05.801114"><ele>51.3</ele><time>2020-12-26T12:11:07Z</time><name>PT4252</name></trkpt>
<trkpt lat="52.044478" lon="05.801126"><ele>51.3</ele><time>2020-12-26T12:11:07Z</time><name>PT4253</name></trkpt>
<trkpt lat="52.044481" lon="05.801135"><ele>51.2</ele><time>2020-12-26T12:11:09Z</time><name>PT4254</name></trkpt>
<trkpt lat="52.044485" lon="05.801148"><ele>51.4</ele><time>2020-12-26T12:11:10Z</time><name>PT4255</name></trkpt>
<trkpt lat="52.044486" lon="05.801159"><ele>51.5</ele><time>2020-12-26T12:11:10Z</time><name>PT4256</name></trkpt>
<trkpt lat="52.044487" lon="05.801170"><ele>51.6</ele><time>2020-12-26T12:11:12Z</time><name>PT4257</name></trkpt>
<trkpt lat="52.044488" lon="05.801184"><ele>51.4</ele><time>2020-12-26T12:11:13Z</time><name>PT4258</name></trkpt>
<trkpt lat="52.044490" lon="05.801194"><ele>51.4</ele><time>2020-12-26T12:11:13Z</time><name>PT4259</name></trkpt>
<trkpt lat="52.044489" lon="05.801210"><ele>51.5</ele><time>2020-12-26T12:11:15Z</time><name>PT4260</name></trkpt>
<trkpt lat="52.044487" lon="05.801221"><ele>51.4</ele><time>2020-12-26T12:11:16Z</time><name>PT4261</name></trkpt>
<trkpt lat="52.044484" lon="05.801235"><ele>51.4</ele><time>2020-12-26T12:11:16Z</time><name>PT4262</name></trkpt>
<trkpt lat="52.044481" lon="05.801247"><ele>51.6</ele><time>2020-12-26T12:11:18Z</time><name>PT4263</name></trkpt>
<trkpt lat="52.044476" lon="05.801262"><ele>51.6</ele><time>2020-12-26T12:11:19Z</time><name>PT4264</name></trkpt>
<trkpt lat="52.044472" lon="05.801281"><ele>51.6</ele><time>2020-12-26T12:11:19Z</time><name>PT4265</name></trkpt>
<trkpt lat="52.044470" lon="05.801299"><ele>51.8</ele><time>2020-12-26T12:11:21Z</time><name>PT4266</name></trkpt>
<trkpt lat="52.044471" lon="05.801319"><ele>51.9</ele><time>2020-12-26T12:11:22Z</time><name>PT4267</name></trkpt>
<trkpt lat="52.044471" lon="05.801336"><ele>51.8</ele><time>2020-12-26T12:11:22Z</time><name>PT4268</name></trkpt>
<trkpt lat="52.044471" lon="05.801356"><ele>51.6</ele><time>2020-12-26T12:11:24Z</time><name>PT4269</name></trkpt>
<trkpt lat="52.044471" lon="05.801370"><ele>51.5</ele><time>2020-12-26T12:11:25Z</time><name>PT4270</name></trkpt>
<trkpt lat="52.044472" lon="05.801384"><ele>51.4</ele><time>2020-12-26T12:11:25Z</time><name>PT4271</name></trkpt>
<trkpt lat="52.044475" lon="05.801400"><ele>51.1</ele><time>2020-12-26T12:11:27Z</time><name>PT4272</name></trkpt>
<trkpt lat="52.044476" lon="05.801416"><ele>51.1</ele><time>2020-12-26T12:11:28Z</time><name>PT4273</name></trkpt>
<trkpt lat="52.044477" lon="05.801433"><ele>51.1</ele><time>2020-12-26T12:11:28Z</time><name>PT4274</name></trkpt>
<trkpt lat="52.044479" lon="05.801449"><ele>51</ele><time>2020-12-26T12:11:30Z</time><name>PT4275</name></trkpt>
<trkpt lat="52.044479" lon="05.801464"><ele>51.1</ele><time>2020-12-26T12:11:31Z</time><name>PT4276</name></trkpt>
<trkpt lat="52.044481" lon="05.801477"><ele>51.2</ele><time>2020-12-26T12:11:31Z</time><name>PT4277</name></trkpt>
<trkpt lat="52.044484" lon="05.801487"><ele>51.1</ele><time>2020-12-26T12:11:33Z</time><name>PT4278</name></trkpt>
<trkpt lat="52.044486" lon="05.801494"><ele>51.2</ele><time>2020-12-26T12:11:34Z</time><name>PT4279</name></trkpt>
<trkpt lat="52.044487" lon="05.801501"><ele>51.1</ele><time>2020-12-26T12:11:34Z</time><name>PT4280</name></trkpt>
<trkpt lat="52.044489" lon="05.801502"><ele>50.9</ele><time>2020-12-26T12:11:37Z</time><name>PT4281</name></trkpt>
<trkpt lat="52.044489" lon="05.801500"><ele>50.7</ele><time>2020-12-26T12:11:37Z</time><name>PT4282</name></trkpt>
<trkpt lat="52.044492" lon="05.801506"><ele>50.9</ele><time>2020-12-26T12:11:52Z</time><name>PT4283</name></trkpt>
<trkpt lat="52.044495" lon="05.801518"><ele>50.9</ele><time>2020-12-26T12:11:52Z</time><name>PT4284</name></trkpt>
<trkpt lat="52.044504" lon="05.801538"><ele>50.9</ele><time>2020-12-26T12:11:54Z</time><name>PT4285</name></trkpt>
<trkpt lat="52.044511" lon="05.801559"><ele>50.9</ele><time>2020-12-26T12:11:55Z</time><name>PT4286</name></trkpt>
<trkpt lat="52.044512" lon="05.801574"><ele>50.8</ele><time>2020-12-26T12:11:55Z</time><name>PT4287</name></trkpt>
<trkpt lat="52.044513" lon="05.801585"><ele>50.8</ele><time>2020-12-26T12:11:57Z</time><name>PT4288</name></trkpt>
<trkpt lat="52.044513" lon="05.801598"><ele>50.5</ele><time>2020-12-26T12:11:58Z</time><name>PT4289</name></trkpt>
<trkpt lat="52.044517" lon="05.801618"><ele>50.7</ele><time>2020-12-26T12:11:58Z</time><name>PT4290</name></trkpt>
<trkpt lat="52.044519" lon="05.801627"><ele>50.6</ele><time>2020-12-26T12:12:00Z</time><name>PT4291</name></trkpt>
<trkpt lat="52.044520" lon="05.801634"><ele>50.8</ele><time>2020-12-26T12:12:01Z</time><name>PT4292</name></trkpt>
<trkpt lat="52.044518" lon="05.801644"><ele>50.9</ele><time>2020-12-26T12:12:01Z</time><name>PT4293</name></trkpt>
<trkpt lat="52.044519" lon="05.801653"><ele>50.9</ele><time>2020-12-26T12:12:03Z</time><name>PT4294</name></trkpt>
<trkpt lat="52.044519" lon="05.801656"><ele>50.9</ele><time>2020-12-26T12:12:04Z</time><name>PT4295</name></trkpt>
<trkpt lat="52.044521" lon="05.801659"><ele>50.9</ele><time>2020-12-26T12:12:04Z</time><name>PT4296</name></trkpt>
<trkpt lat="52.044525" lon="05.801662"><ele>50.9</ele><time>2020-12-26T12:12:06Z</time><name>PT4297</name></trkpt>
<trkpt lat="52.044528" lon="05.801668"><ele>51</ele><time>2020-12-26T12:12:07Z</time><name>PT4298</name></trkpt>
<trkpt lat="52.044529" lon="05.801672"><ele>50.9</ele><time>2020-12-26T12:12:07Z</time><name>PT4299</name></trkpt>
<trkpt lat="52.044531" lon="05.801677"><ele>51</ele><time>2020-12-26T12:12:09Z</time><name>PT4300</name></trkpt>
<trkpt lat="52.044524" lon="05.801676"><ele>50.8</ele><time>2020-12-26T12:12:12Z</time><name>PT4301</name></trkpt>
<trkpt lat="52.044532" lon="05.801693"><ele>50.8</ele><time>2020-12-26T12:12:13Z</time><name>PT4302</name></trkpt>
<trkpt lat="52.044537" lon="05.801709"><ele>50.8</ele><time>2020-12-26T12:12:13Z</time><name>PT4303</name></trkpt>
<trkpt lat="52.044542" lon="05.801724"><ele>50.9</ele><time>2020-12-26T12:12:15Z</time><name>PT4304</name></trkpt>
<trkpt lat="52.044547" lon="05.801740"><ele>50.9</ele><time>2020-12-26T12:12:16Z</time><name>PT4305</name></trkpt>
<trkpt lat="52.044552" lon="05.801753"><ele>50.9</ele><time>2020-12-26T12:12:16Z</time><name>PT4306</name></trkpt>
<trkpt lat="52.044558" lon="05.801761"><ele>50.9</ele><time>2020-12-26T12:12:18Z</time><name>PT4307</name></trkpt>
<trkpt lat="52.044563" lon="05.801772"><ele>50.7</ele><time>2020-12-26T12:12:19Z</time><name>PT4308</name></trkpt>
<trkpt lat="52.044568" lon="05.801786"><ele>50.6</ele><time>2020-12-26T12:12:19Z</time><name>PT4309</name></trkpt>
<trkpt lat="52.044575" lon="05.801805"><ele>50.6</ele><time>2020-12-26T12:12:21Z</time><name>PT4310</name></trkpt>
<trkpt lat="52.044584" lon="05.801817"><ele>50.6</ele><time>2020-12-26T12:12:22Z</time><name>PT4311</name></trkpt>
<trkpt lat="52.044592" lon="05.801830"><ele>50.6</ele><time>2020-12-26T12:12:22Z</time><name>PT4312</name></trkpt>
<trkpt lat="52.044597" lon="05.801843"><ele>50.6</ele><time>2020-12-26T12:12:24Z</time><name>PT4313</name></trkpt>
<trkpt lat="52.044603" lon="05.801856"><ele>50.5</ele><time>2020-12-26T12:12:25Z</time><name>PT4314</name></trkpt>
<trkpt lat="52.044610" lon="05.801873"><ele>50.5</ele><time>2020-12-26T12:12:25Z</time><name>PT4315</name></trkpt>
<trkpt lat="52.044616" lon="05.801889"><ele>50.6</ele><time>2020-12-26T12:12:27Z</time><name>PT4316</name></trkpt>
<trkpt lat="52.044624" lon="05.801902"><ele>50.8</ele><time>2020-12-26T12:12:28Z</time><name>PT4317</name></trkpt>
<trkpt lat="52.044632" lon="05.801917"><ele>50.9</ele><time>2020-12-26T12:12:28Z</time><name>PT4318</name></trkpt>
<trkpt lat="52.044638" lon="05.801931"><ele>50.8</ele><time>2020-12-26T12:12:30Z</time><name>PT4319</name></trkpt>
<trkpt lat="52.044644" lon="05.801945"><ele>50.9</ele><time>2020-12-26T12:12:31Z</time><name>PT4320</name></trkpt>
<trkpt lat="52.044652" lon="05.801961"><ele>50.8</ele><time>2020-12-26T12:12:31Z</time><name>PT4321</name></trkpt>
<trkpt lat="52.044659" lon="05.801976"><ele>50.7</ele><time>2020-12-26T12:12:33Z</time><name>PT4322</name></trkpt>
<trkpt lat="52.044666" lon="05.801989"><ele>50.7</ele><time>2020-12-26T12:12:34Z</time><name>PT4323</name></trkpt>
<trkpt lat="52.044674" lon="05.802003"><ele>50.6</ele><time>2020-12-26T12:12:34Z</time><name>PT4324</name></trkpt>
<trkpt lat="52.044682" lon="05.802016"><ele>50.6</ele><time>2020-12-26T12:12:36Z</time><name>PT4325</name></trkpt>
<trkpt lat="52.044690" lon="05.802028"><ele>50.8</ele><time>2020-12-26T12:12:37Z</time><name>PT4326</name></trkpt>
<trkpt lat="52.044696" lon="05.802042"><ele>50.7</ele><time>2020-12-26T12:12:37Z</time><name>PT4327</name></trkpt>
<trkpt lat="52.044703" lon="05.802056"><ele>50.7</ele><time>2020-12-26T12:12:39Z</time><name>PT4328</name></trkpt>
<trkpt lat="52.044710" lon="05.802068"><ele>50.6</ele><time>2020-12-26T12:12:40Z</time><name>PT4329</name></trkpt>
<trkpt lat="52.044718" lon="05.802083"><ele>50.6</ele><time>2020-12-26T12:12:40Z</time><name>PT4330</name></trkpt>
<trkpt lat="52.044724" lon="05.802096"><ele>50.6</ele><time>2020-12-26T12:12:42Z</time><name>PT4331</name></trkpt>
<trkpt lat="52.044730" lon="05.802110"><ele>50.6</ele><time>2020-12-26T12:12:43Z</time><name>PT4332</name></trkpt>
<trkpt lat="52.044735" lon="05.802126"><ele>50.7</ele><time>2020-12-26T12:12:43Z</time><name>PT4333</name></trkpt>
<trkpt lat="52.044742" lon="05.802141"><ele>50.5</ele><time>2020-12-26T12:12:45Z</time><name>PT4334</name></trkpt>
<trkpt lat="52.044749" lon="05.802154"><ele>50.5</ele><time>2020-12-26T12:12:46Z</time><name>PT4335</name></trkpt>
<trkpt lat="52.044758" lon="05.802169"><ele>50.5</ele><time>2020-12-26T12:12:46Z</time><name>PT4336</name></trkpt>
<trkpt lat="52.044764" lon="05.802184"><ele>50.7</ele><time>2020-12-26T12:12:48Z</time><name>PT4337</name></trkpt>
<trkpt lat="52.044769" lon="05.802199"><ele>50.8</ele><time>2020-12-26T12:12:49Z</time><name>PT4338</name></trkpt>
<trkpt lat="52.044775" lon="05.802215"><ele>50.9</ele><time>2020-12-26T12:12:49Z</time><name>PT4339</name></trkpt>
<trkpt lat="52.044783" lon="05.802229"><ele>50.9</ele><time>2020-12-26T12:12:51Z</time><name>PT4340</name></trkpt>
<trkpt lat="52.044791" lon="05.802240"><ele>50.9</ele><time>2020-12-26T12:12:52Z</time><name>PT4341</name></trkpt>
<trkpt lat="52.044799" lon="05.802253"><ele>50.9</ele><time>2020-12-26T12:12:52Z</time><name>PT4342</name></trkpt>
<trkpt lat="52.044806" lon="05.802265"><ele>50.6</ele><time>2020-12-26T12:12:54Z</time><name>PT4343</name></trkpt>
<trkpt lat="52.044815" lon="05.802278"><ele>50.8</ele><time>2020-12-26T12:12:55Z</time><name>PT4344</name></trkpt>
<trkpt lat="52.044821" lon="05.802294"><ele>50.8</ele><time>2020-12-26T12:12:55Z</time><name>PT4345</name></trkpt>
<trkpt lat="52.044827" lon="05.802310"><ele>50.9</ele><time>2020-12-26T12:12:57Z</time><name>PT4346</name></trkpt>
<trkpt lat="52.044835" lon="05.802325"><ele>50.9</ele><time>2020-12-26T12:12:58Z</time><name>PT4347</name></trkpt>
<trkpt lat="52.044844" lon="05.802337"><ele>51</ele><time>2020-12-26T12:12:58Z</time><name>PT4348</name></trkpt>
<trkpt lat="52.044852" lon="05.802350"><ele>50.9</ele><time>2020-12-26T12:13:00Z</time><name>PT4349</name></trkpt>
<trkpt lat="52.044860" lon="05.802366"><ele>50.8</ele><time>2020-12-26T12:13:01Z</time><name>PT4350</name></trkpt>
<trkpt lat="52.044867" lon="05.802380"><ele>50.8</ele><time>2020-12-26T12:13:01Z</time><name>PT4351</name></trkpt>
<trkpt lat="52.044875" lon="05.802395"><ele>50.7</ele><time>2020-12-26T12:13:03Z</time><name>PT4352</name></trkpt>
<trkpt lat="52.044880" lon="05.802410"><ele>50.9</ele><time>2020-12-26T12:13:04Z</time><name>PT4353</name></trkpt>
<trkpt lat="52.044888" lon="05.802428"><ele>50.9</ele><time>2020-12-26T12:13:04Z</time><name>PT4354</name></trkpt>
<trkpt lat="52.044894" lon="05.802446"><ele>50.9</ele><time>2020-12-26T12:13:06Z</time><name>PT4355</name></trkpt>
<trkpt lat="52.044902" lon="05.802462"><ele>50.9</ele><time>2020-12-26T12:13:07Z</time><name>PT4356</name></trkpt>
<trkpt lat="52.044910" lon="05.802476"><ele>37.9</ele><time>2020-12-26T12:13:07Z</time><name>PT4357</name></trkpt>
<trkpt lat="52.044918" lon="05.802492"><ele>37.8</ele><time>2020-12-26T12:13:09Z</time><name>PT4358</name></trkpt>
<trkpt lat="52.044926" lon="05.802509"><ele>37.9</ele><time>2020-12-26T12:13:10Z</time><name>PT4359</name></trkpt>
<trkpt lat="52.044933" lon="05.802521"><ele>38</ele><time>2020-12-26T12:13:10Z</time><name>PT4360</name></trkpt>
<trkpt lat="52.044939" lon="05.802534"><ele>37.9</ele><time>2020-12-26T12:13:12Z</time><name>PT4361</name></trkpt>
<trkpt lat="52.044947" lon="05.802550"><ele>37.9</ele><time>2020-12-26T12:13:13Z</time><name>PT4362</name></trkpt>
<trkpt lat="52.044952" lon="05.802567"><ele>37.9</ele><time>2020-12-26T12:13:13Z</time><name>PT4363</name></trkpt>
<trkpt lat="52.044959" lon="05.802582"><ele>37.9</ele><time>2020-12-26T12:13:15Z</time><name>PT4364</name></trkpt>
<trkpt lat="52.044967" lon="05.802597"><ele>37.9</ele><time>2020-12-26T12:13:16Z</time><name>PT4365</name></trkpt>
<trkpt lat="52.044976" lon="05.802611"><ele>37.9</ele><time>2020-12-26T12:13:16Z</time><name>PT4366</name></trkpt>
<trkpt lat="52.044986" lon="05.802625"><ele>37.9</ele><time>2020-12-26T12:13:18Z</time><name>PT4367</name></trkpt>
<trkpt lat="52.044994" lon="05.802641"><ele>38</ele><time>2020-12-26T12:13:19Z</time><name>PT4368</name></trkpt>
<trkpt lat="52.045001" lon="05.802655"><ele>38</ele><time>2020-12-26T12:13:19Z</time><name>PT4369</name></trkpt>
<trkpt lat="52.045006" lon="05.802670"><ele>38.2</ele><time>2020-12-26T12:13:21Z</time><name>PT4370</name></trkpt>
<trkpt lat="52.045012" lon="05.802684"><ele>38.1</ele><time>2020-12-26T12:13:22Z</time><name>PT4371</name></trkpt>
<trkpt lat="52.045018" lon="05.802698"><ele>38</ele><time>2020-12-26T12:13:22Z</time><name>PT4372</name></trkpt>
<trkpt lat="52.045026" lon="05.802713"><ele>37.9</ele><time>2020-12-26T12:13:24Z</time><name>PT4373</name></trkpt>
<trkpt lat="52.045032" lon="05.802730"><ele>37.6</ele><time>2020-12-26T12:13:25Z</time><name>PT4374</name></trkpt>
<trkpt lat="52.045040" lon="05.802745"><ele>37.7</ele><time>2020-12-26T12:13:25Z</time><name>PT4375</name></trkpt>
<trkpt lat="52.045049" lon="05.802760"><ele>37.8</ele><time>2020-12-26T12:13:27Z</time><name>PT4376</name></trkpt>
<trkpt lat="52.045058" lon="05.802776"><ele>37.8</ele><time>2020-12-26T12:13:28Z</time><name>PT4377</name></trkpt>
<trkpt lat="52.045065" lon="05.802790"><ele>37.7</ele><time>2020-12-26T12:13:28Z</time><name>PT4378</name></trkpt>
<trkpt lat="52.045072" lon="05.802803"><ele>37.9</ele><time>2020-12-26T12:13:30Z</time><name>PT4379</name></trkpt>
<trkpt lat="52.045079" lon="05.802816"><ele>37.9</ele><time>2020-12-26T12:13:31Z</time><name>PT4380</name></trkpt>
<trkpt lat="52.045084" lon="05.802829"><ele>37.9</ele><time>2020-12-26T12:13:31Z</time><name>PT4381</name></trkpt>
<trkpt lat="52.045086" lon="05.802837"><ele>37.9</ele><time>2020-12-26T12:13:33Z</time><name>PT4382</name></trkpt>
<trkpt lat="52.045090" lon="05.802843"><ele>38.1</ele><time>2020-12-26T12:13:34Z</time><name>PT4383</name></trkpt>
<trkpt lat="52.045095" lon="05.802854"><ele>37.9</ele><time>2020-12-26T12:13:34Z</time><name>PT4384</name></trkpt>
<trkpt lat="52.045104" lon="05.802867"><ele>38</ele><time>2020-12-26T12:13:36Z</time><name>PT4385</name></trkpt>
<trkpt lat="52.045113" lon="05.802878"><ele>38.1</ele><time>2020-12-26T12:13:37Z</time><name>PT4386</name></trkpt>
<trkpt lat="52.045120" lon="05.802893"><ele>37.9</ele><time>2020-12-26T12:13:37Z</time><name>PT4387</name></trkpt>
<trkpt lat="52.045124" lon="05.802908"><ele>38</ele><time>2020-12-26T12:13:39Z</time><name>PT4388</name></trkpt>
<trkpt lat="52.045128" lon="05.802924"><ele>38.2</ele><time>2020-12-26T12:13:40Z</time><name>PT4389</name></trkpt>
<trkpt lat="52.045136" lon="05.802942"><ele>38.2</ele><time>2020-12-26T12:13:40Z</time><name>PT4390</name></trkpt>
<trkpt lat="52.045142" lon="05.802959"><ele>38.4</ele><time>2020-12-26T12:13:42Z</time><name>PT4391</name></trkpt>
<trkpt lat="52.045148" lon="05.802974"><ele>38.4</ele><time>2020-12-26T12:13:43Z</time><name>PT4392</name></trkpt>
<trkpt lat="52.045155" lon="05.802988"><ele>38.4</ele><time>2020-12-26T12:13:43Z</time><name>PT4393</name></trkpt>
<trkpt lat="52.045162" lon="05.803001"><ele>38.4</ele><time>2020-12-26T12:13:45Z</time><name>PT4394</name></trkpt>
<trkpt lat="52.045167" lon="05.803015"><ele>38.4</ele><time>2020-12-26T12:13:46Z</time><name>PT4395</name></trkpt>
<trkpt lat="52.045173" lon="05.803031"><ele>38.5</ele><time>2020-12-26T12:13:46Z</time><name>PT4396</name></trkpt>
<trkpt lat="52.045177" lon="05.803045"><ele>38.4</ele><time>2020-12-26T12:13:48Z</time><name>PT4397</name></trkpt>
<trkpt lat="52.045183" lon="05.803060"><ele>38.6</ele><time>2020-12-26T12:13:49Z</time><name>PT4398</name></trkpt>
<trkpt lat="52.045187" lon="05.803079"><ele>38.6</ele><time>2020-12-26T12:13:49Z</time><name>PT4399</name></trkpt>
<trkpt lat="52.045192" lon="05.803092"><ele>38.5</ele><time>2020-12-26T12:13:51Z</time><name>PT4400</name></trkpt>
<trkpt lat="52.045195" lon="05.803105"><ele>38.8</ele><time>2020-12-26T12:13:52Z</time><name>PT4401</name></trkpt>
<trkpt lat="52.045201" lon="05.803117"><ele>38.9</ele><time>2020-12-26T12:13:52Z</time><name>PT4402</name></trkpt>
<trkpt lat="52.045206" lon="05.803132"><ele>39</ele><time>2020-12-26T12:13:54Z</time><name>PT4403</name></trkpt>
<trkpt lat="52.045211" lon="05.803145"><ele>39</ele><time>2020-12-26T12:13:55Z</time><name>PT4404</name></trkpt>
<trkpt lat="52.045217" lon="05.803159"><ele>38.9</ele><time>2020-12-26T12:13:55Z</time><name>PT4405</name></trkpt>
<trkpt lat="52.045222" lon="05.803169"><ele>38.7</ele><time>2020-12-26T12:13:57Z</time><name>PT4406</name></trkpt>
<trkpt lat="52.045227" lon="05.803183"><ele>38.4</ele><time>2020-12-26T12:13:58Z</time><name>PT4407</name></trkpt>
<trkpt lat="52.045231" lon="05.803192"><ele>38.4</ele><time>2020-12-26T12:13:58Z</time><name>PT4408</name></trkpt>
<trkpt lat="52.045237" lon="05.803203"><ele>38.6</ele><time>2020-12-26T12:14:00Z</time><name>PT4409</name></trkpt>
<trkpt lat="52.045241" lon="05.803216"><ele>38.9</ele><time>2020-12-26T12:14:01Z</time><name>PT4410</name></trkpt>
<trkpt lat="52.045238" lon="05.803232"><ele>39</ele><time>2020-12-26T12:14:01Z</time><name>PT4411</name></trkpt>
<trkpt lat="52.045242" lon="05.803238"><ele>39.3</ele><time>2020-12-26T12:14:03Z</time><name>PT4412</name></trkpt>
<trkpt lat="52.045244" lon="05.803241"><ele>39.1</ele><time>2020-12-26T12:14:04Z</time><name>PT4413</name></trkpt>
<trkpt lat="52.045245" lon="05.803240"><ele>39.1</ele><time>2020-12-26T12:14:04Z</time><name>PT4414</name></trkpt>
<trkpt lat="52.045248" lon="05.803235"><ele>39.1</ele><time>2020-12-26T12:14:06Z</time><name>PT4415</name></trkpt>
<trkpt lat="52.045251" lon="05.803235"><ele>39</ele><time>2020-12-26T12:14:07Z</time><name>PT4416</name></trkpt>
<trkpt lat="52.045256" lon="05.803237"><ele>39.1</ele><time>2020-12-26T12:14:07Z</time><name>PT4417</name></trkpt>
<trkpt lat="52.045261" lon="05.803240"><ele>39.3</ele><time>2020-12-26T12:14:09Z</time><name>PT4418</name></trkpt>
<trkpt lat="52.045268" lon="05.803244"><ele>39.4</ele><time>2020-12-26T12:14:22Z</time><name>PT4419</name></trkpt>
<trkpt lat="52.045271" lon="05.803237"><ele>39.4</ele><time>2020-12-26T12:14:24Z</time><name>PT4420</name></trkpt>
<trkpt lat="52.045274" lon="05.803237"><ele>39.4</ele><time>2020-12-26T12:14:25Z</time><name>PT4421</name></trkpt>
<trkpt lat="52.045277" lon="05.803239"><ele>39.4</ele><time>2020-12-26T12:14:25Z</time><name>PT4422</name></trkpt>
<trkpt lat="52.045278" lon="05.803240"><ele>39.6</ele><time>2020-12-26T12:14:27Z</time><name>PT4423</name></trkpt>
<trkpt lat="52.045275" lon="05.803249"><ele>39.8</ele><time>2020-12-26T12:15:03Z</time><name>PT4424</name></trkpt>
<trkpt lat="52.045266" lon="05.803268"><ele>39.9</ele><time>2020-12-26T12:15:04Z</time><name>PT4425</name></trkpt>
<trkpt lat="52.045258" lon="05.803283"><ele>39.9</ele><time>2020-12-26T12:15:04Z</time><name>PT4426</name></trkpt>
<trkpt lat="52.045252" lon="05.803294"><ele>39.9</ele><time>2020-12-26T12:15:06Z</time><name>PT4427</name></trkpt>
<trkpt lat="52.045243" lon="05.803305"><ele>39.8</ele><time>2020-12-26T12:15:07Z</time><name>PT4428</name></trkpt>
<trkpt lat="52.045234" lon="05.803312"><ele>39.6</ele><time>2020-12-26T12:15:07Z</time><name>PT4429</name></trkpt>
<trkpt lat="52.045226" lon="05.803326"><ele>39.6</ele><time>2020-12-26T12:15:09Z</time><name>PT4430</name></trkpt>
<trkpt lat="52.045221" lon="05.803336"><ele>39.7</ele><time>2020-12-26T12:15:10Z</time><name>PT4431</name></trkpt>
<trkpt lat="52.045215" lon="05.803344"><ele>39.8</ele><time>2020-12-26T12:15:10Z</time><name>PT4432</name></trkpt>
<trkpt lat="52.045210" lon="05.803356"><ele>39.8</ele><time>2020-12-26T12:15:12Z</time><name>PT4433</name></trkpt>
<trkpt lat="52.045204" lon="05.803366"><ele>39.8</ele><time>2020-12-26T12:15:13Z</time><name>PT4434</name></trkpt>
<trkpt lat="52.045196" lon="05.803372"><ele>39.7</ele><time>2020-12-26T12:15:13Z</time><name>PT4435</name></trkpt>
<trkpt lat="52.045188" lon="05.803382"><ele>39.8</ele><time>2020-12-26T12:15:15Z</time><name>PT4436</name></trkpt>
<trkpt lat="52.045182" lon="05.803390"><ele>39.6</ele><time>2020-12-26T12:15:16Z</time><name>PT4437</name></trkpt>
<trkpt lat="52.045175" lon="05.803403"><ele>39.6</ele><time>2020-12-26T12:15:16Z</time><name>PT4438</name></trkpt>
<trkpt lat="52.045169" lon="05.803413"><ele>39.8</ele><time>2020-12-26T12:15:18Z</time><name>PT4439</name></trkpt>
<trkpt lat="52.045162" lon="05.803420"><ele>39.7</ele><time>2020-12-26T12:15:19Z</time><name>PT4440</name></trkpt>
<trkpt lat="52.045158" lon="05.803420"><ele>39.6</ele><time>2020-12-26T12:15:19Z</time><name>PT4441</name></trkpt>
<trkpt lat="52.045155" lon="05.803424"><ele>39.5</ele><time>2020-12-26T12:15:21Z</time><name>PT4442</name></trkpt>
<trkpt lat="52.045153" lon="05.803430"><ele>39.1</ele><time>2020-12-26T12:15:22Z</time><name>PT4443</name></trkpt>
<trkpt lat="52.045153" lon="05.803436"><ele>38.8</ele><time>2020-12-26T12:15:22Z</time><name>PT4444</name></trkpt>
<trkpt lat="52.045150" lon="05.803440"><ele>38.6</ele><time>2020-12-26T12:15:24Z</time><name>PT4445</name></trkpt>
<trkpt lat="52.045146" lon="05.803452"><ele>38.6</ele><time>2020-12-26T12:15:25Z</time><name>PT4446</name></trkpt>
<trkpt lat="52.045140" lon="05.803464"><ele>38.7</ele><time>2020-12-26T12:15:25Z</time><name>PT4447</name></trkpt>
<trkpt lat="52.045132" lon="05.803475"><ele>38.9</ele><time>2020-12-26T12:15:27Z</time><name>PT4448</name></trkpt>
<trkpt lat="52.045125" lon="05.803487"><ele>39</ele><time>2020-12-26T12:15:28Z</time><name>PT4449</name></trkpt>
<trkpt lat="52.045119" lon="05.803501"><ele>38.9</ele><time>2020-12-26T12:15:28Z</time><name>PT4450</name></trkpt>
<trkpt lat="52.045111" lon="05.803507"><ele>39</ele><time>2020-12-26T12:15:30Z</time><name>PT4451</name></trkpt>
<trkpt lat="52.045104" lon="05.803517"><ele>39.2</ele><time>2020-12-26T12:15:31Z</time><name>PT4452</name></trkpt>
<trkpt lat="52.045097" lon="05.803524"><ele>39.3</ele><time>2020-12-26T12:15:31Z</time><name>PT4453</name></trkpt>
<trkpt lat="52.045091" lon="05.803536"><ele>39.5</ele><time>2020-12-26T12:15:33Z</time><name>PT4454</name></trkpt>
<trkpt lat="52.045085" lon="05.803542"><ele>39.6</ele><time>2020-12-26T12:15:34Z</time><name>PT4455</name></trkpt>
<trkpt lat="52.045077" lon="05.803550"><ele>39.5</ele><time>2020-12-26T12:15:34Z</time><name>PT4456</name></trkpt>
<trkpt lat="52.045071" lon="05.803562"><ele>39.4</ele><time>2020-12-26T12:15:36Z</time><name>PT4457</name></trkpt>
<trkpt lat="52.045065" lon="05.803582"><ele>39.3</ele><time>2020-12-26T12:15:37Z</time><name>PT4458</name></trkpt>
<trkpt lat="52.045059" lon="05.803592"><ele>39.3</ele><time>2020-12-26T12:15:37Z</time><name>PT4459</name></trkpt>
<trkpt lat="52.045051" lon="05.803603"><ele>39.2</ele><time>2020-12-26T12:15:39Z</time><name>PT4460</name></trkpt>
<trkpt lat="52.045043" lon="05.803618"><ele>39.2</ele><time>2020-12-26T12:15:40Z</time><name>PT4461</name></trkpt>
<trkpt lat="52.045035" lon="05.803627"><ele>39.2</ele><time>2020-12-26T12:15:40Z</time><name>PT4462</name></trkpt>
<trkpt lat="52.045029" lon="05.803639"><ele>39.3</ele><time>2020-12-26T12:15:42Z</time><name>PT4463</name></trkpt>
<trkpt lat="52.045023" lon="05.803652"><ele>39.2</ele><time>2020-12-26T12:15:43Z</time><name>PT4464</name></trkpt>
<trkpt lat="52.045015" lon="05.803663"><ele>39.2</ele><time>2020-12-26T12:15:43Z</time><name>PT4465</name></trkpt>
<trkpt lat="52.045006" lon="05.803680"><ele>39.2</ele><time>2020-12-26T12:15:45Z</time><name>PT4466</name></trkpt>
<trkpt lat="52.044997" lon="05.803695"><ele>39.1</ele><time>2020-12-26T12:15:46Z</time><name>PT4467</name></trkpt>
<trkpt lat="52.044989" lon="05.803709"><ele>39</ele><time>2020-12-26T12:15:46Z</time><name>PT4468</name></trkpt>
<trkpt lat="52.044983" lon="05.803722"><ele>39.3</ele><time>2020-12-26T12:15:48Z</time><name>PT4469</name></trkpt>
<trkpt lat="52.044976" lon="05.803733"><ele>39.3</ele><time>2020-12-26T12:15:49Z</time><name>PT4470</name></trkpt>
<trkpt lat="52.044968" lon="05.803741"><ele>39.3</ele><time>2020-12-26T12:15:49Z</time><name>PT4471</name></trkpt>
<trkpt lat="52.044960" lon="05.803752"><ele>39.5</ele><time>2020-12-26T12:15:51Z</time><name>PT4472</name></trkpt>
<trkpt lat="52.044953" lon="05.803764"><ele>39.5</ele><time>2020-12-26T12:15:52Z</time><name>PT4473</name></trkpt>
<trkpt lat="52.044946" lon="05.803769"><ele>39.4</ele><time>2020-12-26T12:15:52Z</time><name>PT4474</name></trkpt>
<trkpt lat="52.044940" lon="05.803778"><ele>39.4</ele><time>2020-12-26T12:15:54Z</time><name>PT4475</name></trkpt>
<trkpt lat="52.044937" lon="05.803785"><ele>39.6</ele><time>2020-12-26T12:15:55Z</time><name>PT4476</name></trkpt>
<trkpt lat="52.044936" lon="05.803781"><ele>39.4</ele><time>2020-12-26T12:15:55Z</time><name>PT4477</name></trkpt>
<trkpt lat="52.044937" lon="05.803776"><ele>39.5</ele><time>2020-12-26T12:15:57Z</time><name>PT4478</name></trkpt>
<trkpt lat="52.044938" lon="05.803772"><ele>39.6</ele><time>2020-12-26T12:15:58Z</time><name>PT4479</name></trkpt>
<trkpt lat="52.044930" lon="05.803774"><ele>39.3</ele><time>2020-12-26T12:16:03Z</time><name>PT4480</name></trkpt>
<trkpt lat="52.044918" lon="05.803786"><ele>39.2</ele><time>2020-12-26T12:16:04Z</time><name>PT4481</name></trkpt>
<trkpt lat="52.044909" lon="05.803797"><ele>39.1</ele><time>2020-12-26T12:16:04Z</time><name>PT4482</name></trkpt>
<trkpt lat="52.044901" lon="05.803805"><ele>38.9</ele><time>2020-12-26T12:16:06Z</time><name>PT4483</name></trkpt>
<trkpt lat="52.044891" lon="05.803812"><ele>39.1</ele><time>2020-12-26T12:16:07Z</time><name>PT4484</name></trkpt>
<trkpt lat="52.044882" lon="05.803816"><ele>39.2</ele><time>2020-12-26T12:16:07Z</time><name>PT4485</name></trkpt>
<trkpt lat="52.044874" lon="05.803819"><ele>39.2</ele><time>2020-12-26T12:16:09Z</time><name>PT4486</name></trkpt>
<trkpt lat="52.044868" lon="05.803827"><ele>39.1</ele><time>2020-12-26T12:16:10Z</time><name>PT4487</name></trkpt>
<trkpt lat="52.044859" lon="05.803839"><ele>38.9</ele><time>2020-12-26T12:16:10Z</time><name>PT4488</name></trkpt>
<trkpt lat="52.044851" lon="05.803852"><ele>38.9</ele><time>2020-12-26T12:16:12Z</time><name>PT4489</name></trkpt>
<trkpt lat="52.044845" lon="05.803861"><ele>38.9</ele><time>2020-12-26T12:16:13Z</time><name>PT4490</name></trkpt>
<trkpt lat="52.044837" lon="05.803869"><ele>38.9</ele><time>2020-12-26T12:16:13Z</time><name>PT4491</name></trkpt>
<trkpt lat="52.044828" lon="05.803880"><ele>38.8</ele><time>2020-12-26T12:16:15Z</time><name>PT4492</name></trkpt>
<trkpt lat="52.044821" lon="05.803891"><ele>38.5</ele><time>2020-12-26T12:16:16Z</time><name>PT4493</name></trkpt>
<trkpt lat="52.044813" lon="05.803903"><ele>38.5</ele><time>2020-12-26T12:16:16Z</time><name>PT4494</name></trkpt>
<trkpt lat="52.044805" lon="05.803915"><ele>38.5</ele><time>2020-12-26T12:16:18Z</time><name>PT4495</name></trkpt>
<trkpt lat="52.044798" lon="05.803921"><ele>38.4</ele><time>2020-12-26T12:16:19Z</time><name>PT4496</name></trkpt>
<trkpt lat="52.044788" lon="05.803929"><ele>38.5</ele><time>2020-12-26T12:16:19Z</time><name>PT4497</name></trkpt>
<trkpt lat="52.044779" lon="05.803940"><ele>38.8</ele><time>2020-12-26T12:16:21Z</time><name>PT4498</name></trkpt>
<trkpt lat="52.044771" lon="05.803951"><ele>38.6</ele><time>2020-12-26T12:16:22Z</time><name>PT4499</name></trkpt>
<trkpt lat="52.044764" lon="05.803963"><ele>38.6</ele><time>2020-12-26T12:16:22Z</time><name>PT4500</name></trkpt>
<trkpt lat="52.044756" lon="05.803977"><ele>38.6</ele><time>2020-12-26T12:16:24Z</time><name>PT4501</name></trkpt>
<trkpt lat="52.044749" lon="05.803980"><ele>38.5</ele><time>2020-12-26T12:16:25Z</time><name>PT4502</name></trkpt>
<trkpt lat="52.044741" lon="05.803988"><ele>38.6</ele><time>2020-12-26T12:16:25Z</time><name>PT4503</name></trkpt>
<trkpt lat="52.044730" lon="05.804001"><ele>38.7</ele><time>2020-12-26T12:16:27Z</time><name>PT4504</name></trkpt>
<trkpt lat="52.044721" lon="05.804013"><ele>38.8</ele><time>2020-12-26T12:16:28Z</time><name>PT4505</name></trkpt>
<trkpt lat="52.044714" lon="05.804027"><ele>38.8</ele><time>2020-12-26T12:16:28Z</time><name>PT4506</name></trkpt>
<trkpt lat="52.044705" lon="05.804041"><ele>38.7</ele><time>2020-12-26T12:16:30Z</time><name>PT4507</name></trkpt>
<trkpt lat="52.044697" lon="05.804052"><ele>38.6</ele><time>2020-12-26T12:16:31Z</time><name>PT4508</name></trkpt>
<trkpt lat="52.044690" lon="05.804057"><ele>38.8</ele><time>2020-12-26T12:16:31Z</time><name>PT4509</name></trkpt>
<trkpt lat="52.044681" lon="05.804066"><ele>38.6</ele><time>2020-12-26T12:16:33Z</time><name>PT4510</name></trkpt>
<trkpt lat="52.044671" lon="05.804079"><ele>38.6</ele><time>2020-12-26T12:16:34Z</time><name>PT4511</name></trkpt>
<trkpt lat="52.044662" lon="05.804094"><ele>38.4</ele><time>2020-12-26T12:16:34Z</time><name>PT4512</name></trkpt>
<trkpt lat="52.044653" lon="05.804109"><ele>38.4</ele><time>2020-12-26T12:16:36Z</time><name>PT4513</name></trkpt>
<trkpt lat="52.044645" lon="05.804120"><ele>38.5</ele><time>2020-12-26T12:16:37Z</time><name>PT4514</name></trkpt>
<trkpt lat="52.044636" lon="05.804136"><ele>38.5</ele><time>2020-12-26T12:16:37Z</time><name>PT4515</name></trkpt>
<trkpt lat="52.044628" lon="05.804149"><ele>38.7</ele><time>2020-12-26T12:16:39Z</time><name>PT4516</name></trkpt>
<trkpt lat="52.044619" lon="05.804157"><ele>38.7</ele><time>2020-12-26T12:16:40Z</time><name>PT4517</name></trkpt>
<trkpt lat="52.044608" lon="05.804169"><ele>38.7</ele><time>2020-12-26T12:16:40Z</time><name>PT4518</name></trkpt>
<trkpt lat="52.044599" lon="05.804179"><ele>38.6</ele><time>2020-12-26T12:16:42Z</time><name>PT4519</name></trkpt>
<trkpt lat="52.044590" lon="05.804189"><ele>38.4</ele><time>2020-12-26T12:16:43Z</time><name>PT4520</name></trkpt>
<trkpt lat="52.044581" lon="05.804201"><ele>38.4</ele><time>2020-12-26T12:16:43Z</time><name>PT4521</name></trkpt>
<trkpt lat="52.044573" lon="05.804214"><ele>38.6</ele><time>2020-12-26T12:16:45Z</time><name>PT4522</name></trkpt>
<trkpt lat="52.044564" lon="05.804225"><ele>38.8</ele><time>2020-12-26T12:16:46Z</time><name>PT4523</name></trkpt>
<trkpt lat="52.044555" lon="05.804234"><ele>38.9</ele><time>2020-12-26T12:16:46Z</time><name>PT4524</name></trkpt>
<trkpt lat="52.044545" lon="05.804246"><ele>38.9</ele><time>2020-12-26T12:16:48Z</time><name>PT4525</name></trkpt>
<trkpt lat="52.044535" lon="05.804258"><ele>38.8</ele><time>2020-12-26T12:16:49Z</time><name>PT4526</name></trkpt>
<trkpt lat="52.044526" lon="05.804269"><ele>38.8</ele><time>2020-12-26T12:16:49Z</time><name>PT4527</name></trkpt>
<trkpt lat="52.044516" lon="05.804282"><ele>38.6</ele><time>2020-12-26T12:16:51Z</time><name>PT4528</name></trkpt>
<trkpt lat="52.044507" lon="05.804297"><ele>38.6</ele><time>2020-12-26T12:16:52Z</time><name>PT4529</name></trkpt>
<trkpt lat="52.044497" lon="05.804305"><ele>38.6</ele><time>2020-12-26T12:16:52Z</time><name>PT4530</name></trkpt>
<trkpt lat="52.044489" lon="05.804317"><ele>38.6</ele><time>2020-12-26T12:16:54Z</time><name>PT4531</name></trkpt>
<trkpt lat="52.044480" lon="05.804328"><ele>38.4</ele><time>2020-12-26T12:16:55Z</time><name>PT4532</name></trkpt>
<trkpt lat="52.044472" lon="05.804338"><ele>38.4</ele><time>2020-12-26T12:16:55Z</time><name>PT4533</name></trkpt>
<trkpt lat="52.044463" lon="05.804348"><ele>38.4</ele><time>2020-12-26T12:16:57Z</time><name>PT4534</name></trkpt>
<trkpt lat="52.044455" lon="05.804362"><ele>38.4</ele><time>2020-12-26T12:16:58Z</time><name>PT4535</name></trkpt>
<trkpt lat="52.044448" lon="05.804376"><ele>38.3</ele><time>2020-12-26T12:16:58Z</time><name>PT4536</name></trkpt>
<trkpt lat="52.044440" lon="05.804386"><ele>38.4</ele><time>2020-12-26T12:17:00Z</time><name>PT4537</name></trkpt>
<trkpt lat="52.044430" lon="05.804395"><ele>37.9</ele><time>2020-12-26T12:17:01Z</time><name>PT4538</name></trkpt>
<trkpt lat="52.044420" lon="05.804405"><ele>38</ele><time>2020-12-26T12:17:01Z</time><name>PT4539</name></trkpt>
<trkpt lat="52.044412" lon="05.804415"><ele>38.1</ele><time>2020-12-26T12:17:03Z</time><name>PT4540</name></trkpt>
<trkpt lat="52.044402" lon="05.804431"><ele>38.2</ele><time>2020-12-26T12:17:04Z</time><name>PT4541</name></trkpt>
<trkpt lat="52.044394" lon="05.804441"><ele>38.2</ele><time>2020-12-26T12:17:04Z</time><name>PT4542</name></trkpt>
<trkpt lat="52.044386" lon="05.804450"><ele>38.3</ele><time>2020-12-26T12:17:06Z</time><name>PT4543</name></trkpt>
<trkpt lat="52.044383" lon="05.804461"><ele>38.3</ele><time>2020-12-26T12:17:07Z</time><name>PT4544</name></trkpt>
<trkpt lat="52.044377" lon="05.804471"><ele>38.2</ele><time>2020-12-26T12:17:07Z</time><name>PT4545</name></trkpt>
<trkpt lat="52.044369" lon="05.804482"><ele>38</ele><time>2020-12-26T12:17:09Z</time><name>PT4546</name></trkpt>
<trkpt lat="52.044360" lon="05.804491"><ele>37.8</ele><time>2020-12-26T12:17:10Z</time><name>PT4547</name></trkpt>
<trkpt lat="52.044348" lon="05.804502"><ele>37.7</ele><time>2020-12-26T12:17:10Z</time><name>PT4548</name></trkpt>
<trkpt lat="52.044338" lon="05.804514"><ele>37.7</ele><time>2020-12-26T12:17:12Z</time><name>PT4549</name></trkpt>
<trkpt lat="52.044326" lon="05.804529"><ele>37.8</ele><time>2020-12-26T12:17:13Z</time><name>PT4550</name></trkpt>
<trkpt lat="52.044315" lon="05.804541"><ele>37.9</ele><time>2020-12-26T12:17:13Z</time><name>PT4551</name></trkpt>
<trkpt lat="52.044305" lon="05.804552"><ele>37.9</ele><time>2020-12-26T12:17:15Z</time><name>PT4552</name></trkpt>
<trkpt lat="52.044296" lon="05.804562"><ele>37.9</ele><time>2020-12-26T12:17:16Z</time><name>PT4553</name></trkpt>
<trkpt lat="52.044288" lon="05.804574"><ele>38</ele><time>2020-12-26T12:17:16Z</time><name>PT4554</name></trkpt>
<trkpt lat="52.044279" lon="05.804583"><ele>37.8</ele><time>2020-12-26T12:17:18Z</time><name>PT4555</name></trkpt>
<trkpt lat="52.044271" lon="05.804595"><ele>37.8</ele><time>2020-12-26T12:17:19Z</time><name>PT4556</name></trkpt>
<trkpt lat="52.044261" lon="05.804610"><ele>37.8</ele><time>2020-12-26T12:17:19Z</time><name>PT4557</name></trkpt>
<trkpt lat="52.044249" lon="05.804626"><ele>37.8</ele><time>2020-12-26T12:17:21Z</time><name>PT4558</name></trkpt>
<trkpt lat="52.044241" lon="05.804639"><ele>37.8</ele><time>2020-12-26T12:17:22Z</time><name>PT4559</name></trkpt>
<trkpt lat="52.044232" lon="05.804654"><ele>37.8</ele><time>2020-12-26T12:17:22Z</time><name>PT4560</name></trkpt>
<trkpt lat="52.044223" lon="05.804671"><ele>37.6</ele><time>2020-12-26T12:17:24Z</time><name>PT4561</name></trkpt>
<trkpt lat="52.044214" lon="05.804681"><ele>37.7</ele><time>2020-12-26T12:17:25Z</time><name>PT4562</name></trkpt>
<trkpt lat="52.044204" lon="05.804690"><ele>37.6</ele><time>2020-12-26T12:17:25Z</time><name>PT4563</name></trkpt>
<trkpt lat="52.044192" lon="05.804705"><ele>37.9</ele><time>2020-12-26T12:17:27Z</time><name>PT4564</name></trkpt>
<trkpt lat="52.044184" lon="05.804719"><ele>37.9</ele><time>2020-12-26T12:17:28Z</time><name>PT4565</name></trkpt>
<trkpt lat="52.044175" lon="05.804726"><ele>37.8</ele><time>2020-12-26T12:17:29Z</time><name>PT4566</name></trkpt>
<trkpt lat="52.044171" lon="05.804737"><ele>37.8</ele><time>2020-12-26T12:17:30Z</time><name>PT4567</name></trkpt>
<trkpt lat="52.044169" lon="05.804750"><ele>37.7</ele><time>2020-12-26T12:17:31Z</time><name>PT4568</name></trkpt>
<trkpt lat="52.044171" lon="05.804752"><ele>37.8</ele><time>2020-12-26T12:17:31Z</time><name>PT4569</name></trkpt>
<trkpt lat="52.044167" lon="05.804760"><ele>37.8</ele><time>2020-12-26T12:17:33Z</time><name>PT4570</name></trkpt>
<trkpt lat="52.044162" lon="05.804770"><ele>37.9</ele><time>2020-12-26T12:17:34Z</time><name>PT4571</name></trkpt>
<trkpt lat="52.044155" lon="05.804776"><ele>37.8</ele><time>2020-12-26T12:17:34Z</time><name>PT4572</name></trkpt>
<trkpt lat="52.044148" lon="05.804785"><ele>37.9</ele><time>2020-12-26T12:17:36Z</time><name>PT4573</name></trkpt>
<trkpt lat="52.044144" lon="05.804791"><ele>37.9</ele><time>2020-12-26T12:17:37Z</time><name>PT4574</name></trkpt>
<trkpt lat="52.044143" lon="05.804793"><ele>38.1</ele><time>2020-12-26T12:17:37Z</time><name>PT4575</name></trkpt>
<trkpt lat="52.044141" lon="05.804796"><ele>38.2</ele><time>2020-12-26T12:17:39Z</time><name>PT4576</name></trkpt>
<trkpt lat="52.044141" lon="05.804800"><ele>38.2</ele><time>2020-12-26T12:17:40Z</time><name>PT4577</name></trkpt>
<trkpt lat="52.044145" lon="05.804809"><ele>38.2</ele><time>2020-12-26T12:17:40Z</time><name>PT4578</name></trkpt>
<trkpt lat="52.044150" lon="05.804816"><ele>38.1</ele><time>2020-12-26T12:17:42Z</time><name>PT4579</name></trkpt>
<trkpt lat="52.044156" lon="05.804822"><ele>38</ele><time>2020-12-26T12:17:43Z</time><name>PT4580</name></trkpt>
<trkpt lat="52.044161" lon="05.804824"><ele>37.9</ele><time>2020-12-26T12:17:43Z</time><name>PT4581</name></trkpt>
<trkpt lat="52.044162" lon="05.804830"><ele>37.9</ele><time>2020-12-26T12:17:45Z</time><name>PT4582</name></trkpt>
<trkpt lat="52.044162" lon="05.804831"><ele>37.9</ele><time>2020-12-26T12:17:46Z</time><name>PT4583</name></trkpt>
<trkpt lat="52.044161" lon="05.804832"><ele>37.9</ele><time>2020-12-26T12:17:46Z</time><name>PT4584</name></trkpt>
<trkpt lat="52.044161" lon="05.804834"><ele>38</ele><time>2020-12-26T12:17:48Z</time><name>PT4585</name></trkpt>
<trkpt lat="52.044161" lon="05.804839"><ele>38.3</ele><time>2020-12-26T12:17:52Z</time><name>PT4586</name></trkpt>
<trkpt lat="52.044162" lon="05.804845"><ele>38.2</ele><time>2020-12-26T12:17:52Z</time><name>PT4587</name></trkpt>
<trkpt lat="52.044163" lon="05.804847"><ele>37.9</ele><time>2020-12-26T12:17:54Z</time><name>PT4588</name></trkpt>
<trkpt lat="52.044164" lon="05.804847"><ele>37.9</ele><time>2020-12-26T12:17:55Z</time><name>PT4589</name></trkpt>
<trkpt lat="52.044165" lon="05.804847"><ele>37.9</ele><time>2020-12-26T12:17:55Z</time><name>PT4590</name></trkpt>
<trkpt lat="52.044165" lon="05.804854"><ele>37.6</ele><time>2020-12-26T12:18:15Z</time><name>PT4591</name></trkpt>
<trkpt lat="52.044163" lon="05.804854"><ele>37.4</ele><time>2020-12-26T12:18:16Z</time><name>PT4592</name></trkpt>
<trkpt lat="52.044163" lon="05.804854"><ele>37.4</ele><time>2020-12-26T12:18:16Z</time><name>PT4593</name></trkpt>
<trkpt lat="52.044160" lon="05.804850"><ele>37.4</ele><time>2020-12-26T12:18:28Z</time><name>PT4594</name></trkpt>
<trkpt lat="52.044153" lon="05.804854"><ele>37.4</ele><time>2020-12-26T12:18:28Z</time><name>PT4595</name></trkpt>
<trkpt lat="52.044145" lon="05.804858"><ele>37.8</ele><time>2020-12-26T12:18:30Z</time><name>PT4596</name></trkpt>
<trkpt lat="52.044136" lon="05.804865"><ele>37.8</ele><time>2020-12-26T12:18:31Z</time><name>PT4597</name></trkpt>
<trkpt lat="52.044129" lon="05.804870"><ele>37.9</ele><time>2020-12-26T12:18:31Z</time><name>PT4598</name></trkpt>
<trkpt lat="52.044121" lon="05.804876"><ele>37.9</ele><time>2020-12-26T12:18:33Z</time><name>PT4599</name></trkpt>
<trkpt lat="52.044112" lon="05.804887"><ele>37.9</ele><time>2020-12-26T12:18:34Z</time><name>PT4600</name></trkpt>
<trkpt lat="52.044103" lon="05.804898"><ele>37.9</ele><time>2020-12-26T12:18:34Z</time><name>PT4601</name></trkpt>
<trkpt lat="52.044095" lon="05.804907"><ele>38</ele><time>2020-12-26T12:18:36Z</time><name>PT4602</name></trkpt>
<trkpt lat="52.044086" lon="05.804915"><ele>38.1</ele><time>2020-12-26T12:18:37Z</time><name>PT4603</name></trkpt>
<trkpt lat="52.044078" lon="05.804924"><ele>38</ele><time>2020-12-26T12:18:37Z</time><name>PT4604</name></trkpt>
<trkpt lat="52.044072" lon="05.804934"><ele>37.9</ele><time>2020-12-26T12:18:39Z</time><name>PT4605</name></trkpt>
<trkpt lat="52.044065" lon="05.804940"><ele>37.8</ele><time>2020-12-26T12:18:40Z</time><name>PT4606</name></trkpt>
<trkpt lat="52.044057" lon="05.804948"><ele>37.8</ele><time>2020-12-26T12:18:40Z</time><name>PT4607</name></trkpt>
<trkpt lat="52.044049" lon="05.804957"><ele>37.9</ele><time>2020-12-26T12:18:42Z</time><name>PT4608</name></trkpt>
<trkpt lat="52.044040" lon="05.804966"><ele>37.8</ele><time>2020-12-26T12:18:43Z</time><name>PT4609</name></trkpt>
<trkpt lat="52.044028" lon="05.804974"><ele>37.8</ele><time>2020-12-26T12:18:43Z</time><name>PT4610</name></trkpt>
<trkpt lat="52.044016" lon="05.804982"><ele>37.6</ele><time>2020-12-26T12:18:45Z</time><name>PT4611</name></trkpt>
<trkpt lat="52.044005" lon="05.804991"><ele>37.5</ele><time>2020-12-26T12:18:46Z</time><name>PT4612</name></trkpt>
<trkpt lat="52.043998" lon="05.805000"><ele>37.4</ele><time>2020-12-26T12:18:46Z</time><name>PT4613</name></trkpt>
<trkpt lat="52.043990" lon="05.805011"><ele>37.5</ele><time>2020-12-26T12:18:48Z</time><name>PT4614</name></trkpt>
<trkpt lat="52.043981" lon="05.805021"><ele>37.6</ele><time>2020-12-26T12:18:49Z</time><name>PT4615</name></trkpt>
<trkpt lat="52.043971" lon="05.805032"><ele>37.6</ele><time>2020-12-26T12:18:49Z</time><name>PT4616</name></trkpt>
<trkpt lat="52.043960" lon="05.805044"><ele>37.7</ele><time>2020-12-26T12:18:51Z</time><name>PT4617</name></trkpt>
<trkpt lat="52.043949" lon="05.805054"><ele>37.9</ele><time>2020-12-26T12:18:52Z</time><name>PT4618</name></trkpt>
<trkpt lat="52.043940" lon="05.805065"><ele>37.9</ele><time>2020-12-26T12:18:52Z</time><name>PT4619</name></trkpt>
<trkpt lat="52.043931" lon="05.805076"><ele>37.7</ele><time>2020-12-26T12:18:54Z</time><name>PT4620</name></trkpt>
<trkpt lat="52.043922" lon="05.805089"><ele>37.6</ele><time>2020-12-26T12:18:55Z</time><name>PT4621</name></trkpt>
<trkpt lat="52.043913" lon="05.805101"><ele>37.5</ele><time>2020-12-26T12:18:55Z</time><name>PT4622</name></trkpt>
<trkpt lat="52.043905" lon="05.805111"><ele>37.1</ele><time>2020-12-26T12:18:57Z</time><name>PT4623</name></trkpt>
<trkpt lat="52.043899" lon="05.805120"><ele>37.1</ele><time>2020-12-26T12:18:58Z</time><name>PT4624</name></trkpt>
<trkpt lat="52.043891" lon="05.805130"><ele>37</ele><time>2020-12-26T12:18:58Z</time><name>PT4625</name></trkpt>
<trkpt lat="52.043883" lon="05.805141"><ele>37.1</ele><time>2020-12-26T12:19:00Z</time><name>PT4626</name></trkpt>
<trkpt lat="52.043877" lon="05.805151"><ele>37.1</ele><time>2020-12-26T12:19:01Z</time><name>PT4627</name></trkpt>
<trkpt lat="52.043870" lon="05.805162"><ele>37.1</ele><time>2020-12-26T12:19:01Z</time><name>PT4628</name></trkpt>
<trkpt lat="52.043864" lon="05.805175"><ele>37.2</ele><time>2020-12-26T12:19:03Z</time><name>PT4629</name></trkpt>
<trkpt lat="52.043855" lon="05.805186"><ele>37.2</ele><time>2020-12-26T12:19:04Z</time><name>PT4630</name></trkpt>
<trkpt lat="52.043846" lon="05.805198"><ele>37</ele><time>2020-12-26T12:19:04Z</time><name>PT4631</name></trkpt>
<trkpt lat="52.043839" lon="05.805211"><ele>37.1</ele><time>2020-12-26T12:19:06Z</time><name>PT4632</name></trkpt>
<trkpt lat="52.043829" lon="05.805221"><ele>37.1</ele><time>2020-12-26T12:19:07Z</time><name>PT4633</name></trkpt>
<trkpt lat="52.043820" lon="05.805232"><ele>37.2</ele><time>2020-12-26T12:19:07Z</time><name>PT4634</name></trkpt>
<trkpt lat="52.043810" lon="05.805243"><ele>37.3</ele><time>2020-12-26T12:19:09Z</time><name>PT4635</name></trkpt>
<trkpt lat="52.043801" lon="05.805256"><ele>37.4</ele><time>2020-12-26T12:19:10Z</time><name>PT4636</name></trkpt>
<trkpt lat="52.043791" lon="05.805271"><ele>37.4</ele><time>2020-12-26T12:19:10Z</time><name>PT4637</name></trkpt>
<trkpt lat="52.043782" lon="05.805282"><ele>37.1</ele><time>2020-12-26T12:19:12Z</time><name>PT4638</name></trkpt>
<trkpt lat="52.043771" lon="05.805294"><ele>36.8</ele><time>2020-12-26T12:19:13Z</time><name>PT4639</name></trkpt>
<trkpt lat="52.043762" lon="05.805308"><ele>36.4</ele><time>2020-12-26T12:19:13Z</time><name>PT4640</name></trkpt>
<trkpt lat="52.043754" lon="05.805321"><ele>36.1</ele><time>2020-12-26T12:19:15Z</time><name>PT4641</name></trkpt>
<trkpt lat="52.043745" lon="05.805333"><ele>36.7</ele><time>2020-12-26T12:19:16Z</time><name>PT4642</name></trkpt>
<trkpt lat="52.043737" lon="05.805343"><ele>37.1</ele><time>2020-12-26T12:19:16Z</time><name>PT4643</name></trkpt>
<trkpt lat="52.043727" lon="05.805350"><ele>37.9</ele><time>2020-12-26T12:19:18Z</time><name>PT4644</name></trkpt>
<trkpt lat="52.043716" lon="05.805358"><ele>38.3</ele><time>2020-12-26T12:19:19Z</time><name>PT4645</name></trkpt>
<trkpt lat="52.043707" lon="05.805371"><ele>38.2</ele><time>2020-12-26T12:19:19Z</time><name>PT4646</name></trkpt>
<trkpt lat="52.043697" lon="05.805383"><ele>37.9</ele><time>2020-12-26T12:19:21Z</time><name>PT4647</name></trkpt>
<trkpt lat="52.043687" lon="05.805390"><ele>37.4</ele><time>2020-12-26T12:19:22Z</time><name>PT4648</name></trkpt>
<trkpt lat="52.043679" lon="05.805396"><ele>37.4</ele><time>2020-12-26T12:19:22Z</time><name>PT4649</name></trkpt>
<trkpt lat="52.043671" lon="05.805397"><ele>37.2</ele><time>2020-12-26T12:19:24Z</time><name>PT4650</name></trkpt>
<trkpt lat="52.043664" lon="05.805405"><ele>37.4</ele><time>2020-12-26T12:19:25Z</time><name>PT4651</name></trkpt>
<trkpt lat="52.043656" lon="05.805415"><ele>37.4</ele><time>2020-12-26T12:19:25Z</time><name>PT4652</name></trkpt>
<trkpt lat="52.043648" lon="05.805424"><ele>37.4</ele><time>2020-12-26T12:19:27Z</time><name>PT4653</name></trkpt>
<trkpt lat="52.043638" lon="05.805434"><ele>37.6</ele><time>2020-12-26T12:19:28Z</time><name>PT4654</name></trkpt>
<trkpt lat="52.043630" lon="05.805446"><ele>37.6</ele><time>2020-12-26T12:19:28Z</time><name>PT4655</name></trkpt>
<trkpt lat="52.043622" lon="05.805459"><ele>37.6</ele><time>2020-12-26T12:19:30Z</time><name>PT4656</name></trkpt>
<trkpt lat="52.043613" lon="05.805467"><ele>37.4</ele><time>2020-12-26T12:19:31Z</time><name>PT4657</name></trkpt>
<trkpt lat="52.043605" lon="05.805478"><ele>37.3</ele><time>2020-12-26T12:19:31Z</time><name>PT4658</name></trkpt>
<trkpt lat="52.043596" lon="05.805487"><ele>37.2</ele><time>2020-12-26T12:19:33Z</time><name>PT4659</name></trkpt>
<trkpt lat="52.043589" lon="05.805497"><ele>37.2</ele><time>2020-12-26T12:19:34Z</time><name>PT4660</name></trkpt>
<trkpt lat="52.043579" lon="05.805508"><ele>37.3</ele><time>2020-12-26T12:19:34Z</time><name>PT4661</name></trkpt>
<trkpt lat="52.043568" lon="05.805513"><ele>37.4</ele><time>2020-12-26T12:19:36Z</time><name>PT4662</name></trkpt>
<trkpt lat="52.043559" lon="05.805523"><ele>37.4</ele><time>2020-12-26T12:19:37Z</time><name>PT4663</name></trkpt>
<trkpt lat="52.043550" lon="05.805534"><ele>37.4</ele><time>2020-12-26T12:19:37Z</time><name>PT4664</name></trkpt>
<trkpt lat="52.043541" lon="05.805542"><ele>37.3</ele><time>2020-12-26T12:19:39Z</time><name>PT4665</name></trkpt>
<trkpt lat="52.043536" lon="05.805552"><ele>37.2</ele><time>2020-12-26T12:19:40Z</time><name>PT4666</name></trkpt>
<trkpt lat="52.043533" lon="05.805555"><ele>37.2</ele><time>2020-12-26T12:19:40Z</time><name>PT4667</name></trkpt>
<trkpt lat="52.043532" lon="05.805558"><ele>37.2</ele><time>2020-12-26T12:19:42Z</time><name>PT4668</name></trkpt>
<trkpt lat="52.043533" lon="05.805563"><ele>37.3</ele><time>2020-12-26T12:19:43Z</time><name>PT4669</name></trkpt>
<trkpt lat="52.043531" lon="05.805567"><ele>37.3</ele><time>2020-12-26T12:19:43Z</time><name>PT4670</name></trkpt>
<trkpt lat="52.043529" lon="05.805571"><ele>37.3</ele><time>2020-12-26T12:19:48Z</time><name>PT4671</name></trkpt>
<trkpt lat="52.043523" lon="05.805584"><ele>37.2</ele><time>2020-12-26T12:19:49Z</time><name>PT4672</name></trkpt>
<trkpt lat="52.043515" lon="05.805598"><ele>37.2</ele><time>2020-12-26T12:19:49Z</time><name>PT4673</name></trkpt>
<trkpt lat="52.043506" lon="05.805609"><ele>37.1</ele><time>2020-12-26T12:19:51Z</time><name>PT4674</name></trkpt>
<trkpt lat="52.043497" lon="05.805621"><ele>37.1</ele><time>2020-12-26T12:19:52Z</time><name>PT4675</name></trkpt>
<trkpt lat="52.043488" lon="05.805629"><ele>37</ele><time>2020-12-26T12:19:52Z</time><name>PT4676</name></trkpt>
<trkpt lat="52.043478" lon="05.805641"><ele>36.9</ele><time>2020-12-26T12:19:54Z</time><name>PT4677</name></trkpt>
<trkpt lat="52.043468" lon="05.805652"><ele>37.1</ele><time>2020-12-26T12:19:55Z</time><name>PT4678</name></trkpt>
<trkpt lat="52.043457" lon="05.805659"><ele>36.9</ele><time>2020-12-26T12:19:55Z</time><name>PT4679</name></trkpt>
<trkpt lat="52.043446" lon="05.805668"><ele>37.1</ele><time>2020-12-26T12:19:57Z</time><name>PT4680</name></trkpt>
<trkpt lat="52.043435" lon="05.805679"><ele>37.1</ele><time>2020-12-26T12:19:58Z</time><name>PT4681</name></trkpt>
<trkpt lat="52.043424" lon="05.805686"><ele>37.1</ele><time>2020-12-26T12:19:58Z</time><name>PT4682</name></trkpt>
<trkpt lat="52.043417" lon="05.805696"><ele>37.1</ele><time>2020-12-26T12:20:00Z</time><name>PT4683</name></trkpt>
<trkpt lat="52.043419" lon="05.805703"><ele>37.2</ele><time>2020-12-26T12:20:01Z</time><name>PT4684</name></trkpt>
<trkpt lat="52.043417" lon="05.805714"><ele>37.3</ele><time>2020-12-26T12:20:01Z</time><name>PT4685</name></trkpt>
<trkpt lat="52.043414" lon="05.805722"><ele>37.4</ele><time>2020-12-26T12:20:03Z</time><name>PT4686</name></trkpt>
<trkpt lat="52.043413" lon="05.805732"><ele>37.4</ele><time>2020-12-26T12:20:06Z</time><name>PT4687</name></trkpt>
<trkpt lat="52.043407" lon="05.805740"><ele>37.4</ele><time>2020-12-26T12:20:07Z</time><name>PT4688</name></trkpt>
<trkpt lat="52.043398" lon="05.805751"><ele>37.4</ele><time>2020-12-26T12:20:07Z</time><name>PT4689</name></trkpt>
<trkpt lat="52.043387" lon="05.805764"><ele>37.5</ele><time>2020-12-26T12:20:09Z</time><name>PT4690</name></trkpt>
<trkpt lat="52.043378" lon="05.805778"><ele>37.5</ele><time>2020-12-26T12:20:10Z</time><name>PT4691</name></trkpt>
<trkpt lat="52.043370" lon="05.805791"><ele>37.7</ele><time>2020-12-26T12:20:10Z</time><name>PT4692</name></trkpt>
<trkpt lat="52.043361" lon="05.805802"><ele>37.6</ele><time>2020-12-26T12:20:12Z</time><name>PT4693</name></trkpt>
<trkpt lat="52.043347" lon="05.805810"><ele>37.4</ele><time>2020-12-26T12:20:13Z</time><name>PT4694</name></trkpt>
<trkpt lat="52.043334" lon="05.805822"><ele>37.3</ele><time>2020-12-26T12:20:13Z</time><name>PT4695</name></trkpt>
<trkpt lat="52.043325" lon="05.805835"><ele>37.3</ele><time>2020-12-26T12:20:15Z</time><name>PT4696</name></trkpt>
<trkpt lat="52.043314" lon="05.805845"><ele>37</ele><time>2020-12-26T12:20:16Z</time><name>PT4697</name></trkpt>
<trkpt lat="52.043303" lon="05.805857"><ele>37</ele><time>2020-12-26T12:20:16Z</time><name>PT4698</name></trkpt>
<trkpt lat="52.043295" lon="05.805868"><ele>37</ele><time>2020-12-26T12:20:18Z</time><name>PT4699</name></trkpt>
<trkpt lat="52.043285" lon="05.805878"><ele>37.2</ele><time>2020-12-26T12:20:19Z</time><name>PT4700</name></trkpt>
<trkpt lat="52.043274" lon="05.805887"><ele>37.1</ele><time>2020-12-26T12:20:19Z</time><name>PT4701</name></trkpt>
<trkpt lat="52.043266" lon="05.805899"><ele>37.3</ele><time>2020-12-26T12:20:21Z</time><name>PT4702</name></trkpt>
<trkpt lat="52.043258" lon="05.805907"><ele>37</ele><time>2020-12-26T12:20:22Z</time><name>PT4703</name></trkpt>
<trkpt lat="52.043250" lon="05.805917"><ele>36.9</ele><time>2020-12-26T12:20:22Z</time><name>PT4704</name></trkpt>
<trkpt lat="52.043247" lon="05.805923"><ele>36.8</ele><time>2020-12-26T12:20:24Z</time><name>PT4705</name></trkpt>
<trkpt lat="52.043246" lon="05.805929"><ele>36.6</ele><time>2020-12-26T12:20:25Z</time><name>PT4706</name></trkpt>
<trkpt lat="52.043243" lon="05.805933"><ele>36.6</ele><time>2020-12-26T12:20:25Z</time><name>PT4707</name></trkpt>
<trkpt lat="52.043236" lon="05.805942"><ele>36.5</ele><time>2020-12-26T12:20:31Z</time><name>PT4708</name></trkpt>
<trkpt lat="52.043227" lon="05.805955"><ele>36.5</ele><time>2020-12-26T12:20:33Z</time><name>PT4709</name></trkpt>
<trkpt lat="52.043216" lon="05.805971"><ele>36.5</ele><time>2020-12-26T12:20:34Z</time><name>PT4710</name></trkpt>
<trkpt lat="52.043205" lon="05.805982"><ele>36.4</ele><time>2020-12-26T12:20:34Z</time><name>PT4711</name></trkpt>
<trkpt lat="52.043195" lon="05.805991"><ele>36.5</ele><time>2020-12-26T12:20:36Z</time><name>PT4712</name></trkpt>
<trkpt lat="52.043185" lon="05.805997"><ele>36.4</ele><time>2020-12-26T12:20:37Z</time><name>PT4713</name></trkpt>
<trkpt lat="52.043175" lon="05.806007"><ele>36.5</ele><time>2020-12-26T12:20:37Z</time><name>PT4714</name></trkpt>
<trkpt lat="52.043170" lon="05.806016"><ele>36.4</ele><time>2020-12-26T12:20:39Z</time><name>PT4715</name></trkpt>
<trkpt lat="52.043163" lon="05.806024"><ele>36.4</ele><time>2020-12-26T12:20:40Z</time><name>PT4716</name></trkpt>
<trkpt lat="52.043153" lon="05.806035"><ele>36.3</ele><time>2020-12-26T12:20:40Z</time><name>PT4717</name></trkpt>
<trkpt lat="52.043145" lon="05.806049"><ele>36.2</ele><time>2020-12-26T12:20:42Z</time><name>PT4718</name></trkpt>
<trkpt lat="52.043137" lon="05.806060"><ele>36.1</ele><time>2020-12-26T12:20:43Z</time><name>PT4719</name></trkpt>
<trkpt lat="52.043127" lon="05.806071"><ele>36.2</ele><time>2020-12-26T12:20:43Z</time><name>PT4720</name></trkpt>
<trkpt lat="52.043118" lon="05.806086"><ele>36.4</ele><time>2020-12-26T12:20:45Z</time><name>PT4721</name></trkpt>
<trkpt lat="52.043107" lon="05.806096"><ele>36.5</ele><time>2020-12-26T12:20:46Z</time><name>PT4722</name></trkpt>
<trkpt lat="52.043097" lon="05.806109"><ele>36.5</ele><time>2020-12-26T12:20:46Z</time><name>PT4723</name></trkpt>
<trkpt lat="52.043085" lon="05.806125"><ele>36.4</ele><time>2020-12-26T12:20:48Z</time><name>PT4724</name></trkpt>
<trkpt lat="52.043076" lon="05.806139"><ele>36.2</ele><time>2020-12-26T12:20:49Z</time><name>PT4725</name></trkpt>
<trkpt lat="52.043066" lon="05.806150"><ele>36.3</ele><time>2020-12-26T12:20:49Z</time><name>PT4726</name></trkpt>
<trkpt lat="52.043056" lon="05.806161"><ele>36.1</ele><time>2020-12-26T12:20:51Z</time><name>PT4727</name></trkpt>
<trkpt lat="52.043049" lon="05.806173"><ele>36.1</ele><time>2020-12-26T12:20:52Z</time><name>PT4728</name></trkpt>
<trkpt lat="52.043039" lon="05.806183"><ele>36.1</ele><time>2020-12-26T12:20:52Z</time><name>PT4729</name></trkpt>
<trkpt lat="52.043030" lon="05.806195"><ele>36.2</ele><time>2020-12-26T12:20:54Z</time><name>PT4730</name></trkpt>
<trkpt lat="52.043018" lon="05.806204"><ele>36.3</ele><time>2020-12-26T12:20:55Z</time><name>PT4731</name></trkpt>
<trkpt lat="52.043007" lon="05.806221"><ele>36.5</ele><time>2020-12-26T12:20:55Z</time><name>PT4732</name></trkpt>
<trkpt lat="52.042998" lon="05.806234"><ele>36.5</ele><time>2020-12-26T12:20:57Z</time><name>PT4733</name></trkpt>
<trkpt lat="52.042991" lon="05.806247"><ele>36.6</ele><time>2020-12-26T12:20:58Z</time><name>PT4734</name></trkpt>
<trkpt lat="52.042982" lon="05.806258"><ele>36.7</ele><time>2020-12-26T12:20:58Z</time><name>PT4735</name></trkpt>
<trkpt lat="52.042973" lon="05.806270"><ele>36.8</ele><time>2020-12-26T12:21:00Z</time><name>PT4736</name></trkpt>
<trkpt lat="52.042965" lon="05.806274"><ele>36.8</ele><time>2020-12-26T12:21:01Z</time><name>PT4737</name></trkpt>
<trkpt lat="52.042955" lon="05.806281"><ele>36.9</ele><time>2020-12-26T12:21:01Z</time><name>PT4738</name></trkpt>
<trkpt lat="52.042947" lon="05.806295"><ele>36.9</ele><time>2020-12-26T12:21:03Z</time><name>PT4739</name></trkpt>
<trkpt lat="52.042938" lon="05.806311"><ele>36.8</ele><time>2020-12-26T12:21:04Z</time><name>PT4740</name></trkpt>
<trkpt lat="52.042928" lon="05.806323"><ele>36.8</ele><time>2020-12-26T12:21:04Z</time><name>PT4741</name></trkpt>
<trkpt lat="52.042917" lon="05.806333"><ele>36.6</ele><time>2020-12-26T12:21:06Z</time><name>PT4742</name></trkpt>
<trkpt lat="52.042908" lon="05.806347"><ele>36.7</ele><time>2020-12-26T12:21:07Z</time><name>PT4743</name></trkpt>
<trkpt lat="52.042900" lon="05.806361"><ele>36.7</ele><time>2020-12-26T12:21:07Z</time><name>PT4744</name></trkpt>
<trkpt lat="52.042890" lon="05.806371"><ele>36.7</ele><time>2020-12-26T12:21:09Z</time><name>PT4745</name></trkpt>
<trkpt lat="52.042882" lon="05.806386"><ele>36.7</ele><time>2020-12-26T12:21:10Z</time><name>PT4746</name></trkpt>
<trkpt lat="52.042873" lon="05.806395"><ele>36.6</ele><time>2020-12-26T12:21:10Z</time><name>PT4747</name></trkpt>
<trkpt lat="52.042865" lon="05.806408"><ele>36.5</ele><time>2020-12-26T12:21:12Z</time><name>PT4748</name></trkpt>
<trkpt lat="52.042859" lon="05.806415"><ele>36.6</ele><time>2020-12-26T12:21:13Z</time><name>PT4749</name></trkpt>
<trkpt lat="52.042853" lon="05.806418"><ele>36.7</ele><time>2020-12-26T12:21:13Z</time><name>PT4750</name></trkpt>
<trkpt lat="52.042852" lon="05.806420"><ele>36.8</ele><time>2020-12-26T12:21:15Z</time><name>PT4751</name></trkpt>
<trkpt lat="52.042852" lon="05.806420"><ele>36.7</ele><time>2020-12-26T12:21:16Z</time><name>PT4752</name></trkpt>
<trkpt lat="52.042851" lon="05.806424"><ele>36.8</ele><time>2020-12-26T12:21:16Z</time><name>PT4753</name></trkpt>
<trkpt lat="52.042848" lon="05.806420"><ele>36.7</ele><time>2020-12-26T12:21:22Z</time><name>PT4754</name></trkpt>
<trkpt lat="52.042839" lon="05.806426"><ele>36.5</ele><time>2020-12-26T12:21:22Z</time><name>PT4755</name></trkpt>
<trkpt lat="52.042830" lon="05.806436"><ele>36.8</ele><time>2020-12-26T12:21:24Z</time><name>PT4756</name></trkpt>
<trkpt lat="52.042823" lon="05.806452"><ele>36.7</ele><time>2020-12-26T12:21:25Z</time><name>PT4757</name></trkpt>
<trkpt lat="52.042816" lon="05.806465"><ele>36.6</ele><time>2020-12-26T12:21:25Z</time><name>PT4758</name></trkpt>
<trkpt lat="52.042806" lon="05.806473"><ele>36.7</ele><time>2020-12-26T12:21:27Z</time><name>PT4759</name></trkpt>
<trkpt lat="52.042796" lon="05.806488"><ele>36.7</ele><time>2020-12-26T12:21:28Z</time><name>PT4760</name></trkpt>
<trkpt lat="52.042786" lon="05.806494"><ele>36.6</ele><time>2020-12-26T12:21:28Z</time><name>PT4761</name></trkpt>
<trkpt lat="52.042775" lon="05.806503"><ele>36.7</ele><time>2020-12-26T12:21:30Z</time><name>PT4762</name></trkpt>
<trkpt lat="52.042767" lon="05.806509"><ele>36.5</ele><time>2020-12-26T12:21:31Z</time><name>PT4763</name></trkpt>
<trkpt lat="52.042758" lon="05.806516"><ele>36.3</ele><time>2020-12-26T12:21:31Z</time><name>PT4764</name></trkpt>
<trkpt lat="52.042749" lon="05.806527"><ele>36.2</ele><time>2020-12-26T12:21:33Z</time><name>PT4765</name></trkpt>
<trkpt lat="52.042739" lon="05.806532"><ele>36.2</ele><time>2020-12-26T12:21:34Z</time><name>PT4766</name></trkpt>
<trkpt lat="52.042732" lon="05.806532"><ele>36.4</ele><time>2020-12-26T12:21:34Z</time><name>PT4767</name></trkpt>
<trkpt lat="52.042724" lon="05.806533"><ele>36.6</ele><time>2020-12-26T12:21:36Z</time><name>PT4768</name></trkpt>
<trkpt lat="52.042719" lon="05.806537"><ele>36.7</ele><time>2020-12-26T12:21:37Z</time><name>PT4769</name></trkpt>
<trkpt lat="52.042715" lon="05.806545"><ele>36.7</ele><time>2020-12-26T12:21:37Z</time><name>PT4770</name></trkpt>
<trkpt lat="52.042713" lon="05.806556"><ele>36.5</ele><time>2020-12-26T12:21:39Z</time><name>PT4771</name></trkpt>
<trkpt lat="52.042713" lon="05.806563"><ele>36.5</ele><time>2020-12-26T12:21:40Z</time><name>PT4772</name></trkpt>
<trkpt lat="52.042713" lon="05.806563"><ele>36.5</ele><time>2020-12-26T12:21:40Z</time><name>PT4773</name></trkpt>
<trkpt lat="52.042714" lon="05.806573"><ele>36.4</ele><time>2020-12-26T12:21:42Z</time><name>PT4774</name></trkpt>
<trkpt lat="52.042709" lon="05.806583"><ele>36.3</ele><time>2020-12-26T12:21:43Z</time><name>PT4775</name></trkpt>
<trkpt lat="52.042704" lon="05.806591"><ele>36.4</ele><time>2020-12-26T12:21:43Z</time><name>PT4776</name></trkpt>
<trkpt lat="52.042700" lon="05.806603"><ele>36.2</ele><time>2020-12-26T12:21:45Z</time><name>PT4777</name></trkpt>
<trkpt lat="52.042696" lon="05.806616"><ele>36.2</ele><time>2020-12-26T12:21:46Z</time><name>PT4778</name></trkpt>
<trkpt lat="52.042694" lon="05.806628"><ele>36.2</ele><time>2020-12-26T12:21:46Z</time><name>PT4779</name></trkpt>
<trkpt lat="52.042691" lon="05.806652"><ele>36.2</ele><time>2020-12-26T12:21:48Z</time><name>PT4780</name></trkpt>
<trkpt lat="52.042690" lon="05.806664"><ele>36</ele><time>2020-12-26T12:21:49Z</time><name>PT4781</name></trkpt>
<trkpt lat="52.042693" lon="05.806685"><ele>36</ele><time>2020-12-26T12:21:49Z</time><name>PT4782</name></trkpt>
<trkpt lat="52.042692" lon="05.806693"><ele>36.1</ele><time>2020-12-26T12:21:51Z</time><name>PT4783</name></trkpt>
<trkpt lat="52.042693" lon="05.806700"><ele>36.2</ele><time>2020-12-26T12:21:52Z</time><name>PT4784</name></trkpt>
<trkpt lat="52.042694" lon="05.806709"><ele>36.5</ele><time>2020-12-26T12:22:13Z</time><name>PT4785</name></trkpt>
<trkpt lat="52.042700" lon="05.806726"><ele>36.6</ele><time>2020-12-26T12:22:15Z</time><name>PT4786</name></trkpt>
<trkpt lat="52.042705" lon="05.806738"><ele>36.7</ele><time>2020-12-26T12:22:16Z</time><name>PT4787</name></trkpt>
<trkpt lat="52.042707" lon="05.806752"><ele>36.7</ele><time>2020-12-26T12:22:16Z</time><name>PT4788</name></trkpt>
<trkpt lat="52.042709" lon="05.806763"><ele>36.5</ele><time>2020-12-26T12:22:18Z</time><name>PT4789</name></trkpt>
<trkpt lat="52.042712" lon="05.806777"><ele>36.1</ele><time>2020-12-26T12:22:19Z</time><name>PT4790</name></trkpt>
<trkpt lat="52.042714" lon="05.806792"><ele>36.2</ele><time>2020-12-26T12:22:19Z</time><name>PT4791</name></trkpt>
<trkpt lat="52.042718" lon="05.806809"><ele>36.2</ele><time>2020-12-26T12:22:21Z</time><name>PT4792</name></trkpt>
<trkpt lat="52.042721" lon="05.806825"><ele>36.3</ele><time>2020-12-26T12:22:22Z</time><name>PT4793</name></trkpt>
<trkpt lat="52.042727" lon="05.806841"><ele>36.3</ele><time>2020-12-26T12:22:22Z</time><name>PT4794</name></trkpt>
<trkpt lat="52.042732" lon="05.806859"><ele>36.4</ele><time>2020-12-26T12:22:24Z</time><name>PT4795</name></trkpt>
<trkpt lat="52.042733" lon="05.806875"><ele>36.5</ele><time>2020-12-26T12:22:25Z</time><name>PT4796</name></trkpt>
<trkpt lat="52.042739" lon="05.806889"><ele>36.5</ele><time>2020-12-26T12:22:25Z</time><name>PT4797</name></trkpt>
<trkpt lat="52.042743" lon="05.806903"><ele>36.5</ele><time>2020-12-26T12:22:27Z</time><name>PT4798</name></trkpt>
<trkpt lat="52.042747" lon="05.806917"><ele>36.5</ele><time>2020-12-26T12:22:28Z</time><name>PT4799</name></trkpt>
<trkpt lat="52.042753" lon="05.806931"><ele>36.3</ele><time>2020-12-26T12:22:28Z</time><name>PT4800</name></trkpt>
<trkpt lat="52.042759" lon="05.806951"><ele>36.4</ele><time>2020-12-26T12:22:30Z</time><name>PT4801</name></trkpt>
<trkpt lat="52.042760" lon="05.806968"><ele>36.2</ele><time>2020-12-26T12:22:31Z</time><name>PT4802</name></trkpt>
<trkpt lat="52.042767" lon="05.806982"><ele>36.4</ele><time>2020-12-26T12:22:31Z</time><name>PT4803</name></trkpt>
<trkpt lat="52.042773" lon="05.807000"><ele>36.4</ele><time>2020-12-26T12:22:33Z</time><name>PT4804</name></trkpt>
<trkpt lat="52.042778" lon="05.807017"><ele>36.4</ele><time>2020-12-26T12:22:34Z</time><name>PT4805</name></trkpt>
<trkpt lat="52.042786" lon="05.807034"><ele>36.6</ele><time>2020-12-26T12:22:34Z</time><name>PT4806</name></trkpt>
<trkpt lat="52.042792" lon="05.807049"><ele>36.6</ele><time>2020-12-26T12:22:36Z</time><name>PT4807</name></trkpt>
<trkpt lat="52.042799" lon="05.807066"><ele>36.7</ele><time>2020-12-26T12:22:37Z</time><name>PT4808</name></trkpt>
<trkpt lat="52.042805" lon="05.807083"><ele>36.7</ele><time>2020-12-26T12:22:37Z</time><name>PT4809</name></trkpt>
<trkpt lat="52.042809" lon="05.807098"><ele>36.5</ele><time>2020-12-26T12:22:39Z</time><name>PT4810</name></trkpt>
<trkpt lat="52.042817" lon="05.807114"><ele>36.4</ele><time>2020-12-26T12:22:40Z</time><name>PT4811</name></trkpt>
<trkpt lat="52.042823" lon="05.807131"><ele>36.5</ele><time>2020-12-26T12:22:40Z</time><name>PT4812</name></trkpt>
<trkpt lat="52.042831" lon="05.807148"><ele>36.5</ele><time>2020-12-26T12:22:42Z</time><name>PT4813</name></trkpt>
<trkpt lat="52.042840" lon="05.807163"><ele>36.6</ele><time>2020-12-26T12:22:43Z</time><name>PT4814</name></trkpt>
<trkpt lat="52.042847" lon="05.807176"><ele>36.6</ele><time>2020-12-26T12:22:43Z</time><name>PT4815</name></trkpt>
<trkpt lat="52.042853" lon="05.807189"><ele>36.8</ele><time>2020-12-26T12:22:45Z</time><name>PT4816</name></trkpt>
<trkpt lat="52.042858" lon="05.807209"><ele>36.9</ele><time>2020-12-26T12:22:46Z</time><name>PT4817</name></trkpt>
<trkpt lat="52.042862" lon="05.807227"><ele>36.8</ele><time>2020-12-26T12:22:46Z</time><name>PT4818</name></trkpt>
<trkpt lat="52.042868" lon="05.807243"><ele>36.8</ele><time>2020-12-26T12:22:48Z</time><name>PT4819</name></trkpt>
<trkpt lat="52.042869" lon="05.807258"><ele>36.8</ele><time>2020-12-26T12:22:49Z</time><name>PT4820</name></trkpt>
<trkpt lat="52.042874" lon="05.807271"><ele>36.5</ele><time>2020-12-26T12:22:49Z</time><name>PT4821</name></trkpt>
<trkpt lat="52.042877" lon="05.807283"><ele>36.7</ele><time>2020-12-26T12:22:51Z</time><name>PT4822</name></trkpt>
<trkpt lat="52.042878" lon="05.807296"><ele>36.9</ele><time>2020-12-26T12:22:52Z</time><name>PT4823</name></trkpt>
<trkpt lat="52.042882" lon="05.807312"><ele>36.9</ele><time>2020-12-26T12:22:52Z</time><name>PT4824</name></trkpt>
<trkpt lat="52.042888" lon="05.807328"><ele>36.9</ele><time>2020-12-26T12:22:54Z</time><name>PT4825</name></trkpt>
<trkpt lat="52.042890" lon="05.807344"><ele>36.9</ele><time>2020-12-26T12:22:55Z</time><name>PT4826</name></trkpt>
<trkpt lat="52.042897" lon="05.807362"><ele>36.8</ele><time>2020-12-26T12:22:55Z</time><name>PT4827</name></trkpt>
<trkpt lat="52.042902" lon="05.807377"><ele>36.8</ele><time>2020-12-26T12:22:57Z</time><name>PT4828</name></trkpt>
<trkpt lat="52.042907" lon="05.807392"><ele>36.9</ele><time>2020-12-26T12:22:58Z</time><name>PT4829</name></trkpt>
<trkpt lat="52.042915" lon="05.807407"><ele>36.8</ele><time>2020-12-26T12:22:58Z</time><name>PT4830</name></trkpt>
<trkpt lat="52.042922" lon="05.807424"><ele>36.8</ele><time>2020-12-26T12:23:00Z</time><name>PT4831</name></trkpt>
<trkpt lat="52.042926" lon="05.807439"><ele>36.8</ele><time>2020-12-26T12:23:01Z</time><name>PT4832</name></trkpt>
<trkpt lat="52.042931" lon="05.807454"><ele>36.8</ele><time>2020-12-26T12:23:01Z</time><name>PT4833</name></trkpt>
<trkpt lat="52.042939" lon="05.807472"><ele>36.8</ele><time>2020-12-26T12:23:03Z</time><name>PT4834</name></trkpt>
<trkpt lat="52.042942" lon="05.807493"><ele>36.9</ele><time>2020-12-26T12:23:04Z</time><name>PT4835</name></trkpt>
<trkpt lat="52.042949" lon="05.807511"><ele>36.9</ele><time>2020-12-26T12:23:04Z</time><name>PT4836</name></trkpt>
<trkpt lat="52.042957" lon="05.807529"><ele>36.9</ele><time>2020-12-26T12:23:06Z</time><name>PT4837</name></trkpt>
<trkpt lat="52.042963" lon="05.807552"><ele>36.8</ele><time>2020-12-26T12:23:07Z</time><name>PT4838</name></trkpt>
<trkpt lat="52.042969" lon="05.807573"><ele>36.9</ele><time>2020-12-26T12:23:07Z</time><name>PT4839</name></trkpt>
<trkpt lat="52.042977" lon="05.807593"><ele>36.9</ele><time>2020-12-26T12:23:09Z</time><name>PT4840</name></trkpt>
<trkpt lat="52.042982" lon="05.807611"><ele>37</ele><time>2020-12-26T12:23:10Z</time><name>PT4841</name></trkpt>
<trkpt lat="52.042987" lon="05.807624"><ele>37.2</ele><time>2020-12-26T12:23:10Z</time><name>PT4842</name></trkpt>
<trkpt lat="52.042990" lon="05.807636"><ele>37.2</ele><time>2020-12-26T12:23:12Z</time><name>PT4843</name></trkpt>
<trkpt lat="52.042996" lon="05.807651"><ele>37.4</ele><time>2020-12-26T12:23:13Z</time><name>PT4844</name></trkpt>
<trkpt lat="52.043001" lon="05.807667"><ele>37.4</ele><time>2020-12-26T12:23:13Z</time><name>PT4845</name></trkpt>
<trkpt lat="52.043006" lon="05.807684"><ele>37.3</ele><time>2020-12-26T12:23:15Z</time><name>PT4846</name></trkpt>
<trkpt lat="52.043011" lon="05.807702"><ele>37.4</ele><time>2020-12-26T12:23:16Z</time><name>PT4847</name></trkpt>
<trkpt lat="52.043018" lon="05.807717"><ele>37.3</ele><time>2020-12-26T12:23:16Z</time><name>PT4848</name></trkpt>
<trkpt lat="52.043024" lon="05.807729"><ele>37.1</ele><time>2020-12-26T12:23:18Z</time><name>PT4849</name></trkpt>
<trkpt lat="52.043030" lon="05.807743"><ele>37.3</ele><time>2020-12-26T12:23:19Z</time><name>PT4850</name></trkpt>
<trkpt lat="52.043038" lon="05.807758"><ele>37.3</ele><time>2020-12-26T12:23:19Z</time><name>PT4851</name></trkpt>
<trkpt lat="52.043043" lon="05.807774"><ele>37.3</ele><time>2020-12-26T12:23:21Z</time><name>PT4852</name></trkpt>
<trkpt lat="52.043046" lon="05.807789"><ele>37.4</ele><time>2020-12-26T12:23:22Z</time><name>PT4853</name></trkpt>
<trkpt lat="52.043050" lon="05.807806"><ele>37.3</ele><time>2020-12-26T12:23:22Z</time><name>PT4854</name></trkpt>
<trkpt lat="52.043054" lon="05.807819"><ele>37.3</ele><time>2020-12-26T12:23:24Z</time><name>PT4855</name></trkpt>
<trkpt lat="52.043058" lon="05.807832"><ele>37.2</ele><time>2020-12-26T12:23:25Z</time><name>PT4856</name></trkpt>
<trkpt lat="52.043066" lon="05.807846"><ele>36.9</ele><time>2020-12-26T12:23:25Z</time><name>PT4857</name></trkpt>
<trkpt lat="52.043072" lon="05.807863"><ele>37.1</ele><time>2020-12-26T12:23:27Z</time><name>PT4858</name></trkpt>
<trkpt lat="52.043074" lon="05.807879"><ele>37.1</ele><time>2020-12-26T12:23:28Z</time><name>PT4859</name></trkpt>
<trkpt lat="52.043079" lon="05.807894"><ele>37.3</ele><time>2020-12-26T12:23:28Z</time><name>PT4860</name></trkpt>
<trkpt lat="52.043085" lon="05.807911"><ele>37.4</ele><time>2020-12-26T12:23:30Z</time><name>PT4861</name></trkpt>
<trkpt lat="52.043089" lon="05.807929"><ele>37.4</ele><time>2020-12-26T12:23:31Z</time><name>PT4862</name></trkpt>
<trkpt lat="52.043096" lon="05.807947"><ele>37.4</ele><time>2020-12-26T12:23:31Z</time><name>PT4863</name></trkpt>
<trkpt lat="52.043102" lon="05.807962"><ele>37.3</ele><time>2020-12-26T12:23:33Z</time><name>PT4864</name></trkpt>
<trkpt lat="52.043106" lon="05.807977"><ele>37.3</ele><time>2020-12-26T12:23:34Z</time><name>PT4865</name></trkpt>
<trkpt lat="52.043113" lon="05.807993"><ele>37.5</ele><time>2020-12-26T12:23:34Z</time><name>PT4866</name></trkpt>
<trkpt lat="52.043121" lon="05.808001"><ele>37.4</ele><time>2020-12-26T12:23:36Z</time><name>PT4867</name></trkpt>
<trkpt lat="52.043126" lon="05.808013"><ele>37.5</ele><time>2020-12-26T12:23:37Z</time><name>PT4868</name></trkpt>
<trkpt lat="52.043130" lon="05.808023"><ele>37.6</ele><time>2020-12-26T12:23:37Z</time><name>PT4869</name></trkpt>
<trkpt lat="52.043131" lon="05.808032"><ele>37.4</ele><time>2020-12-26T12:23:39Z</time><name>PT4870</name></trkpt>
<trkpt lat="52.043135" lon="05.808036"><ele>37.4</ele><time>2020-12-26T12:23:40Z</time><name>PT4871</name></trkpt>
<trkpt lat="52.043139" lon="05.808038"><ele>37.4</ele><time>2020-12-26T12:23:40Z</time><name>PT4872</name></trkpt>
<trkpt lat="52.043141" lon="05.808039"><ele>37.4</ele><time>2020-12-26T12:23:42Z</time><name>PT4873</name></trkpt>
<trkpt lat="52.043135" lon="05.808070"><ele>37.9</ele><time>2020-12-26T12:23:49Z</time><name>PT4874</name></trkpt>
<trkpt lat="52.043140" lon="05.808097"><ele>37.9</ele><time>2020-12-26T12:23:49Z</time><name>PT4875</name></trkpt>
<trkpt lat="52.043150" lon="05.808123"><ele>37.9</ele><time>2020-12-26T12:23:51Z</time><name>PT4876</name></trkpt>
<trkpt lat="52.043157" lon="05.808140"><ele>37.8</ele><time>2020-12-26T12:23:52Z</time><name>PT4877</name></trkpt>
<trkpt lat="52.043158" lon="05.808157"><ele>37.7</ele><time>2020-12-26T12:23:52Z</time><name>PT4878</name></trkpt>
<trkpt lat="52.043164" lon="05.808172"><ele>37.6</ele><time>2020-12-26T12:23:54Z</time><name>PT4879</name></trkpt>
<trkpt lat="52.043173" lon="05.808189"><ele>37.5</ele><time>2020-12-26T12:23:55Z</time><name>PT4880</name></trkpt>
<trkpt lat="52.043179" lon="05.808205"><ele>37.5</ele><time>2020-12-26T12:23:55Z</time><name>PT4881</name></trkpt>
<trkpt lat="52.043186" lon="05.808218"><ele>37.8</ele><time>2020-12-26T12:23:57Z</time><name>PT4882</name></trkpt>
<trkpt lat="52.043191" lon="05.808236"><ele>37.6</ele><time>2020-12-26T12:23:58Z</time><name>PT4883</name></trkpt>
<trkpt lat="52.043198" lon="05.808255"><ele>37.9</ele><time>2020-12-26T12:23:58Z</time><name>PT4884</name></trkpt>
<trkpt lat="52.043203" lon="05.808269"><ele>37.8</ele><time>2020-12-26T12:24:00Z</time><name>PT4885</name></trkpt>
<trkpt lat="52.043208" lon="05.808281"><ele>37.9</ele><time>2020-12-26T12:24:01Z</time><name>PT4886</name></trkpt>
<trkpt lat="52.043216" lon="05.808293"><ele>37.9</ele><time>2020-12-26T12:24:01Z</time><name>PT4887</name></trkpt>
<trkpt lat="52.043220" lon="05.808306"><ele>38</ele><time>2020-12-26T12:24:03Z</time><name>PT4888</name></trkpt>
<trkpt lat="52.043224" lon="05.808318"><ele>37.9</ele><time>2020-12-26T12:24:04Z</time><name>PT4889</name></trkpt>
<trkpt lat="52.043226" lon="05.808326"><ele>38</ele><time>2020-12-26T12:24:04Z</time><name>PT4890</name></trkpt>
<trkpt lat="52.043226" lon="05.808329"><ele>38.1</ele><time>2020-12-26T12:24:06Z</time><name>PT4891</name></trkpt>
<trkpt lat="52.043225" lon="05.808335"><ele>38.2</ele><time>2020-12-26T12:24:07Z</time><name>PT4892</name></trkpt>
<trkpt lat="52.043227" lon="05.808342"><ele>37.8</ele><time>2020-12-26T12:24:12Z</time><name>PT4893</name></trkpt>
<trkpt lat="52.043228" lon="05.808357"><ele>37.7</ele><time>2020-12-26T12:24:13Z</time><name>PT4894</name></trkpt>
<trkpt lat="52.043227" lon="05.808374"><ele>37.6</ele><time>2020-12-26T12:24:13Z</time><name>PT4895</name></trkpt>
<trkpt lat="52.043225" lon="05.808393"><ele>37.8</ele><time>2020-12-26T12:24:15Z</time><name>PT4896</name></trkpt>
<trkpt lat="52.043222" lon="05.808414"><ele>37.8</ele><time>2020-12-26T12:24:16Z</time><name>PT4897</name></trkpt>
<trkpt lat="52.043217" lon="05.808433"><ele>37.9</ele><time>2020-12-26T12:24:16Z</time><name>PT4898</name></trkpt>
<trkpt lat="52.043211" lon="05.808449"><ele>38</ele><time>2020-12-26T12:24:18Z</time><name>PT4899</name></trkpt>
<trkpt lat="52.043201" lon="05.808457"><ele>38.1</ele><time>2020-12-26T12:24:19Z</time><name>PT4900</name></trkpt>
<trkpt lat="52.043192" lon="05.808462"><ele>37.9</ele><time>2020-12-26T12:24:19Z</time><name>PT4901</name></trkpt>
<trkpt lat="52.043185" lon="05.808469"><ele>37.9</ele><time>2020-12-26T12:24:21Z</time><name>PT4902</name></trkpt>
<trkpt lat="52.043182" lon="05.808473"><ele>38</ele><time>2020-12-26T12:24:22Z</time><name>PT4903</name></trkpt>
<trkpt lat="52.043182" lon="05.808474"><ele>37.9</ele><time>2020-12-26T12:24:22Z</time><name>PT4904</name></trkpt>
<trkpt lat="52.043181" lon="05.808471"><ele>37.9</ele><time>2020-12-26T12:24:24Z</time><name>PT4905</name></trkpt>
<trkpt lat="52.043177" lon="05.808471"><ele>37.9</ele><time>2020-12-26T12:24:25Z</time><name>PT4906</name></trkpt>
<trkpt lat="52.043174" lon="05.808477"><ele>37.9</ele><time>2020-12-26T12:24:25Z</time><name>PT4907</name></trkpt>
<trkpt lat="52.043169" lon="05.808480"><ele>37.9</ele><time>2020-12-26T12:24:27Z</time><name>PT4908</name></trkpt>
<trkpt lat="52.043164" lon="05.808486"><ele>38</ele><time>2020-12-26T12:24:28Z</time><name>PT4909</name></trkpt>
<trkpt lat="52.043159" lon="05.808485"><ele>37.9</ele><time>2020-12-26T12:24:28Z</time><name>PT4910</name></trkpt>
<trkpt lat="52.043155" lon="05.808485"><ele>37.9</ele><time>2020-12-26T12:24:30Z</time><name>PT4911</name></trkpt>
<trkpt lat="52.043154" lon="05.808484"><ele>37.9</ele><time>2020-12-26T12:24:31Z</time><name>PT4912</name></trkpt>
<trkpt lat="52.043153" lon="05.808487"><ele>37.9</ele><time>2020-12-26T12:24:31Z</time><name>PT4913</name></trkpt>
<trkpt lat="52.043151" lon="05.808494"><ele>37.8</ele><time>2020-12-26T12:24:33Z</time><name>PT4914</name></trkpt>
<trkpt lat="52.043147" lon="05.808502"><ele>37.8</ele><time>2020-12-26T12:24:34Z</time><name>PT4915</name></trkpt>
<trkpt lat="52.043144" lon="05.808508"><ele>37.8</ele><time>2020-12-26T12:24:35Z</time><name>PT4916</name></trkpt>
<trkpt lat="52.043143" lon="05.808517"><ele>37.6</ele><time>2020-12-26T12:24:36Z</time><name>PT4917</name></trkpt>
<trkpt lat="52.043139" lon="05.808525"><ele>37.5</ele><time>2020-12-26T12:24:37Z</time><name>PT4918</name></trkpt>
<trkpt lat="52.043134" lon="05.808533"><ele>37.5</ele><time>2020-12-26T12:24:37Z</time><name>PT4919</name></trkpt>
<trkpt lat="52.043128" lon="05.808540"><ele>37.4</ele><time>2020-12-26T12:24:39Z</time><name>PT4920</name></trkpt>
<trkpt lat="52.043121" lon="05.808549"><ele>37.2</ele><time>2020-12-26T12:24:40Z</time><name>PT4921</name></trkpt>
<trkpt lat="52.043114" lon="05.808558"><ele>37</ele><time>2020-12-26T12:24:41Z</time><name>PT4922</name></trkpt>
<trkpt lat="52.043107" lon="05.808566"><ele>36.6</ele><time>2020-12-26T12:24:42Z</time><name>PT4923</name></trkpt>
<trkpt lat="52.043099" lon="05.808574"><ele>36.5</ele><time>2020-12-26T12:24:43Z</time><name>PT4924</name></trkpt>
<trkpt lat="52.043091" lon="05.808580"><ele>36.6</ele><time>2020-12-26T12:24:43Z</time><name>PT4925</name></trkpt>
<trkpt lat="52.043082" lon="05.808586"><ele>36.7</ele><time>2020-12-26T12:24:45Z</time><name>PT4926</name></trkpt>
<trkpt lat="52.043072" lon="05.808591"><ele>38</ele><time>2020-12-26T12:24:46Z</time><name>PT4927</name></trkpt>
<trkpt lat="52.043064" lon="05.808596"><ele>38.7</ele><time>2020-12-26T12:24:46Z</time><name>PT4928</name></trkpt>
<trkpt lat="52.043055" lon="05.808604"><ele>38.5</ele><time>2020-12-26T12:24:48Z</time><name>PT4929</name></trkpt>
<trkpt lat="52.043047" lon="05.808611"><ele>38.6</ele><time>2020-12-26T12:24:49Z</time><name>PT4930</name></trkpt>
<trkpt lat="52.043038" lon="05.808617"><ele>38.4</ele><time>2020-12-26T12:24:49Z</time><name>PT4931</name></trkpt>
<trkpt lat="52.043027" lon="05.808623"><ele>38.1</ele><time>2020-12-26T12:24:51Z</time><name>PT4932</name></trkpt>
<trkpt lat="52.043018" lon="05.808629"><ele>38.2</ele><time>2020-12-26T12:24:52Z</time><name>PT4933</name></trkpt>
<trkpt lat="52.043009" lon="05.808637"><ele>38.2</ele><time>2020-12-26T12:24:52Z</time><name>PT4934</name></trkpt>
<trkpt lat="52.043001" lon="05.808644"><ele>38.2</ele><time>2020-12-26T12:24:54Z</time><name>PT4935</name></trkpt>
<trkpt lat="52.042990" lon="05.808651"><ele>38.2</ele><time>2020-12-26T12:24:55Z</time><name>PT4936</name></trkpt>
<trkpt lat="52.042980" lon="05.808654"><ele>37.9</ele><time>2020-12-26T12:24:55Z</time><name>PT4937</name></trkpt>
<trkpt lat="52.042970" lon="05.808658"><ele>37.7</ele><time>2020-12-26T12:24:57Z</time><name>PT4938</name></trkpt>
<trkpt lat="52.042960" lon="05.808667"><ele>37.4</ele><time>2020-12-26T12:24:58Z</time><name>PT4939</name></trkpt>
<trkpt lat="52.042951" lon="05.808677"><ele>37.5</ele><time>2020-12-26T12:24:58Z</time><name>PT4940</name></trkpt>
<trkpt lat="52.042941" lon="05.808684"><ele>37.5</ele><time>2020-12-26T12:25:00Z</time><name>PT4941</name></trkpt>
<trkpt lat="52.042931" lon="05.808689"><ele>37.5</ele><time>2020-12-26T12:25:01Z</time><name>PT4942</name></trkpt>
<trkpt lat="52.042921" lon="05.808695"><ele>37.5</ele><time>2020-12-26T12:25:01Z</time><name>PT4943</name></trkpt>
<trkpt lat="52.042912" lon="05.808702"><ele>37.5</ele><time>2020-12-26T12:25:03Z</time><name>PT4944</name></trkpt>
<trkpt lat="52.042902" lon="05.808711"><ele>37.4</ele><time>2020-12-26T12:25:04Z</time><name>PT4945</name></trkpt>
<trkpt lat="52.042894" lon="05.808719"><ele>37.4</ele><time>2020-12-26T12:25:04Z</time><name>PT4946</name></trkpt>
<trkpt lat="52.042884" lon="05.808726"><ele>37.4</ele><time>2020-12-26T12:25:06Z</time><name>PT4947</name></trkpt>
<trkpt lat="52.042874" lon="05.808730"><ele>37.4</ele><time>2020-12-26T12:25:07Z</time><name>PT4948</name></trkpt>
<trkpt lat="52.042864" lon="05.808733"><ele>37.3</ele><time>2020-12-26T12:25:07Z</time><name>PT4949</name></trkpt>
<trkpt lat="52.042855" lon="05.808738"><ele>37.5</ele><time>2020-12-26T12:25:09Z</time><name>PT4950</name></trkpt>
<trkpt lat="52.042847" lon="05.808744"><ele>37.6</ele><time>2020-12-26T12:25:10Z</time><name>PT4951</name></trkpt>
<trkpt lat="52.042839" lon="05.808750"><ele>37.6</ele><time>2020-12-26T12:25:10Z</time><name>PT4952</name></trkpt></trkseg></trk></gpx>